<?xml version="1.0" encoding="UTF-8" standalone="no" ?>
<gpx xmlns="http://www.topografix.com/GPX/1/1" xmlns:xsi="http://www.w3.org/2001/XMLSchema-instance" xsi:schemaLocation="http://www.topografix.com/GPX/1/1 http://www.topografix.com/GPX/1/1/gpx.xsd" version="1.1" creator="VisuGPX - https://www.visugpx.com">
  <metadata>
    <name>Arbas</name>
    <desc><![CDATA[Troisième vol de la saison 2014 sur Arbas avec des conditions magnifiques. Deux pilotes sont allés jusqu'au Cagire ce jour là. 
De mon côté ça doit être la seconde fois que je vais jusqu'à Soulan et Lahusse c'était vraiment super. Paysage de la chaîne des pyrénées enneigée magnifique. Par contre c'est dommage je volais avec Vincent M. mais nous ne nous sommes pas compris par radio et je l'ai quitté alors que j'aurais pu continuer le vol avec lui une heure de plus en allant vers cornudère. Tant pis ce sera pour la prochaine fois. Magnifique journée. J'espère que la météo continuera à être favorable pour la suite de la saison.
]]></desc>
  </metadata>
  <trk>
    <name><![CDATA[14031401]]></name>
    <trkseg>
      <trkpt lat="42.97016" lon="0.88617">
        <ele>1124.594</ele>
        <time>2014-03-14T11:41:27Z</time>
      </trkpt>
      <trkpt lat="42.97019" lon="0.88623">
        <ele>1124.998</ele>
        <time>2014-03-14T11:41:28Z</time>
      </trkpt>
      <trkpt lat="42.97021" lon="0.88628">
        <ele>1124.923</ele>
        <time>2014-03-14T11:41:29Z</time>
      </trkpt>
      <trkpt lat="42.97025" lon="0.88634">
        <ele>1123.988</ele>
        <time>2014-03-14T11:41:30Z</time>
      </trkpt>
      <trkpt lat="42.97029" lon="0.88641">
        <ele>1122.706</ele>
        <time>2014-03-14T11:41:31Z</time>
      </trkpt>
      <trkpt lat="42.97033" lon="0.88647">
        <ele>1121.653</ele>
        <time>2014-03-14T11:41:32Z</time>
      </trkpt>
      <trkpt lat="42.97037" lon="0.88653">
        <ele>1120.963</ele>
        <time>2014-03-14T11:41:33Z</time>
      </trkpt>
      <trkpt lat="42.9704" lon="0.88659">
        <ele>1120.571</ele>
        <time>2014-03-14T11:41:34Z</time>
      </trkpt>
      <trkpt lat="42.97044" lon="0.88665">
        <ele>1120.173</ele>
        <time>2014-03-14T11:41:35Z</time>
      </trkpt>
      <trkpt lat="42.97048" lon="0.88671">
        <ele>1119.743</ele>
        <time>2014-03-14T11:41:36Z</time>
      </trkpt>
      <trkpt lat="42.97052" lon="0.88676">
        <ele>1119.593</ele>
        <time>2014-03-14T11:41:37Z</time>
      </trkpt>
      <trkpt lat="42.97056" lon="0.88682">
        <ele>1119.83</ele>
        <time>2014-03-14T11:41:38Z</time>
      </trkpt>
      <trkpt lat="42.97059" lon="0.88686">
        <ele>1120.284</ele>
        <time>2014-03-14T11:41:39Z</time>
      </trkpt>
      <trkpt lat="42.97065" lon="0.88694">
        <ele>1120.665</ele>
        <time>2014-03-14T11:41:41Z</time>
      </trkpt>
      <trkpt lat="42.9707" lon="0.88696">
        <ele>1120.617</ele>
        <time>2014-03-14T11:41:42Z</time>
      </trkpt>
      <trkpt lat="42.97076" lon="0.88698">
        <ele>1120.34</ele>
        <time>2014-03-14T11:41:43Z</time>
      </trkpt>
      <trkpt lat="42.97083" lon="0.88699">
        <ele>1120.181</ele>
        <time>2014-03-14T11:41:44Z</time>
      </trkpt>
      <trkpt lat="42.97089" lon="0.887">
        <ele>1120.746</ele>
        <time>2014-03-14T11:41:45Z</time>
      </trkpt>
      <trkpt lat="42.97094" lon="0.88701">
        <ele>1121.424</ele>
        <time>2014-03-14T11:41:46Z</time>
      </trkpt>
      <trkpt lat="42.97097" lon="0.88704">
        <ele>1121.749</ele>
        <time>2014-03-14T11:41:47Z</time>
      </trkpt>
      <trkpt lat="42.971" lon="0.88705">
        <ele>1121.357</ele>
        <time>2014-03-14T11:41:48Z</time>
      </trkpt>
      <trkpt lat="42.97104" lon="0.88708">
        <ele>1120.496</ele>
        <time>2014-03-14T11:41:49Z</time>
      </trkpt>
      <trkpt lat="42.9711" lon="0.88712">
        <ele>1120.11</ele>
        <time>2014-03-14T11:41:50Z</time>
      </trkpt>
      <trkpt lat="42.97116" lon="0.88714">
        <ele>1120.455</ele>
        <time>2014-03-14T11:41:51Z</time>
      </trkpt>
      <trkpt lat="42.97121" lon="0.88718">
        <ele>1121.1</ele>
        <time>2014-03-14T11:41:52Z</time>
      </trkpt>
      <trkpt lat="42.97125" lon="0.88721">
        <ele>1121.408</ele>
        <time>2014-03-14T11:41:53Z</time>
      </trkpt>
      <trkpt lat="42.97128" lon="0.88725">
        <ele>1121.186</ele>
        <time>2014-03-14T11:41:54Z</time>
      </trkpt>
      <trkpt lat="42.97138" lon="0.88731">
        <ele>1120.609</ele>
        <time>2014-03-14T11:41:56Z</time>
      </trkpt>
      <trkpt lat="42.97143" lon="0.88733">
        <ele>1120.13</ele>
        <time>2014-03-14T11:41:57Z</time>
      </trkpt>
      <trkpt lat="42.97148" lon="0.88735">
        <ele>1120.328</ele>
        <time>2014-03-14T11:41:58Z</time>
      </trkpt>
      <trkpt lat="42.97152" lon="0.88737">
        <ele>1120.754</ele>
        <time>2014-03-14T11:41:59Z</time>
      </trkpt>
      <trkpt lat="42.97155" lon="0.88741">
        <ele>1121.141</ele>
        <time>2014-03-14T11:42:00Z</time>
      </trkpt>
      <trkpt lat="42.97158" lon="0.88745">
        <ele>1121.07</ele>
        <time>2014-03-14T11:42:01Z</time>
      </trkpt>
      <trkpt lat="42.97162" lon="0.88749">
        <ele>1120.641</ele>
        <time>2014-03-14T11:42:02Z</time>
      </trkpt>
      <trkpt lat="42.97166" lon="0.88752">
        <ele>1120.279</ele>
        <time>2014-03-14T11:42:03Z</time>
      </trkpt>
      <trkpt lat="42.97171" lon="0.88756">
        <ele>1120.439</ele>
        <time>2014-03-14T11:42:04Z</time>
      </trkpt>
      <trkpt lat="42.97177" lon="0.88759">
        <ele>1120.961</ele>
        <time>2014-03-14T11:42:05Z</time>
      </trkpt>
      <trkpt lat="42.97181" lon="0.88761">
        <ele>1121.392</ele>
        <time>2014-03-14T11:42:06Z</time>
      </trkpt>
      <trkpt lat="42.97186" lon="0.88763">
        <ele>1121.54</ele>
        <time>2014-03-14T11:42:07Z</time>
      </trkpt>
      <trkpt lat="42.97193" lon="0.88769">
        <ele>1121.185</ele>
        <time>2014-03-14T11:42:09Z</time>
      </trkpt>
      <trkpt lat="42.97193" lon="0.88769">
        <ele>1120.656</ele>
        <time>2014-03-14T11:42:09Z</time>
      </trkpt>
      <trkpt lat="42.972" lon="0.88779">
        <ele>1120.332</ele>
        <time>2014-03-14T11:42:11Z</time>
      </trkpt>
      <trkpt lat="42.97203" lon="0.88784">
        <ele>1120.518</ele>
        <time>2014-03-14T11:42:12Z</time>
      </trkpt>
      <trkpt lat="42.97206" lon="0.88789">
        <ele>1121.008</ele>
        <time>2014-03-14T11:42:13Z</time>
      </trkpt>
      <trkpt lat="42.97208" lon="0.88795">
        <ele>1121.316</ele>
        <time>2014-03-14T11:42:14Z</time>
      </trkpt>
      <trkpt lat="42.97209" lon="0.88802">
        <ele>1121.402</ele>
        <time>2014-03-14T11:42:15Z</time>
      </trkpt>
      <trkpt lat="42.9721" lon="0.8881">
        <ele>1121.368</ele>
        <time>2014-03-14T11:42:16Z</time>
      </trkpt>
      <trkpt lat="42.97211" lon="0.88819">
        <ele>1121.543</ele>
        <time>2014-03-14T11:42:17Z</time>
      </trkpt>
      <trkpt lat="42.9721" lon="0.88828">
        <ele>1121.908</ele>
        <time>2014-03-14T11:42:18Z</time>
      </trkpt>
      <trkpt lat="42.97208" lon="0.88837">
        <ele>1122.402</ele>
        <time>2014-03-14T11:42:19Z</time>
      </trkpt>
      <trkpt lat="42.972" lon="0.88854">
        <ele>1122.896</ele>
        <time>2014-03-14T11:42:21Z</time>
      </trkpt>
      <trkpt lat="42.97195" lon="0.88861">
        <ele>1123.266</ele>
        <time>2014-03-14T11:42:22Z</time>
      </trkpt>
      <trkpt lat="42.97189" lon="0.88866">
        <ele>1123.292</ele>
        <time>2014-03-14T11:42:23Z</time>
      </trkpt>
      <trkpt lat="42.97183" lon="0.88871">
        <ele>1122.508</ele>
        <time>2014-03-14T11:42:24Z</time>
      </trkpt>
      <trkpt lat="42.97176" lon="0.88874">
        <ele>1120.947</ele>
        <time>2014-03-14T11:42:25Z</time>
      </trkpt>
      <trkpt lat="42.97169" lon="0.88874">
        <ele>1118.465</ele>
        <time>2014-03-14T11:42:26Z</time>
      </trkpt>
      <trkpt lat="42.97161" lon="0.88871">
        <ele>1115.188</ele>
        <time>2014-03-14T11:42:27Z</time>
      </trkpt>
      <trkpt lat="42.97152" lon="0.88866">
        <ele>1111.991</ele>
        <time>2014-03-14T11:42:28Z</time>
      </trkpt>
      <trkpt lat="42.97145" lon="0.8886">
        <ele>1109.257</ele>
        <time>2014-03-14T11:42:29Z</time>
      </trkpt>
      <trkpt lat="42.97141" lon="0.8885">
        <ele>1106.325</ele>
        <time>2014-03-14T11:42:30Z</time>
      </trkpt>
      <trkpt lat="42.97141" lon="0.88838">
        <ele>1103.445</ele>
        <time>2014-03-14T11:42:31Z</time>
      </trkpt>
      <trkpt lat="42.97145" lon="0.88827">
        <ele>1101.517</ele>
        <time>2014-03-14T11:42:32Z</time>
      </trkpt>
      <trkpt lat="42.97152" lon="0.88807">
        <ele>1101.096</ele>
        <time>2014-03-14T11:42:34Z</time>
      </trkpt>
      <trkpt lat="42.97152" lon="0.88807">
        <ele>1102.705</ele>
        <time>2014-03-14T11:42:34Z</time>
      </trkpt>
      <trkpt lat="42.97161" lon="0.88792">
        <ele>1104.255</ele>
        <time>2014-03-14T11:42:36Z</time>
      </trkpt>
      <trkpt lat="42.97165" lon="0.88785">
        <ele>1105.702</ele>
        <time>2014-03-14T11:42:37Z</time>
      </trkpt>
      <trkpt lat="42.9717" lon="0.88778">
        <ele>1106.553</ele>
        <time>2014-03-14T11:42:38Z</time>
      </trkpt>
      <trkpt lat="42.97175" lon="0.88771">
        <ele>1107.503</ele>
        <time>2014-03-14T11:42:39Z</time>
      </trkpt>
      <trkpt lat="42.97179" lon="0.88766">
        <ele>1108.97</ele>
        <time>2014-03-14T11:42:40Z</time>
      </trkpt>
      <trkpt lat="42.97182" lon="0.88761">
        <ele>1110.459</ele>
        <time>2014-03-14T11:42:41Z</time>
      </trkpt>
      <trkpt lat="42.97184" lon="0.88757">
        <ele>1110.88</ele>
        <time>2014-03-14T11:42:42Z</time>
      </trkpt>
      <trkpt lat="42.97187" lon="0.88753">
        <ele>1110.307</ele>
        <time>2014-03-14T11:42:43Z</time>
      </trkpt>
      <trkpt lat="42.9719" lon="0.8875">
        <ele>1108.872</ele>
        <time>2014-03-14T11:42:44Z</time>
      </trkpt>
      <trkpt lat="42.97198" lon="0.88745">
        <ele>1107.012</ele>
        <time>2014-03-14T11:42:46Z</time>
      </trkpt>
      <trkpt lat="42.97203" lon="0.88745">
        <ele>1104.856</ele>
        <time>2014-03-14T11:42:47Z</time>
      </trkpt>
      <trkpt lat="42.97208" lon="0.88748">
        <ele>1102.78</ele>
        <time>2014-03-14T11:42:48Z</time>
      </trkpt>
      <trkpt lat="42.97211" lon="0.88753">
        <ele>1101.551</ele>
        <time>2014-03-14T11:42:49Z</time>
      </trkpt>
      <trkpt lat="42.97213" lon="0.8876">
        <ele>1100.713</ele>
        <time>2014-03-14T11:42:50Z</time>
      </trkpt>
      <trkpt lat="42.97214" lon="0.88768">
        <ele>1100.181</ele>
        <time>2014-03-14T11:42:51Z</time>
      </trkpt>
      <trkpt lat="42.97216" lon="0.88775">
        <ele>1099.975</ele>
        <time>2014-03-14T11:42:52Z</time>
      </trkpt>
      <trkpt lat="42.97216" lon="0.88784">
        <ele>1100.292</ele>
        <time>2014-03-14T11:42:53Z</time>
      </trkpt>
      <trkpt lat="42.97215" lon="0.88793">
        <ele>1101.517</ele>
        <time>2014-03-14T11:42:54Z</time>
      </trkpt>
      <trkpt lat="42.97211" lon="0.888">
        <ele>1103.235</ele>
        <time>2014-03-14T11:42:55Z</time>
      </trkpt>
      <trkpt lat="42.97206" lon="0.88805">
        <ele>1105.409</ele>
        <time>2014-03-14T11:42:56Z</time>
      </trkpt>
      <trkpt lat="42.972" lon="0.88809">
        <ele>1107.229</ele>
        <time>2014-03-14T11:42:57Z</time>
      </trkpt>
      <trkpt lat="42.97187" lon="0.8881">
        <ele>1108.63</ele>
        <time>2014-03-14T11:42:59Z</time>
      </trkpt>
      <trkpt lat="42.97187" lon="0.8881">
        <ele>1109.259</ele>
        <time>2014-03-14T11:42:59Z</time>
      </trkpt>
      <trkpt lat="42.97175" lon="0.88799">
        <ele>1109.499</ele>
        <time>2014-03-14T11:43:01Z</time>
      </trkpt>
      <trkpt lat="42.97173" lon="0.8879">
        <ele>1109.382</ele>
        <time>2014-03-14T11:43:02Z</time>
      </trkpt>
      <trkpt lat="42.97175" lon="0.8878">
        <ele>1108.899</ele>
        <time>2014-03-14T11:43:03Z</time>
      </trkpt>
      <trkpt lat="42.97181" lon="0.88774">
        <ele>1108.67</ele>
        <time>2014-03-14T11:43:04Z</time>
      </trkpt>
      <trkpt lat="42.97187" lon="0.88771">
        <ele>1109.456</ele>
        <time>2014-03-14T11:43:05Z</time>
      </trkpt>
      <trkpt lat="42.97191" lon="0.8877">
        <ele>1110.762</ele>
        <time>2014-03-14T11:43:06Z</time>
      </trkpt>
      <trkpt lat="42.97195" lon="0.8877">
        <ele>1111.87</ele>
        <time>2014-03-14T11:43:07Z</time>
      </trkpt>
      <trkpt lat="42.97199" lon="0.8877">
        <ele>1112.633</ele>
        <time>2014-03-14T11:43:08Z</time>
      </trkpt>
      <trkpt lat="42.97205" lon="0.8877">
        <ele>1113.044</ele>
        <time>2014-03-14T11:43:09Z</time>
      </trkpt>
      <trkpt lat="42.97217" lon="0.88775">
        <ele>1113.773</ele>
        <time>2014-03-14T11:43:11Z</time>
      </trkpt>
      <trkpt lat="42.97222" lon="0.8878">
        <ele>1114.735</ele>
        <time>2014-03-14T11:43:12Z</time>
      </trkpt>
      <trkpt lat="42.97225" lon="0.88788">
        <ele>1116.024</ele>
        <time>2014-03-14T11:43:13Z</time>
      </trkpt>
      <trkpt lat="42.97227" lon="0.88797">
        <ele>1117.415</ele>
        <time>2014-03-14T11:43:14Z</time>
      </trkpt>
      <trkpt lat="42.97226" lon="0.88808">
        <ele>1119.128</ele>
        <time>2014-03-14T11:43:15Z</time>
      </trkpt>
      <trkpt lat="42.97222" lon="0.88817">
        <ele>1120.579</ele>
        <time>2014-03-14T11:43:16Z</time>
      </trkpt>
      <trkpt lat="42.97216" lon="0.88822">
        <ele>1121.701</ele>
        <time>2014-03-14T11:43:17Z</time>
      </trkpt>
      <trkpt lat="42.97208" lon="0.88823">
        <ele>1122.615</ele>
        <time>2014-03-14T11:43:18Z</time>
      </trkpt>
      <trkpt lat="42.972" lon="0.88821">
        <ele>1123.368</ele>
        <time>2014-03-14T11:43:19Z</time>
      </trkpt>
      <trkpt lat="42.97192" lon="0.88817">
        <ele>1123.693</ele>
        <time>2014-03-14T11:43:20Z</time>
      </trkpt>
      <trkpt lat="42.97186" lon="0.88811">
        <ele>1123.401</ele>
        <time>2014-03-14T11:43:21Z</time>
      </trkpt>
      <trkpt lat="42.97181" lon="0.88801">
        <ele>1122.959</ele>
        <time>2014-03-14T11:43:22Z</time>
      </trkpt>
      <trkpt lat="42.9718" lon="0.88789">
        <ele>1122.865</ele>
        <time>2014-03-14T11:43:23Z</time>
      </trkpt>
      <trkpt lat="42.97182" lon="0.88778">
        <ele>1123.28</ele>
        <time>2014-03-14T11:43:24Z</time>
      </trkpt>
      <trkpt lat="42.97187" lon="0.88771">
        <ele>1123.899</ele>
        <time>2014-03-14T11:43:25Z</time>
      </trkpt>
      <trkpt lat="42.97202" lon="0.88773">
        <ele>1124.651</ele>
        <time>2014-03-14T11:43:27Z</time>
      </trkpt>
      <trkpt lat="42.97207" lon="0.88778">
        <ele>1125.524</ele>
        <time>2014-03-14T11:43:28Z</time>
      </trkpt>
      <trkpt lat="42.97211" lon="0.88784">
        <ele>1126.896</ele>
        <time>2014-03-14T11:43:29Z</time>
      </trkpt>
      <trkpt lat="42.97214" lon="0.88791">
        <ele>1128.226</ele>
        <time>2014-03-14T11:43:30Z</time>
      </trkpt>
      <trkpt lat="42.97215" lon="0.88799">
        <ele>1129.367</ele>
        <time>2014-03-14T11:43:31Z</time>
      </trkpt>
      <trkpt lat="42.97215" lon="0.88808">
        <ele>1130.409</ele>
        <time>2014-03-14T11:43:32Z</time>
      </trkpt>
      <trkpt lat="42.97211" lon="0.88817">
        <ele>1131.716</ele>
        <time>2014-03-14T11:43:33Z</time>
      </trkpt>
      <trkpt lat="42.97206" lon="0.88822">
        <ele>1133.126</ele>
        <time>2014-03-14T11:43:34Z</time>
      </trkpt>
      <trkpt lat="42.97199" lon="0.88825">
        <ele>1134.395</ele>
        <time>2014-03-14T11:43:35Z</time>
      </trkpt>
      <trkpt lat="42.97192" lon="0.88826">
        <ele>1135.139</ele>
        <time>2014-03-14T11:43:36Z</time>
      </trkpt>
      <trkpt lat="42.97185" lon="0.88827">
        <ele>1134.886</ele>
        <time>2014-03-14T11:43:37Z</time>
      </trkpt>
      <trkpt lat="42.97179" lon="0.88831">
        <ele>1133.719</ele>
        <time>2014-03-14T11:43:38Z</time>
      </trkpt>
      <trkpt lat="42.97172" lon="0.88837">
        <ele>1132.364</ele>
        <time>2014-03-14T11:43:39Z</time>
      </trkpt>
      <trkpt lat="42.97158" lon="0.88846">
        <ele>1131.306</ele>
        <time>2014-03-14T11:43:41Z</time>
      </trkpt>
      <trkpt lat="42.97151" lon="0.88845">
        <ele>1130.127</ele>
        <time>2014-03-14T11:43:42Z</time>
      </trkpt>
      <trkpt lat="42.97145" lon="0.88842">
        <ele>1128.773</ele>
        <time>2014-03-14T11:43:43Z</time>
      </trkpt>
      <trkpt lat="42.97141" lon="0.88835">
        <ele>1126.935</ele>
        <time>2014-03-14T11:43:44Z</time>
      </trkpt>
      <trkpt lat="42.97138" lon="0.88826">
        <ele>1125.227</ele>
        <time>2014-03-14T11:43:45Z</time>
      </trkpt>
      <trkpt lat="42.97137" lon="0.88816">
        <ele>1123.567</ele>
        <time>2014-03-14T11:43:46Z</time>
      </trkpt>
      <trkpt lat="42.97139" lon="0.88805">
        <ele>1122.514</ele>
        <time>2014-03-14T11:43:47Z</time>
      </trkpt>
      <trkpt lat="42.97143" lon="0.88797">
        <ele>1122.034</ele>
        <time>2014-03-14T11:43:48Z</time>
      </trkpt>
      <trkpt lat="42.97148" lon="0.8879">
        <ele>1122.293</ele>
        <time>2014-03-14T11:43:49Z</time>
      </trkpt>
      <trkpt lat="42.97154" lon="0.88785">
        <ele>1122.806</ele>
        <time>2014-03-14T11:43:50Z</time>
      </trkpt>
      <trkpt lat="42.97161" lon="0.88783">
        <ele>1123.336</ele>
        <time>2014-03-14T11:43:51Z</time>
      </trkpt>
      <trkpt lat="42.97167" lon="0.8878">
        <ele>1124.27</ele>
        <time>2014-03-14T11:43:52Z</time>
      </trkpt>
      <trkpt lat="42.97173" lon="0.88778">
        <ele>1125.075</ele>
        <time>2014-03-14T11:43:53Z</time>
      </trkpt>
      <trkpt lat="42.9718" lon="0.88777">
        <ele>1126.046</ele>
        <time>2014-03-14T11:43:54Z</time>
      </trkpt>
      <trkpt lat="42.97192" lon="0.88784">
        <ele>1126.902</ele>
        <time>2014-03-14T11:43:56Z</time>
      </trkpt>
      <trkpt lat="42.97196" lon="0.8879">
        <ele>1127.866</ele>
        <time>2014-03-14T11:43:57Z</time>
      </trkpt>
      <trkpt lat="42.97199" lon="0.88796">
        <ele>1129.727</ele>
        <time>2014-03-14T11:43:58Z</time>
      </trkpt>
      <trkpt lat="42.97202" lon="0.88802">
        <ele>1131.199</ele>
        <time>2014-03-14T11:43:59Z</time>
      </trkpt>
      <trkpt lat="42.97203" lon="0.88811">
        <ele>1131.909</ele>
        <time>2014-03-14T11:44:00Z</time>
      </trkpt>
      <trkpt lat="42.97202" lon="0.8882">
        <ele>1132.192</ele>
        <time>2014-03-14T11:44:01Z</time>
      </trkpt>
      <trkpt lat="42.972" lon="0.88829">
        <ele>1132.336</ele>
        <time>2014-03-14T11:44:02Z</time>
      </trkpt>
      <trkpt lat="42.97195" lon="0.88835">
        <ele>1132.392</ele>
        <time>2014-03-14T11:44:03Z</time>
      </trkpt>
      <trkpt lat="42.9719" lon="0.88839">
        <ele>1132.459</ele>
        <time>2014-03-14T11:44:04Z</time>
      </trkpt>
      <trkpt lat="42.97183" lon="0.88841">
        <ele>1132.725</ele>
        <time>2014-03-14T11:44:05Z</time>
      </trkpt>
      <trkpt lat="42.97176" lon="0.8884">
        <ele>1132.959</ele>
        <time>2014-03-14T11:44:06Z</time>
      </trkpt>
      <trkpt lat="42.9717" lon="0.88837">
        <ele>1132.709</ele>
        <time>2014-03-14T11:44:07Z</time>
      </trkpt>
      <trkpt lat="42.97165" lon="0.8883">
        <ele>1132.025</ele>
        <time>2014-03-14T11:44:08Z</time>
      </trkpt>
      <trkpt lat="42.97162" lon="0.8882">
        <ele>1131.174</ele>
        <time>2014-03-14T11:44:09Z</time>
      </trkpt>
      <trkpt lat="42.97166" lon="0.88798">
        <ele>1130.894</ele>
        <time>2014-03-14T11:44:11Z</time>
      </trkpt>
      <trkpt lat="42.97171" lon="0.8879">
        <ele>1130.925</ele>
        <time>2014-03-14T11:44:12Z</time>
      </trkpt>
      <trkpt lat="42.97177" lon="0.88783">
        <ele>1131.136</ele>
        <time>2014-03-14T11:44:13Z</time>
      </trkpt>
      <trkpt lat="42.97184" lon="0.88779">
        <ele>1131.989</ele>
        <time>2014-03-14T11:44:14Z</time>
      </trkpt>
      <trkpt lat="42.97191" lon="0.88776">
        <ele>1133.347</ele>
        <time>2014-03-14T11:44:15Z</time>
      </trkpt>
      <trkpt lat="42.97197" lon="0.88776">
        <ele>1134.727</ele>
        <time>2014-03-14T11:44:16Z</time>
      </trkpt>
      <trkpt lat="42.97203" lon="0.88778">
        <ele>1135.914</ele>
        <time>2014-03-14T11:44:17Z</time>
      </trkpt>
      <trkpt lat="42.9721" lon="0.8878">
        <ele>1137.332</ele>
        <time>2014-03-14T11:44:18Z</time>
      </trkpt>
      <trkpt lat="42.97217" lon="0.88782">
        <ele>1138.744</ele>
        <time>2014-03-14T11:44:19Z</time>
      </trkpt>
      <trkpt lat="42.97223" lon="0.88784">
        <ele>1140.128</ele>
        <time>2014-03-14T11:44:20Z</time>
      </trkpt>
      <trkpt lat="42.97227" lon="0.88788">
        <ele>1141.656</ele>
        <time>2014-03-14T11:44:21Z</time>
      </trkpt>
      <trkpt lat="42.9723" lon="0.88793">
        <ele>1142.282</ele>
        <time>2014-03-14T11:44:22Z</time>
      </trkpt>
      <trkpt lat="42.97236" lon="0.8881">
        <ele>1142.329</ele>
        <time>2014-03-14T11:44:24Z</time>
      </trkpt>
      <trkpt lat="42.97236" lon="0.8881">
        <ele>1142.512</ele>
        <time>2014-03-14T11:44:24Z</time>
      </trkpt>
      <trkpt lat="42.97233" lon="0.88829">
        <ele>1143.367</ele>
        <time>2014-03-14T11:44:26Z</time>
      </trkpt>
      <trkpt lat="42.97228" lon="0.88837">
        <ele>1144.476</ele>
        <time>2014-03-14T11:44:27Z</time>
      </trkpt>
      <trkpt lat="42.97221" lon="0.88843">
        <ele>1145.642</ele>
        <time>2014-03-14T11:44:28Z</time>
      </trkpt>
      <trkpt lat="42.97213" lon="0.88845">
        <ele>1147.121</ele>
        <time>2014-03-14T11:44:29Z</time>
      </trkpt>
      <trkpt lat="42.97206" lon="0.88843">
        <ele>1147.979</ele>
        <time>2014-03-14T11:44:30Z</time>
      </trkpt>
      <trkpt lat="42.97201" lon="0.88836">
        <ele>1148.454</ele>
        <time>2014-03-14T11:44:31Z</time>
      </trkpt>
      <trkpt lat="42.97198" lon="0.88827">
        <ele>1148.859</ele>
        <time>2014-03-14T11:44:32Z</time>
      </trkpt>
      <trkpt lat="42.97196" lon="0.88817">
        <ele>1149.414</ele>
        <time>2014-03-14T11:44:33Z</time>
      </trkpt>
      <trkpt lat="42.97196" lon="0.88808">
        <ele>1149.704</ele>
        <time>2014-03-14T11:44:34Z</time>
      </trkpt>
      <trkpt lat="42.97198" lon="0.88799">
        <ele>1149.498</ele>
        <time>2014-03-14T11:44:35Z</time>
      </trkpt>
      <trkpt lat="42.97202" lon="0.88791">
        <ele>1149.381</ele>
        <time>2014-03-14T11:44:36Z</time>
      </trkpt>
      <trkpt lat="42.97217" lon="0.88782">
        <ele>1149.947</ele>
        <time>2014-03-14T11:44:38Z</time>
      </trkpt>
      <trkpt lat="42.97225" lon="0.88782">
        <ele>1151.376</ele>
        <time>2014-03-14T11:44:39Z</time>
      </trkpt>
      <trkpt lat="42.97225" lon="0.88782">
        <ele>1152.617</ele>
        <time>2014-03-14T11:44:39Z</time>
      </trkpt>
      <trkpt lat="42.97237" lon="0.88786">
        <ele>1153.585</ele>
        <time>2014-03-14T11:44:41Z</time>
      </trkpt>
      <trkpt lat="42.9724" lon="0.8879">
        <ele>1154.054</ele>
        <time>2014-03-14T11:44:42Z</time>
      </trkpt>
      <trkpt lat="42.97243" lon="0.88795">
        <ele>1153.825</ele>
        <time>2014-03-14T11:44:43Z</time>
      </trkpt>
      <trkpt lat="42.97246" lon="0.88802">
        <ele>1153.343</ele>
        <time>2014-03-14T11:44:44Z</time>
      </trkpt>
      <trkpt lat="42.97248" lon="0.88811">
        <ele>1152.944</ele>
        <time>2014-03-14T11:44:45Z</time>
      </trkpt>
      <trkpt lat="42.97247" lon="0.88821">
        <ele>1152.401</ele>
        <time>2014-03-14T11:44:46Z</time>
      </trkpt>
      <trkpt lat="42.97244" lon="0.88832">
        <ele>1151.884</ele>
        <time>2014-03-14T11:44:47Z</time>
      </trkpt>
      <trkpt lat="42.97238" lon="0.88841">
        <ele>1151.698</ele>
        <time>2014-03-14T11:44:48Z</time>
      </trkpt>
      <trkpt lat="42.97231" lon="0.88848">
        <ele>1151.953</ele>
        <time>2014-03-14T11:44:49Z</time>
      </trkpt>
      <trkpt lat="42.97221" lon="0.88853">
        <ele>1152.23</ele>
        <time>2014-03-14T11:44:50Z</time>
      </trkpt>
      <trkpt lat="42.97212" lon="0.88853">
        <ele>1152.348</ele>
        <time>2014-03-14T11:44:51Z</time>
      </trkpt>
      <trkpt lat="42.97195" lon="0.88844">
        <ele>1152.391</ele>
        <time>2014-03-14T11:44:53Z</time>
      </trkpt>
      <trkpt lat="42.97189" lon="0.88836">
        <ele>1152.231</ele>
        <time>2014-03-14T11:44:54Z</time>
      </trkpt>
      <trkpt lat="42.97189" lon="0.88836">
        <ele>1151.863</ele>
        <time>2014-03-14T11:44:54Z</time>
      </trkpt>
      <trkpt lat="42.97185" lon="0.88817">
        <ele>1151.287</ele>
        <time>2014-03-14T11:44:56Z</time>
      </trkpt>
      <trkpt lat="42.97186" lon="0.88807">
        <ele>1150.869</ele>
        <time>2014-03-14T11:44:57Z</time>
      </trkpt>
      <trkpt lat="42.97188" lon="0.88799">
        <ele>1150.767</ele>
        <time>2014-03-14T11:44:58Z</time>
      </trkpt>
      <trkpt lat="42.9719" lon="0.88793">
        <ele>1150.69</ele>
        <time>2014-03-14T11:44:59Z</time>
      </trkpt>
      <trkpt lat="42.97193" lon="0.88788">
        <ele>1150.35</ele>
        <time>2014-03-14T11:45:00Z</time>
      </trkpt>
      <trkpt lat="42.97196" lon="0.88784">
        <ele>1149.726</ele>
        <time>2014-03-14T11:45:01Z</time>
      </trkpt>
      <trkpt lat="42.97201" lon="0.88781">
        <ele>1149.035</ele>
        <time>2014-03-14T11:45:02Z</time>
      </trkpt>
      <trkpt lat="42.97205" lon="0.8878">
        <ele>1148.481</ele>
        <time>2014-03-14T11:45:03Z</time>
      </trkpt>
      <trkpt lat="42.9721" lon="0.88782">
        <ele>1147.984</ele>
        <time>2014-03-14T11:45:04Z</time>
      </trkpt>
      <trkpt lat="42.97214" lon="0.88785">
        <ele>1147.73</ele>
        <time>2014-03-14T11:45:05Z</time>
      </trkpt>
      <trkpt lat="42.97221" lon="0.88791">
        <ele>1147.843</ele>
        <time>2014-03-14T11:45:07Z</time>
      </trkpt>
      <trkpt lat="42.97226" lon="0.88792">
        <ele>1148.203</ele>
        <time>2014-03-14T11:45:08Z</time>
      </trkpt>
      <trkpt lat="42.97231" lon="0.88794">
        <ele>1148.869</ele>
        <time>2014-03-14T11:45:09Z</time>
      </trkpt>
      <trkpt lat="42.97237" lon="0.88795">
        <ele>1149.689</ele>
        <time>2014-03-14T11:45:10Z</time>
      </trkpt>
      <trkpt lat="42.97242" lon="0.88797">
        <ele>1150.623</ele>
        <time>2014-03-14T11:45:11Z</time>
      </trkpt>
      <trkpt lat="42.97247" lon="0.88798">
        <ele>1151.707</ele>
        <time>2014-03-14T11:45:12Z</time>
      </trkpt>
      <trkpt lat="42.97252" lon="0.88799">
        <ele>1152.156</ele>
        <time>2014-03-14T11:45:13Z</time>
      </trkpt>
      <trkpt lat="42.97256" lon="0.888">
        <ele>1151.472</ele>
        <time>2014-03-14T11:45:14Z</time>
      </trkpt>
      <trkpt lat="42.97261" lon="0.88802">
        <ele>1150.217</ele>
        <time>2014-03-14T11:45:15Z</time>
      </trkpt>
      <trkpt lat="42.97266" lon="0.88806">
        <ele>1148.517</ele>
        <time>2014-03-14T11:45:16Z</time>
      </trkpt>
      <trkpt lat="42.97271" lon="0.88812">
        <ele>1146.754</ele>
        <time>2014-03-14T11:45:17Z</time>
      </trkpt>
      <trkpt lat="42.97273" lon="0.8882">
        <ele>1145.381</ele>
        <time>2014-03-14T11:45:18Z</time>
      </trkpt>
      <trkpt lat="42.97273" lon="0.88829">
        <ele>1144.568</ele>
        <time>2014-03-14T11:45:19Z</time>
      </trkpt>
      <trkpt lat="42.9727" lon="0.8884">
        <ele>1144.379</ele>
        <time>2014-03-14T11:45:20Z</time>
      </trkpt>
      <trkpt lat="42.97263" lon="0.88859">
        <ele>1144.753</ele>
        <time>2014-03-14T11:45:22Z</time>
      </trkpt>
      <trkpt lat="42.97258" lon="0.88867">
        <ele>1145.741</ele>
        <time>2014-03-14T11:45:23Z</time>
      </trkpt>
      <trkpt lat="42.97253" lon="0.88874">
        <ele>1146.349</ele>
        <time>2014-03-14T11:45:24Z</time>
      </trkpt>
      <trkpt lat="42.97247" lon="0.8888">
        <ele>1146.299</ele>
        <time>2014-03-14T11:45:25Z</time>
      </trkpt>
      <trkpt lat="42.9724" lon="0.88883">
        <ele>1145.497</ele>
        <time>2014-03-14T11:45:26Z</time>
      </trkpt>
      <trkpt lat="42.97232" lon="0.88884">
        <ele>1143.97</ele>
        <time>2014-03-14T11:45:27Z</time>
      </trkpt>
      <trkpt lat="42.97223" lon="0.88882">
        <ele>1142.437</ele>
        <time>2014-03-14T11:45:28Z</time>
      </trkpt>
      <trkpt lat="42.97214" lon="0.88877">
        <ele>1141.671</ele>
        <time>2014-03-14T11:45:29Z</time>
      </trkpt>
      <trkpt lat="42.97207" lon="0.88871">
        <ele>1141.697</ele>
        <time>2014-03-14T11:45:30Z</time>
      </trkpt>
      <trkpt lat="42.97202" lon="0.88863">
        <ele>1142.071</ele>
        <time>2014-03-14T11:45:31Z</time>
      </trkpt>
      <trkpt lat="42.972" lon="0.88854">
        <ele>1142.858</ele>
        <time>2014-03-14T11:45:32Z</time>
      </trkpt>
      <trkpt lat="42.972" lon="0.88845">
        <ele>1144.013</ele>
        <time>2014-03-14T11:45:33Z</time>
      </trkpt>
      <trkpt lat="42.97201" lon="0.88836">
        <ele>1145.452</ele>
        <time>2014-03-14T11:45:34Z</time>
      </trkpt>
      <trkpt lat="42.97205" lon="0.88823">
        <ele>1147.551</ele>
        <time>2014-03-14T11:45:36Z</time>
      </trkpt>
      <trkpt lat="42.97209" lon="0.88817">
        <ele>1148.989</ele>
        <time>2014-03-14T11:45:37Z</time>
      </trkpt>
      <trkpt lat="42.97214" lon="0.88814">
        <ele>1150.445</ele>
        <time>2014-03-14T11:45:38Z</time>
      </trkpt>
      <trkpt lat="42.97219" lon="0.88813">
        <ele>1151.408</ele>
        <time>2014-03-14T11:45:39Z</time>
      </trkpt>
      <trkpt lat="42.97224" lon="0.88815">
        <ele>1152.661</ele>
        <time>2014-03-14T11:45:40Z</time>
      </trkpt>
      <trkpt lat="42.97229" lon="0.88818">
        <ele>1153.781</ele>
        <time>2014-03-14T11:45:41Z</time>
      </trkpt>
      <trkpt lat="42.97233" lon="0.88824">
        <ele>1155.059</ele>
        <time>2014-03-14T11:45:42Z</time>
      </trkpt>
      <trkpt lat="42.97235" lon="0.88832">
        <ele>1156.084</ele>
        <time>2014-03-14T11:45:43Z</time>
      </trkpt>
      <trkpt lat="42.97235" lon="0.88842">
        <ele>1156.52</ele>
        <time>2014-03-14T11:45:44Z</time>
      </trkpt>
      <trkpt lat="42.97231" lon="0.88853">
        <ele>1156.582</ele>
        <time>2014-03-14T11:45:45Z</time>
      </trkpt>
      <trkpt lat="42.97225" lon="0.88863">
        <ele>1156.593</ele>
        <time>2014-03-14T11:45:46Z</time>
      </trkpt>
      <trkpt lat="42.97217" lon="0.88871">
        <ele>1156.803</ele>
        <time>2014-03-14T11:45:47Z</time>
      </trkpt>
      <trkpt lat="42.97209" lon="0.88876">
        <ele>1156.997</ele>
        <time>2014-03-14T11:45:48Z</time>
      </trkpt>
      <trkpt lat="42.97199" lon="0.88878">
        <ele>1156.843</ele>
        <time>2014-03-14T11:45:49Z</time>
      </trkpt>
      <trkpt lat="42.97183" lon="0.8887">
        <ele>1156.152</ele>
        <time>2014-03-14T11:45:51Z</time>
      </trkpt>
      <trkpt lat="42.97178" lon="0.8886">
        <ele>1155.499</ele>
        <time>2014-03-14T11:45:52Z</time>
      </trkpt>
      <trkpt lat="42.97174" lon="0.88849">
        <ele>1155.366</ele>
        <time>2014-03-14T11:45:53Z</time>
      </trkpt>
      <trkpt lat="42.97174" lon="0.88837">
        <ele>1155.854</ele>
        <time>2014-03-14T11:45:54Z</time>
      </trkpt>
      <trkpt lat="42.97176" lon="0.88827">
        <ele>1156.747</ele>
        <time>2014-03-14T11:45:55Z</time>
      </trkpt>
      <trkpt lat="42.97179" lon="0.88818">
        <ele>1158.292</ele>
        <time>2014-03-14T11:45:56Z</time>
      </trkpt>
      <trkpt lat="42.97183" lon="0.8881">
        <ele>1160.071</ele>
        <time>2014-03-14T11:45:57Z</time>
      </trkpt>
      <trkpt lat="42.97187" lon="0.88805">
        <ele>1161.306</ele>
        <time>2014-03-14T11:45:58Z</time>
      </trkpt>
      <trkpt lat="42.97191" lon="0.88801">
        <ele>1162.006</ele>
        <time>2014-03-14T11:45:59Z</time>
      </trkpt>
      <trkpt lat="42.97197" lon="0.888">
        <ele>1162.415</ele>
        <time>2014-03-14T11:46:00Z</time>
      </trkpt>
      <trkpt lat="42.97203" lon="0.88802">
        <ele>1162.728</ele>
        <time>2014-03-14T11:46:01Z</time>
      </trkpt>
      <trkpt lat="42.97209" lon="0.88806">
        <ele>1163.121</ele>
        <time>2014-03-14T11:46:02Z</time>
      </trkpt>
      <trkpt lat="42.97214" lon="0.88814">
        <ele>1163.789</ele>
        <time>2014-03-14T11:46:03Z</time>
      </trkpt>
      <trkpt lat="42.97217" lon="0.88825">
        <ele>1164.774</ele>
        <time>2014-03-14T11:46:04Z</time>
      </trkpt>
      <trkpt lat="42.97215" lon="0.88847">
        <ele>1165.591</ele>
        <time>2014-03-14T11:46:06Z</time>
      </trkpt>
      <trkpt lat="42.9721" lon="0.88856">
        <ele>1166.151</ele>
        <time>2014-03-14T11:46:07Z</time>
      </trkpt>
      <trkpt lat="42.97203" lon="0.88863">
        <ele>1166.048</ele>
        <time>2014-03-14T11:46:08Z</time>
      </trkpt>
      <trkpt lat="42.97194" lon="0.88867">
        <ele>1165.229</ele>
        <time>2014-03-14T11:46:09Z</time>
      </trkpt>
      <trkpt lat="42.97185" lon="0.88868">
        <ele>1163.933</ele>
        <time>2014-03-14T11:46:10Z</time>
      </trkpt>
      <trkpt lat="42.97175" lon="0.88866">
        <ele>1162.476</ele>
        <time>2014-03-14T11:46:11Z</time>
      </trkpt>
      <trkpt lat="42.97165" lon="0.8886">
        <ele>1161.68</ele>
        <time>2014-03-14T11:46:12Z</time>
      </trkpt>
      <trkpt lat="42.97157" lon="0.88851">
        <ele>1161.693</ele>
        <time>2014-03-14T11:46:13Z</time>
      </trkpt>
      <trkpt lat="42.97151" lon="0.8884">
        <ele>1162.62</ele>
        <time>2014-03-14T11:46:14Z</time>
      </trkpt>
      <trkpt lat="42.97148" lon="0.88829">
        <ele>1163.976</ele>
        <time>2014-03-14T11:46:15Z</time>
      </trkpt>
      <trkpt lat="42.97147" lon="0.88818">
        <ele>1165.546</ele>
        <time>2014-03-14T11:46:16Z</time>
      </trkpt>
      <trkpt lat="42.97146" lon="0.88808">
        <ele>1166.748</ele>
        <time>2014-03-14T11:46:17Z</time>
      </trkpt>
      <trkpt lat="42.97146" lon="0.88797">
        <ele>1167.758</ele>
        <time>2014-03-14T11:46:18Z</time>
      </trkpt>
      <trkpt lat="42.97147" lon="0.88787">
        <ele>1168.417</ele>
        <time>2014-03-14T11:46:19Z</time>
      </trkpt>
      <trkpt lat="42.97154" lon="0.88769">
        <ele>1169.03</ele>
        <time>2014-03-14T11:46:21Z</time>
      </trkpt>
      <trkpt lat="42.9716" lon="0.88761">
        <ele>1169.606</ele>
        <time>2014-03-14T11:46:22Z</time>
      </trkpt>
      <trkpt lat="42.97166" lon="0.88756">
        <ele>1170.582</ele>
        <time>2014-03-14T11:46:23Z</time>
      </trkpt>
      <trkpt lat="42.97172" lon="0.88754">
        <ele>1171.782</ele>
        <time>2014-03-14T11:46:24Z</time>
      </trkpt>
      <trkpt lat="42.97179" lon="0.88755">
        <ele>1173.1</ele>
        <time>2014-03-14T11:46:25Z</time>
      </trkpt>
      <trkpt lat="42.97185" lon="0.88758">
        <ele>1174.791</ele>
        <time>2014-03-14T11:46:26Z</time>
      </trkpt>
      <trkpt lat="42.9719" lon="0.88762">
        <ele>1176.572</ele>
        <time>2014-03-14T11:46:27Z</time>
      </trkpt>
      <trkpt lat="42.97193" lon="0.88767">
        <ele>1177.934</ele>
        <time>2014-03-14T11:46:28Z</time>
      </trkpt>
      <trkpt lat="42.97196" lon="0.88772">
        <ele>1179.448</ele>
        <time>2014-03-14T11:46:29Z</time>
      </trkpt>
      <trkpt lat="42.97198" lon="0.88778">
        <ele>1179.992</ele>
        <time>2014-03-14T11:46:30Z</time>
      </trkpt>
      <trkpt lat="42.97198" lon="0.88778">
        <ele>1179.949</ele>
        <time>2014-03-14T11:46:30Z</time>
      </trkpt>
      <trkpt lat="42.97199" lon="0.88795">
        <ele>1180.034</ele>
        <time>2014-03-14T11:46:32Z</time>
      </trkpt>
      <trkpt lat="42.97197" lon="0.88805">
        <ele>1180.465</ele>
        <time>2014-03-14T11:46:33Z</time>
      </trkpt>
      <trkpt lat="42.97192" lon="0.88815">
        <ele>1181.228</ele>
        <time>2014-03-14T11:46:34Z</time>
      </trkpt>
      <trkpt lat="42.97176" lon="0.88822">
        <ele>1181.701</ele>
        <time>2014-03-14T11:46:36Z</time>
      </trkpt>
      <trkpt lat="42.97166" lon="0.8882">
        <ele>1181.763</ele>
        <time>2014-03-14T11:46:37Z</time>
      </trkpt>
      <trkpt lat="42.97157" lon="0.88815">
        <ele>1181.847</ele>
        <time>2014-03-14T11:46:38Z</time>
      </trkpt>
      <trkpt lat="42.9715" lon="0.88806">
        <ele>1182.097</ele>
        <time>2014-03-14T11:46:39Z</time>
      </trkpt>
      <trkpt lat="42.97147" lon="0.88795">
        <ele>1182.228</ele>
        <time>2014-03-14T11:46:40Z</time>
      </trkpt>
      <trkpt lat="42.9715" lon="0.88785">
        <ele>1182.22</ele>
        <time>2014-03-14T11:46:41Z</time>
      </trkpt>
      <trkpt lat="42.97156" lon="0.88779">
        <ele>1182.609</ele>
        <time>2014-03-14T11:46:42Z</time>
      </trkpt>
      <trkpt lat="42.97162" lon="0.88777">
        <ele>1183.689</ele>
        <time>2014-03-14T11:46:43Z</time>
      </trkpt>
      <trkpt lat="42.97169" lon="0.88778">
        <ele>1185.216</ele>
        <time>2014-03-14T11:46:44Z</time>
      </trkpt>
      <trkpt lat="42.97174" lon="0.88781">
        <ele>1186.95</ele>
        <time>2014-03-14T11:46:45Z</time>
      </trkpt>
      <trkpt lat="42.97184" lon="0.88788">
        <ele>1188.955</ele>
        <time>2014-03-14T11:46:47Z</time>
      </trkpt>
      <trkpt lat="42.97189" lon="0.8879">
        <ele>1190.785</ele>
        <time>2014-03-14T11:46:48Z</time>
      </trkpt>
      <trkpt lat="42.97194" lon="0.88794">
        <ele>1192.821</ele>
        <time>2014-03-14T11:46:49Z</time>
      </trkpt>
      <trkpt lat="42.97194" lon="0.88794">
        <ele>1194.292</ele>
        <time>2014-03-14T11:46:49Z</time>
      </trkpt>
      <trkpt lat="42.97199" lon="0.88809">
        <ele>1195.141</ele>
        <time>2014-03-14T11:46:51Z</time>
      </trkpt>
      <trkpt lat="42.97199" lon="0.88817">
        <ele>1195.444</ele>
        <time>2014-03-14T11:46:52Z</time>
      </trkpt>
      <trkpt lat="42.97198" lon="0.88825">
        <ele>1195.35</ele>
        <time>2014-03-14T11:46:53Z</time>
      </trkpt>
      <trkpt lat="42.97195" lon="0.88833">
        <ele>1194.768</ele>
        <time>2014-03-14T11:46:54Z</time>
      </trkpt>
      <trkpt lat="42.97191" lon="0.88842">
        <ele>1193.72</ele>
        <time>2014-03-14T11:46:55Z</time>
      </trkpt>
      <trkpt lat="42.97183" lon="0.88849">
        <ele>1192.772</ele>
        <time>2014-03-14T11:46:56Z</time>
      </trkpt>
      <trkpt lat="42.97174" lon="0.88852">
        <ele>1191.826</ele>
        <time>2014-03-14T11:46:57Z</time>
      </trkpt>
      <trkpt lat="42.97164" lon="0.8885">
        <ele>1191.072</ele>
        <time>2014-03-14T11:46:58Z</time>
      </trkpt>
      <trkpt lat="42.97156" lon="0.88844">
        <ele>1190.764</ele>
        <time>2014-03-14T11:46:59Z</time>
      </trkpt>
      <trkpt lat="42.97145" lon="0.88826">
        <ele>1191.251</ele>
        <time>2014-03-14T11:47:01Z</time>
      </trkpt>
      <trkpt lat="42.97142" lon="0.88816">
        <ele>1192.021</ele>
        <time>2014-03-14T11:47:02Z</time>
      </trkpt>
      <trkpt lat="42.97139" lon="0.88805">
        <ele>1193.307</ele>
        <time>2014-03-14T11:47:03Z</time>
      </trkpt>
      <trkpt lat="42.97138" lon="0.88795">
        <ele>1194.784</ele>
        <time>2014-03-14T11:47:04Z</time>
      </trkpt>
      <trkpt lat="42.97139" lon="0.88785">
        <ele>1196.358</ele>
        <time>2014-03-14T11:47:05Z</time>
      </trkpt>
      <trkpt lat="42.97141" lon="0.88776">
        <ele>1197.87</ele>
        <time>2014-03-14T11:47:06Z</time>
      </trkpt>
      <trkpt lat="42.97145" lon="0.88768">
        <ele>1199.063</ele>
        <time>2014-03-14T11:47:07Z</time>
      </trkpt>
      <trkpt lat="42.9715" lon="0.88762">
        <ele>1200.473</ele>
        <time>2014-03-14T11:47:08Z</time>
      </trkpt>
      <trkpt lat="42.97157" lon="0.88758">
        <ele>1202.658</ele>
        <time>2014-03-14T11:47:09Z</time>
      </trkpt>
      <trkpt lat="42.97163" lon="0.88757">
        <ele>1205.152</ele>
        <time>2014-03-14T11:47:10Z</time>
      </trkpt>
      <trkpt lat="42.97169" lon="0.8876">
        <ele>1207.985</ele>
        <time>2014-03-14T11:47:11Z</time>
      </trkpt>
      <trkpt lat="42.97174" lon="0.88766">
        <ele>1210.722</ele>
        <time>2014-03-14T11:47:12Z</time>
      </trkpt>
      <trkpt lat="42.97177" lon="0.88774">
        <ele>1213.078</ele>
        <time>2014-03-14T11:47:13Z</time>
      </trkpt>
      <trkpt lat="42.97177" lon="0.88784">
        <ele>1215.215</ele>
        <time>2014-03-14T11:47:14Z</time>
      </trkpt>
      <trkpt lat="42.97175" lon="0.88794">
        <ele>1216.986</ele>
        <time>2014-03-14T11:47:15Z</time>
      </trkpt>
      <trkpt lat="42.97171" lon="0.88803">
        <ele>1217.9</ele>
        <time>2014-03-14T11:47:16Z</time>
      </trkpt>
      <trkpt lat="42.97164" lon="0.88808">
        <ele>1217.817</ele>
        <time>2014-03-14T11:47:17Z</time>
      </trkpt>
      <trkpt lat="42.97155" lon="0.88809">
        <ele>1217.155</ele>
        <time>2014-03-14T11:47:18Z</time>
      </trkpt>
      <trkpt lat="42.97145" lon="0.88807">
        <ele>1216.591</ele>
        <time>2014-03-14T11:47:19Z</time>
      </trkpt>
      <trkpt lat="42.97136" lon="0.88801">
        <ele>1216.745</ele>
        <time>2014-03-14T11:47:20Z</time>
      </trkpt>
      <trkpt lat="42.97123" lon="0.88781">
        <ele>1217.833</ele>
        <time>2014-03-14T11:47:22Z</time>
      </trkpt>
      <trkpt lat="42.9712" lon="0.8877">
        <ele>1219.706</ele>
        <time>2014-03-14T11:47:23Z</time>
      </trkpt>
      <trkpt lat="42.97121" lon="0.88759">
        <ele>1221.407</ele>
        <time>2014-03-14T11:47:24Z</time>
      </trkpt>
      <trkpt lat="42.97122" lon="0.88749">
        <ele>1222.712</ele>
        <time>2014-03-14T11:47:25Z</time>
      </trkpt>
      <trkpt lat="42.97125" lon="0.88739">
        <ele>1224.413</ele>
        <time>2014-03-14T11:47:26Z</time>
      </trkpt>
      <trkpt lat="42.97129" lon="0.8873">
        <ele>1225.799</ele>
        <time>2014-03-14T11:47:27Z</time>
      </trkpt>
      <trkpt lat="42.97135" lon="0.88725">
        <ele>1226.887</ele>
        <time>2014-03-14T11:47:28Z</time>
      </trkpt>
      <trkpt lat="42.97143" lon="0.88722">
        <ele>1228.947</ele>
        <time>2014-03-14T11:47:29Z</time>
      </trkpt>
      <trkpt lat="42.9715" lon="0.88722">
        <ele>1231.161</ele>
        <time>2014-03-14T11:47:30Z</time>
      </trkpt>
      <trkpt lat="42.97156" lon="0.88723">
        <ele>1234.336</ele>
        <time>2014-03-14T11:47:31Z</time>
      </trkpt>
      <trkpt lat="42.97161" lon="0.88727">
        <ele>1236.767</ele>
        <time>2014-03-14T11:47:32Z</time>
      </trkpt>
      <trkpt lat="42.97167" lon="0.88739">
        <ele>1238.899</ele>
        <time>2014-03-14T11:47:34Z</time>
      </trkpt>
      <trkpt lat="42.97167" lon="0.88739">
        <ele>1240.533</ele>
        <time>2014-03-14T11:47:34Z</time>
      </trkpt>
      <trkpt lat="42.97172" lon="0.88755">
        <ele>1242.447</ele>
        <time>2014-03-14T11:47:36Z</time>
      </trkpt>
      <trkpt lat="42.97172" lon="0.88765">
        <ele>1244.32</ele>
        <time>2014-03-14T11:47:37Z</time>
      </trkpt>
      <trkpt lat="42.97169" lon="0.88776">
        <ele>1246.475</ele>
        <time>2014-03-14T11:47:38Z</time>
      </trkpt>
      <trkpt lat="42.97164" lon="0.88785">
        <ele>1248.369</ele>
        <time>2014-03-14T11:47:39Z</time>
      </trkpt>
      <trkpt lat="42.97157" lon="0.88791">
        <ele>1249.986</ele>
        <time>2014-03-14T11:47:40Z</time>
      </trkpt>
      <trkpt lat="42.97149" lon="0.88792">
        <ele>1250.956</ele>
        <time>2014-03-14T11:47:41Z</time>
      </trkpt>
      <trkpt lat="42.97141" lon="0.88791">
        <ele>1251.585</ele>
        <time>2014-03-14T11:47:42Z</time>
      </trkpt>
      <trkpt lat="42.97133" lon="0.88787">
        <ele>1252.346</ele>
        <time>2014-03-14T11:47:43Z</time>
      </trkpt>
      <trkpt lat="42.97126" lon="0.8878">
        <ele>1253.161</ele>
        <time>2014-03-14T11:47:44Z</time>
      </trkpt>
      <trkpt lat="42.97121" lon="0.88771">
        <ele>1254.282</ele>
        <time>2014-03-14T11:47:45Z</time>
      </trkpt>
      <trkpt lat="42.97119" lon="0.88761">
        <ele>1255.433</ele>
        <time>2014-03-14T11:47:46Z</time>
      </trkpt>
      <trkpt lat="42.97121" lon="0.8875">
        <ele>1256.524</ele>
        <time>2014-03-14T11:47:47Z</time>
      </trkpt>
      <trkpt lat="42.97131" lon="0.88738">
        <ele>1257.558</ele>
        <time>2014-03-14T11:47:49Z</time>
      </trkpt>
      <trkpt lat="42.97131" lon="0.88738">
        <ele>1258.802</ele>
        <time>2014-03-14T11:47:49Z</time>
      </trkpt>
      <trkpt lat="42.97143" lon="0.88744">
        <ele>1260.834</ele>
        <time>2014-03-14T11:47:51Z</time>
      </trkpt>
      <trkpt lat="42.97146" lon="0.88752">
        <ele>1262.68</ele>
        <time>2014-03-14T11:47:52Z</time>
      </trkpt>
      <trkpt lat="42.97147" lon="0.88762">
        <ele>1265.283</ele>
        <time>2014-03-14T11:47:53Z</time>
      </trkpt>
      <trkpt lat="42.97146" lon="0.88771">
        <ele>1268.234</ele>
        <time>2014-03-14T11:47:54Z</time>
      </trkpt>
      <trkpt lat="42.97143" lon="0.8878">
        <ele>1270.344</ele>
        <time>2014-03-14T11:47:55Z</time>
      </trkpt>
      <trkpt lat="42.97139" lon="0.88788">
        <ele>1271.63</ele>
        <time>2014-03-14T11:47:56Z</time>
      </trkpt>
      <trkpt lat="42.97133" lon="0.88795">
        <ele>1272.21</ele>
        <time>2014-03-14T11:47:57Z</time>
      </trkpt>
      <trkpt lat="42.97126" lon="0.88801">
        <ele>1272.131</ele>
        <time>2014-03-14T11:47:58Z</time>
      </trkpt>
      <trkpt lat="42.97117" lon="0.88803">
        <ele>1271.849</ele>
        <time>2014-03-14T11:47:59Z</time>
      </trkpt>
      <trkpt lat="42.97109" lon="0.88802">
        <ele>1271.726</ele>
        <time>2014-03-14T11:48:00Z</time>
      </trkpt>
      <trkpt lat="42.971" lon="0.88798">
        <ele>1272.372</ele>
        <time>2014-03-14T11:48:01Z</time>
      </trkpt>
      <trkpt lat="42.97086" lon="0.88783">
        <ele>1273.459</ele>
        <time>2014-03-14T11:48:03Z</time>
      </trkpt>
      <trkpt lat="42.97082" lon="0.88773">
        <ele>1275.48</ele>
        <time>2014-03-14T11:48:04Z</time>
      </trkpt>
      <trkpt lat="42.97079" lon="0.88762">
        <ele>1277.465</ele>
        <time>2014-03-14T11:48:05Z</time>
      </trkpt>
      <trkpt lat="42.97077" lon="0.88751">
        <ele>1279.244</ele>
        <time>2014-03-14T11:48:06Z</time>
      </trkpt>
      <trkpt lat="42.97075" lon="0.88741">
        <ele>1281.195</ele>
        <time>2014-03-14T11:48:07Z</time>
      </trkpt>
      <trkpt lat="42.97074" lon="0.8873">
        <ele>1283.24</ele>
        <time>2014-03-14T11:48:08Z</time>
      </trkpt>
      <trkpt lat="42.97073" lon="0.8872">
        <ele>1285.288</ele>
        <time>2014-03-14T11:48:09Z</time>
      </trkpt>
      <trkpt lat="42.97073" lon="0.8871">
        <ele>1287.311</ele>
        <time>2014-03-14T11:48:10Z</time>
      </trkpt>
      <trkpt lat="42.97073" lon="0.88701">
        <ele>1289.08</ele>
        <time>2014-03-14T11:48:11Z</time>
      </trkpt>
      <trkpt lat="42.97076" lon="0.88694">
        <ele>1289.865</ele>
        <time>2014-03-14T11:48:12Z</time>
      </trkpt>
      <trkpt lat="42.9708" lon="0.88686">
        <ele>1290.148</ele>
        <time>2014-03-14T11:48:13Z</time>
      </trkpt>
      <trkpt lat="42.97085" lon="0.88678">
        <ele>1290.444</ele>
        <time>2014-03-14T11:48:14Z</time>
      </trkpt>
      <trkpt lat="42.97098" lon="0.8867">
        <ele>1290.882</ele>
        <time>2014-03-14T11:48:16Z</time>
      </trkpt>
      <trkpt lat="42.97104" lon="0.88672">
        <ele>1291.724</ele>
        <time>2014-03-14T11:48:17Z</time>
      </trkpt>
      <trkpt lat="42.9711" lon="0.88678">
        <ele>1293.085</ele>
        <time>2014-03-14T11:48:18Z</time>
      </trkpt>
      <trkpt lat="42.97113" lon="0.88685">
        <ele>1294.974</ele>
        <time>2014-03-14T11:48:19Z</time>
      </trkpt>
      <trkpt lat="42.97115" lon="0.88694">
        <ele>1297.006</ele>
        <time>2014-03-14T11:48:20Z</time>
      </trkpt>
      <trkpt lat="42.97117" lon="0.88704">
        <ele>1299.231</ele>
        <time>2014-03-14T11:48:21Z</time>
      </trkpt>
      <trkpt lat="42.97116" lon="0.88714">
        <ele>1301.588</ele>
        <time>2014-03-14T11:48:22Z</time>
      </trkpt>
      <trkpt lat="42.97112" lon="0.88723">
        <ele>1303.891</ele>
        <time>2014-03-14T11:48:23Z</time>
      </trkpt>
      <trkpt lat="42.97107" lon="0.88731">
        <ele>1306.063</ele>
        <time>2014-03-14T11:48:24Z</time>
      </trkpt>
      <trkpt lat="42.97101" lon="0.88738">
        <ele>1308.45</ele>
        <time>2014-03-14T11:48:25Z</time>
      </trkpt>
      <trkpt lat="42.97094" lon="0.88742">
        <ele>1310.799</ele>
        <time>2014-03-14T11:48:26Z</time>
      </trkpt>
      <trkpt lat="42.97087" lon="0.88743">
        <ele>1312.729</ele>
        <time>2014-03-14T11:48:27Z</time>
      </trkpt>
      <trkpt lat="42.97079" lon="0.88743">
        <ele>1314.561</ele>
        <time>2014-03-14T11:48:28Z</time>
      </trkpt>
      <trkpt lat="42.97071" lon="0.88741">
        <ele>1316.24</ele>
        <time>2014-03-14T11:48:29Z</time>
      </trkpt>
      <trkpt lat="42.97063" lon="0.88736">
        <ele>1317.774</ele>
        <time>2014-03-14T11:48:30Z</time>
      </trkpt>
      <trkpt lat="42.97057" lon="0.88729">
        <ele>1319.634</ele>
        <time>2014-03-14T11:48:31Z</time>
      </trkpt>
      <trkpt lat="42.97053" lon="0.8872">
        <ele>1321.357</ele>
        <time>2014-03-14T11:48:32Z</time>
      </trkpt>
      <trkpt lat="42.9705" lon="0.887">
        <ele>1323.239</ele>
        <time>2014-03-14T11:48:34Z</time>
      </trkpt>
      <trkpt lat="42.9705" lon="0.887">
        <ele>1324.569</ele>
        <time>2014-03-14T11:48:34Z</time>
      </trkpt>
      <trkpt lat="42.97053" lon="0.88682">
        <ele>1325.874</ele>
        <time>2014-03-14T11:48:36Z</time>
      </trkpt>
      <trkpt lat="42.97056" lon="0.88675">
        <ele>1327.021</ele>
        <time>2014-03-14T11:48:37Z</time>
      </trkpt>
      <trkpt lat="42.9706" lon="0.88669">
        <ele>1327.627</ele>
        <time>2014-03-14T11:48:38Z</time>
      </trkpt>
      <trkpt lat="42.97065" lon="0.88664">
        <ele>1327.829</ele>
        <time>2014-03-14T11:48:39Z</time>
      </trkpt>
      <trkpt lat="42.97071" lon="0.88661">
        <ele>1327.967</ele>
        <time>2014-03-14T11:48:40Z</time>
      </trkpt>
      <trkpt lat="42.97078" lon="0.88658">
        <ele>1328.443</ele>
        <time>2014-03-14T11:48:41Z</time>
      </trkpt>
      <trkpt lat="42.97085" lon="0.88657">
        <ele>1329.293</ele>
        <time>2014-03-14T11:48:42Z</time>
      </trkpt>
      <trkpt lat="42.97091" lon="0.8866">
        <ele>1330.638</ele>
        <time>2014-03-14T11:48:43Z</time>
      </trkpt>
      <trkpt lat="42.97097" lon="0.88664">
        <ele>1332.49</ele>
        <time>2014-03-14T11:48:44Z</time>
      </trkpt>
      <trkpt lat="42.97101" lon="0.8867">
        <ele>1333.984</ele>
        <time>2014-03-14T11:48:45Z</time>
      </trkpt>
      <trkpt lat="42.97107" lon="0.88682">
        <ele>1334.645</ele>
        <time>2014-03-14T11:48:47Z</time>
      </trkpt>
      <trkpt lat="42.9711" lon="0.88689">
        <ele>1334.76</ele>
        <time>2014-03-14T11:48:48Z</time>
      </trkpt>
      <trkpt lat="42.97113" lon="0.88699">
        <ele>1334.494</ele>
        <time>2014-03-14T11:48:49Z</time>
      </trkpt>
      <trkpt lat="42.97113" lon="0.8871">
        <ele>1334.161</ele>
        <time>2014-03-14T11:48:50Z</time>
      </trkpt>
      <trkpt lat="42.9711" lon="0.88721">
        <ele>1333.47</ele>
        <time>2014-03-14T11:48:51Z</time>
      </trkpt>
      <trkpt lat="42.97105" lon="0.88729">
        <ele>1332.338</ele>
        <time>2014-03-14T11:48:52Z</time>
      </trkpt>
      <trkpt lat="42.97099" lon="0.88737">
        <ele>1331.095</ele>
        <time>2014-03-14T11:48:53Z</time>
      </trkpt>
      <trkpt lat="42.97091" lon="0.88743">
        <ele>1329.625</ele>
        <time>2014-03-14T11:48:54Z</time>
      </trkpt>
      <trkpt lat="42.97082" lon="0.88746">
        <ele>1328.421</ele>
        <time>2014-03-14T11:48:55Z</time>
      </trkpt>
      <trkpt lat="42.97072" lon="0.88746">
        <ele>1328.013</ele>
        <time>2014-03-14T11:48:56Z</time>
      </trkpt>
      <trkpt lat="42.97061" lon="0.88743">
        <ele>1328.653</ele>
        <time>2014-03-14T11:48:57Z</time>
      </trkpt>
      <trkpt lat="42.97042" lon="0.88731">
        <ele>1330.519</ele>
        <time>2014-03-14T11:48:59Z</time>
      </trkpt>
      <trkpt lat="42.97042" lon="0.88731">
        <ele>1332.492</ele>
        <time>2014-03-14T11:48:59Z</time>
      </trkpt>
      <trkpt lat="42.97029" lon="0.88714">
        <ele>1334.529</ele>
        <time>2014-03-14T11:49:01Z</time>
      </trkpt>
      <trkpt lat="42.97025" lon="0.88704">
        <ele>1336.668</ele>
        <time>2014-03-14T11:49:02Z</time>
      </trkpt>
      <trkpt lat="42.97023" lon="0.88692">
        <ele>1338.836</ele>
        <time>2014-03-14T11:49:03Z</time>
      </trkpt>
      <trkpt lat="42.97023" lon="0.8868">
        <ele>1340.631</ele>
        <time>2014-03-14T11:49:04Z</time>
      </trkpt>
      <trkpt lat="42.97025" lon="0.88669">
        <ele>1342.078</ele>
        <time>2014-03-14T11:49:05Z</time>
      </trkpt>
      <trkpt lat="42.97029" lon="0.88659">
        <ele>1343.55</ele>
        <time>2014-03-14T11:49:06Z</time>
      </trkpt>
      <trkpt lat="42.97035" lon="0.88652">
        <ele>1344.96</ele>
        <time>2014-03-14T11:49:07Z</time>
      </trkpt>
      <trkpt lat="42.97042" lon="0.88648">
        <ele>1346.444</ele>
        <time>2014-03-14T11:49:08Z</time>
      </trkpt>
      <trkpt lat="42.97049" lon="0.88648">
        <ele>1347.633</ele>
        <time>2014-03-14T11:49:09Z</time>
      </trkpt>
      <trkpt lat="42.97056" lon="0.8865">
        <ele>1349.361</ele>
        <time>2014-03-14T11:49:10Z</time>
      </trkpt>
      <trkpt lat="42.97063" lon="0.88654">
        <ele>1350.838</ele>
        <time>2014-03-14T11:49:11Z</time>
      </trkpt>
      <trkpt lat="42.97073" lon="0.88667">
        <ele>1352.386</ele>
        <time>2014-03-14T11:49:13Z</time>
      </trkpt>
      <trkpt lat="42.97076" lon="0.88677">
        <ele>1353.92</ele>
        <time>2014-03-14T11:49:14Z</time>
      </trkpt>
      <trkpt lat="42.97076" lon="0.88677">
        <ele>1354.831</ele>
        <time>2014-03-14T11:49:14Z</time>
      </trkpt>
      <trkpt lat="42.97072" lon="0.887">
        <ele>1354.884</ele>
        <time>2014-03-14T11:49:16Z</time>
      </trkpt>
      <trkpt lat="42.97067" lon="0.8871">
        <ele>1354.729</ele>
        <time>2014-03-14T11:49:17Z</time>
      </trkpt>
      <trkpt lat="42.9706" lon="0.88718">
        <ele>1354.633</ele>
        <time>2014-03-14T11:49:18Z</time>
      </trkpt>
      <trkpt lat="42.97053" lon="0.88724">
        <ele>1354.454</ele>
        <time>2014-03-14T11:49:19Z</time>
      </trkpt>
      <trkpt lat="42.97044" lon="0.88728">
        <ele>1354.258</ele>
        <time>2014-03-14T11:49:20Z</time>
      </trkpt>
      <trkpt lat="42.97035" lon="0.8873">
        <ele>1354.299</ele>
        <time>2014-03-14T11:49:21Z</time>
      </trkpt>
      <trkpt lat="42.97025" lon="0.88729">
        <ele>1354.591</ele>
        <time>2014-03-14T11:49:22Z</time>
      </trkpt>
      <trkpt lat="42.97015" lon="0.88724">
        <ele>1355.024</ele>
        <time>2014-03-14T11:49:23Z</time>
      </trkpt>
      <trkpt lat="42.97006" lon="0.88717">
        <ele>1355.651</ele>
        <time>2014-03-14T11:49:24Z</time>
      </trkpt>
      <trkpt lat="42.96996" lon="0.8871">
        <ele>1356.738</ele>
        <time>2014-03-14T11:49:25Z</time>
      </trkpt>
      <trkpt lat="42.96988" lon="0.88702">
        <ele>1358.435</ele>
        <time>2014-03-14T11:49:26Z</time>
      </trkpt>
      <trkpt lat="42.96981" lon="0.88692">
        <ele>1360.204</ele>
        <time>2014-03-14T11:49:27Z</time>
      </trkpt>
      <trkpt lat="42.96974" lon="0.88671">
        <ele>1361.846</ele>
        <time>2014-03-14T11:49:29Z</time>
      </trkpt>
      <trkpt lat="42.96974" lon="0.88671">
        <ele>1362.84</ele>
        <time>2014-03-14T11:49:29Z</time>
      </trkpt>
      <trkpt lat="42.96972" lon="0.8865">
        <ele>1363.931</ele>
        <time>2014-03-14T11:49:31Z</time>
      </trkpt>
      <trkpt lat="42.96971" lon="0.88639">
        <ele>1365.027</ele>
        <time>2014-03-14T11:49:32Z</time>
      </trkpt>
      <trkpt lat="42.96972" lon="0.88628">
        <ele>1366.065</ele>
        <time>2014-03-14T11:49:33Z</time>
      </trkpt>
      <trkpt lat="42.96974" lon="0.88616">
        <ele>1367.409</ele>
        <time>2014-03-14T11:49:34Z</time>
      </trkpt>
      <trkpt lat="42.96978" lon="0.88605">
        <ele>1369.306</ele>
        <time>2014-03-14T11:49:35Z</time>
      </trkpt>
      <trkpt lat="42.96982" lon="0.88597">
        <ele>1371.008</ele>
        <time>2014-03-14T11:49:36Z</time>
      </trkpt>
      <trkpt lat="42.96988" lon="0.8859">
        <ele>1372.467</ele>
        <time>2014-03-14T11:49:37Z</time>
      </trkpt>
      <trkpt lat="42.96995" lon="0.88585">
        <ele>1373.898</ele>
        <time>2014-03-14T11:49:38Z</time>
      </trkpt>
      <trkpt lat="42.97001" lon="0.8858">
        <ele>1375.494</ele>
        <time>2014-03-14T11:49:39Z</time>
      </trkpt>
      <trkpt lat="42.97008" lon="0.88576">
        <ele>1377.339</ele>
        <time>2014-03-14T11:49:40Z</time>
      </trkpt>
      <trkpt lat="42.97022" lon="0.88575">
        <ele>1379.193</ele>
        <time>2014-03-14T11:49:42Z</time>
      </trkpt>
      <trkpt lat="42.9703" lon="0.88578">
        <ele>1380.677</ele>
        <time>2014-03-14T11:49:43Z</time>
      </trkpt>
      <trkpt lat="42.97035" lon="0.88581">
        <ele>1382.112</ele>
        <time>2014-03-14T11:49:44Z</time>
      </trkpt>
      <trkpt lat="42.97039" lon="0.88585">
        <ele>1383.145</ele>
        <time>2014-03-14T11:49:45Z</time>
      </trkpt>
      <trkpt lat="42.97042" lon="0.88589">
        <ele>1383.101</ele>
        <time>2014-03-14T11:49:46Z</time>
      </trkpt>
      <trkpt lat="42.97045" lon="0.88594">
        <ele>1381.979</ele>
        <time>2014-03-14T11:49:47Z</time>
      </trkpt>
      <trkpt lat="42.97048" lon="0.88601">
        <ele>1380.072</ele>
        <time>2014-03-14T11:49:48Z</time>
      </trkpt>
      <trkpt lat="42.97049" lon="0.88611">
        <ele>1378.448</ele>
        <time>2014-03-14T11:49:49Z</time>
      </trkpt>
      <trkpt lat="42.97048" lon="0.88621">
        <ele>1377.264</ele>
        <time>2014-03-14T11:49:50Z</time>
      </trkpt>
      <trkpt lat="42.97045" lon="0.88631">
        <ele>1376.59</ele>
        <time>2014-03-14T11:49:51Z</time>
      </trkpt>
      <trkpt lat="42.9704" lon="0.8864">
        <ele>1376.102</ele>
        <time>2014-03-14T11:49:52Z</time>
      </trkpt>
      <trkpt lat="42.97033" lon="0.88648">
        <ele>1375.551</ele>
        <time>2014-03-14T11:49:53Z</time>
      </trkpt>
      <trkpt lat="42.97025" lon="0.88654">
        <ele>1374.866</ele>
        <time>2014-03-14T11:49:54Z</time>
      </trkpt>
      <trkpt lat="42.97006" lon="0.88661">
        <ele>1374.318</ele>
        <time>2014-03-14T11:49:56Z</time>
      </trkpt>
      <trkpt lat="42.96995" lon="0.8866">
        <ele>1374.009</ele>
        <time>2014-03-14T11:49:57Z</time>
      </trkpt>
      <trkpt lat="42.96985" lon="0.88656">
        <ele>1374.012</ele>
        <time>2014-03-14T11:49:58Z</time>
      </trkpt>
      <trkpt lat="42.96977" lon="0.8865">
        <ele>1374.279</ele>
        <time>2014-03-14T11:49:59Z</time>
      </trkpt>
      <trkpt lat="42.96969" lon="0.88641">
        <ele>1374.831</ele>
        <time>2014-03-14T11:50:00Z</time>
      </trkpt>
      <trkpt lat="42.96963" lon="0.88631">
        <ele>1375.495</ele>
        <time>2014-03-14T11:50:01Z</time>
      </trkpt>
      <trkpt lat="42.96958" lon="0.8862">
        <ele>1376.854</ele>
        <time>2014-03-14T11:50:02Z</time>
      </trkpt>
      <trkpt lat="42.96954" lon="0.88609">
        <ele>1379.113</ele>
        <time>2014-03-14T11:50:03Z</time>
      </trkpt>
      <trkpt lat="42.96952" lon="0.88597">
        <ele>1381.806</ele>
        <time>2014-03-14T11:50:04Z</time>
      </trkpt>
      <trkpt lat="42.9695" lon="0.88587">
        <ele>1384.433</ele>
        <time>2014-03-14T11:50:05Z</time>
      </trkpt>
      <trkpt lat="42.96948" lon="0.88576">
        <ele>1386.871</ele>
        <time>2014-03-14T11:50:06Z</time>
      </trkpt>
      <trkpt lat="42.96945" lon="0.88551">
        <ele>1388.773</ele>
        <time>2014-03-14T11:50:08Z</time>
      </trkpt>
      <trkpt lat="42.96947" lon="0.88539">
        <ele>1390.104</ele>
        <time>2014-03-14T11:50:09Z</time>
      </trkpt>
      <trkpt lat="42.96949" lon="0.88527">
        <ele>1391.25</ele>
        <time>2014-03-14T11:50:10Z</time>
      </trkpt>
      <trkpt lat="42.96953" lon="0.88516">
        <ele>1392.939</ele>
        <time>2014-03-14T11:50:11Z</time>
      </trkpt>
      <trkpt lat="42.96956" lon="0.88506">
        <ele>1395.088</ele>
        <time>2014-03-14T11:50:12Z</time>
      </trkpt>
      <trkpt lat="42.9696" lon="0.88497">
        <ele>1397.237</ele>
        <time>2014-03-14T11:50:13Z</time>
      </trkpt>
      <trkpt lat="42.96964" lon="0.88491">
        <ele>1399.226</ele>
        <time>2014-03-14T11:50:14Z</time>
      </trkpt>
      <trkpt lat="42.96968" lon="0.88487">
        <ele>1400.5</ele>
        <time>2014-03-14T11:50:15Z</time>
      </trkpt>
      <trkpt lat="42.96973" lon="0.88484">
        <ele>1401.003</ele>
        <time>2014-03-14T11:50:16Z</time>
      </trkpt>
      <trkpt lat="42.96978" lon="0.88482">
        <ele>1401.135</ele>
        <time>2014-03-14T11:50:17Z</time>
      </trkpt>
      <trkpt lat="42.96984" lon="0.88481">
        <ele>1401.183</ele>
        <time>2014-03-14T11:50:18Z</time>
      </trkpt>
      <trkpt lat="42.96991" lon="0.8848">
        <ele>1401.468</ele>
        <time>2014-03-14T11:50:19Z</time>
      </trkpt>
      <trkpt lat="42.97003" lon="0.88484">
        <ele>1401.957</ele>
        <time>2014-03-14T11:50:21Z</time>
      </trkpt>
      <trkpt lat="42.97006" lon="0.8849">
        <ele>1402.361</ele>
        <time>2014-03-14T11:50:22Z</time>
      </trkpt>
      <trkpt lat="42.97009" lon="0.88496">
        <ele>1402.516</ele>
        <time>2014-03-14T11:50:23Z</time>
      </trkpt>
      <trkpt lat="42.97011" lon="0.88504">
        <ele>1402.459</ele>
        <time>2014-03-14T11:50:24Z</time>
      </trkpt>
      <trkpt lat="42.97012" lon="0.88512">
        <ele>1402.323</ele>
        <time>2014-03-14T11:50:25Z</time>
      </trkpt>
      <trkpt lat="42.97012" lon="0.88521">
        <ele>1402.255</ele>
        <time>2014-03-14T11:50:26Z</time>
      </trkpt>
      <trkpt lat="42.97012" lon="0.88531">
        <ele>1402.314</ele>
        <time>2014-03-14T11:50:27Z</time>
      </trkpt>
      <trkpt lat="42.97009" lon="0.88541">
        <ele>1402.502</ele>
        <time>2014-03-14T11:50:28Z</time>
      </trkpt>
      <trkpt lat="42.97005" lon="0.8855">
        <ele>1402.783</ele>
        <time>2014-03-14T11:50:29Z</time>
      </trkpt>
      <trkpt lat="42.96999" lon="0.88558">
        <ele>1402.988</ele>
        <time>2014-03-14T11:50:30Z</time>
      </trkpt>
      <trkpt lat="42.96992" lon="0.88564">
        <ele>1403.114</ele>
        <time>2014-03-14T11:50:31Z</time>
      </trkpt>
      <trkpt lat="42.96984" lon="0.88569">
        <ele>1403.055</ele>
        <time>2014-03-14T11:50:32Z</time>
      </trkpt>
      <trkpt lat="42.96968" lon="0.88576">
        <ele>1402.733</ele>
        <time>2014-03-14T11:50:34Z</time>
      </trkpt>
      <trkpt lat="42.96968" lon="0.88576">
        <ele>1401.954</ele>
        <time>2014-03-14T11:50:34Z</time>
      </trkpt>
      <trkpt lat="42.96949" lon="0.88573">
        <ele>1401.221</ele>
        <time>2014-03-14T11:50:36Z</time>
      </trkpt>
      <trkpt lat="42.96938" lon="0.88569">
        <ele>1401.06</ele>
        <time>2014-03-14T11:50:37Z</time>
      </trkpt>
      <trkpt lat="42.9693" lon="0.8856">
        <ele>1401.948</ele>
        <time>2014-03-14T11:50:38Z</time>
      </trkpt>
      <trkpt lat="42.96924" lon="0.88549">
        <ele>1403.936</ele>
        <time>2014-03-14T11:50:39Z</time>
      </trkpt>
      <trkpt lat="42.9692" lon="0.88538">
        <ele>1406.377</ele>
        <time>2014-03-14T11:50:40Z</time>
      </trkpt>
      <trkpt lat="42.96918" lon="0.88528">
        <ele>1408.991</ele>
        <time>2014-03-14T11:50:41Z</time>
      </trkpt>
      <trkpt lat="42.96918" lon="0.88517">
        <ele>1410.659</ele>
        <time>2014-03-14T11:50:42Z</time>
      </trkpt>
      <trkpt lat="42.96919" lon="0.88506">
        <ele>1411.793</ele>
        <time>2014-03-14T11:50:43Z</time>
      </trkpt>
      <trkpt lat="42.96922" lon="0.88495">
        <ele>1412.68</ele>
        <time>2014-03-14T11:50:44Z</time>
      </trkpt>
      <trkpt lat="42.96927" lon="0.88486">
        <ele>1413.914</ele>
        <time>2014-03-14T11:50:45Z</time>
      </trkpt>
      <trkpt lat="42.96933" lon="0.88481">
        <ele>1415.209</ele>
        <time>2014-03-14T11:50:46Z</time>
      </trkpt>
      <trkpt lat="42.96939" lon="0.8848">
        <ele>1416.443</ele>
        <time>2014-03-14T11:50:47Z</time>
      </trkpt>
      <trkpt lat="42.96948" lon="0.88485">
        <ele>1417.379</ele>
        <time>2014-03-14T11:50:49Z</time>
      </trkpt>
      <trkpt lat="42.96948" lon="0.88485">
        <ele>1418.144</ele>
        <time>2014-03-14T11:50:49Z</time>
      </trkpt>
      <trkpt lat="42.96955" lon="0.88495">
        <ele>1418.369</ele>
        <time>2014-03-14T11:50:51Z</time>
      </trkpt>
      <trkpt lat="42.96958" lon="0.88503">
        <ele>1418.429</ele>
        <time>2014-03-14T11:50:52Z</time>
      </trkpt>
      <trkpt lat="42.96959" lon="0.88511">
        <ele>1418.633</ele>
        <time>2014-03-14T11:50:53Z</time>
      </trkpt>
      <trkpt lat="42.96959" lon="0.8852">
        <ele>1419.005</ele>
        <time>2014-03-14T11:50:54Z</time>
      </trkpt>
      <trkpt lat="42.96957" lon="0.88529">
        <ele>1419.4</ele>
        <time>2014-03-14T11:50:55Z</time>
      </trkpt>
      <trkpt lat="42.96955" lon="0.88539">
        <ele>1419.899</ele>
        <time>2014-03-14T11:50:56Z</time>
      </trkpt>
      <trkpt lat="42.96951" lon="0.88548">
        <ele>1420.139</ele>
        <time>2014-03-14T11:50:57Z</time>
      </trkpt>
      <trkpt lat="42.96944" lon="0.88556">
        <ele>1420.022</ele>
        <time>2014-03-14T11:50:58Z</time>
      </trkpt>
      <trkpt lat="42.96937" lon="0.88561">
        <ele>1419.634</ele>
        <time>2014-03-14T11:50:59Z</time>
      </trkpt>
      <trkpt lat="42.96928" lon="0.88565">
        <ele>1419.119</ele>
        <time>2014-03-14T11:51:00Z</time>
      </trkpt>
      <trkpt lat="42.96919" lon="0.88567">
        <ele>1418.755</ele>
        <time>2014-03-14T11:51:01Z</time>
      </trkpt>
      <trkpt lat="42.969" lon="0.88565">
        <ele>1418.624</ele>
        <time>2014-03-14T11:51:03Z</time>
      </trkpt>
      <trkpt lat="42.9689" lon="0.88562">
        <ele>1419.108</ele>
        <time>2014-03-14T11:51:04Z</time>
      </trkpt>
      <trkpt lat="42.96882" lon="0.88557">
        <ele>1420.219</ele>
        <time>2014-03-14T11:51:05Z</time>
      </trkpt>
      <trkpt lat="42.96874" lon="0.8855">
        <ele>1421.688</ele>
        <time>2014-03-14T11:51:06Z</time>
      </trkpt>
      <trkpt lat="42.96868" lon="0.88542">
        <ele>1423.08</ele>
        <time>2014-03-14T11:51:07Z</time>
      </trkpt>
      <trkpt lat="42.96862" lon="0.88533">
        <ele>1423.858</ele>
        <time>2014-03-14T11:51:08Z</time>
      </trkpt>
      <trkpt lat="42.96858" lon="0.88522">
        <ele>1424.42</ele>
        <time>2014-03-14T11:51:09Z</time>
      </trkpt>
      <trkpt lat="42.96856" lon="0.88509">
        <ele>1425.093</ele>
        <time>2014-03-14T11:51:10Z</time>
      </trkpt>
      <trkpt lat="42.96854" lon="0.88497">
        <ele>1426.399</ele>
        <time>2014-03-14T11:51:11Z</time>
      </trkpt>
      <trkpt lat="42.96853" lon="0.88486">
        <ele>1427.655</ele>
        <time>2014-03-14T11:51:12Z</time>
      </trkpt>
      <trkpt lat="42.96854" lon="0.88474">
        <ele>1428.523</ele>
        <time>2014-03-14T11:51:13Z</time>
      </trkpt>
      <trkpt lat="42.96856" lon="0.88462">
        <ele>1429.316</ele>
        <time>2014-03-14T11:51:14Z</time>
      </trkpt>
      <trkpt lat="42.9686" lon="0.88451">
        <ele>1430.226</ele>
        <time>2014-03-14T11:51:15Z</time>
      </trkpt>
      <trkpt lat="42.96863" lon="0.8844">
        <ele>1431.456</ele>
        <time>2014-03-14T11:51:16Z</time>
      </trkpt>
      <trkpt lat="42.96869" lon="0.88422">
        <ele>1432.378</ele>
        <time>2014-03-14T11:51:18Z</time>
      </trkpt>
      <trkpt lat="42.96872" lon="0.88415">
        <ele>1433.116</ele>
        <time>2014-03-14T11:51:19Z</time>
      </trkpt>
      <trkpt lat="42.96876" lon="0.88408">
        <ele>1433.665</ele>
        <time>2014-03-14T11:51:20Z</time>
      </trkpt>
      <trkpt lat="42.9688" lon="0.88403">
        <ele>1433.987</ele>
        <time>2014-03-14T11:51:21Z</time>
      </trkpt>
      <trkpt lat="42.96884" lon="0.88399">
        <ele>1433.943</ele>
        <time>2014-03-14T11:51:22Z</time>
      </trkpt>
      <trkpt lat="42.9689" lon="0.88397">
        <ele>1433.482</ele>
        <time>2014-03-14T11:51:23Z</time>
      </trkpt>
      <trkpt lat="42.96896" lon="0.88397">
        <ele>1432.737</ele>
        <time>2014-03-14T11:51:24Z</time>
      </trkpt>
      <trkpt lat="42.96902" lon="0.88398">
        <ele>1432.038</ele>
        <time>2014-03-14T11:51:25Z</time>
      </trkpt>
      <trkpt lat="42.96909" lon="0.88401">
        <ele>1431.52</ele>
        <time>2014-03-14T11:51:26Z</time>
      </trkpt>
      <trkpt lat="42.96914" lon="0.88404">
        <ele>1431.168</ele>
        <time>2014-03-14T11:51:27Z</time>
      </trkpt>
      <trkpt lat="42.9692" lon="0.8841">
        <ele>1430.948</ele>
        <time>2014-03-14T11:51:28Z</time>
      </trkpt>
      <trkpt lat="42.96923" lon="0.88417">
        <ele>1431.04</ele>
        <time>2014-03-14T11:51:29Z</time>
      </trkpt>
      <trkpt lat="42.96927" lon="0.88434">
        <ele>1431.492</ele>
        <time>2014-03-14T11:51:31Z</time>
      </trkpt>
      <trkpt lat="42.96926" lon="0.88443">
        <ele>1431.966</ele>
        <time>2014-03-14T11:51:32Z</time>
      </trkpt>
      <trkpt lat="42.96925" lon="0.88451">
        <ele>1432.08</ele>
        <time>2014-03-14T11:51:33Z</time>
      </trkpt>
      <trkpt lat="42.96922" lon="0.8846">
        <ele>1431.963</ele>
        <time>2014-03-14T11:51:34Z</time>
      </trkpt>
      <trkpt lat="42.96918" lon="0.88468">
        <ele>1431.829</ele>
        <time>2014-03-14T11:51:35Z</time>
      </trkpt>
      <trkpt lat="42.96913" lon="0.88477">
        <ele>1431.677</ele>
        <time>2014-03-14T11:51:36Z</time>
      </trkpt>
      <trkpt lat="42.96907" lon="0.88483">
        <ele>1431.385</ele>
        <time>2014-03-14T11:51:37Z</time>
      </trkpt>
      <trkpt lat="42.96901" lon="0.88489">
        <ele>1430.635</ele>
        <time>2014-03-14T11:51:38Z</time>
      </trkpt>
      <trkpt lat="42.96894" lon="0.88495">
        <ele>1429.394</ele>
        <time>2014-03-14T11:51:39Z</time>
      </trkpt>
      <trkpt lat="42.96887" lon="0.885">
        <ele>1428.178</ele>
        <time>2014-03-14T11:51:40Z</time>
      </trkpt>
      <trkpt lat="42.96869" lon="0.88507">
        <ele>1427.373</ele>
        <time>2014-03-14T11:51:42Z</time>
      </trkpt>
      <trkpt lat="42.9686" lon="0.88508">
        <ele>1426.789</ele>
        <time>2014-03-14T11:51:43Z</time>
      </trkpt>
      <trkpt lat="42.96852" lon="0.88506">
        <ele>1426.48</ele>
        <time>2014-03-14T11:51:44Z</time>
      </trkpt>
      <trkpt lat="42.96852" lon="0.88506">
        <ele>1426.144</ele>
        <time>2014-03-14T11:51:44Z</time>
      </trkpt>
      <trkpt lat="42.96835" lon="0.88496">
        <ele>1425.871</ele>
        <time>2014-03-14T11:51:46Z</time>
      </trkpt>
      <trkpt lat="42.96826" lon="0.88488">
        <ele>1426.161</ele>
        <time>2014-03-14T11:51:47Z</time>
      </trkpt>
      <trkpt lat="42.9682" lon="0.88478">
        <ele>1427.53</ele>
        <time>2014-03-14T11:51:48Z</time>
      </trkpt>
      <trkpt lat="42.96814" lon="0.88469">
        <ele>1429.227</ele>
        <time>2014-03-14T11:51:49Z</time>
      </trkpt>
      <trkpt lat="42.9681" lon="0.88461">
        <ele>1430.814</ele>
        <time>2014-03-14T11:51:50Z</time>
      </trkpt>
      <trkpt lat="42.96806" lon="0.8845">
        <ele>1431.993</ele>
        <time>2014-03-14T11:51:51Z</time>
      </trkpt>
      <trkpt lat="42.96802" lon="0.88438">
        <ele>1433.066</ele>
        <time>2014-03-14T11:51:52Z</time>
      </trkpt>
      <trkpt lat="42.96799" lon="0.88426">
        <ele>1434.375</ele>
        <time>2014-03-14T11:51:53Z</time>
      </trkpt>
      <trkpt lat="42.96797" lon="0.88415">
        <ele>1435.721</ele>
        <time>2014-03-14T11:51:54Z</time>
      </trkpt>
      <trkpt lat="42.96796" lon="0.88394">
        <ele>1437.08</ele>
        <time>2014-03-14T11:51:56Z</time>
      </trkpt>
      <trkpt lat="42.96795" lon="0.88383">
        <ele>1437.857</ele>
        <time>2014-03-14T11:51:57Z</time>
      </trkpt>
      <trkpt lat="42.96796" lon="0.88372">
        <ele>1438.363</ele>
        <time>2014-03-14T11:51:58Z</time>
      </trkpt>
      <trkpt lat="42.96796" lon="0.8836">
        <ele>1438.632</ele>
        <time>2014-03-14T11:51:59Z</time>
      </trkpt>
      <trkpt lat="42.96795" lon="0.8835">
        <ele>1438.841</ele>
        <time>2014-03-14T11:52:00Z</time>
      </trkpt>
      <trkpt lat="42.96796" lon="0.88341">
        <ele>1438.846</ele>
        <time>2014-03-14T11:52:01Z</time>
      </trkpt>
      <trkpt lat="42.96798" lon="0.88332">
        <ele>1438.394</ele>
        <time>2014-03-14T11:52:02Z</time>
      </trkpt>
      <trkpt lat="42.96801" lon="0.88324">
        <ele>1437.711</ele>
        <time>2014-03-14T11:52:03Z</time>
      </trkpt>
      <trkpt lat="42.96807" lon="0.88316">
        <ele>1436.717</ele>
        <time>2014-03-14T11:52:04Z</time>
      </trkpt>
      <trkpt lat="42.96814" lon="0.88311">
        <ele>1436.041</ele>
        <time>2014-03-14T11:52:05Z</time>
      </trkpt>
      <trkpt lat="42.96821" lon="0.88309">
        <ele>1435.915</ele>
        <time>2014-03-14T11:52:06Z</time>
      </trkpt>
      <trkpt lat="42.96827" lon="0.8831">
        <ele>1436.065</ele>
        <time>2014-03-14T11:52:07Z</time>
      </trkpt>
      <trkpt lat="42.96833" lon="0.88311">
        <ele>1436.029</ele>
        <time>2014-03-14T11:52:08Z</time>
      </trkpt>
      <trkpt lat="42.96839" lon="0.88311">
        <ele>1435.48</ele>
        <time>2014-03-14T11:52:09Z</time>
      </trkpt>
      <trkpt lat="42.96851" lon="0.88311">
        <ele>1434.524</ele>
        <time>2014-03-14T11:52:11Z</time>
      </trkpt>
      <trkpt lat="42.96858" lon="0.88312">
        <ele>1433.368</ele>
        <time>2014-03-14T11:52:12Z</time>
      </trkpt>
      <trkpt lat="42.96865" lon="0.88315">
        <ele>1431.624</ele>
        <time>2014-03-14T11:52:13Z</time>
      </trkpt>
      <trkpt lat="42.96872" lon="0.88319">
        <ele>1430.357</ele>
        <time>2014-03-14T11:52:14Z</time>
      </trkpt>
      <trkpt lat="42.96878" lon="0.88323">
        <ele>1429.892</ele>
        <time>2014-03-14T11:52:15Z</time>
      </trkpt>
      <trkpt lat="42.96884" lon="0.88326">
        <ele>1429.711</ele>
        <time>2014-03-14T11:52:16Z</time>
      </trkpt>
      <trkpt lat="42.96889" lon="0.88328">
        <ele>1429.135</ele>
        <time>2014-03-14T11:52:17Z</time>
      </trkpt>
      <trkpt lat="42.96894" lon="0.8833">
        <ele>1428.059</ele>
        <time>2014-03-14T11:52:18Z</time>
      </trkpt>
      <trkpt lat="42.969" lon="0.88333">
        <ele>1426.274</ele>
        <time>2014-03-14T11:52:19Z</time>
      </trkpt>
      <trkpt lat="42.96906" lon="0.88336">
        <ele>1424.99</ele>
        <time>2014-03-14T11:52:20Z</time>
      </trkpt>
      <trkpt lat="42.96913" lon="0.88339">
        <ele>1424.311</ele>
        <time>2014-03-14T11:52:21Z</time>
      </trkpt>
      <trkpt lat="42.96918" lon="0.88342">
        <ele>1423.947</ele>
        <time>2014-03-14T11:52:22Z</time>
      </trkpt>
      <trkpt lat="42.96924" lon="0.88344">
        <ele>1423.334</ele>
        <time>2014-03-14T11:52:23Z</time>
      </trkpt>
      <trkpt lat="42.96929" lon="0.88347">
        <ele>1422.327</ele>
        <time>2014-03-14T11:52:24Z</time>
      </trkpt>
      <trkpt lat="42.96935" lon="0.8835">
        <ele>1421.126</ele>
        <time>2014-03-14T11:52:25Z</time>
      </trkpt>
      <trkpt lat="42.96947" lon="0.88358">
        <ele>1419.688</ele>
        <time>2014-03-14T11:52:27Z</time>
      </trkpt>
      <trkpt lat="42.96952" lon="0.88362">
        <ele>1418.697</ele>
        <time>2014-03-14T11:52:28Z</time>
      </trkpt>
      <trkpt lat="42.96957" lon="0.88366">
        <ele>1417.794</ele>
        <time>2014-03-14T11:52:29Z</time>
      </trkpt>
      <trkpt lat="42.96962" lon="0.88371">
        <ele>1416.907</ele>
        <time>2014-03-14T11:52:30Z</time>
      </trkpt>
      <trkpt lat="42.96966" lon="0.88375">
        <ele>1415.436</ele>
        <time>2014-03-14T11:52:31Z</time>
      </trkpt>
      <trkpt lat="42.96971" lon="0.8838">
        <ele>1413.899</ele>
        <time>2014-03-14T11:52:32Z</time>
      </trkpt>
      <trkpt lat="42.96976" lon="0.88385">
        <ele>1412.707</ele>
        <time>2014-03-14T11:52:33Z</time>
      </trkpt>
      <trkpt lat="42.96981" lon="0.88391">
        <ele>1411.745</ele>
        <time>2014-03-14T11:52:34Z</time>
      </trkpt>
      <trkpt lat="42.96985" lon="0.88396">
        <ele>1411.151</ele>
        <time>2014-03-14T11:52:35Z</time>
      </trkpt>
      <trkpt lat="42.9699" lon="0.88401">
        <ele>1410.679</ele>
        <time>2014-03-14T11:52:36Z</time>
      </trkpt>
      <trkpt lat="42.96994" lon="0.88406">
        <ele>1410.219</ele>
        <time>2014-03-14T11:52:37Z</time>
      </trkpt>
      <trkpt lat="42.96998" lon="0.88412">
        <ele>1410.046</ele>
        <time>2014-03-14T11:52:38Z</time>
      </trkpt>
      <trkpt lat="42.97002" lon="0.88418">
        <ele>1410.122</ele>
        <time>2014-03-14T11:52:39Z</time>
      </trkpt>
      <trkpt lat="42.97008" lon="0.88432">
        <ele>1410.085</ele>
        <time>2014-03-14T11:52:41Z</time>
      </trkpt>
      <trkpt lat="42.97009" lon="0.88439">
        <ele>1409.668</ele>
        <time>2014-03-14T11:52:42Z</time>
      </trkpt>
      <trkpt lat="42.97011" lon="0.88447">
        <ele>1409.053</ele>
        <time>2014-03-14T11:52:43Z</time>
      </trkpt>
      <trkpt lat="42.97012" lon="0.88456">
        <ele>1408.22</ele>
        <time>2014-03-14T11:52:44Z</time>
      </trkpt>
      <trkpt lat="42.97014" lon="0.88465">
        <ele>1407.397</ele>
        <time>2014-03-14T11:52:45Z</time>
      </trkpt>
      <trkpt lat="42.97014" lon="0.88474">
        <ele>1406.852</ele>
        <time>2014-03-14T11:52:46Z</time>
      </trkpt>
      <trkpt lat="42.97013" lon="0.88483">
        <ele>1406.209</ele>
        <time>2014-03-14T11:52:47Z</time>
      </trkpt>
      <trkpt lat="42.97012" lon="0.88492">
        <ele>1405.468</ele>
        <time>2014-03-14T11:52:48Z</time>
      </trkpt>
      <trkpt lat="42.9701" lon="0.885">
        <ele>1404.424</ele>
        <time>2014-03-14T11:52:49Z</time>
      </trkpt>
      <trkpt lat="42.97008" lon="0.8851">
        <ele>1403.535</ele>
        <time>2014-03-14T11:52:50Z</time>
      </trkpt>
      <trkpt lat="42.97006" lon="0.8852">
        <ele>1403.19</ele>
        <time>2014-03-14T11:52:51Z</time>
      </trkpt>
      <trkpt lat="42.97004" lon="0.88531">
        <ele>1403.748</ele>
        <time>2014-03-14T11:52:52Z</time>
      </trkpt>
      <trkpt lat="42.96998" lon="0.8855">
        <ele>1404.842</ele>
        <time>2014-03-14T11:52:54Z</time>
      </trkpt>
      <trkpt lat="42.96998" lon="0.8855">
        <ele>1406.691</ele>
        <time>2014-03-14T11:52:54Z</time>
      </trkpt>
      <trkpt lat="42.96992" lon="0.88564">
        <ele>1408.015</ele>
        <time>2014-03-14T11:52:56Z</time>
      </trkpt>
      <trkpt lat="42.96989" lon="0.88571">
        <ele>1408.684</ele>
        <time>2014-03-14T11:52:57Z</time>
      </trkpt>
      <trkpt lat="42.96986" lon="0.8858">
        <ele>1408.978</ele>
        <time>2014-03-14T11:52:58Z</time>
      </trkpt>
      <trkpt lat="42.96982" lon="0.8859">
        <ele>1409.259</ele>
        <time>2014-03-14T11:52:59Z</time>
      </trkpt>
      <trkpt lat="42.96979" lon="0.88599">
        <ele>1409.728</ele>
        <time>2014-03-14T11:53:00Z</time>
      </trkpt>
      <trkpt lat="42.96975" lon="0.88609">
        <ele>1410.55</ele>
        <time>2014-03-14T11:53:01Z</time>
      </trkpt>
      <trkpt lat="42.96971" lon="0.88618">
        <ele>1411.267</ele>
        <time>2014-03-14T11:53:02Z</time>
      </trkpt>
      <trkpt lat="42.96968" lon="0.88627">
        <ele>1411.785</ele>
        <time>2014-03-14T11:53:03Z</time>
      </trkpt>
      <trkpt lat="42.96964" lon="0.88637">
        <ele>1412.48</ele>
        <time>2014-03-14T11:53:04Z</time>
      </trkpt>
      <trkpt lat="42.9696" lon="0.88647">
        <ele>1413.782</ele>
        <time>2014-03-14T11:53:05Z</time>
      </trkpt>
      <trkpt lat="42.96957" lon="0.88658">
        <ele>1415.998</ele>
        <time>2014-03-14T11:53:06Z</time>
      </trkpt>
      <trkpt lat="42.9695" lon="0.88674">
        <ele>1418.338</ele>
        <time>2014-03-14T11:53:08Z</time>
      </trkpt>
      <trkpt lat="42.96946" lon="0.8868">
        <ele>1421.412</ele>
        <time>2014-03-14T11:53:09Z</time>
      </trkpt>
      <trkpt lat="42.96946" lon="0.8868">
        <ele>1423.271</ele>
        <time>2014-03-14T11:53:09Z</time>
      </trkpt>
      <trkpt lat="42.96939" lon="0.88693">
        <ele>1424.703</ele>
        <time>2014-03-14T11:53:11Z</time>
      </trkpt>
      <trkpt lat="42.96937" lon="0.88701">
        <ele>1425.432</ele>
        <time>2014-03-14T11:53:12Z</time>
      </trkpt>
      <trkpt lat="42.96934" lon="0.88709">
        <ele>1426.276</ele>
        <time>2014-03-14T11:53:13Z</time>
      </trkpt>
      <trkpt lat="42.96931" lon="0.88715">
        <ele>1427.225</ele>
        <time>2014-03-14T11:53:14Z</time>
      </trkpt>
      <trkpt lat="42.96927" lon="0.8872">
        <ele>1428.049</ele>
        <time>2014-03-14T11:53:15Z</time>
      </trkpt>
      <trkpt lat="42.96922" lon="0.88724">
        <ele>1428.528</ele>
        <time>2014-03-14T11:53:16Z</time>
      </trkpt>
      <trkpt lat="42.96917" lon="0.88728">
        <ele>1428.637</ele>
        <time>2014-03-14T11:53:17Z</time>
      </trkpt>
      <trkpt lat="42.96911" lon="0.88732">
        <ele>1428.609</ele>
        <time>2014-03-14T11:53:18Z</time>
      </trkpt>
      <trkpt lat="42.96904" lon="0.88735">
        <ele>1428.458</ele>
        <time>2014-03-14T11:53:19Z</time>
      </trkpt>
      <trkpt lat="42.96897" lon="0.88736">
        <ele>1428.21</ele>
        <time>2014-03-14T11:53:20Z</time>
      </trkpt>
      <trkpt lat="42.9689" lon="0.88734">
        <ele>1428.11</ele>
        <time>2014-03-14T11:53:21Z</time>
      </trkpt>
      <trkpt lat="42.96875" lon="0.88725">
        <ele>1428.125</ele>
        <time>2014-03-14T11:53:23Z</time>
      </trkpt>
      <trkpt lat="42.96868" lon="0.88717">
        <ele>1428.28</ele>
        <time>2014-03-14T11:53:24Z</time>
      </trkpt>
      <trkpt lat="42.96868" lon="0.88717">
        <ele>1428.579</ele>
        <time>2014-03-14T11:53:24Z</time>
      </trkpt>
      <trkpt lat="42.96859" lon="0.88695">
        <ele>1429.106</ele>
        <time>2014-03-14T11:53:26Z</time>
      </trkpt>
      <trkpt lat="42.96857" lon="0.88682">
        <ele>1429.705</ele>
        <time>2014-03-14T11:53:27Z</time>
      </trkpt>
      <trkpt lat="42.96857" lon="0.88669">
        <ele>1430.179</ele>
        <time>2014-03-14T11:53:28Z</time>
      </trkpt>
      <trkpt lat="42.96858" lon="0.88656">
        <ele>1431.171</ele>
        <time>2014-03-14T11:53:29Z</time>
      </trkpt>
      <trkpt lat="42.96861" lon="0.88644">
        <ele>1432.331</ele>
        <time>2014-03-14T11:53:30Z</time>
      </trkpt>
      <trkpt lat="42.96864" lon="0.88633">
        <ele>1433.524</ele>
        <time>2014-03-14T11:53:31Z</time>
      </trkpt>
      <trkpt lat="42.96868" lon="0.88622">
        <ele>1434.523</ele>
        <time>2014-03-14T11:53:32Z</time>
      </trkpt>
      <trkpt lat="42.96872" lon="0.88613">
        <ele>1435.197</ele>
        <time>2014-03-14T11:53:33Z</time>
      </trkpt>
      <trkpt lat="42.96878" lon="0.88603">
        <ele>1435.8</ele>
        <time>2014-03-14T11:53:34Z</time>
      </trkpt>
      <trkpt lat="42.96883" lon="0.88594">
        <ele>1436.654</ele>
        <time>2014-03-14T11:53:35Z</time>
      </trkpt>
      <trkpt lat="42.96896" lon="0.88578">
        <ele>1438.172</ele>
        <time>2014-03-14T11:53:37Z</time>
      </trkpt>
      <trkpt lat="42.96901" lon="0.88572">
        <ele>1440.336</ele>
        <time>2014-03-14T11:53:38Z</time>
      </trkpt>
      <trkpt lat="42.96907" lon="0.88566">
        <ele>1442.165</ele>
        <time>2014-03-14T11:53:39Z</time>
      </trkpt>
      <trkpt lat="42.96914" lon="0.88562">
        <ele>1443.75</ele>
        <time>2014-03-14T11:53:40Z</time>
      </trkpt>
      <trkpt lat="42.9692" lon="0.8856">
        <ele>1444.625</ele>
        <time>2014-03-14T11:53:41Z</time>
      </trkpt>
      <trkpt lat="42.96928" lon="0.88559">
        <ele>1445.425</ele>
        <time>2014-03-14T11:53:42Z</time>
      </trkpt>
      <trkpt lat="42.96936" lon="0.88561">
        <ele>1446.408</ele>
        <time>2014-03-14T11:53:43Z</time>
      </trkpt>
      <trkpt lat="42.96943" lon="0.88564">
        <ele>1447.794</ele>
        <time>2014-03-14T11:53:44Z</time>
      </trkpt>
      <trkpt lat="42.96949" lon="0.88568">
        <ele>1449.663</ele>
        <time>2014-03-14T11:53:45Z</time>
      </trkpt>
      <trkpt lat="42.96954" lon="0.88574">
        <ele>1451.16</ele>
        <time>2014-03-14T11:53:46Z</time>
      </trkpt>
      <trkpt lat="42.96958" lon="0.88581">
        <ele>1452.473</ele>
        <time>2014-03-14T11:53:47Z</time>
      </trkpt>
      <trkpt lat="42.96961" lon="0.88589">
        <ele>1453.992</ele>
        <time>2014-03-14T11:53:48Z</time>
      </trkpt>
      <trkpt lat="42.96963" lon="0.88598">
        <ele>1455.285</ele>
        <time>2014-03-14T11:53:49Z</time>
      </trkpt>
      <trkpt lat="42.96964" lon="0.88607">
        <ele>1456.391</ele>
        <time>2014-03-14T11:53:50Z</time>
      </trkpt>
      <trkpt lat="42.9696" lon="0.88625">
        <ele>1457.386</ele>
        <time>2014-03-14T11:53:52Z</time>
      </trkpt>
      <trkpt lat="42.96957" lon="0.88633">
        <ele>1458.16</ele>
        <time>2014-03-14T11:53:53Z</time>
      </trkpt>
      <trkpt lat="42.96951" lon="0.88639">
        <ele>1458.799</ele>
        <time>2014-03-14T11:53:54Z</time>
      </trkpt>
      <trkpt lat="42.96945" lon="0.88643">
        <ele>1459.573</ele>
        <time>2014-03-14T11:53:55Z</time>
      </trkpt>
      <trkpt lat="42.96938" lon="0.88645">
        <ele>1460.409</ele>
        <time>2014-03-14T11:53:56Z</time>
      </trkpt>
      <trkpt lat="42.9693" lon="0.88644">
        <ele>1461.265</ele>
        <time>2014-03-14T11:53:57Z</time>
      </trkpt>
      <trkpt lat="42.96924" lon="0.8864">
        <ele>1461.86</ele>
        <time>2014-03-14T11:53:58Z</time>
      </trkpt>
      <trkpt lat="42.96918" lon="0.88635">
        <ele>1462.376</ele>
        <time>2014-03-14T11:53:59Z</time>
      </trkpt>
      <trkpt lat="42.96913" lon="0.88628">
        <ele>1462.873</ele>
        <time>2014-03-14T11:54:00Z</time>
      </trkpt>
      <trkpt lat="42.96905" lon="0.88609">
        <ele>1463.307</ele>
        <time>2014-03-14T11:54:02Z</time>
      </trkpt>
      <trkpt lat="42.96904" lon="0.88598">
        <ele>1463.729</ele>
        <time>2014-03-14T11:54:03Z</time>
      </trkpt>
      <trkpt lat="42.96905" lon="0.88587">
        <ele>1464.42</ele>
        <time>2014-03-14T11:54:04Z</time>
      </trkpt>
      <trkpt lat="42.96908" lon="0.88576">
        <ele>1465.5</ele>
        <time>2014-03-14T11:54:05Z</time>
      </trkpt>
      <trkpt lat="42.96911" lon="0.88567">
        <ele>1467.252</ele>
        <time>2014-03-14T11:54:06Z</time>
      </trkpt>
      <trkpt lat="42.96915" lon="0.88561">
        <ele>1469.191</ele>
        <time>2014-03-14T11:54:07Z</time>
      </trkpt>
      <trkpt lat="42.9692" lon="0.88557">
        <ele>1470.203</ele>
        <time>2014-03-14T11:54:08Z</time>
      </trkpt>
      <trkpt lat="42.96927" lon="0.88555">
        <ele>1470.962</ele>
        <time>2014-03-14T11:54:09Z</time>
      </trkpt>
      <trkpt lat="42.96934" lon="0.88555">
        <ele>1471.78</ele>
        <time>2014-03-14T11:54:10Z</time>
      </trkpt>
      <trkpt lat="42.96942" lon="0.88556">
        <ele>1472.585</ele>
        <time>2014-03-14T11:54:11Z</time>
      </trkpt>
      <trkpt lat="42.96948" lon="0.8856">
        <ele>1473.551</ele>
        <time>2014-03-14T11:54:12Z</time>
      </trkpt>
      <trkpt lat="42.96953" lon="0.88567">
        <ele>1474.71</ele>
        <time>2014-03-14T11:54:13Z</time>
      </trkpt>
      <trkpt lat="42.96956" lon="0.88574">
        <ele>1475.564</ele>
        <time>2014-03-14T11:54:14Z</time>
      </trkpt>
      <trkpt lat="42.96957" lon="0.8859">
        <ele>1476.461</ele>
        <time>2014-03-14T11:54:16Z</time>
      </trkpt>
      <trkpt lat="42.96956" lon="0.88597">
        <ele>1477.077</ele>
        <time>2014-03-14T11:54:17Z</time>
      </trkpt>
      <trkpt lat="42.96954" lon="0.88604">
        <ele>1477.477</ele>
        <time>2014-03-14T11:54:18Z</time>
      </trkpt>
      <trkpt lat="42.9695" lon="0.88611">
        <ele>1477.778</ele>
        <time>2014-03-14T11:54:19Z</time>
      </trkpt>
      <trkpt lat="42.96944" lon="0.88616">
        <ele>1478.121</ele>
        <time>2014-03-14T11:54:20Z</time>
      </trkpt>
      <trkpt lat="42.96937" lon="0.88619">
        <ele>1478.618</ele>
        <time>2014-03-14T11:54:21Z</time>
      </trkpt>
      <trkpt lat="42.9693" lon="0.8862">
        <ele>1479.161</ele>
        <time>2014-03-14T11:54:22Z</time>
      </trkpt>
      <trkpt lat="42.96924" lon="0.88619">
        <ele>1479.592</ele>
        <time>2014-03-14T11:54:23Z</time>
      </trkpt>
      <trkpt lat="42.96917" lon="0.88616">
        <ele>1479.791</ele>
        <time>2014-03-14T11:54:24Z</time>
      </trkpt>
      <trkpt lat="42.9691" lon="0.8861">
        <ele>1479.731</ele>
        <time>2014-03-14T11:54:25Z</time>
      </trkpt>
      <trkpt lat="42.969" lon="0.88592">
        <ele>1479.681</ele>
        <time>2014-03-14T11:54:27Z</time>
      </trkpt>
      <trkpt lat="42.96898" lon="0.8858">
        <ele>1479.719</ele>
        <time>2014-03-14T11:54:28Z</time>
      </trkpt>
      <trkpt lat="42.96897" lon="0.88568">
        <ele>1479.761</ele>
        <time>2014-03-14T11:54:29Z</time>
      </trkpt>
      <trkpt lat="42.96897" lon="0.88556">
        <ele>1479.829</ele>
        <time>2014-03-14T11:54:30Z</time>
      </trkpt>
      <trkpt lat="42.96899" lon="0.88546">
        <ele>1479.965</ele>
        <time>2014-03-14T11:54:31Z</time>
      </trkpt>
      <trkpt lat="42.96902" lon="0.88536">
        <ele>1480.447</ele>
        <time>2014-03-14T11:54:32Z</time>
      </trkpt>
      <trkpt lat="42.96907" lon="0.88527">
        <ele>1481.071</ele>
        <time>2014-03-14T11:54:33Z</time>
      </trkpt>
      <trkpt lat="42.96912" lon="0.88521">
        <ele>1481.591</ele>
        <time>2014-03-14T11:54:34Z</time>
      </trkpt>
      <trkpt lat="42.96919" lon="0.88518">
        <ele>1482.194</ele>
        <time>2014-03-14T11:54:35Z</time>
      </trkpt>
      <trkpt lat="42.96926" lon="0.88516">
        <ele>1482.629</ele>
        <time>2014-03-14T11:54:36Z</time>
      </trkpt>
      <trkpt lat="42.96938" lon="0.88517">
        <ele>1482.853</ele>
        <time>2014-03-14T11:54:38Z</time>
      </trkpt>
      <trkpt lat="42.96944" lon="0.8852">
        <ele>1482.809</ele>
        <time>2014-03-14T11:54:39Z</time>
      </trkpt>
      <trkpt lat="42.96944" lon="0.8852">
        <ele>1482.438</ele>
        <time>2014-03-14T11:54:39Z</time>
      </trkpt>
      <trkpt lat="42.96952" lon="0.88534">
        <ele>1482.097</ele>
        <time>2014-03-14T11:54:41Z</time>
      </trkpt>
      <trkpt lat="42.96952" lon="0.88544">
        <ele>1482.095</ele>
        <time>2014-03-14T11:54:42Z</time>
      </trkpt>
      <trkpt lat="42.96951" lon="0.88552">
        <ele>1482.363</ele>
        <time>2014-03-14T11:54:43Z</time>
      </trkpt>
      <trkpt lat="42.96948" lon="0.8856">
        <ele>1482.67</ele>
        <time>2014-03-14T11:54:44Z</time>
      </trkpt>
      <trkpt lat="42.96943" lon="0.88566">
        <ele>1482.962</ele>
        <time>2014-03-14T11:54:45Z</time>
      </trkpt>
      <trkpt lat="42.96937" lon="0.88571">
        <ele>1483.475</ele>
        <time>2014-03-14T11:54:46Z</time>
      </trkpt>
      <trkpt lat="42.9693" lon="0.88574">
        <ele>1484.305</ele>
        <time>2014-03-14T11:54:47Z</time>
      </trkpt>
      <trkpt lat="42.9693" lon="0.88574">
        <ele>1485.329</ele>
        <time>2014-03-14T11:54:47Z</time>
      </trkpt>
      <trkpt lat="42.96915" lon="0.88573">
        <ele>1486.508</ele>
        <time>2014-03-14T11:54:49Z</time>
      </trkpt>
      <trkpt lat="42.969" lon="0.88564">
        <ele>1487.543</ele>
        <time>2014-03-14T11:54:51Z</time>
      </trkpt>
      <trkpt lat="42.96893" lon="0.88559">
        <ele>1488.485</ele>
        <time>2014-03-14T11:54:52Z</time>
      </trkpt>
      <trkpt lat="42.96886" lon="0.88553">
        <ele>1489.366</ele>
        <time>2014-03-14T11:54:53Z</time>
      </trkpt>
      <trkpt lat="42.9688" lon="0.88545">
        <ele>1489.609</ele>
        <time>2014-03-14T11:54:54Z</time>
      </trkpt>
      <trkpt lat="42.96873" lon="0.88536">
        <ele>1489.454</ele>
        <time>2014-03-14T11:54:55Z</time>
      </trkpt>
      <trkpt lat="42.96869" lon="0.88526">
        <ele>1489.463</ele>
        <time>2014-03-14T11:54:56Z</time>
      </trkpt>
      <trkpt lat="42.96866" lon="0.88515">
        <ele>1489.809</ele>
        <time>2014-03-14T11:54:57Z</time>
      </trkpt>
      <trkpt lat="42.96864" lon="0.88505">
        <ele>1490.302</ele>
        <time>2014-03-14T11:54:58Z</time>
      </trkpt>
      <trkpt lat="42.96864" lon="0.88496">
        <ele>1490.667</ele>
        <time>2014-03-14T11:54:59Z</time>
      </trkpt>
      <trkpt lat="42.96865" lon="0.88486">
        <ele>1490.96</ele>
        <time>2014-03-14T11:55:00Z</time>
      </trkpt>
      <trkpt lat="42.96867" lon="0.88476">
        <ele>1491.346</ele>
        <time>2014-03-14T11:55:01Z</time>
      </trkpt>
      <trkpt lat="42.96871" lon="0.88468">
        <ele>1491.67</ele>
        <time>2014-03-14T11:55:02Z</time>
      </trkpt>
      <trkpt lat="42.96877" lon="0.88461">
        <ele>1491.954</ele>
        <time>2014-03-14T11:55:03Z</time>
      </trkpt>
      <trkpt lat="42.96883" lon="0.88457">
        <ele>1492.153</ele>
        <time>2014-03-14T11:55:04Z</time>
      </trkpt>
      <trkpt lat="42.9689" lon="0.88457">
        <ele>1492.208</ele>
        <time>2014-03-14T11:55:05Z</time>
      </trkpt>
      <trkpt lat="42.96896" lon="0.88458">
        <ele>1492.087</ele>
        <time>2014-03-14T11:55:06Z</time>
      </trkpt>
      <trkpt lat="42.96906" lon="0.88466">
        <ele>1491.879</ele>
        <time>2014-03-14T11:55:08Z</time>
      </trkpt>
      <trkpt lat="42.96911" lon="0.88472">
        <ele>1491.465</ele>
        <time>2014-03-14T11:55:09Z</time>
      </trkpt>
      <trkpt lat="42.96914" lon="0.8848">
        <ele>1490.847</ele>
        <time>2014-03-14T11:55:10Z</time>
      </trkpt>
      <trkpt lat="42.96915" lon="0.88488">
        <ele>1490.25</ele>
        <time>2014-03-14T11:55:11Z</time>
      </trkpt>
      <trkpt lat="42.96915" lon="0.88498">
        <ele>1489.625</ele>
        <time>2014-03-14T11:55:12Z</time>
      </trkpt>
      <trkpt lat="42.96913" lon="0.88507">
        <ele>1489.128</ele>
        <time>2014-03-14T11:55:13Z</time>
      </trkpt>
      <trkpt lat="42.9691" lon="0.88515">
        <ele>1488.859</ele>
        <time>2014-03-14T11:55:14Z</time>
      </trkpt>
      <trkpt lat="42.96905" lon="0.88521">
        <ele>1488.702</ele>
        <time>2014-03-14T11:55:15Z</time>
      </trkpt>
      <trkpt lat="42.96899" lon="0.88526">
        <ele>1488.731</ele>
        <time>2014-03-14T11:55:16Z</time>
      </trkpt>
      <trkpt lat="42.96893" lon="0.88529">
        <ele>1488.899</ele>
        <time>2014-03-14T11:55:17Z</time>
      </trkpt>
      <trkpt lat="42.96886" lon="0.88528">
        <ele>1489.097</ele>
        <time>2014-03-14T11:55:18Z</time>
      </trkpt>
      <trkpt lat="42.96879" lon="0.88526">
        <ele>1489.105</ele>
        <time>2014-03-14T11:55:19Z</time>
      </trkpt>
      <trkpt lat="42.96866" lon="0.88517">
        <ele>1488.789</ele>
        <time>2014-03-14T11:55:21Z</time>
      </trkpt>
      <trkpt lat="42.96858" lon="0.88511">
        <ele>1488.373</ele>
        <time>2014-03-14T11:55:22Z</time>
      </trkpt>
      <trkpt lat="42.96851" lon="0.88504">
        <ele>1488.088</ele>
        <time>2014-03-14T11:55:23Z</time>
      </trkpt>
      <trkpt lat="42.96845" lon="0.88495">
        <ele>1487.807</ele>
        <time>2014-03-14T11:55:24Z</time>
      </trkpt>
      <trkpt lat="42.9684" lon="0.88485">
        <ele>1487.4</ele>
        <time>2014-03-14T11:55:25Z</time>
      </trkpt>
      <trkpt lat="42.96837" lon="0.88474">
        <ele>1486.983</ele>
        <time>2014-03-14T11:55:26Z</time>
      </trkpt>
      <trkpt lat="42.96834" lon="0.88462">
        <ele>1486.625</ele>
        <time>2014-03-14T11:55:27Z</time>
      </trkpt>
      <trkpt lat="42.96832" lon="0.8845">
        <ele>1486.717</ele>
        <time>2014-03-14T11:55:28Z</time>
      </trkpt>
      <trkpt lat="42.9683" lon="0.88438">
        <ele>1487.319</ele>
        <time>2014-03-14T11:55:29Z</time>
      </trkpt>
      <trkpt lat="42.9683" lon="0.88426">
        <ele>1487.978</ele>
        <time>2014-03-14T11:55:30Z</time>
      </trkpt>
      <trkpt lat="42.96831" lon="0.88415">
        <ele>1488.81</ele>
        <time>2014-03-14T11:55:31Z</time>
      </trkpt>
      <trkpt lat="42.96834" lon="0.88393">
        <ele>1489.353</ele>
        <time>2014-03-14T11:55:33Z</time>
      </trkpt>
      <trkpt lat="42.96836" lon="0.88383">
        <ele>1489.63</ele>
        <time>2014-03-14T11:55:34Z</time>
      </trkpt>
      <trkpt lat="42.96838" lon="0.88373">
        <ele>1489.383</ele>
        <time>2014-03-14T11:55:35Z</time>
      </trkpt>
      <trkpt lat="42.96841" lon="0.88363">
        <ele>1488.612</ele>
        <time>2014-03-14T11:55:36Z</time>
      </trkpt>
      <trkpt lat="42.96845" lon="0.88353">
        <ele>1487.558</ele>
        <time>2014-03-14T11:55:37Z</time>
      </trkpt>
      <trkpt lat="42.96849" lon="0.88343">
        <ele>1486.472</ele>
        <time>2014-03-14T11:55:38Z</time>
      </trkpt>
      <trkpt lat="42.96852" lon="0.88333">
        <ele>1485.883</ele>
        <time>2014-03-14T11:55:39Z</time>
      </trkpt>
      <trkpt lat="42.96857" lon="0.88324">
        <ele>1485.748</ele>
        <time>2014-03-14T11:55:40Z</time>
      </trkpt>
      <trkpt lat="42.96862" lon="0.88317">
        <ele>1485.405</ele>
        <time>2014-03-14T11:55:41Z</time>
      </trkpt>
      <trkpt lat="42.96868" lon="0.88312">
        <ele>1484.586</ele>
        <time>2014-03-14T11:55:42Z</time>
      </trkpt>
      <trkpt lat="42.96875" lon="0.88306">
        <ele>1483.863</ele>
        <time>2014-03-14T11:55:43Z</time>
      </trkpt>
      <trkpt lat="42.96882" lon="0.883">
        <ele>1483.964</ele>
        <time>2014-03-14T11:55:44Z</time>
      </trkpt>
      <trkpt lat="42.96888" lon="0.88292">
        <ele>1484.373</ele>
        <time>2014-03-14T11:55:45Z</time>
      </trkpt>
      <trkpt lat="42.96894" lon="0.88285">
        <ele>1484.97</ele>
        <time>2014-03-14T11:55:46Z</time>
      </trkpt>
      <trkpt lat="42.96906" lon="0.88275">
        <ele>1485.038</ele>
        <time>2014-03-14T11:55:48Z</time>
      </trkpt>
      <trkpt lat="42.96911" lon="0.88271">
        <ele>1484.709</ele>
        <time>2014-03-14T11:55:49Z</time>
      </trkpt>
      <trkpt lat="42.96911" lon="0.88271">
        <ele>1484.32</ele>
        <time>2014-03-14T11:55:49Z</time>
      </trkpt>
      <trkpt lat="42.96922" lon="0.88259">
        <ele>1484.021</ele>
        <time>2014-03-14T11:55:51Z</time>
      </trkpt>
      <trkpt lat="42.96926" lon="0.88251">
        <ele>1483.773</ele>
        <time>2014-03-14T11:55:52Z</time>
      </trkpt>
      <trkpt lat="42.9693" lon="0.88244">
        <ele>1483.44</ele>
        <time>2014-03-14T11:55:53Z</time>
      </trkpt>
      <trkpt lat="42.96934" lon="0.88237">
        <ele>1482.61</ele>
        <time>2014-03-14T11:55:54Z</time>
      </trkpt>
      <trkpt lat="42.96938" lon="0.8823">
        <ele>1481.141</ele>
        <time>2014-03-14T11:55:55Z</time>
      </trkpt>
      <trkpt lat="42.96942" lon="0.88224">
        <ele>1479.047</ele>
        <time>2014-03-14T11:55:56Z</time>
      </trkpt>
      <trkpt lat="42.96947" lon="0.88216">
        <ele>1475.574</ele>
        <time>2014-03-14T11:55:57Z</time>
      </trkpt>
      <trkpt lat="42.96953" lon="0.88208">
        <ele>1472.797</ele>
        <time>2014-03-14T11:55:58Z</time>
      </trkpt>
      <trkpt lat="42.96958" lon="0.882">
        <ele>1469.664</ele>
        <time>2014-03-14T11:55:59Z</time>
      </trkpt>
      <trkpt lat="42.96962" lon="0.88193">
        <ele>1467.336</ele>
        <time>2014-03-14T11:56:00Z</time>
      </trkpt>
      <trkpt lat="42.96967" lon="0.88186">
        <ele>1464.186</ele>
        <time>2014-03-14T11:56:01Z</time>
      </trkpt>
      <trkpt lat="42.96979" lon="0.88172">
        <ele>1461.41</ele>
        <time>2014-03-14T11:56:03Z</time>
      </trkpt>
      <trkpt lat="42.96984" lon="0.88164">
        <ele>1458.98</ele>
        <time>2014-03-14T11:56:04Z</time>
      </trkpt>
      <trkpt lat="42.96989" lon="0.88155">
        <ele>1457.333</ele>
        <time>2014-03-14T11:56:05Z</time>
      </trkpt>
      <trkpt lat="42.96994" lon="0.88147">
        <ele>1456.237</ele>
        <time>2014-03-14T11:56:06Z</time>
      </trkpt>
      <trkpt lat="42.96998" lon="0.8814">
        <ele>1454.873</ele>
        <time>2014-03-14T11:56:07Z</time>
      </trkpt>
      <trkpt lat="42.97002" lon="0.88132">
        <ele>1452.925</ele>
        <time>2014-03-14T11:56:08Z</time>
      </trkpt>
      <trkpt lat="42.97007" lon="0.88124">
        <ele>1451.075</ele>
        <time>2014-03-14T11:56:09Z</time>
      </trkpt>
      <trkpt lat="42.97011" lon="0.88116">
        <ele>1449.385</ele>
        <time>2014-03-14T11:56:10Z</time>
      </trkpt>
      <trkpt lat="42.97016" lon="0.88109">
        <ele>1447.85</ele>
        <time>2014-03-14T11:56:11Z</time>
      </trkpt>
      <trkpt lat="42.9702" lon="0.88102">
        <ele>1445.991</ele>
        <time>2014-03-14T11:56:12Z</time>
      </trkpt>
      <trkpt lat="42.97024" lon="0.88096">
        <ele>1442.861</ele>
        <time>2014-03-14T11:56:13Z</time>
      </trkpt>
      <trkpt lat="42.9703" lon="0.88089">
        <ele>1439.128</ele>
        <time>2014-03-14T11:56:14Z</time>
      </trkpt>
      <trkpt lat="42.97042" lon="0.88073">
        <ele>1434.566</ele>
        <time>2014-03-14T11:56:16Z</time>
      </trkpt>
      <trkpt lat="42.97049" lon="0.88065">
        <ele>1431.411</ele>
        <time>2014-03-14T11:56:17Z</time>
      </trkpt>
      <trkpt lat="42.97056" lon="0.88057">
        <ele>1428.912</ele>
        <time>2014-03-14T11:56:18Z</time>
      </trkpt>
      <trkpt lat="42.97062" lon="0.88051">
        <ele>1427.023</ele>
        <time>2014-03-14T11:56:19Z</time>
      </trkpt>
      <trkpt lat="42.97068" lon="0.88044">
        <ele>1424.438</ele>
        <time>2014-03-14T11:56:20Z</time>
      </trkpt>
      <trkpt lat="42.97074" lon="0.88038">
        <ele>1421.035</ele>
        <time>2014-03-14T11:56:21Z</time>
      </trkpt>
      <trkpt lat="42.97081" lon="0.8803">
        <ele>1418.426</ele>
        <time>2014-03-14T11:56:22Z</time>
      </trkpt>
      <trkpt lat="42.97087" lon="0.88023">
        <ele>1415.513</ele>
        <time>2014-03-14T11:56:23Z</time>
      </trkpt>
      <trkpt lat="42.97094" lon="0.88015">
        <ele>1412.855</ele>
        <time>2014-03-14T11:56:24Z</time>
      </trkpt>
      <trkpt lat="42.97101" lon="0.88008">
        <ele>1410.403</ele>
        <time>2014-03-14T11:56:25Z</time>
      </trkpt>
      <trkpt lat="42.97114" lon="0.87995">
        <ele>1407.089</ele>
        <time>2014-03-14T11:56:27Z</time>
      </trkpt>
      <trkpt lat="42.97121" lon="0.87988">
        <ele>1404.639</ele>
        <time>2014-03-14T11:56:28Z</time>
      </trkpt>
      <trkpt lat="42.97127" lon="0.87982">
        <ele>1401.945</ele>
        <time>2014-03-14T11:56:29Z</time>
      </trkpt>
      <trkpt lat="42.97127" lon="0.87982">
        <ele>1399.295</ele>
        <time>2014-03-14T11:56:29Z</time>
      </trkpt>
      <trkpt lat="42.9714" lon="0.87973">
        <ele>1396.67</ele>
        <time>2014-03-14T11:56:31Z</time>
      </trkpt>
      <trkpt lat="42.97146" lon="0.87968">
        <ele>1393.139</ele>
        <time>2014-03-14T11:56:32Z</time>
      </trkpt>
      <trkpt lat="42.97153" lon="0.87962">
        <ele>1390.238</ele>
        <time>2014-03-14T11:56:33Z</time>
      </trkpt>
      <trkpt lat="42.97161" lon="0.87955">
        <ele>1387.244</ele>
        <time>2014-03-14T11:56:34Z</time>
      </trkpt>
      <trkpt lat="42.97168" lon="0.87948">
        <ele>1385.055</ele>
        <time>2014-03-14T11:56:35Z</time>
      </trkpt>
      <trkpt lat="42.97176" lon="0.8794">
        <ele>1384.007</ele>
        <time>2014-03-14T11:56:36Z</time>
      </trkpt>
      <trkpt lat="42.97183" lon="0.87932">
        <ele>1383.528</ele>
        <time>2014-03-14T11:56:37Z</time>
      </trkpt>
      <trkpt lat="42.9719" lon="0.87924">
        <ele>1383.551</ele>
        <time>2014-03-14T11:56:38Z</time>
      </trkpt>
      <trkpt lat="42.97196" lon="0.87916">
        <ele>1383.516</ele>
        <time>2014-03-14T11:56:39Z</time>
      </trkpt>
      <trkpt lat="42.97203" lon="0.87908">
        <ele>1383.112</ele>
        <time>2014-03-14T11:56:40Z</time>
      </trkpt>
      <trkpt lat="42.97218" lon="0.87893">
        <ele>1382.808</ele>
        <time>2014-03-14T11:56:42Z</time>
      </trkpt>
      <trkpt lat="42.97226" lon="0.87885">
        <ele>1382.65</ele>
        <time>2014-03-14T11:56:43Z</time>
      </trkpt>
      <trkpt lat="42.97232" lon="0.87876">
        <ele>1382.426</ele>
        <time>2014-03-14T11:56:44Z</time>
      </trkpt>
      <trkpt lat="42.97239" lon="0.87868">
        <ele>1382.014</ele>
        <time>2014-03-14T11:56:45Z</time>
      </trkpt>
      <trkpt lat="42.97245" lon="0.87859">
        <ele>1380.96</ele>
        <time>2014-03-14T11:56:46Z</time>
      </trkpt>
      <trkpt lat="42.97253" lon="0.87851">
        <ele>1379.459</ele>
        <time>2014-03-14T11:56:47Z</time>
      </trkpt>
      <trkpt lat="42.97261" lon="0.87844">
        <ele>1377.498</ele>
        <time>2014-03-14T11:56:48Z</time>
      </trkpt>
      <trkpt lat="42.97269" lon="0.87837">
        <ele>1375.577</ele>
        <time>2014-03-14T11:56:49Z</time>
      </trkpt>
      <trkpt lat="42.97277" lon="0.87831">
        <ele>1374.262</ele>
        <time>2014-03-14T11:56:50Z</time>
      </trkpt>
      <trkpt lat="42.97285" lon="0.87824">
        <ele>1373.203</ele>
        <time>2014-03-14T11:56:51Z</time>
      </trkpt>
      <trkpt lat="42.97292" lon="0.87816">
        <ele>1372.106</ele>
        <time>2014-03-14T11:56:52Z</time>
      </trkpt>
      <trkpt lat="42.97299" lon="0.87808">
        <ele>1371.289</ele>
        <time>2014-03-14T11:56:53Z</time>
      </trkpt>
      <trkpt lat="42.97307" lon="0.87801">
        <ele>1370.412</ele>
        <time>2014-03-14T11:56:54Z</time>
      </trkpt>
      <trkpt lat="42.97316" lon="0.87794">
        <ele>1370.213</ele>
        <time>2014-03-14T11:56:55Z</time>
      </trkpt>
      <trkpt lat="42.97316" lon="0.87794">
        <ele>1371.032</ele>
        <time>2014-03-14T11:56:55Z</time>
      </trkpt>
      <trkpt lat="42.97341" lon="0.87773">
        <ele>1372.809</ele>
        <time>2014-03-14T11:56:58Z</time>
      </trkpt>
      <trkpt lat="42.97349" lon="0.87768">
        <ele>1374.318</ele>
        <time>2014-03-14T11:56:59Z</time>
      </trkpt>
      <trkpt lat="42.97357" lon="0.87765">
        <ele>1374.765</ele>
        <time>2014-03-14T11:57:00Z</time>
      </trkpt>
      <trkpt lat="42.97365" lon="0.87762">
        <ele>1374.467</ele>
        <time>2014-03-14T11:57:01Z</time>
      </trkpt>
      <trkpt lat="42.97373" lon="0.87758">
        <ele>1373.71</ele>
        <time>2014-03-14T11:57:02Z</time>
      </trkpt>
      <trkpt lat="42.97381" lon="0.87754">
        <ele>1372.871</ele>
        <time>2014-03-14T11:57:03Z</time>
      </trkpt>
      <trkpt lat="42.97388" lon="0.87749">
        <ele>1371.834</ele>
        <time>2014-03-14T11:57:04Z</time>
      </trkpt>
      <trkpt lat="42.97396" lon="0.87746">
        <ele>1370.418</ele>
        <time>2014-03-14T11:57:05Z</time>
      </trkpt>
      <trkpt lat="42.97403" lon="0.87742">
        <ele>1368.719</ele>
        <time>2014-03-14T11:57:06Z</time>
      </trkpt>
      <trkpt lat="42.9741" lon="0.87737">
        <ele>1366.49</ele>
        <time>2014-03-14T11:57:07Z</time>
      </trkpt>
      <trkpt lat="42.97418" lon="0.87731">
        <ele>1364.685</ele>
        <time>2014-03-14T11:57:08Z</time>
      </trkpt>
      <trkpt lat="42.97426" lon="0.87726">
        <ele>1362.859</ele>
        <time>2014-03-14T11:57:09Z</time>
      </trkpt>
      <trkpt lat="42.97441" lon="0.87715">
        <ele>1362.056</ele>
        <time>2014-03-14T11:57:11Z</time>
      </trkpt>
      <trkpt lat="42.97448" lon="0.87708">
        <ele>1361.707</ele>
        <time>2014-03-14T11:57:12Z</time>
      </trkpt>
      <trkpt lat="42.97455" lon="0.87702">
        <ele>1361.752</ele>
        <time>2014-03-14T11:57:13Z</time>
      </trkpt>
      <trkpt lat="42.97462" lon="0.87694">
        <ele>1362.137</ele>
        <time>2014-03-14T11:57:14Z</time>
      </trkpt>
      <trkpt lat="42.9747" lon="0.87688">
        <ele>1362.804</ele>
        <time>2014-03-14T11:57:15Z</time>
      </trkpt>
      <trkpt lat="42.97477" lon="0.87683">
        <ele>1364.153</ele>
        <time>2014-03-14T11:57:16Z</time>
      </trkpt>
      <trkpt lat="42.97485" lon="0.87679">
        <ele>1365.579</ele>
        <time>2014-03-14T11:57:17Z</time>
      </trkpt>
      <trkpt lat="42.97492" lon="0.87675">
        <ele>1366.862</ele>
        <time>2014-03-14T11:57:18Z</time>
      </trkpt>
      <trkpt lat="42.97499" lon="0.87669">
        <ele>1368.192</ele>
        <time>2014-03-14T11:57:19Z</time>
      </trkpt>
      <trkpt lat="42.97506" lon="0.87663">
        <ele>1369.459</ele>
        <time>2014-03-14T11:57:20Z</time>
      </trkpt>
      <trkpt lat="42.97513" lon="0.87658">
        <ele>1370.613</ele>
        <time>2014-03-14T11:57:21Z</time>
      </trkpt>
      <trkpt lat="42.97528" lon="0.87652">
        <ele>1371.754</ele>
        <time>2014-03-14T11:57:23Z</time>
      </trkpt>
      <trkpt lat="42.97534" lon="0.87651">
        <ele>1372.516</ele>
        <time>2014-03-14T11:57:24Z</time>
      </trkpt>
      <trkpt lat="42.97534" lon="0.87651">
        <ele>1373.012</ele>
        <time>2014-03-14T11:57:24Z</time>
      </trkpt>
      <trkpt lat="42.97548" lon="0.87651">
        <ele>1373.473</ele>
        <time>2014-03-14T11:57:26Z</time>
      </trkpt>
      <trkpt lat="42.97555" lon="0.87654">
        <ele>1374.071</ele>
        <time>2014-03-14T11:57:27Z</time>
      </trkpt>
      <trkpt lat="42.97561" lon="0.87658">
        <ele>1375.165</ele>
        <time>2014-03-14T11:57:28Z</time>
      </trkpt>
      <trkpt lat="42.97567" lon="0.87663">
        <ele>1376.512</ele>
        <time>2014-03-14T11:57:29Z</time>
      </trkpt>
      <trkpt lat="42.97572" lon="0.87669">
        <ele>1377.736</ele>
        <time>2014-03-14T11:57:30Z</time>
      </trkpt>
      <trkpt lat="42.97577" lon="0.87674">
        <ele>1378.82</ele>
        <time>2014-03-14T11:57:31Z</time>
      </trkpt>
      <trkpt lat="42.97581" lon="0.8768">
        <ele>1379.981</ele>
        <time>2014-03-14T11:57:32Z</time>
      </trkpt>
      <trkpt lat="42.97585" lon="0.87688">
        <ele>1381.421</ele>
        <time>2014-03-14T11:57:33Z</time>
      </trkpt>
      <trkpt lat="42.97587" lon="0.87695">
        <ele>1383.219</ele>
        <time>2014-03-14T11:57:34Z</time>
      </trkpt>
      <trkpt lat="42.97588" lon="0.87703">
        <ele>1384.879</ele>
        <time>2014-03-14T11:57:35Z</time>
      </trkpt>
      <trkpt lat="42.97589" lon="0.87712">
        <ele>1386.074</ele>
        <time>2014-03-14T11:57:36Z</time>
      </trkpt>
      <trkpt lat="42.97585" lon="0.87733">
        <ele>1386.768</ele>
        <time>2014-03-14T11:57:38Z</time>
      </trkpt>
      <trkpt lat="42.97581" lon="0.87744">
        <ele>1387.661</ele>
        <time>2014-03-14T11:57:39Z</time>
      </trkpt>
      <trkpt lat="42.97581" lon="0.87744">
        <ele>1389.494</ele>
        <time>2014-03-14T11:57:39Z</time>
      </trkpt>
      <trkpt lat="42.97569" lon="0.87761">
        <ele>1391.388</ele>
        <time>2014-03-14T11:57:41Z</time>
      </trkpt>
      <trkpt lat="42.97563" lon="0.87767">
        <ele>1393.759</ele>
        <time>2014-03-14T11:57:42Z</time>
      </trkpt>
      <trkpt lat="42.97557" lon="0.87772">
        <ele>1395.415</ele>
        <time>2014-03-14T11:57:43Z</time>
      </trkpt>
      <trkpt lat="42.9755" lon="0.87776">
        <ele>1396.189</ele>
        <time>2014-03-14T11:57:44Z</time>
      </trkpt>
      <trkpt lat="42.97543" lon="0.87778">
        <ele>1396.365</ele>
        <time>2014-03-14T11:57:45Z</time>
      </trkpt>
      <trkpt lat="42.97535" lon="0.87777">
        <ele>1396.223</ele>
        <time>2014-03-14T11:57:46Z</time>
      </trkpt>
      <trkpt lat="42.97527" lon="0.87773">
        <ele>1396.438</ele>
        <time>2014-03-14T11:57:47Z</time>
      </trkpt>
      <trkpt lat="42.9752" lon="0.87766">
        <ele>1397.033</ele>
        <time>2014-03-14T11:57:48Z</time>
      </trkpt>
      <trkpt lat="42.97516" lon="0.87758">
        <ele>1397.943</ele>
        <time>2014-03-14T11:57:49Z</time>
      </trkpt>
      <trkpt lat="42.97512" lon="0.87751">
        <ele>1398.936</ele>
        <time>2014-03-14T11:57:50Z</time>
      </trkpt>
      <trkpt lat="42.97508" lon="0.87736">
        <ele>1399.588</ele>
        <time>2014-03-14T11:57:52Z</time>
      </trkpt>
      <trkpt lat="42.97507" lon="0.87728">
        <ele>1399.262</ele>
        <time>2014-03-14T11:57:53Z</time>
      </trkpt>
      <trkpt lat="42.97508" lon="0.87718">
        <ele>1398.064</ele>
        <time>2014-03-14T11:57:54Z</time>
      </trkpt>
      <trkpt lat="42.97509" lon="0.87707">
        <ele>1396.452</ele>
        <time>2014-03-14T11:57:55Z</time>
      </trkpt>
      <trkpt lat="42.97512" lon="0.87697">
        <ele>1395.143</ele>
        <time>2014-03-14T11:57:56Z</time>
      </trkpt>
      <trkpt lat="42.97517" lon="0.87689">
        <ele>1394.391</ele>
        <time>2014-03-14T11:57:57Z</time>
      </trkpt>
      <trkpt lat="42.97523" lon="0.87681">
        <ele>1394.428</ele>
        <time>2014-03-14T11:57:58Z</time>
      </trkpt>
      <trkpt lat="42.97529" lon="0.87675">
        <ele>1395.27</ele>
        <time>2014-03-14T11:57:59Z</time>
      </trkpt>
      <trkpt lat="42.97535" lon="0.8767">
        <ele>1396.503</ele>
        <time>2014-03-14T11:58:00Z</time>
      </trkpt>
      <trkpt lat="42.97541" lon="0.87666">
        <ele>1397.485</ele>
        <time>2014-03-14T11:58:01Z</time>
      </trkpt>
      <trkpt lat="42.97547" lon="0.87663">
        <ele>1398.307</ele>
        <time>2014-03-14T11:58:02Z</time>
      </trkpt>
      <trkpt lat="42.97561" lon="0.87659">
        <ele>1398.754</ele>
        <time>2014-03-14T11:58:04Z</time>
      </trkpt>
      <trkpt lat="42.97561" lon="0.87659">
        <ele>1399.315</ele>
        <time>2014-03-14T11:58:04Z</time>
      </trkpt>
      <trkpt lat="42.97576" lon="0.87658">
        <ele>1399.954</ele>
        <time>2014-03-14T11:58:06Z</time>
      </trkpt>
      <trkpt lat="42.97584" lon="0.87658">
        <ele>1400.697</ele>
        <time>2014-03-14T11:58:07Z</time>
      </trkpt>
      <trkpt lat="42.97592" lon="0.8766">
        <ele>1401.254</ele>
        <time>2014-03-14T11:58:08Z</time>
      </trkpt>
      <trkpt lat="42.976" lon="0.87663">
        <ele>1401.655</ele>
        <time>2014-03-14T11:58:09Z</time>
      </trkpt>
      <trkpt lat="42.97607" lon="0.87668">
        <ele>1401.914</ele>
        <time>2014-03-14T11:58:10Z</time>
      </trkpt>
      <trkpt lat="42.97614" lon="0.87676">
        <ele>1402.388</ele>
        <time>2014-03-14T11:58:11Z</time>
      </trkpt>
      <trkpt lat="42.97618" lon="0.87686">
        <ele>1403.097</ele>
        <time>2014-03-14T11:58:12Z</time>
      </trkpt>
      <trkpt lat="42.97622" lon="0.87696">
        <ele>1404.046</ele>
        <time>2014-03-14T11:58:13Z</time>
      </trkpt>
      <trkpt lat="42.97624" lon="0.87706">
        <ele>1404.74</ele>
        <time>2014-03-14T11:58:14Z</time>
      </trkpt>
      <trkpt lat="42.97625" lon="0.87717">
        <ele>1404.818</ele>
        <time>2014-03-14T11:58:15Z</time>
      </trkpt>
      <trkpt lat="42.97624" lon="0.87728">
        <ele>1404.708</ele>
        <time>2014-03-14T11:58:16Z</time>
      </trkpt>
      <trkpt lat="42.97621" lon="0.87739">
        <ele>1404.673</ele>
        <time>2014-03-14T11:58:17Z</time>
      </trkpt>
      <trkpt lat="42.97617" lon="0.87749">
        <ele>1404.908</ele>
        <time>2014-03-14T11:58:18Z</time>
      </trkpt>
      <trkpt lat="42.97611" lon="0.87757">
        <ele>1405.266</ele>
        <time>2014-03-14T11:58:19Z</time>
      </trkpt>
      <trkpt lat="42.97597" lon="0.87768">
        <ele>1405.641</ele>
        <time>2014-03-14T11:58:21Z</time>
      </trkpt>
      <trkpt lat="42.97588" lon="0.87772">
        <ele>1405.828</ele>
        <time>2014-03-14T11:58:22Z</time>
      </trkpt>
      <trkpt lat="42.97579" lon="0.87775">
        <ele>1406.068</ele>
        <time>2014-03-14T11:58:23Z</time>
      </trkpt>
      <trkpt lat="42.97569" lon="0.87774">
        <ele>1406.59</ele>
        <time>2014-03-14T11:58:24Z</time>
      </trkpt>
      <trkpt lat="42.97561" lon="0.87769">
        <ele>1407.5</ele>
        <time>2014-03-14T11:58:25Z</time>
      </trkpt>
      <trkpt lat="42.97555" lon="0.87762">
        <ele>1409.337</ele>
        <time>2014-03-14T11:58:26Z</time>
      </trkpt>
      <trkpt lat="42.97551" lon="0.87754">
        <ele>1411.534</ele>
        <time>2014-03-14T11:58:27Z</time>
      </trkpt>
      <trkpt lat="42.97549" lon="0.87747">
        <ele>1413.465</ele>
        <time>2014-03-14T11:58:28Z</time>
      </trkpt>
      <trkpt lat="42.97548" lon="0.87741">
        <ele>1414.509</ele>
        <time>2014-03-14T11:58:29Z</time>
      </trkpt>
      <trkpt lat="42.97548" lon="0.87733">
        <ele>1414.71</ele>
        <time>2014-03-14T11:58:30Z</time>
      </trkpt>
      <trkpt lat="42.97548" lon="0.87723">
        <ele>1414.658</ele>
        <time>2014-03-14T11:58:31Z</time>
      </trkpt>
      <trkpt lat="42.97552" lon="0.87705">
        <ele>1414.87</ele>
        <time>2014-03-14T11:58:33Z</time>
      </trkpt>
      <trkpt lat="42.97555" lon="0.87698">
        <ele>1415.538</ele>
        <time>2014-03-14T11:58:34Z</time>
      </trkpt>
      <trkpt lat="42.97555" lon="0.87698">
        <ele>1416.432</ele>
        <time>2014-03-14T11:58:34Z</time>
      </trkpt>
      <trkpt lat="42.97565" lon="0.87691">
        <ele>1417.568</ele>
        <time>2014-03-14T11:58:36Z</time>
      </trkpt>
      <trkpt lat="42.97571" lon="0.87688">
        <ele>1418.639</ele>
        <time>2014-03-14T11:58:37Z</time>
      </trkpt>
      <trkpt lat="42.97577" lon="0.87685">
        <ele>1420.018</ele>
        <time>2014-03-14T11:58:38Z</time>
      </trkpt>
      <trkpt lat="42.97583" lon="0.87685">
        <ele>1421.702</ele>
        <time>2014-03-14T11:58:39Z</time>
      </trkpt>
      <trkpt lat="42.9759" lon="0.87686">
        <ele>1423.243</ele>
        <time>2014-03-14T11:58:40Z</time>
      </trkpt>
      <trkpt lat="42.97596" lon="0.8769">
        <ele>1424.543</ele>
        <time>2014-03-14T11:58:41Z</time>
      </trkpt>
      <trkpt lat="42.97601" lon="0.87694">
        <ele>1425.341</ele>
        <time>2014-03-14T11:58:42Z</time>
      </trkpt>
      <trkpt lat="42.97605" lon="0.87701">
        <ele>1425.395</ele>
        <time>2014-03-14T11:58:43Z</time>
      </trkpt>
      <trkpt lat="42.97609" lon="0.87709">
        <ele>1425.197</ele>
        <time>2014-03-14T11:58:44Z</time>
      </trkpt>
      <trkpt lat="42.97612" lon="0.87718">
        <ele>1425.297</ele>
        <time>2014-03-14T11:58:45Z</time>
      </trkpt>
      <trkpt lat="42.97613" lon="0.87738">
        <ele>1425.897</ele>
        <time>2014-03-14T11:58:47Z</time>
      </trkpt>
      <trkpt lat="42.97611" lon="0.87745">
        <ele>1426.539</ele>
        <time>2014-03-14T11:58:48Z</time>
      </trkpt>
      <trkpt lat="42.97607" lon="0.87753">
        <ele>1426.571</ele>
        <time>2014-03-14T11:58:49Z</time>
      </trkpt>
      <trkpt lat="42.97607" lon="0.87753">
        <ele>1426.168</ele>
        <time>2014-03-14T11:58:49Z</time>
      </trkpt>
      <trkpt lat="42.97597" lon="0.87767">
        <ele>1425.758</ele>
        <time>2014-03-14T11:58:51Z</time>
      </trkpt>
      <trkpt lat="42.9759" lon="0.87773">
        <ele>1425.747</ele>
        <time>2014-03-14T11:58:52Z</time>
      </trkpt>
      <trkpt lat="42.97583" lon="0.87777">
        <ele>1426.158</ele>
        <time>2014-03-14T11:58:53Z</time>
      </trkpt>
      <trkpt lat="42.97575" lon="0.87778">
        <ele>1426.954</ele>
        <time>2014-03-14T11:58:54Z</time>
      </trkpt>
      <trkpt lat="42.97567" lon="0.87775">
        <ele>1427.339</ele>
        <time>2014-03-14T11:58:55Z</time>
      </trkpt>
      <trkpt lat="42.97559" lon="0.8777">
        <ele>1427.623</ele>
        <time>2014-03-14T11:58:56Z</time>
      </trkpt>
      <trkpt lat="42.97552" lon="0.87761">
        <ele>1428.208</ele>
        <time>2014-03-14T11:58:57Z</time>
      </trkpt>
      <trkpt lat="42.97548" lon="0.87751">
        <ele>1429.207</ele>
        <time>2014-03-14T11:58:58Z</time>
      </trkpt>
      <trkpt lat="42.97547" lon="0.87741">
        <ele>1430.345</ele>
        <time>2014-03-14T11:58:59Z</time>
      </trkpt>
      <trkpt lat="42.97548" lon="0.87731">
        <ele>1431.555</ele>
        <time>2014-03-14T11:59:00Z</time>
      </trkpt>
      <trkpt lat="42.97554" lon="0.87713">
        <ele>1432.926</ele>
        <time>2014-03-14T11:59:02Z</time>
      </trkpt>
      <trkpt lat="42.97559" lon="0.87707">
        <ele>1434.527</ele>
        <time>2014-03-14T11:59:03Z</time>
      </trkpt>
      <trkpt lat="42.97565" lon="0.87702">
        <ele>1436.037</ele>
        <time>2014-03-14T11:59:04Z</time>
      </trkpt>
      <trkpt lat="42.97572" lon="0.87699">
        <ele>1437.153</ele>
        <time>2014-03-14T11:59:05Z</time>
      </trkpt>
      <trkpt lat="42.97579" lon="0.87697">
        <ele>1439.062</ele>
        <time>2014-03-14T11:59:06Z</time>
      </trkpt>
      <trkpt lat="42.97586" lon="0.87697">
        <ele>1440.773</ele>
        <time>2014-03-14T11:59:07Z</time>
      </trkpt>
      <trkpt lat="42.97591" lon="0.877">
        <ele>1441.949</ele>
        <time>2014-03-14T11:59:08Z</time>
      </trkpt>
      <trkpt lat="42.97597" lon="0.87702">
        <ele>1441.937</ele>
        <time>2014-03-14T11:59:09Z</time>
      </trkpt>
      <trkpt lat="42.97602" lon="0.87707">
        <ele>1440.954</ele>
        <time>2014-03-14T11:59:10Z</time>
      </trkpt>
      <trkpt lat="42.97612" lon="0.87723">
        <ele>1439.714</ele>
        <time>2014-03-14T11:59:12Z</time>
      </trkpt>
      <trkpt lat="42.97613" lon="0.87734">
        <ele>1438.47</ele>
        <time>2014-03-14T11:59:13Z</time>
      </trkpt>
      <trkpt lat="42.97611" lon="0.87745">
        <ele>1437.356</ele>
        <time>2014-03-14T11:59:14Z</time>
      </trkpt>
      <trkpt lat="42.97607" lon="0.87754">
        <ele>1436.581</ele>
        <time>2014-03-14T11:59:15Z</time>
      </trkpt>
      <trkpt lat="42.97601" lon="0.8776">
        <ele>1435.983</ele>
        <time>2014-03-14T11:59:16Z</time>
      </trkpt>
      <trkpt lat="42.97595" lon="0.87764">
        <ele>1435.31</ele>
        <time>2014-03-14T11:59:17Z</time>
      </trkpt>
      <trkpt lat="42.97587" lon="0.87766">
        <ele>1434.556</ele>
        <time>2014-03-14T11:59:18Z</time>
      </trkpt>
      <trkpt lat="42.97579" lon="0.87767">
        <ele>1433.827</ele>
        <time>2014-03-14T11:59:19Z</time>
      </trkpt>
      <trkpt lat="42.97571" lon="0.87765">
        <ele>1433.228</ele>
        <time>2014-03-14T11:59:20Z</time>
      </trkpt>
      <trkpt lat="42.97564" lon="0.87759">
        <ele>1432.759</ele>
        <time>2014-03-14T11:59:21Z</time>
      </trkpt>
      <trkpt lat="42.97558" lon="0.87752">
        <ele>1432.894</ele>
        <time>2014-03-14T11:59:22Z</time>
      </trkpt>
      <trkpt lat="42.97554" lon="0.87743">
        <ele>1433.828</ele>
        <time>2014-03-14T11:59:23Z</time>
      </trkpt>
      <trkpt lat="42.97551" lon="0.87734">
        <ele>1435.067</ele>
        <time>2014-03-14T11:59:24Z</time>
      </trkpt>
      <trkpt lat="42.9755" lon="0.87726">
        <ele>1436.261</ele>
        <time>2014-03-14T11:59:25Z</time>
      </trkpt>
      <trkpt lat="42.97548" lon="0.87708">
        <ele>1437.117</ele>
        <time>2014-03-14T11:59:27Z</time>
      </trkpt>
      <trkpt lat="42.97546" lon="0.87699">
        <ele>1437.865</ele>
        <time>2014-03-14T11:59:28Z</time>
      </trkpt>
      <trkpt lat="42.97546" lon="0.87688">
        <ele>1438.642</ele>
        <time>2014-03-14T11:59:29Z</time>
      </trkpt>
      <trkpt lat="42.97547" lon="0.87678">
        <ele>1440.029</ele>
        <time>2014-03-14T11:59:30Z</time>
      </trkpt>
      <trkpt lat="42.97549" lon="0.87669">
        <ele>1441.631</ele>
        <time>2014-03-14T11:59:31Z</time>
      </trkpt>
      <trkpt lat="42.97552" lon="0.87661">
        <ele>1443.64</ele>
        <time>2014-03-14T11:59:32Z</time>
      </trkpt>
      <trkpt lat="42.97554" lon="0.87652">
        <ele>1445.305</ele>
        <time>2014-03-14T11:59:33Z</time>
      </trkpt>
      <trkpt lat="42.97557" lon="0.87642">
        <ele>1447.095</ele>
        <time>2014-03-14T11:59:34Z</time>
      </trkpt>
      <trkpt lat="42.97563" lon="0.87622">
        <ele>1448.434</ele>
        <time>2014-03-14T11:59:36Z</time>
      </trkpt>
      <trkpt lat="42.97565" lon="0.87613">
        <ele>1449.458</ele>
        <time>2014-03-14T11:59:37Z</time>
      </trkpt>
      <trkpt lat="42.97568" lon="0.87604">
        <ele>1449.965</ele>
        <time>2014-03-14T11:59:38Z</time>
      </trkpt>
      <trkpt lat="42.9757" lon="0.87595">
        <ele>1450.178</ele>
        <time>2014-03-14T11:59:39Z</time>
      </trkpt>
      <trkpt lat="42.97573" lon="0.87585">
        <ele>1450.538</ele>
        <time>2014-03-14T11:59:40Z</time>
      </trkpt>
      <trkpt lat="42.97578" lon="0.87576">
        <ele>1451.039</ele>
        <time>2014-03-14T11:59:41Z</time>
      </trkpt>
      <trkpt lat="42.97583" lon="0.8757">
        <ele>1451.545</ele>
        <time>2014-03-14T11:59:42Z</time>
      </trkpt>
      <trkpt lat="42.9759" lon="0.87566">
        <ele>1451.936</ele>
        <time>2014-03-14T11:59:43Z</time>
      </trkpt>
      <trkpt lat="42.97597" lon="0.87563">
        <ele>1451.998</ele>
        <time>2014-03-14T11:59:44Z</time>
      </trkpt>
      <trkpt lat="42.97611" lon="0.87561">
        <ele>1451.849</ele>
        <time>2014-03-14T11:59:46Z</time>
      </trkpt>
      <trkpt lat="42.97618" lon="0.87562">
        <ele>1451.315</ele>
        <time>2014-03-14T11:59:47Z</time>
      </trkpt>
      <trkpt lat="42.97626" lon="0.87565">
        <ele>1450.494</ele>
        <time>2014-03-14T11:59:48Z</time>
      </trkpt>
      <trkpt lat="42.97632" lon="0.87571">
        <ele>1449.542</ele>
        <time>2014-03-14T11:59:49Z</time>
      </trkpt>
      <trkpt lat="42.97638" lon="0.87577">
        <ele>1448.458</ele>
        <time>2014-03-14T11:59:50Z</time>
      </trkpt>
      <trkpt lat="42.97643" lon="0.87585">
        <ele>1446.953</ele>
        <time>2014-03-14T11:59:51Z</time>
      </trkpt>
      <trkpt lat="42.97647" lon="0.87595">
        <ele>1445.495</ele>
        <time>2014-03-14T11:59:52Z</time>
      </trkpt>
      <trkpt lat="42.97649" lon="0.87606">
        <ele>1444.431</ele>
        <time>2014-03-14T11:59:53Z</time>
      </trkpt>
      <trkpt lat="42.9765" lon="0.87618">
        <ele>1443.329</ele>
        <time>2014-03-14T11:59:54Z</time>
      </trkpt>
      <trkpt lat="42.97649" lon="0.8763">
        <ele>1442.362</ele>
        <time>2014-03-14T11:59:55Z</time>
      </trkpt>
      <trkpt lat="42.97645" lon="0.87641">
        <ele>1441.564</ele>
        <time>2014-03-14T11:59:56Z</time>
      </trkpt>
      <trkpt lat="42.97639" lon="0.8765">
        <ele>1440.723</ele>
        <time>2014-03-14T11:59:57Z</time>
      </trkpt>
      <trkpt lat="42.97631" lon="0.87656">
        <ele>1439.887</ele>
        <time>2014-03-14T11:59:58Z</time>
      </trkpt>
      <trkpt lat="42.97622" lon="0.87659">
        <ele>1439.043</ele>
        <time>2014-03-14T11:59:59Z</time>
      </trkpt>
      <trkpt lat="42.97606" lon="0.87653">
        <ele>1438.249</ele>
        <time>2014-03-14T12:00:01Z</time>
      </trkpt>
      <trkpt lat="42.97599" lon="0.87647">
        <ele>1437.644</ele>
        <time>2014-03-14T12:00:02Z</time>
      </trkpt>
      <trkpt lat="42.97594" lon="0.87639">
        <ele>1437.35</ele>
        <time>2014-03-14T12:00:03Z</time>
      </trkpt>
      <trkpt lat="42.97589" lon="0.87631">
        <ele>1437.338</ele>
        <time>2014-03-14T12:00:04Z</time>
      </trkpt>
      <trkpt lat="42.97586" lon="0.87621">
        <ele>1437.496</ele>
        <time>2014-03-14T12:00:05Z</time>
      </trkpt>
      <trkpt lat="42.97584" lon="0.87611">
        <ele>1437.64</ele>
        <time>2014-03-14T12:00:06Z</time>
      </trkpt>
      <trkpt lat="42.97583" lon="0.87601">
        <ele>1437.783</ele>
        <time>2014-03-14T12:00:07Z</time>
      </trkpt>
      <trkpt lat="42.97583" lon="0.8759">
        <ele>1437.834</ele>
        <time>2014-03-14T12:00:08Z</time>
      </trkpt>
      <trkpt lat="42.97584" lon="0.8758">
        <ele>1437.801</ele>
        <time>2014-03-14T12:00:09Z</time>
      </trkpt>
      <trkpt lat="42.97586" lon="0.8757">
        <ele>1437.637</ele>
        <time>2014-03-14T12:00:10Z</time>
      </trkpt>
      <trkpt lat="42.97589" lon="0.87561">
        <ele>1437.254</ele>
        <time>2014-03-14T12:00:11Z</time>
      </trkpt>
      <trkpt lat="42.97595" lon="0.87544">
        <ele>1436.514</ele>
        <time>2014-03-14T12:00:13Z</time>
      </trkpt>
      <trkpt lat="42.97598" lon="0.87536">
        <ele>1435.449</ele>
        <time>2014-03-14T12:00:14Z</time>
      </trkpt>
      <trkpt lat="42.97598" lon="0.87536">
        <ele>1434.612</ele>
        <time>2014-03-14T12:00:14Z</time>
      </trkpt>
      <trkpt lat="42.97606" lon="0.87524">
        <ele>1433.475</ele>
        <time>2014-03-14T12:00:16Z</time>
      </trkpt>
      <trkpt lat="42.97611" lon="0.8752">
        <ele>1432.286</ele>
        <time>2014-03-14T12:00:17Z</time>
      </trkpt>
      <trkpt lat="42.97618" lon="0.87517">
        <ele>1430.561</ele>
        <time>2014-03-14T12:00:18Z</time>
      </trkpt>
      <trkpt lat="42.97624" lon="0.87516">
        <ele>1429.132</ele>
        <time>2014-03-14T12:00:19Z</time>
      </trkpt>
      <trkpt lat="42.97631" lon="0.87516">
        <ele>1427.52</ele>
        <time>2014-03-14T12:00:20Z</time>
      </trkpt>
      <trkpt lat="42.97638" lon="0.87519">
        <ele>1426.299</ele>
        <time>2014-03-14T12:00:21Z</time>
      </trkpt>
      <trkpt lat="42.97644" lon="0.87523">
        <ele>1424.999</ele>
        <time>2014-03-14T12:00:22Z</time>
      </trkpt>
      <trkpt lat="42.9765" lon="0.87528">
        <ele>1423.445</ele>
        <time>2014-03-14T12:00:23Z</time>
      </trkpt>
      <trkpt lat="42.97656" lon="0.87534">
        <ele>1422.039</ele>
        <time>2014-03-14T12:00:24Z</time>
      </trkpt>
      <trkpt lat="42.97662" lon="0.87539">
        <ele>1420.756</ele>
        <time>2014-03-14T12:00:25Z</time>
      </trkpt>
      <trkpt lat="42.97669" lon="0.87544">
        <ele>1419.532</ele>
        <time>2014-03-14T12:00:26Z</time>
      </trkpt>
      <trkpt lat="42.97681" lon="0.87553">
        <ele>1418.465</ele>
        <time>2014-03-14T12:00:28Z</time>
      </trkpt>
      <trkpt lat="42.97687" lon="0.87557">
        <ele>1417.475</ele>
        <time>2014-03-14T12:00:29Z</time>
      </trkpt>
      <trkpt lat="42.97687" lon="0.87557">
        <ele>1416.215</ele>
        <time>2014-03-14T12:00:29Z</time>
      </trkpt>
      <trkpt lat="42.97699" lon="0.87568">
        <ele>1414.766</ele>
        <time>2014-03-14T12:00:31Z</time>
      </trkpt>
      <trkpt lat="42.97704" lon="0.87575">
        <ele>1413.494</ele>
        <time>2014-03-14T12:00:32Z</time>
      </trkpt>
      <trkpt lat="42.9771" lon="0.87582">
        <ele>1412.464</ele>
        <time>2014-03-14T12:00:33Z</time>
      </trkpt>
      <trkpt lat="42.97715" lon="0.87589">
        <ele>1411.492</ele>
        <time>2014-03-14T12:00:34Z</time>
      </trkpt>
      <trkpt lat="42.97719" lon="0.87597">
        <ele>1410.573</ele>
        <time>2014-03-14T12:00:35Z</time>
      </trkpt>
      <trkpt lat="42.97722" lon="0.87606">
        <ele>1409.552</ele>
        <time>2014-03-14T12:00:36Z</time>
      </trkpt>
      <trkpt lat="42.97724" lon="0.87616">
        <ele>1408.374</ele>
        <time>2014-03-14T12:00:37Z</time>
      </trkpt>
      <trkpt lat="42.97726" lon="0.87626">
        <ele>1406.926</ele>
        <time>2014-03-14T12:00:38Z</time>
      </trkpt>
      <trkpt lat="42.97726" lon="0.87638">
        <ele>1405.664</ele>
        <time>2014-03-14T12:00:39Z</time>
      </trkpt>
      <trkpt lat="42.97726" lon="0.87649">
        <ele>1404.324</ele>
        <time>2014-03-14T12:00:40Z</time>
      </trkpt>
      <trkpt lat="42.97724" lon="0.8766">
        <ele>1403.081</ele>
        <time>2014-03-14T12:00:41Z</time>
      </trkpt>
      <trkpt lat="42.97717" lon="0.87682">
        <ele>1402.054</ele>
        <time>2014-03-14T12:00:43Z</time>
      </trkpt>
      <trkpt lat="42.97713" lon="0.87692">
        <ele>1401.223</ele>
        <time>2014-03-14T12:00:44Z</time>
      </trkpt>
      <trkpt lat="42.97713" lon="0.87692">
        <ele>1400.47</ele>
        <time>2014-03-14T12:00:44Z</time>
      </trkpt>
      <trkpt lat="42.97702" lon="0.87709">
        <ele>1399.624</ele>
        <time>2014-03-14T12:00:46Z</time>
      </trkpt>
      <trkpt lat="42.97696" lon="0.87717">
        <ele>1398.594</ele>
        <time>2014-03-14T12:00:47Z</time>
      </trkpt>
      <trkpt lat="42.9769" lon="0.87724">
        <ele>1397.399</ele>
        <time>2014-03-14T12:00:48Z</time>
      </trkpt>
      <trkpt lat="42.97682" lon="0.87731">
        <ele>1396.381</ele>
        <time>2014-03-14T12:00:49Z</time>
      </trkpt>
      <trkpt lat="42.97675" lon="0.87736">
        <ele>1395.461</ele>
        <time>2014-03-14T12:00:50Z</time>
      </trkpt>
      <trkpt lat="42.97667" lon="0.87739">
        <ele>1394.824</ele>
        <time>2014-03-14T12:00:51Z</time>
      </trkpt>
      <trkpt lat="42.9766" lon="0.87742">
        <ele>1394.308</ele>
        <time>2014-03-14T12:00:52Z</time>
      </trkpt>
      <trkpt lat="42.97652" lon="0.87744">
        <ele>1393.616</ele>
        <time>2014-03-14T12:00:53Z</time>
      </trkpt>
      <trkpt lat="42.97644" lon="0.87745">
        <ele>1392.742</ele>
        <time>2014-03-14T12:00:54Z</time>
      </trkpt>
      <trkpt lat="42.97627" lon="0.87743">
        <ele>1392.018</ele>
        <time>2014-03-14T12:00:56Z</time>
      </trkpt>
      <trkpt lat="42.97617" lon="0.8774">
        <ele>1391.711</ele>
        <time>2014-03-14T12:00:57Z</time>
      </trkpt>
      <trkpt lat="42.97608" lon="0.87736">
        <ele>1391.865</ele>
        <time>2014-03-14T12:00:58Z</time>
      </trkpt>
      <trkpt lat="42.97601" lon="0.87732">
        <ele>1392.058</ele>
        <time>2014-03-14T12:00:59Z</time>
      </trkpt>
      <trkpt lat="42.97593" lon="0.87728">
        <ele>1391.85</ele>
        <time>2014-03-14T12:01:00Z</time>
      </trkpt>
      <trkpt lat="42.97586" lon="0.87723">
        <ele>1391.243</ele>
        <time>2014-03-14T12:01:01Z</time>
      </trkpt>
      <trkpt lat="42.97578" lon="0.87717">
        <ele>1390.499</ele>
        <time>2014-03-14T12:01:02Z</time>
      </trkpt>
      <trkpt lat="42.97569" lon="0.8771">
        <ele>1389.606</ele>
        <time>2014-03-14T12:01:03Z</time>
      </trkpt>
      <trkpt lat="42.97562" lon="0.87702">
        <ele>1389.052</ele>
        <time>2014-03-14T12:01:04Z</time>
      </trkpt>
      <trkpt lat="42.97556" lon="0.87694">
        <ele>1388.658</ele>
        <time>2014-03-14T12:01:05Z</time>
      </trkpt>
      <trkpt lat="42.97546" lon="0.87675">
        <ele>1388.335</ele>
        <time>2014-03-14T12:01:07Z</time>
      </trkpt>
      <trkpt lat="42.97543" lon="0.87667">
        <ele>1388.115</ele>
        <time>2014-03-14T12:01:08Z</time>
      </trkpt>
      <trkpt lat="42.97541" lon="0.87658">
        <ele>1387.699</ele>
        <time>2014-03-14T12:01:09Z</time>
      </trkpt>
      <trkpt lat="42.9754" lon="0.87648">
        <ele>1386.988</ele>
        <time>2014-03-14T12:01:10Z</time>
      </trkpt>
      <trkpt lat="42.97541" lon="0.87638">
        <ele>1385.911</ele>
        <time>2014-03-14T12:01:11Z</time>
      </trkpt>
      <trkpt lat="42.97544" lon="0.87629">
        <ele>1384.99</ele>
        <time>2014-03-14T12:01:12Z</time>
      </trkpt>
      <trkpt lat="42.97548" lon="0.87621">
        <ele>1384.266</ele>
        <time>2014-03-14T12:01:13Z</time>
      </trkpt>
      <trkpt lat="42.97553" lon="0.87616">
        <ele>1383.715</ele>
        <time>2014-03-14T12:01:14Z</time>
      </trkpt>
      <trkpt lat="42.97558" lon="0.87612">
        <ele>1383.101</ele>
        <time>2014-03-14T12:01:15Z</time>
      </trkpt>
      <trkpt lat="42.97563" lon="0.87609">
        <ele>1382.155</ele>
        <time>2014-03-14T12:01:16Z</time>
      </trkpt>
      <trkpt lat="42.97569" lon="0.87607">
        <ele>1381.074</ele>
        <time>2014-03-14T12:01:17Z</time>
      </trkpt>
      <trkpt lat="42.97575" lon="0.87606">
        <ele>1379.866</ele>
        <time>2014-03-14T12:01:18Z</time>
      </trkpt>
      <trkpt lat="42.97582" lon="0.87606">
        <ele>1378.839</ele>
        <time>2014-03-14T12:01:19Z</time>
      </trkpt>
      <trkpt lat="42.97589" lon="0.87607">
        <ele>1377.819</ele>
        <time>2014-03-14T12:01:20Z</time>
      </trkpt>
      <trkpt lat="42.97603" lon="0.87613">
        <ele>1377.041</ele>
        <time>2014-03-14T12:01:22Z</time>
      </trkpt>
      <trkpt lat="42.9761" lon="0.87617">
        <ele>1376.493</ele>
        <time>2014-03-14T12:01:23Z</time>
      </trkpt>
      <trkpt lat="42.97616" lon="0.87621">
        <ele>1375.869</ele>
        <time>2014-03-14T12:01:24Z</time>
      </trkpt>
      <trkpt lat="42.97622" lon="0.87626">
        <ele>1374.987</ele>
        <time>2014-03-14T12:01:25Z</time>
      </trkpt>
      <trkpt lat="42.97628" lon="0.87632">
        <ele>1373.951</ele>
        <time>2014-03-14T12:01:26Z</time>
      </trkpt>
      <trkpt lat="42.97634" lon="0.87638">
        <ele>1372.49</ele>
        <time>2014-03-14T12:01:27Z</time>
      </trkpt>
      <trkpt lat="42.9764" lon="0.87644">
        <ele>1370.97</ele>
        <time>2014-03-14T12:01:28Z</time>
      </trkpt>
      <trkpt lat="42.97646" lon="0.8765">
        <ele>1369.923</ele>
        <time>2014-03-14T12:01:29Z</time>
      </trkpt>
      <trkpt lat="42.97652" lon="0.87656">
        <ele>1368.722</ele>
        <time>2014-03-14T12:01:30Z</time>
      </trkpt>
      <trkpt lat="42.97657" lon="0.87662">
        <ele>1367.862</ele>
        <time>2014-03-14T12:01:31Z</time>
      </trkpt>
      <trkpt lat="42.97663" lon="0.87668">
        <ele>1366.72</ele>
        <time>2014-03-14T12:01:32Z</time>
      </trkpt>
      <trkpt lat="42.97669" lon="0.87674">
        <ele>1365.795</ele>
        <time>2014-03-14T12:01:33Z</time>
      </trkpt>
      <trkpt lat="42.97675" lon="0.87679">
        <ele>1365.104</ele>
        <time>2014-03-14T12:01:34Z</time>
      </trkpt>
      <trkpt lat="42.97687" lon="0.87689">
        <ele>1364.717</ele>
        <time>2014-03-14T12:01:36Z</time>
      </trkpt>
      <trkpt lat="42.97692" lon="0.87693">
        <ele>1364.327</ele>
        <time>2014-03-14T12:01:37Z</time>
      </trkpt>
      <trkpt lat="42.97697" lon="0.87697">
        <ele>1363.907</ele>
        <time>2014-03-14T12:01:38Z</time>
      </trkpt>
      <trkpt lat="42.97702" lon="0.87702">
        <ele>1363.366</ele>
        <time>2014-03-14T12:01:39Z</time>
      </trkpt>
      <trkpt lat="42.97707" lon="0.87707">
        <ele>1363.26</ele>
        <time>2014-03-14T12:01:40Z</time>
      </trkpt>
      <trkpt lat="42.97713" lon="0.87712">
        <ele>1364.014</ele>
        <time>2014-03-14T12:01:41Z</time>
      </trkpt>
      <trkpt lat="42.97718" lon="0.87716">
        <ele>1365.311</ele>
        <time>2014-03-14T12:01:42Z</time>
      </trkpt>
      <trkpt lat="42.97723" lon="0.8772">
        <ele>1366.567</ele>
        <time>2014-03-14T12:01:43Z</time>
      </trkpt>
      <trkpt lat="42.97727" lon="0.87723">
        <ele>1367.846</ele>
        <time>2014-03-14T12:01:44Z</time>
      </trkpt>
      <trkpt lat="42.97731" lon="0.87726">
        <ele>1368.501</ele>
        <time>2014-03-14T12:01:45Z</time>
      </trkpt>
      <trkpt lat="42.97737" lon="0.8773">
        <ele>1369.22</ele>
        <time>2014-03-14T12:01:46Z</time>
      </trkpt>
      <trkpt lat="42.97743" lon="0.87734">
        <ele>1370.346</ele>
        <time>2014-03-14T12:01:47Z</time>
      </trkpt>
      <trkpt lat="42.9775" lon="0.87738">
        <ele>1371.433</ele>
        <time>2014-03-14T12:01:48Z</time>
      </trkpt>
      <trkpt lat="42.97755" lon="0.87743">
        <ele>1372.199</ele>
        <time>2014-03-14T12:01:49Z</time>
      </trkpt>
      <trkpt lat="42.97758" lon="0.8775">
        <ele>1372.466</ele>
        <time>2014-03-14T12:01:50Z</time>
      </trkpt>
      <trkpt lat="42.97765" lon="0.87765">
        <ele>1372.515</ele>
        <time>2014-03-14T12:01:52Z</time>
      </trkpt>
      <trkpt lat="42.9777" lon="0.87775">
        <ele>1372.595</ele>
        <time>2014-03-14T12:01:53Z</time>
      </trkpt>
      <trkpt lat="42.97774" lon="0.87784">
        <ele>1373.206</ele>
        <time>2014-03-14T12:01:54Z</time>
      </trkpt>
      <trkpt lat="42.97777" lon="0.87793">
        <ele>1373.827</ele>
        <time>2014-03-14T12:01:55Z</time>
      </trkpt>
      <trkpt lat="42.97779" lon="0.87801">
        <ele>1374.014</ele>
        <time>2014-03-14T12:01:56Z</time>
      </trkpt>
      <trkpt lat="42.97781" lon="0.87809">
        <ele>1373.65</ele>
        <time>2014-03-14T12:01:57Z</time>
      </trkpt>
      <trkpt lat="42.97784" lon="0.87817">
        <ele>1372.913</ele>
        <time>2014-03-14T12:01:58Z</time>
      </trkpt>
      <trkpt lat="42.97786" lon="0.87826">
        <ele>1371.666</ele>
        <time>2014-03-14T12:01:59Z</time>
      </trkpt>
      <trkpt lat="42.97788" lon="0.87836">
        <ele>1370.865</ele>
        <time>2014-03-14T12:02:00Z</time>
      </trkpt>
      <trkpt lat="42.97789" lon="0.87848">
        <ele>1370.577</ele>
        <time>2014-03-14T12:02:01Z</time>
      </trkpt>
      <trkpt lat="42.97789" lon="0.87858">
        <ele>1371.094</ele>
        <time>2014-03-14T12:02:02Z</time>
      </trkpt>
      <trkpt lat="42.97789" lon="0.87867">
        <ele>1372.418</ele>
        <time>2014-03-14T12:02:03Z</time>
      </trkpt>
      <trkpt lat="42.97787" lon="0.87877">
        <ele>1374.007</ele>
        <time>2014-03-14T12:02:04Z</time>
      </trkpt>
      <trkpt lat="42.97784" lon="0.87887">
        <ele>1375.948</ele>
        <time>2014-03-14T12:02:05Z</time>
      </trkpt>
      <trkpt lat="42.97773" lon="0.87902">
        <ele>1377.662</ele>
        <time>2014-03-14T12:02:07Z</time>
      </trkpt>
      <trkpt lat="42.97766" lon="0.87907">
        <ele>1379.022</ele>
        <time>2014-03-14T12:02:08Z</time>
      </trkpt>
      <trkpt lat="42.97759" lon="0.87911">
        <ele>1379.849</ele>
        <time>2014-03-14T12:02:09Z</time>
      </trkpt>
      <trkpt lat="42.97751" lon="0.87915">
        <ele>1380.837</ele>
        <time>2014-03-14T12:02:10Z</time>
      </trkpt>
      <trkpt lat="42.97744" lon="0.87918">
        <ele>1381.685</ele>
        <time>2014-03-14T12:02:11Z</time>
      </trkpt>
      <trkpt lat="42.97738" lon="0.87919">
        <ele>1382.225</ele>
        <time>2014-03-14T12:02:12Z</time>
      </trkpt>
      <trkpt lat="42.97731" lon="0.87915">
        <ele>1382.257</ele>
        <time>2014-03-14T12:02:13Z</time>
      </trkpt>
      <trkpt lat="42.97724" lon="0.8791">
        <ele>1382.387</ele>
        <time>2014-03-14T12:02:14Z</time>
      </trkpt>
      <trkpt lat="42.97718" lon="0.87903">
        <ele>1383.205</ele>
        <time>2014-03-14T12:02:15Z</time>
      </trkpt>
      <trkpt lat="42.97714" lon="0.87897">
        <ele>1384.337</ele>
        <time>2014-03-14T12:02:16Z</time>
      </trkpt>
      <trkpt lat="42.9771" lon="0.8789">
        <ele>1385.35</ele>
        <time>2014-03-14T12:02:17Z</time>
      </trkpt>
      <trkpt lat="42.97706" lon="0.87872">
        <ele>1386.368</ele>
        <time>2014-03-14T12:02:19Z</time>
      </trkpt>
      <trkpt lat="42.97706" lon="0.87872">
        <ele>1387.648</ele>
        <time>2014-03-14T12:02:19Z</time>
      </trkpt>
      <trkpt lat="42.97712" lon="0.87855">
        <ele>1389.061</ele>
        <time>2014-03-14T12:02:21Z</time>
      </trkpt>
      <trkpt lat="42.97717" lon="0.87848">
        <ele>1390.765</ele>
        <time>2014-03-14T12:02:22Z</time>
      </trkpt>
      <trkpt lat="42.97723" lon="0.87844">
        <ele>1392.63</ele>
        <time>2014-03-14T12:02:23Z</time>
      </trkpt>
      <trkpt lat="42.97729" lon="0.87841">
        <ele>1394.675</ele>
        <time>2014-03-14T12:02:24Z</time>
      </trkpt>
      <trkpt lat="42.97736" lon="0.87841">
        <ele>1396.053</ele>
        <time>2014-03-14T12:02:25Z</time>
      </trkpt>
      <trkpt lat="42.97744" lon="0.87843">
        <ele>1397.248</ele>
        <time>2014-03-14T12:02:26Z</time>
      </trkpt>
      <trkpt lat="42.97753" lon="0.87848">
        <ele>1399.194</ele>
        <time>2014-03-14T12:02:27Z</time>
      </trkpt>
      <trkpt lat="42.9776" lon="0.87857">
        <ele>1402.394</ele>
        <time>2014-03-14T12:02:28Z</time>
      </trkpt>
      <trkpt lat="42.97765" lon="0.87867">
        <ele>1405.561</ele>
        <time>2014-03-14T12:02:29Z</time>
      </trkpt>
      <trkpt lat="42.97769" lon="0.87877">
        <ele>1408.765</ele>
        <time>2014-03-14T12:02:30Z</time>
      </trkpt>
      <trkpt lat="42.97773" lon="0.87897">
        <ele>1410.566</ele>
        <time>2014-03-14T12:02:32Z</time>
      </trkpt>
      <trkpt lat="42.97774" lon="0.87908">
        <ele>1410.848</ele>
        <time>2014-03-14T12:02:33Z</time>
      </trkpt>
      <trkpt lat="42.97773" lon="0.87921">
        <ele>1410.9</ele>
        <time>2014-03-14T12:02:34Z</time>
      </trkpt>
      <trkpt lat="42.97771" lon="0.87933">
        <ele>1411.206</ele>
        <time>2014-03-14T12:02:35Z</time>
      </trkpt>
      <trkpt lat="42.97771" lon="0.87933">
        <ele>1411.867</ele>
        <time>2014-03-14T12:02:35Z</time>
      </trkpt>
      <trkpt lat="42.97761" lon="0.87954">
        <ele>1412.862</ele>
        <time>2014-03-14T12:02:37Z</time>
      </trkpt>
      <trkpt lat="42.97753" lon="0.87962">
        <ele>1414.781</ele>
        <time>2014-03-14T12:02:38Z</time>
      </trkpt>
      <trkpt lat="42.97745" lon="0.87965">
        <ele>1417.305</ele>
        <time>2014-03-14T12:02:39Z</time>
      </trkpt>
      <trkpt lat="42.97738" lon="0.87965">
        <ele>1419.834</ele>
        <time>2014-03-14T12:02:40Z</time>
      </trkpt>
      <trkpt lat="42.97733" lon="0.87962">
        <ele>1421.858</ele>
        <time>2014-03-14T12:02:41Z</time>
      </trkpt>
      <trkpt lat="42.97729" lon="0.87959">
        <ele>1423.899</ele>
        <time>2014-03-14T12:02:42Z</time>
      </trkpt>
      <trkpt lat="42.97724" lon="0.87955">
        <ele>1425.14</ele>
        <time>2014-03-14T12:02:43Z</time>
      </trkpt>
      <trkpt lat="42.97719" lon="0.87952">
        <ele>1426.073</ele>
        <time>2014-03-14T12:02:44Z</time>
      </trkpt>
      <trkpt lat="42.97708" lon="0.87939">
        <ele>1426.967</ele>
        <time>2014-03-14T12:02:46Z</time>
      </trkpt>
      <trkpt lat="42.97706" lon="0.8793">
        <ele>1428.034</ele>
        <time>2014-03-14T12:02:47Z</time>
      </trkpt>
      <trkpt lat="42.97709" lon="0.87921">
        <ele>1430.083</ele>
        <time>2014-03-14T12:02:48Z</time>
      </trkpt>
      <trkpt lat="42.97715" lon="0.87915">
        <ele>1432.611</ele>
        <time>2014-03-14T12:02:49Z</time>
      </trkpt>
      <trkpt lat="42.9772" lon="0.87911">
        <ele>1435.095</ele>
        <time>2014-03-14T12:02:50Z</time>
      </trkpt>
      <trkpt lat="42.97726" lon="0.87908">
        <ele>1438.079</ele>
        <time>2014-03-14T12:02:51Z</time>
      </trkpt>
      <trkpt lat="42.97733" lon="0.87905">
        <ele>1440.457</ele>
        <time>2014-03-14T12:02:52Z</time>
      </trkpt>
      <trkpt lat="42.9774" lon="0.87903">
        <ele>1443.287</ele>
        <time>2014-03-14T12:02:53Z</time>
      </trkpt>
      <trkpt lat="42.97748" lon="0.87903">
        <ele>1445.619</ele>
        <time>2014-03-14T12:02:54Z</time>
      </trkpt>
      <trkpt lat="42.97755" lon="0.87907">
        <ele>1447.048</ele>
        <time>2014-03-14T12:02:55Z</time>
      </trkpt>
      <trkpt lat="42.97761" lon="0.87914">
        <ele>1447.322</ele>
        <time>2014-03-14T12:02:56Z</time>
      </trkpt>
      <trkpt lat="42.97766" lon="0.87924">
        <ele>1446.674</ele>
        <time>2014-03-14T12:02:57Z</time>
      </trkpt>
      <trkpt lat="42.97769" lon="0.87936">
        <ele>1445.766</ele>
        <time>2014-03-14T12:02:58Z</time>
      </trkpt>
      <trkpt lat="42.9777" lon="0.87949">
        <ele>1445.116</ele>
        <time>2014-03-14T12:02:59Z</time>
      </trkpt>
      <trkpt lat="42.97762" lon="0.87972">
        <ele>1445.04</ele>
        <time>2014-03-14T12:03:01Z</time>
      </trkpt>
      <trkpt lat="42.97756" lon="0.8798">
        <ele>1445.509</ele>
        <time>2014-03-14T12:03:02Z</time>
      </trkpt>
      <trkpt lat="42.97748" lon="0.87985">
        <ele>1446.029</ele>
        <time>2014-03-14T12:03:03Z</time>
      </trkpt>
      <trkpt lat="42.97741" lon="0.87989">
        <ele>1446.472</ele>
        <time>2014-03-14T12:03:04Z</time>
      </trkpt>
      <trkpt lat="42.97733" lon="0.87991">
        <ele>1446.949</ele>
        <time>2014-03-14T12:03:05Z</time>
      </trkpt>
      <trkpt lat="42.97726" lon="0.8799">
        <ele>1447.254</ele>
        <time>2014-03-14T12:03:06Z</time>
      </trkpt>
      <trkpt lat="42.97719" lon="0.87986">
        <ele>1447.57</ele>
        <time>2014-03-14T12:03:07Z</time>
      </trkpt>
      <trkpt lat="42.97713" lon="0.87982">
        <ele>1448.007</ele>
        <time>2014-03-14T12:03:08Z</time>
      </trkpt>
      <trkpt lat="42.97708" lon="0.87977">
        <ele>1448.019</ele>
        <time>2014-03-14T12:03:09Z</time>
      </trkpt>
      <trkpt lat="42.97702" lon="0.87971">
        <ele>1447.993</ele>
        <time>2014-03-14T12:03:10Z</time>
      </trkpt>
      <trkpt lat="42.97695" lon="0.87964">
        <ele>1448.585</ele>
        <time>2014-03-14T12:03:11Z</time>
      </trkpt>
      <trkpt lat="42.97689" lon="0.87956">
        <ele>1450.167</ele>
        <time>2014-03-14T12:03:12Z</time>
      </trkpt>
      <trkpt lat="42.97685" lon="0.87947">
        <ele>1452.193</ele>
        <time>2014-03-14T12:03:13Z</time>
      </trkpt>
      <trkpt lat="42.97683" lon="0.87937">
        <ele>1454.093</ele>
        <time>2014-03-14T12:03:14Z</time>
      </trkpt>
      <trkpt lat="42.97682" lon="0.87918">
        <ele>1456.24</ele>
        <time>2014-03-14T12:03:16Z</time>
      </trkpt>
      <trkpt lat="42.97682" lon="0.87908">
        <ele>1458.037</ele>
        <time>2014-03-14T12:03:17Z</time>
      </trkpt>
      <trkpt lat="42.97682" lon="0.87898">
        <ele>1459.463</ele>
        <time>2014-03-14T12:03:18Z</time>
      </trkpt>
      <trkpt lat="42.97684" lon="0.87889">
        <ele>1461.135</ele>
        <time>2014-03-14T12:03:19Z</time>
      </trkpt>
      <trkpt lat="42.97687" lon="0.8788">
        <ele>1462.745</ele>
        <time>2014-03-14T12:03:20Z</time>
      </trkpt>
      <trkpt lat="42.9769" lon="0.87872">
        <ele>1465.066</ele>
        <time>2014-03-14T12:03:21Z</time>
      </trkpt>
      <trkpt lat="42.97695" lon="0.87866">
        <ele>1467.619</ele>
        <time>2014-03-14T12:03:22Z</time>
      </trkpt>
      <trkpt lat="42.97699" lon="0.87861">
        <ele>1469.956</ele>
        <time>2014-03-14T12:03:23Z</time>
      </trkpt>
      <trkpt lat="42.97705" lon="0.87858">
        <ele>1471.919</ele>
        <time>2014-03-14T12:03:24Z</time>
      </trkpt>
      <trkpt lat="42.9772" lon="0.87854">
        <ele>1473.881</ele>
        <time>2014-03-14T12:03:26Z</time>
      </trkpt>
      <trkpt lat="42.97727" lon="0.87855">
        <ele>1475.526</ele>
        <time>2014-03-14T12:03:27Z</time>
      </trkpt>
      <trkpt lat="42.97735" lon="0.87858">
        <ele>1476.699</ele>
        <time>2014-03-14T12:03:28Z</time>
      </trkpt>
      <trkpt lat="42.97742" lon="0.87864">
        <ele>1477.368</ele>
        <time>2014-03-14T12:03:29Z</time>
      </trkpt>
      <trkpt lat="42.97749" lon="0.87872">
        <ele>1477.771</ele>
        <time>2014-03-14T12:03:30Z</time>
      </trkpt>
      <trkpt lat="42.97754" lon="0.87881">
        <ele>1477.891</ele>
        <time>2014-03-14T12:03:31Z</time>
      </trkpt>
      <trkpt lat="42.97757" lon="0.87892">
        <ele>1477.861</ele>
        <time>2014-03-14T12:03:32Z</time>
      </trkpt>
      <trkpt lat="42.97758" lon="0.87905">
        <ele>1477.692</ele>
        <time>2014-03-14T12:03:33Z</time>
      </trkpt>
      <trkpt lat="42.97757" lon="0.87918">
        <ele>1477.801</ele>
        <time>2014-03-14T12:03:34Z</time>
      </trkpt>
      <trkpt lat="42.97754" lon="0.87929">
        <ele>1478.128</ele>
        <time>2014-03-14T12:03:35Z</time>
      </trkpt>
      <trkpt lat="42.97748" lon="0.87937">
        <ele>1478.316</ele>
        <time>2014-03-14T12:03:36Z</time>
      </trkpt>
      <trkpt lat="42.9774" lon="0.87943">
        <ele>1478.399</ele>
        <time>2014-03-14T12:03:37Z</time>
      </trkpt>
      <trkpt lat="42.97731" lon="0.87947">
        <ele>1478.816</ele>
        <time>2014-03-14T12:03:38Z</time>
      </trkpt>
      <trkpt lat="42.97721" lon="0.87949">
        <ele>1479.415</ele>
        <time>2014-03-14T12:03:39Z</time>
      </trkpt>
      <trkpt lat="42.97703" lon="0.87947">
        <ele>1479.766</ele>
        <time>2014-03-14T12:03:41Z</time>
      </trkpt>
      <trkpt lat="42.97695" lon="0.87942">
        <ele>1480.088</ele>
        <time>2014-03-14T12:03:42Z</time>
      </trkpt>
      <trkpt lat="42.97688" lon="0.87935">
        <ele>1480.687</ele>
        <time>2014-03-14T12:03:43Z</time>
      </trkpt>
      <trkpt lat="42.97684" lon="0.87926">
        <ele>1481.742</ele>
        <time>2014-03-14T12:03:44Z</time>
      </trkpt>
      <trkpt lat="42.97682" lon="0.87917">
        <ele>1482.742</ele>
        <time>2014-03-14T12:03:45Z</time>
      </trkpt>
      <trkpt lat="42.97683" lon="0.87909">
        <ele>1483.765</ele>
        <time>2014-03-14T12:03:46Z</time>
      </trkpt>
      <trkpt lat="42.97686" lon="0.87901">
        <ele>1484.818</ele>
        <time>2014-03-14T12:03:47Z</time>
      </trkpt>
      <trkpt lat="42.9769" lon="0.87896">
        <ele>1485.927</ele>
        <time>2014-03-14T12:03:48Z</time>
      </trkpt>
      <trkpt lat="42.97695" lon="0.87893">
        <ele>1486.963</ele>
        <time>2014-03-14T12:03:49Z</time>
      </trkpt>
      <trkpt lat="42.97701" lon="0.87892">
        <ele>1487.838</ele>
        <time>2014-03-14T12:03:50Z</time>
      </trkpt>
      <trkpt lat="42.97708" lon="0.87893">
        <ele>1488.864</ele>
        <time>2014-03-14T12:03:51Z</time>
      </trkpt>
      <trkpt lat="42.97714" lon="0.87896">
        <ele>1489.897</ele>
        <time>2014-03-14T12:03:52Z</time>
      </trkpt>
      <trkpt lat="42.97725" lon="0.8791">
        <ele>1491.011</ele>
        <time>2014-03-14T12:03:54Z</time>
      </trkpt>
      <trkpt lat="42.97725" lon="0.8791">
        <ele>1492.148</ele>
        <time>2014-03-14T12:03:54Z</time>
      </trkpt>
      <trkpt lat="42.97727" lon="0.8793">
        <ele>1493.026</ele>
        <time>2014-03-14T12:03:56Z</time>
      </trkpt>
      <trkpt lat="42.97725" lon="0.8794">
        <ele>1493.944</ele>
        <time>2014-03-14T12:03:57Z</time>
      </trkpt>
      <trkpt lat="42.97722" lon="0.8795">
        <ele>1494.846</ele>
        <time>2014-03-14T12:03:58Z</time>
      </trkpt>
      <trkpt lat="42.97718" lon="0.87959">
        <ele>1495.687</ele>
        <time>2014-03-14T12:03:59Z</time>
      </trkpt>
      <trkpt lat="42.97711" lon="0.87967">
        <ele>1496.322</ele>
        <time>2014-03-14T12:04:00Z</time>
      </trkpt>
      <trkpt lat="42.97703" lon="0.87973">
        <ele>1496.845</ele>
        <time>2014-03-14T12:04:01Z</time>
      </trkpt>
      <trkpt lat="42.97693" lon="0.87976">
        <ele>1497.581</ele>
        <time>2014-03-14T12:04:02Z</time>
      </trkpt>
      <trkpt lat="42.97684" lon="0.87977">
        <ele>1498.455</ele>
        <time>2014-03-14T12:04:03Z</time>
      </trkpt>
      <trkpt lat="42.97675" lon="0.87974">
        <ele>1500.237</ele>
        <time>2014-03-14T12:04:04Z</time>
      </trkpt>
      <trkpt lat="42.97667" lon="0.8797">
        <ele>1502.137</ele>
        <time>2014-03-14T12:04:05Z</time>
      </trkpt>
      <trkpt lat="42.9766" lon="0.87963">
        <ele>1503.94</ele>
        <time>2014-03-14T12:04:06Z</time>
      </trkpt>
      <trkpt lat="42.97655" lon="0.87954">
        <ele>1505.434</ele>
        <time>2014-03-14T12:04:07Z</time>
      </trkpt>
      <trkpt lat="42.97651" lon="0.87945">
        <ele>1506.566</ele>
        <time>2014-03-14T12:04:08Z</time>
      </trkpt>
      <trkpt lat="42.9765" lon="0.87935">
        <ele>1507.835</ele>
        <time>2014-03-14T12:04:09Z</time>
      </trkpt>
      <trkpt lat="42.97651" lon="0.87915">
        <ele>1508.71</ele>
        <time>2014-03-14T12:04:11Z</time>
      </trkpt>
      <trkpt lat="42.97653" lon="0.87907">
        <ele>1509.512</ele>
        <time>2014-03-14T12:04:12Z</time>
      </trkpt>
      <trkpt lat="42.97658" lon="0.879">
        <ele>1510.554</ele>
        <time>2014-03-14T12:04:13Z</time>
      </trkpt>
      <trkpt lat="42.97663" lon="0.87894">
        <ele>1511.808</ele>
        <time>2014-03-14T12:04:14Z</time>
      </trkpt>
      <trkpt lat="42.97668" lon="0.87892">
        <ele>1513.382</ele>
        <time>2014-03-14T12:04:15Z</time>
      </trkpt>
      <trkpt lat="42.97674" lon="0.87891">
        <ele>1514.782</ele>
        <time>2014-03-14T12:04:16Z</time>
      </trkpt>
      <trkpt lat="42.97681" lon="0.87894">
        <ele>1516.054</ele>
        <time>2014-03-14T12:04:17Z</time>
      </trkpt>
      <trkpt lat="42.97688" lon="0.87902">
        <ele>1517.333</ele>
        <time>2014-03-14T12:04:18Z</time>
      </trkpt>
      <trkpt lat="42.97692" lon="0.87911">
        <ele>1519.022</ele>
        <time>2014-03-14T12:04:19Z</time>
      </trkpt>
      <trkpt lat="42.97692" lon="0.8792">
        <ele>1521.052</ele>
        <time>2014-03-14T12:04:20Z</time>
      </trkpt>
      <trkpt lat="42.97691" lon="0.87929">
        <ele>1522.668</ele>
        <time>2014-03-14T12:04:21Z</time>
      </trkpt>
      <trkpt lat="42.9769" lon="0.87937">
        <ele>1523.834</ele>
        <time>2014-03-14T12:04:22Z</time>
      </trkpt>
      <trkpt lat="42.97689" lon="0.87946">
        <ele>1524.527</ele>
        <time>2014-03-14T12:04:23Z</time>
      </trkpt>
      <trkpt lat="42.97686" lon="0.87956">
        <ele>1525.163</ele>
        <time>2014-03-14T12:04:24Z</time>
      </trkpt>
      <trkpt lat="42.97681" lon="0.87965">
        <ele>1525.966</ele>
        <time>2014-03-14T12:04:25Z</time>
      </trkpt>
      <trkpt lat="42.97667" lon="0.87979">
        <ele>1526.849</ele>
        <time>2014-03-14T12:04:27Z</time>
      </trkpt>
      <trkpt lat="42.97658" lon="0.87983">
        <ele>1527.597</ele>
        <time>2014-03-14T12:04:28Z</time>
      </trkpt>
      <trkpt lat="42.97648" lon="0.87985">
        <ele>1528.46</ele>
        <time>2014-03-14T12:04:29Z</time>
      </trkpt>
      <trkpt lat="42.97639" lon="0.87983">
        <ele>1529.537</ele>
        <time>2014-03-14T12:04:30Z</time>
      </trkpt>
      <trkpt lat="42.97631" lon="0.87976">
        <ele>1531.314</ele>
        <time>2014-03-14T12:04:31Z</time>
      </trkpt>
      <trkpt lat="42.97625" lon="0.87968">
        <ele>1532.907</ele>
        <time>2014-03-14T12:04:32Z</time>
      </trkpt>
      <trkpt lat="42.97622" lon="0.87958">
        <ele>1535.14</ele>
        <time>2014-03-14T12:04:33Z</time>
      </trkpt>
      <trkpt lat="42.97619" lon="0.87948">
        <ele>1537.488</ele>
        <time>2014-03-14T12:04:34Z</time>
      </trkpt>
      <trkpt lat="42.97618" lon="0.87939">
        <ele>1539.413</ele>
        <time>2014-03-14T12:04:35Z</time>
      </trkpt>
      <trkpt lat="42.97617" lon="0.87931">
        <ele>1540.798</ele>
        <time>2014-03-14T12:04:36Z</time>
      </trkpt>
      <trkpt lat="42.97619" lon="0.87924">
        <ele>1541.167</ele>
        <time>2014-03-14T12:04:37Z</time>
      </trkpt>
      <trkpt lat="42.97622" lon="0.87916">
        <ele>1540.922</ele>
        <time>2014-03-14T12:04:38Z</time>
      </trkpt>
      <trkpt lat="42.97626" lon="0.8791">
        <ele>1540.648</ele>
        <time>2014-03-14T12:04:39Z</time>
      </trkpt>
      <trkpt lat="42.97637" lon="0.87902">
        <ele>1540.702</ele>
        <time>2014-03-14T12:04:41Z</time>
      </trkpt>
      <trkpt lat="42.97644" lon="0.879">
        <ele>1541.16</ele>
        <time>2014-03-14T12:04:42Z</time>
      </trkpt>
      <trkpt lat="42.9765" lon="0.87901">
        <ele>1541.985</ele>
        <time>2014-03-14T12:04:43Z</time>
      </trkpt>
      <trkpt lat="42.97657" lon="0.87904">
        <ele>1543.089</ele>
        <time>2014-03-14T12:04:44Z</time>
      </trkpt>
      <trkpt lat="42.97657" lon="0.87904">
        <ele>1544.309</ele>
        <time>2014-03-14T12:04:44Z</time>
      </trkpt>
      <trkpt lat="42.97665" lon="0.87921">
        <ele>1545.435</ele>
        <time>2014-03-14T12:04:46Z</time>
      </trkpt>
      <trkpt lat="42.97664" lon="0.8793">
        <ele>1546.545</ele>
        <time>2014-03-14T12:04:47Z</time>
      </trkpt>
      <trkpt lat="42.97662" lon="0.87939">
        <ele>1547.526</ele>
        <time>2014-03-14T12:04:48Z</time>
      </trkpt>
      <trkpt lat="42.97657" lon="0.87946">
        <ele>1548.142</ele>
        <time>2014-03-14T12:04:49Z</time>
      </trkpt>
      <trkpt lat="42.97652" lon="0.87954">
        <ele>1548.614</ele>
        <time>2014-03-14T12:04:50Z</time>
      </trkpt>
      <trkpt lat="42.97645" lon="0.87961">
        <ele>1548.907</ele>
        <time>2014-03-14T12:04:51Z</time>
      </trkpt>
      <trkpt lat="42.97638" lon="0.87966">
        <ele>1548.951</ele>
        <time>2014-03-14T12:04:52Z</time>
      </trkpt>
      <trkpt lat="42.97629" lon="0.87968">
        <ele>1549.238</ele>
        <time>2014-03-14T12:04:53Z</time>
      </trkpt>
      <trkpt lat="42.97618" lon="0.87968">
        <ele>1550.551</ele>
        <time>2014-03-14T12:04:54Z</time>
      </trkpt>
      <trkpt lat="42.97601" lon="0.87955">
        <ele>1553.141</ele>
        <time>2014-03-14T12:04:56Z</time>
      </trkpt>
      <trkpt lat="42.97596" lon="0.87949">
        <ele>1556.176</ele>
        <time>2014-03-14T12:04:57Z</time>
      </trkpt>
      <trkpt lat="42.97591" lon="0.87942">
        <ele>1559.082</ele>
        <time>2014-03-14T12:04:58Z</time>
      </trkpt>
      <trkpt lat="42.97587" lon="0.87934">
        <ele>1560.363</ele>
        <time>2014-03-14T12:04:59Z</time>
      </trkpt>
      <trkpt lat="42.97584" lon="0.87927">
        <ele>1560.676</ele>
        <time>2014-03-14T12:05:00Z</time>
      </trkpt>
      <trkpt lat="42.97581" lon="0.87919">
        <ele>1560.541</ele>
        <time>2014-03-14T12:05:01Z</time>
      </trkpt>
      <trkpt lat="42.97579" lon="0.8791">
        <ele>1560.853</ele>
        <time>2014-03-14T12:05:02Z</time>
      </trkpt>
      <trkpt lat="42.97579" lon="0.879">
        <ele>1562.281</ele>
        <time>2014-03-14T12:05:03Z</time>
      </trkpt>
      <trkpt lat="42.97581" lon="0.87893">
        <ele>1564.481</ele>
        <time>2014-03-14T12:05:04Z</time>
      </trkpt>
      <trkpt lat="42.97586" lon="0.87889">
        <ele>1566.862</ele>
        <time>2014-03-14T12:05:05Z</time>
      </trkpt>
      <trkpt lat="42.97591" lon="0.87888">
        <ele>1568.827</ele>
        <time>2014-03-14T12:05:06Z</time>
      </trkpt>
      <trkpt lat="42.97597" lon="0.87889">
        <ele>1570.785</ele>
        <time>2014-03-14T12:05:07Z</time>
      </trkpt>
      <trkpt lat="42.97607" lon="0.87897">
        <ele>1571.813</ele>
        <time>2014-03-14T12:05:09Z</time>
      </trkpt>
      <trkpt lat="42.97611" lon="0.87905">
        <ele>1571.806</ele>
        <time>2014-03-14T12:05:10Z</time>
      </trkpt>
      <trkpt lat="42.97614" lon="0.87915">
        <ele>1571.666</ele>
        <time>2014-03-14T12:05:11Z</time>
      </trkpt>
      <trkpt lat="42.97616" lon="0.87926">
        <ele>1572.541</ele>
        <time>2014-03-14T12:05:12Z</time>
      </trkpt>
      <trkpt lat="42.97615" lon="0.87936">
        <ele>1574.176</ele>
        <time>2014-03-14T12:05:13Z</time>
      </trkpt>
      <trkpt lat="42.97611" lon="0.87944">
        <ele>1576.082</ele>
        <time>2014-03-14T12:05:14Z</time>
      </trkpt>
      <trkpt lat="42.97607" lon="0.87952">
        <ele>1577.926</ele>
        <time>2014-03-14T12:05:15Z</time>
      </trkpt>
      <trkpt lat="42.97601" lon="0.8796">
        <ele>1579.459</ele>
        <time>2014-03-14T12:05:16Z</time>
      </trkpt>
      <trkpt lat="42.97595" lon="0.87966">
        <ele>1580.914</ele>
        <time>2014-03-14T12:05:17Z</time>
      </trkpt>
      <trkpt lat="42.97587" lon="0.87969">
        <ele>1582.272</ele>
        <time>2014-03-14T12:05:18Z</time>
      </trkpt>
      <trkpt lat="42.97579" lon="0.87971">
        <ele>1583.671</ele>
        <time>2014-03-14T12:05:19Z</time>
      </trkpt>
      <trkpt lat="42.9756" lon="0.87972">
        <ele>1584.99</ele>
        <time>2014-03-14T12:05:21Z</time>
      </trkpt>
      <trkpt lat="42.97553" lon="0.87968">
        <ele>1586.093</ele>
        <time>2014-03-14T12:05:22Z</time>
      </trkpt>
      <trkpt lat="42.97548" lon="0.87961">
        <ele>1586.457</ele>
        <time>2014-03-14T12:05:23Z</time>
      </trkpt>
      <trkpt lat="42.97544" lon="0.87953">
        <ele>1586.118</ele>
        <time>2014-03-14T12:05:24Z</time>
      </trkpt>
      <trkpt lat="42.97541" lon="0.87943">
        <ele>1585.629</ele>
        <time>2014-03-14T12:05:25Z</time>
      </trkpt>
      <trkpt lat="42.9754" lon="0.87934">
        <ele>1585.474</ele>
        <time>2014-03-14T12:05:26Z</time>
      </trkpt>
      <trkpt lat="42.97541" lon="0.87925">
        <ele>1586.08</ele>
        <time>2014-03-14T12:05:27Z</time>
      </trkpt>
      <trkpt lat="42.97544" lon="0.87916">
        <ele>1586.852</ele>
        <time>2014-03-14T12:05:28Z</time>
      </trkpt>
      <trkpt lat="42.97548" lon="0.87909">
        <ele>1587.938</ele>
        <time>2014-03-14T12:05:29Z</time>
      </trkpt>
      <trkpt lat="42.97553" lon="0.87905">
        <ele>1589.203</ele>
        <time>2014-03-14T12:05:30Z</time>
      </trkpt>
      <trkpt lat="42.97557" lon="0.87904">
        <ele>1590.203</ele>
        <time>2014-03-14T12:05:31Z</time>
      </trkpt>
      <trkpt lat="42.97561" lon="0.87905">
        <ele>1590.638</ele>
        <time>2014-03-14T12:05:32Z</time>
      </trkpt>
      <trkpt lat="42.97565" lon="0.87908">
        <ele>1590.41</ele>
        <time>2014-03-14T12:05:33Z</time>
      </trkpt>
      <trkpt lat="42.9757" lon="0.87912">
        <ele>1590.191</ele>
        <time>2014-03-14T12:05:34Z</time>
      </trkpt>
      <trkpt lat="42.97574" lon="0.87918">
        <ele>1590.317</ele>
        <time>2014-03-14T12:05:35Z</time>
      </trkpt>
      <trkpt lat="42.97578" lon="0.87937">
        <ele>1590.743</ele>
        <time>2014-03-14T12:05:37Z</time>
      </trkpt>
      <trkpt lat="42.97575" lon="0.87948">
        <ele>1591.338</ele>
        <time>2014-03-14T12:05:38Z</time>
      </trkpt>
      <trkpt lat="42.97571" lon="0.87956">
        <ele>1592.467</ele>
        <time>2014-03-14T12:05:39Z</time>
      </trkpt>
      <trkpt lat="42.97565" lon="0.87963">
        <ele>1593.648</ele>
        <time>2014-03-14T12:05:40Z</time>
      </trkpt>
      <trkpt lat="42.97559" lon="0.87968">
        <ele>1594.868</ele>
        <time>2014-03-14T12:05:41Z</time>
      </trkpt>
      <trkpt lat="42.97553" lon="0.8797">
        <ele>1595.189</ele>
        <time>2014-03-14T12:05:42Z</time>
      </trkpt>
      <trkpt lat="42.97545" lon="0.87973">
        <ele>1594.984</ele>
        <time>2014-03-14T12:05:43Z</time>
      </trkpt>
      <trkpt lat="42.97537" lon="0.87976">
        <ele>1594.338</ele>
        <time>2014-03-14T12:05:44Z</time>
      </trkpt>
      <trkpt lat="42.97529" lon="0.87975">
        <ele>1593.43</ele>
        <time>2014-03-14T12:05:45Z</time>
      </trkpt>
      <trkpt lat="42.97521" lon="0.87972">
        <ele>1592.476</ele>
        <time>2014-03-14T12:05:46Z</time>
      </trkpt>
      <trkpt lat="42.97515" lon="0.87967">
        <ele>1591.884</ele>
        <time>2014-03-14T12:05:47Z</time>
      </trkpt>
      <trkpt lat="42.97505" lon="0.87956">
        <ele>1591.433</ele>
        <time>2014-03-14T12:05:49Z</time>
      </trkpt>
      <trkpt lat="42.97505" lon="0.87956">
        <ele>1590.762</ele>
        <time>2014-03-14T12:05:49Z</time>
      </trkpt>
      <trkpt lat="42.97495" lon="0.87943">
        <ele>1589.61</ele>
        <time>2014-03-14T12:05:51Z</time>
      </trkpt>
      <trkpt lat="42.97489" lon="0.87937">
        <ele>1588.212</ele>
        <time>2014-03-14T12:05:52Z</time>
      </trkpt>
      <trkpt lat="42.97484" lon="0.87928">
        <ele>1586.873</ele>
        <time>2014-03-14T12:05:53Z</time>
      </trkpt>
      <trkpt lat="42.97481" lon="0.87918">
        <ele>1585.727</ele>
        <time>2014-03-14T12:05:54Z</time>
      </trkpt>
      <trkpt lat="42.97479" lon="0.87906">
        <ele>1585.313</ele>
        <time>2014-03-14T12:05:55Z</time>
      </trkpt>
      <trkpt lat="42.97479" lon="0.87895">
        <ele>1586.286</ele>
        <time>2014-03-14T12:05:56Z</time>
      </trkpt>
      <trkpt lat="42.97479" lon="0.87885">
        <ele>1588.228</ele>
        <time>2014-03-14T12:05:57Z</time>
      </trkpt>
      <trkpt lat="42.97479" lon="0.87875">
        <ele>1590.28</ele>
        <time>2014-03-14T12:05:58Z</time>
      </trkpt>
      <trkpt lat="42.97481" lon="0.87866">
        <ele>1591.696</ele>
        <time>2014-03-14T12:05:59Z</time>
      </trkpt>
      <trkpt lat="42.97483" lon="0.87857">
        <ele>1593.213</ele>
        <time>2014-03-14T12:06:00Z</time>
      </trkpt>
      <trkpt lat="42.97485" lon="0.87847">
        <ele>1594.873</ele>
        <time>2014-03-14T12:06:01Z</time>
      </trkpt>
      <trkpt lat="42.97489" lon="0.87839">
        <ele>1596.68</ele>
        <time>2014-03-14T12:06:02Z</time>
      </trkpt>
      <trkpt lat="42.97492" lon="0.87831">
        <ele>1598.37</ele>
        <time>2014-03-14T12:06:03Z</time>
      </trkpt>
      <trkpt lat="42.97496" lon="0.87823">
        <ele>1599.626</ele>
        <time>2014-03-14T12:06:04Z</time>
      </trkpt>
      <trkpt lat="42.97502" lon="0.87806">
        <ele>1600.744</ele>
        <time>2014-03-14T12:06:06Z</time>
      </trkpt>
      <trkpt lat="42.97505" lon="0.87798">
        <ele>1602</ele>
        <time>2014-03-14T12:06:07Z</time>
      </trkpt>
      <trkpt lat="42.97509" lon="0.87791">
        <ele>1603.297</ele>
        <time>2014-03-14T12:06:08Z</time>
      </trkpt>
      <trkpt lat="42.97512" lon="0.87783">
        <ele>1604.311</ele>
        <time>2014-03-14T12:06:09Z</time>
      </trkpt>
      <trkpt lat="42.97515" lon="0.87775">
        <ele>1605.625</ele>
        <time>2014-03-14T12:06:10Z</time>
      </trkpt>
      <trkpt lat="42.97518" lon="0.87766">
        <ele>1606.787</ele>
        <time>2014-03-14T12:06:11Z</time>
      </trkpt>
      <trkpt lat="42.9752" lon="0.87757">
        <ele>1607.965</ele>
        <time>2014-03-14T12:06:12Z</time>
      </trkpt>
      <trkpt lat="42.97523" lon="0.87748">
        <ele>1609.041</ele>
        <time>2014-03-14T12:06:13Z</time>
      </trkpt>
      <trkpt lat="42.97526" lon="0.8774">
        <ele>1610.091</ele>
        <time>2014-03-14T12:06:14Z</time>
      </trkpt>
      <trkpt lat="42.9753" lon="0.87732">
        <ele>1610.902</ele>
        <time>2014-03-14T12:06:15Z</time>
      </trkpt>
      <trkpt lat="42.97534" lon="0.87725">
        <ele>1611.43</ele>
        <time>2014-03-14T12:06:16Z</time>
      </trkpt>
      <trkpt lat="42.97543" lon="0.87711">
        <ele>1611.849</ele>
        <time>2014-03-14T12:06:18Z</time>
      </trkpt>
      <trkpt lat="42.97547" lon="0.87702">
        <ele>1612.149</ele>
        <time>2014-03-14T12:06:19Z</time>
      </trkpt>
      <trkpt lat="42.97547" lon="0.87702">
        <ele>1612.554</ele>
        <time>2014-03-14T12:06:19Z</time>
      </trkpt>
      <trkpt lat="42.97557" lon="0.87685">
        <ele>1613.538</ele>
        <time>2014-03-14T12:06:21Z</time>
      </trkpt>
      <trkpt lat="42.97562" lon="0.87676">
        <ele>1615.517</ele>
        <time>2014-03-14T12:06:22Z</time>
      </trkpt>
      <trkpt lat="42.97566" lon="0.87667">
        <ele>1617.449</ele>
        <time>2014-03-14T12:06:23Z</time>
      </trkpt>
      <trkpt lat="42.97569" lon="0.87659">
        <ele>1619.142</ele>
        <time>2014-03-14T12:06:24Z</time>
      </trkpt>
      <trkpt lat="42.97572" lon="0.87652">
        <ele>1621.029</ele>
        <time>2014-03-14T12:06:25Z</time>
      </trkpt>
      <trkpt lat="42.97574" lon="0.87645">
        <ele>1622.686</ele>
        <time>2014-03-14T12:06:26Z</time>
      </trkpt>
      <trkpt lat="42.97577" lon="0.87637">
        <ele>1624.042</ele>
        <time>2014-03-14T12:06:27Z</time>
      </trkpt>
      <trkpt lat="42.97581" lon="0.87628">
        <ele>1625.3</ele>
        <time>2014-03-14T12:06:28Z</time>
      </trkpt>
      <trkpt lat="42.97584" lon="0.87619">
        <ele>1626.212</ele>
        <time>2014-03-14T12:06:29Z</time>
      </trkpt>
      <trkpt lat="42.97588" lon="0.87603">
        <ele>1626.396</ele>
        <time>2014-03-14T12:06:31Z</time>
      </trkpt>
      <trkpt lat="42.97591" lon="0.87596">
        <ele>1625.821</ele>
        <time>2014-03-14T12:06:32Z</time>
      </trkpt>
      <trkpt lat="42.97594" lon="0.87588">
        <ele>1624.683</ele>
        <time>2014-03-14T12:06:33Z</time>
      </trkpt>
      <trkpt lat="42.97598" lon="0.87579">
        <ele>1623.149</ele>
        <time>2014-03-14T12:06:34Z</time>
      </trkpt>
      <trkpt lat="42.97602" lon="0.8757">
        <ele>1621.758</ele>
        <time>2014-03-14T12:06:35Z</time>
      </trkpt>
      <trkpt lat="42.97606" lon="0.87562">
        <ele>1620.641</ele>
        <time>2014-03-14T12:06:36Z</time>
      </trkpt>
      <trkpt lat="42.97611" lon="0.87553">
        <ele>1618.74</ele>
        <time>2014-03-14T12:06:37Z</time>
      </trkpt>
      <trkpt lat="42.97616" lon="0.87543">
        <ele>1616.637</ele>
        <time>2014-03-14T12:06:38Z</time>
      </trkpt>
      <trkpt lat="42.97622" lon="0.87532">
        <ele>1613.985</ele>
        <time>2014-03-14T12:06:39Z</time>
      </trkpt>
      <trkpt lat="42.97628" lon="0.8752">
        <ele>1612.503</ele>
        <time>2014-03-14T12:06:40Z</time>
      </trkpt>
      <trkpt lat="42.97633" lon="0.8751">
        <ele>1611.276</ele>
        <time>2014-03-14T12:06:41Z</time>
      </trkpt>
      <trkpt lat="42.97643" lon="0.87491">
        <ele>1609.869</ele>
        <time>2014-03-14T12:06:43Z</time>
      </trkpt>
      <trkpt lat="42.97648" lon="0.87482">
        <ele>1607.916</ele>
        <time>2014-03-14T12:06:44Z</time>
      </trkpt>
      <trkpt lat="42.97648" lon="0.87482">
        <ele>1605.265</ele>
        <time>2014-03-14T12:06:44Z</time>
      </trkpt>
      <trkpt lat="42.9766" lon="0.8746">
        <ele>1601.911</ele>
        <time>2014-03-14T12:06:46Z</time>
      </trkpt>
      <trkpt lat="42.97666" lon="0.8745">
        <ele>1598.916</ele>
        <time>2014-03-14T12:06:47Z</time>
      </trkpt>
      <trkpt lat="42.97672" lon="0.87439">
        <ele>1596.354</ele>
        <time>2014-03-14T12:06:48Z</time>
      </trkpt>
      <trkpt lat="42.97678" lon="0.87429">
        <ele>1594.575</ele>
        <time>2014-03-14T12:06:49Z</time>
      </trkpt>
      <trkpt lat="42.97685" lon="0.8742">
        <ele>1593.018</ele>
        <time>2014-03-14T12:06:50Z</time>
      </trkpt>
      <trkpt lat="42.97692" lon="0.87412">
        <ele>1591.244</ele>
        <time>2014-03-14T12:06:51Z</time>
      </trkpt>
      <trkpt lat="42.977" lon="0.87405">
        <ele>1589.219</ele>
        <time>2014-03-14T12:06:52Z</time>
      </trkpt>
      <trkpt lat="42.97707" lon="0.87398">
        <ele>1587.412</ele>
        <time>2014-03-14T12:06:53Z</time>
      </trkpt>
      <trkpt lat="42.97715" lon="0.87391">
        <ele>1585.655</ele>
        <time>2014-03-14T12:06:54Z</time>
      </trkpt>
      <trkpt lat="42.97723" lon="0.87384">
        <ele>1584.037</ele>
        <time>2014-03-14T12:06:55Z</time>
      </trkpt>
      <trkpt lat="42.97731" lon="0.87377">
        <ele>1582.691</ele>
        <time>2014-03-14T12:06:56Z</time>
      </trkpt>
      <trkpt lat="42.97739" lon="0.8737">
        <ele>1581.316</ele>
        <time>2014-03-14T12:06:57Z</time>
      </trkpt>
      <trkpt lat="42.97754" lon="0.87358">
        <ele>1579.959</ele>
        <time>2014-03-14T12:06:59Z</time>
      </trkpt>
      <trkpt lat="42.97754" lon="0.87358">
        <ele>1578.148</ele>
        <time>2014-03-14T12:06:59Z</time>
      </trkpt>
      <trkpt lat="42.9777" lon="0.87345">
        <ele>1576.086</ele>
        <time>2014-03-14T12:07:01Z</time>
      </trkpt>
      <trkpt lat="42.97778" lon="0.87339">
        <ele>1573.992</ele>
        <time>2014-03-14T12:07:02Z</time>
      </trkpt>
      <trkpt lat="42.97787" lon="0.87334">
        <ele>1572.635</ele>
        <time>2014-03-14T12:07:03Z</time>
      </trkpt>
      <trkpt lat="42.97795" lon="0.87329">
        <ele>1571.501</ele>
        <time>2014-03-14T12:07:04Z</time>
      </trkpt>
      <trkpt lat="42.97803" lon="0.87324">
        <ele>1570.391</ele>
        <time>2014-03-14T12:07:05Z</time>
      </trkpt>
      <trkpt lat="42.97811" lon="0.8732">
        <ele>1569.167</ele>
        <time>2014-03-14T12:07:06Z</time>
      </trkpt>
      <trkpt lat="42.9782" lon="0.87315">
        <ele>1567.831</ele>
        <time>2014-03-14T12:07:07Z</time>
      </trkpt>
      <trkpt lat="42.97828" lon="0.8731">
        <ele>1566.222</ele>
        <time>2014-03-14T12:07:08Z</time>
      </trkpt>
      <trkpt lat="42.97836" lon="0.87305">
        <ele>1564.172</ele>
        <time>2014-03-14T12:07:09Z</time>
      </trkpt>
      <trkpt lat="42.97844" lon="0.87299">
        <ele>1562.176</ele>
        <time>2014-03-14T12:07:10Z</time>
      </trkpt>
      <trkpt lat="42.97853" lon="0.87293">
        <ele>1559.829</ele>
        <time>2014-03-14T12:07:11Z</time>
      </trkpt>
      <trkpt lat="42.9787" lon="0.87279">
        <ele>1557.733</ele>
        <time>2014-03-14T12:07:13Z</time>
      </trkpt>
      <trkpt lat="42.9787" lon="0.87279">
        <ele>1555.53</ele>
        <time>2014-03-14T12:07:13Z</time>
      </trkpt>
      <trkpt lat="42.97887" lon="0.87263">
        <ele>1553.277</ele>
        <time>2014-03-14T12:07:15Z</time>
      </trkpt>
      <trkpt lat="42.97895" lon="0.87255">
        <ele>1550.787</ele>
        <time>2014-03-14T12:07:16Z</time>
      </trkpt>
      <trkpt lat="42.97904" lon="0.87247">
        <ele>1548.774</ele>
        <time>2014-03-14T12:07:17Z</time>
      </trkpt>
      <trkpt lat="42.97913" lon="0.87239">
        <ele>1547.281</ele>
        <time>2014-03-14T12:07:18Z</time>
      </trkpt>
      <trkpt lat="42.9792" lon="0.87232">
        <ele>1545.993</ele>
        <time>2014-03-14T12:07:19Z</time>
      </trkpt>
      <trkpt lat="42.97928" lon="0.87225">
        <ele>1543.904</ele>
        <time>2014-03-14T12:07:20Z</time>
      </trkpt>
      <trkpt lat="42.97936" lon="0.87219">
        <ele>1541.594</ele>
        <time>2014-03-14T12:07:21Z</time>
      </trkpt>
      <trkpt lat="42.97946" lon="0.87214">
        <ele>1538.966</ele>
        <time>2014-03-14T12:07:22Z</time>
      </trkpt>
      <trkpt lat="42.97956" lon="0.87208">
        <ele>1536.89</ele>
        <time>2014-03-14T12:07:23Z</time>
      </trkpt>
      <trkpt lat="42.97966" lon="0.87202">
        <ele>1536.215</ele>
        <time>2014-03-14T12:07:24Z</time>
      </trkpt>
      <trkpt lat="42.97983" lon="0.87191">
        <ele>1535.841</ele>
        <time>2014-03-14T12:07:26Z</time>
      </trkpt>
      <trkpt lat="42.97991" lon="0.87185">
        <ele>1535.05</ele>
        <time>2014-03-14T12:07:27Z</time>
      </trkpt>
      <trkpt lat="42.98" lon="0.8718">
        <ele>1532.636</ele>
        <time>2014-03-14T12:07:28Z</time>
      </trkpt>
      <trkpt lat="42.98009" lon="0.87176">
        <ele>1529.622</ele>
        <time>2014-03-14T12:07:29Z</time>
      </trkpt>
      <trkpt lat="42.98018" lon="0.87172">
        <ele>1526.725</ele>
        <time>2014-03-14T12:07:30Z</time>
      </trkpt>
      <trkpt lat="42.98027" lon="0.87168">
        <ele>1523.779</ele>
        <time>2014-03-14T12:07:31Z</time>
      </trkpt>
      <trkpt lat="42.98036" lon="0.87165">
        <ele>1521.292</ele>
        <time>2014-03-14T12:07:32Z</time>
      </trkpt>
      <trkpt lat="42.98044" lon="0.87162">
        <ele>1519.253</ele>
        <time>2014-03-14T12:07:33Z</time>
      </trkpt>
      <trkpt lat="42.98053" lon="0.87158">
        <ele>1517.774</ele>
        <time>2014-03-14T12:07:34Z</time>
      </trkpt>
      <trkpt lat="42.98062" lon="0.87154">
        <ele>1516.826</ele>
        <time>2014-03-14T12:07:35Z</time>
      </trkpt>
      <trkpt lat="42.9807" lon="0.87151">
        <ele>1516.306</ele>
        <time>2014-03-14T12:07:36Z</time>
      </trkpt>
      <trkpt lat="42.98077" lon="0.87148">
        <ele>1515.482</ele>
        <time>2014-03-14T12:07:37Z</time>
      </trkpt>
      <trkpt lat="42.9809" lon="0.87144">
        <ele>1513.208</ele>
        <time>2014-03-14T12:07:39Z</time>
      </trkpt>
      <trkpt lat="42.9809" lon="0.87144">
        <ele>1510.565</ele>
        <time>2014-03-14T12:07:39Z</time>
      </trkpt>
      <trkpt lat="42.98106" lon="0.87136">
        <ele>1507.739</ele>
        <time>2014-03-14T12:07:41Z</time>
      </trkpt>
      <trkpt lat="42.98114" lon="0.8713">
        <ele>1505.585</ele>
        <time>2014-03-14T12:07:42Z</time>
      </trkpt>
      <trkpt lat="42.98121" lon="0.87125">
        <ele>1503.788</ele>
        <time>2014-03-14T12:07:43Z</time>
      </trkpt>
      <trkpt lat="42.98128" lon="0.8712">
        <ele>1502.272</ele>
        <time>2014-03-14T12:07:44Z</time>
      </trkpt>
      <trkpt lat="42.98135" lon="0.87115">
        <ele>1500.107</ele>
        <time>2014-03-14T12:07:45Z</time>
      </trkpt>
      <trkpt lat="42.98143" lon="0.87111">
        <ele>1497.269</ele>
        <time>2014-03-14T12:07:46Z</time>
      </trkpt>
      <trkpt lat="42.98151" lon="0.87106">
        <ele>1494.618</ele>
        <time>2014-03-14T12:07:47Z</time>
      </trkpt>
      <trkpt lat="42.98159" lon="0.871">
        <ele>1492.245</ele>
        <time>2014-03-14T12:07:48Z</time>
      </trkpt>
      <trkpt lat="42.98167" lon="0.87095">
        <ele>1490.404</ele>
        <time>2014-03-14T12:07:49Z</time>
      </trkpt>
      <trkpt lat="42.98174" lon="0.8709">
        <ele>1488.81</ele>
        <time>2014-03-14T12:07:50Z</time>
      </trkpt>
      <trkpt lat="42.98181" lon="0.87085">
        <ele>1486.712</ele>
        <time>2014-03-14T12:07:51Z</time>
      </trkpt>
      <trkpt lat="42.98188" lon="0.8708">
        <ele>1484.277</ele>
        <time>2014-03-14T12:07:52Z</time>
      </trkpt>
      <trkpt lat="42.98194" lon="0.87074">
        <ele>1481.539</ele>
        <time>2014-03-14T12:07:53Z</time>
      </trkpt>
      <trkpt lat="42.98201" lon="0.87068">
        <ele>1478.717</ele>
        <time>2014-03-14T12:07:54Z</time>
      </trkpt>
      <trkpt lat="42.98216" lon="0.87057">
        <ele>1476.171</ele>
        <time>2014-03-14T12:07:56Z</time>
      </trkpt>
      <trkpt lat="42.98223" lon="0.87051">
        <ele>1473.849</ele>
        <time>2014-03-14T12:07:57Z</time>
      </trkpt>
      <trkpt lat="42.9823" lon="0.87045">
        <ele>1471.669</ele>
        <time>2014-03-14T12:07:58Z</time>
      </trkpt>
      <trkpt lat="42.98237" lon="0.87038">
        <ele>1469.066</ele>
        <time>2014-03-14T12:07:59Z</time>
      </trkpt>
      <trkpt lat="42.98244" lon="0.8703">
        <ele>1466.341</ele>
        <time>2014-03-14T12:08:00Z</time>
      </trkpt>
      <trkpt lat="42.98251" lon="0.87022">
        <ele>1463.589</ele>
        <time>2014-03-14T12:08:01Z</time>
      </trkpt>
      <trkpt lat="42.98257" lon="0.87014">
        <ele>1460.934</ele>
        <time>2014-03-14T12:08:02Z</time>
      </trkpt>
      <trkpt lat="42.98265" lon="0.87007">
        <ele>1458.402</ele>
        <time>2014-03-14T12:08:03Z</time>
      </trkpt>
      <trkpt lat="42.98272" lon="0.87">
        <ele>1455.793</ele>
        <time>2014-03-14T12:08:04Z</time>
      </trkpt>
      <trkpt lat="42.98279" lon="0.86994">
        <ele>1453.796</ele>
        <time>2014-03-14T12:08:05Z</time>
      </trkpt>
      <trkpt lat="42.98285" lon="0.86987">
        <ele>1452.169</ele>
        <time>2014-03-14T12:08:06Z</time>
      </trkpt>
      <trkpt lat="42.98292" lon="0.8698">
        <ele>1450.257</ele>
        <time>2014-03-14T12:08:07Z</time>
      </trkpt>
      <trkpt lat="42.98304" lon="0.86966">
        <ele>1447.955</ele>
        <time>2014-03-14T12:08:09Z</time>
      </trkpt>
      <trkpt lat="42.98311" lon="0.86959">
        <ele>1445.551</ele>
        <time>2014-03-14T12:08:10Z</time>
      </trkpt>
      <trkpt lat="42.98317" lon="0.86952">
        <ele>1443.981</ele>
        <time>2014-03-14T12:08:11Z</time>
      </trkpt>
      <trkpt lat="42.98322" lon="0.86944">
        <ele>1442.931</ele>
        <time>2014-03-14T12:08:12Z</time>
      </trkpt>
      <trkpt lat="42.98327" lon="0.86938">
        <ele>1441.959</ele>
        <time>2014-03-14T12:08:13Z</time>
      </trkpt>
      <trkpt lat="42.98332" lon="0.86932">
        <ele>1440.778</ele>
        <time>2014-03-14T12:08:14Z</time>
      </trkpt>
      <trkpt lat="42.98337" lon="0.86925">
        <ele>1439.417</ele>
        <time>2014-03-14T12:08:15Z</time>
      </trkpt>
      <trkpt lat="42.98342" lon="0.86918">
        <ele>1438.195</ele>
        <time>2014-03-14T12:08:16Z</time>
      </trkpt>
      <trkpt lat="42.98346" lon="0.86911">
        <ele>1437.362</ele>
        <time>2014-03-14T12:08:17Z</time>
      </trkpt>
      <trkpt lat="42.98354" lon="0.86897">
        <ele>1436.298</ele>
        <time>2014-03-14T12:08:19Z</time>
      </trkpt>
      <trkpt lat="42.98354" lon="0.86897">
        <ele>1435.181</ele>
        <time>2014-03-14T12:08:19Z</time>
      </trkpt>
      <trkpt lat="42.98364" lon="0.86884">
        <ele>1434.211</ele>
        <time>2014-03-14T12:08:21Z</time>
      </trkpt>
      <trkpt lat="42.98369" lon="0.86878">
        <ele>1433.577</ele>
        <time>2014-03-14T12:08:22Z</time>
      </trkpt>
      <trkpt lat="42.98373" lon="0.86871">
        <ele>1432.895</ele>
        <time>2014-03-14T12:08:23Z</time>
      </trkpt>
      <trkpt lat="42.98378" lon="0.86865">
        <ele>1432.009</ele>
        <time>2014-03-14T12:08:24Z</time>
      </trkpt>
      <trkpt lat="42.98382" lon="0.86859">
        <ele>1430.808</ele>
        <time>2014-03-14T12:08:25Z</time>
      </trkpt>
      <trkpt lat="42.98386" lon="0.86852">
        <ele>1429.218</ele>
        <time>2014-03-14T12:08:26Z</time>
      </trkpt>
      <trkpt lat="42.98391" lon="0.86844">
        <ele>1428.209</ele>
        <time>2014-03-14T12:08:27Z</time>
      </trkpt>
      <trkpt lat="42.98395" lon="0.86835">
        <ele>1427.894</ele>
        <time>2014-03-14T12:08:28Z</time>
      </trkpt>
      <trkpt lat="42.98398" lon="0.86828">
        <ele>1427.918</ele>
        <time>2014-03-14T12:08:29Z</time>
      </trkpt>
      <trkpt lat="42.98402" lon="0.8682">
        <ele>1427.565</ele>
        <time>2014-03-14T12:08:30Z</time>
      </trkpt>
      <trkpt lat="42.98407" lon="0.86814">
        <ele>1426.88</ele>
        <time>2014-03-14T12:08:31Z</time>
      </trkpt>
      <trkpt lat="42.98411" lon="0.86807">
        <ele>1425.817</ele>
        <time>2014-03-14T12:08:32Z</time>
      </trkpt>
      <trkpt lat="42.9842" lon="0.86794">
        <ele>1424.62</ele>
        <time>2014-03-14T12:08:34Z</time>
      </trkpt>
      <trkpt lat="42.9842" lon="0.86794">
        <ele>1423.329</ele>
        <time>2014-03-14T12:08:34Z</time>
      </trkpt>
      <trkpt lat="42.98429" lon="0.86781">
        <ele>1421.67</ele>
        <time>2014-03-14T12:08:36Z</time>
      </trkpt>
      <trkpt lat="42.98434" lon="0.86774">
        <ele>1419.753</ele>
        <time>2014-03-14T12:08:37Z</time>
      </trkpt>
      <trkpt lat="42.9844" lon="0.86767">
        <ele>1418.007</ele>
        <time>2014-03-14T12:08:38Z</time>
      </trkpt>
      <trkpt lat="42.98445" lon="0.86758">
        <ele>1416.699</ele>
        <time>2014-03-14T12:08:39Z</time>
      </trkpt>
      <trkpt lat="42.98451" lon="0.86748">
        <ele>1415.87</ele>
        <time>2014-03-14T12:08:40Z</time>
      </trkpt>
      <trkpt lat="42.98456" lon="0.86739">
        <ele>1415.107</ele>
        <time>2014-03-14T12:08:41Z</time>
      </trkpt>
      <trkpt lat="42.98462" lon="0.86732">
        <ele>1414.002</ele>
        <time>2014-03-14T12:08:42Z</time>
      </trkpt>
      <trkpt lat="42.98468" lon="0.86728">
        <ele>1412.724</ele>
        <time>2014-03-14T12:08:43Z</time>
      </trkpt>
      <trkpt lat="42.98473" lon="0.86724">
        <ele>1411.251</ele>
        <time>2014-03-14T12:08:44Z</time>
      </trkpt>
      <trkpt lat="42.98479" lon="0.86719">
        <ele>1409.608</ele>
        <time>2014-03-14T12:08:45Z</time>
      </trkpt>
      <trkpt lat="42.98489" lon="0.86707">
        <ele>1407.62</ele>
        <time>2014-03-14T12:08:47Z</time>
      </trkpt>
      <trkpt lat="42.98494" lon="0.86701">
        <ele>1405.52</ele>
        <time>2014-03-14T12:08:48Z</time>
      </trkpt>
      <trkpt lat="42.98499" lon="0.86694">
        <ele>1403.4</ele>
        <time>2014-03-14T12:08:49Z</time>
      </trkpt>
      <trkpt lat="42.98505" lon="0.86689">
        <ele>1401.348</ele>
        <time>2014-03-14T12:08:50Z</time>
      </trkpt>
      <trkpt lat="42.98509" lon="0.86684">
        <ele>1399.105</ele>
        <time>2014-03-14T12:08:51Z</time>
      </trkpt>
      <trkpt lat="42.98514" lon="0.86678">
        <ele>1396.958</ele>
        <time>2014-03-14T12:08:52Z</time>
      </trkpt>
      <trkpt lat="42.9852" lon="0.86673">
        <ele>1394.052</ele>
        <time>2014-03-14T12:08:53Z</time>
      </trkpt>
      <trkpt lat="42.98526" lon="0.86668">
        <ele>1391.541</ele>
        <time>2014-03-14T12:08:54Z</time>
      </trkpt>
      <trkpt lat="42.98532" lon="0.86663">
        <ele>1389.611</ele>
        <time>2014-03-14T12:08:55Z</time>
      </trkpt>
      <trkpt lat="42.98538" lon="0.86659">
        <ele>1387.579</ele>
        <time>2014-03-14T12:08:56Z</time>
      </trkpt>
      <trkpt lat="42.98545" lon="0.86655">
        <ele>1385.259</ele>
        <time>2014-03-14T12:08:57Z</time>
      </trkpt>
      <trkpt lat="42.98557" lon="0.86645">
        <ele>1383.188</ele>
        <time>2014-03-14T12:08:59Z</time>
      </trkpt>
      <trkpt lat="42.98557" lon="0.86645">
        <ele>1380.668</ele>
        <time>2014-03-14T12:08:59Z</time>
      </trkpt>
      <trkpt lat="42.9857" lon="0.86634">
        <ele>1378.688</ele>
        <time>2014-03-14T12:09:01Z</time>
      </trkpt>
      <trkpt lat="42.98576" lon="0.86629">
        <ele>1376.914</ele>
        <time>2014-03-14T12:09:02Z</time>
      </trkpt>
      <trkpt lat="42.98583" lon="0.86624">
        <ele>1374.971</ele>
        <time>2014-03-14T12:09:03Z</time>
      </trkpt>
      <trkpt lat="42.98589" lon="0.8662">
        <ele>1373.158</ele>
        <time>2014-03-14T12:09:04Z</time>
      </trkpt>
      <trkpt lat="42.98596" lon="0.86616">
        <ele>1371.566</ele>
        <time>2014-03-14T12:09:05Z</time>
      </trkpt>
      <trkpt lat="42.98602" lon="0.86612">
        <ele>1369.894</ele>
        <time>2014-03-14T12:09:06Z</time>
      </trkpt>
      <trkpt lat="42.98609" lon="0.8661">
        <ele>1368.241</ele>
        <time>2014-03-14T12:09:07Z</time>
      </trkpt>
      <trkpt lat="42.98616" lon="0.8661">
        <ele>1367.036</ele>
        <time>2014-03-14T12:09:08Z</time>
      </trkpt>
      <trkpt lat="42.98622" lon="0.86611">
        <ele>1365.937</ele>
        <time>2014-03-14T12:09:09Z</time>
      </trkpt>
      <trkpt lat="42.98628" lon="0.86613">
        <ele>1365.274</ele>
        <time>2014-03-14T12:09:10Z</time>
      </trkpt>
      <trkpt lat="42.98633" lon="0.86615">
        <ele>1364.734</ele>
        <time>2014-03-14T12:09:11Z</time>
      </trkpt>
      <trkpt lat="42.98639" lon="0.86617">
        <ele>1364.21</ele>
        <time>2014-03-14T12:09:12Z</time>
      </trkpt>
      <trkpt lat="42.98644" lon="0.86622">
        <ele>1364.086</ele>
        <time>2014-03-14T12:09:13Z</time>
      </trkpt>
      <trkpt lat="42.98644" lon="0.86622">
        <ele>1364.358</ele>
        <time>2014-03-14T12:09:13Z</time>
      </trkpt>
      <trkpt lat="42.98659" lon="0.86635">
        <ele>1365.181</ele>
        <time>2014-03-14T12:09:16Z</time>
      </trkpt>
      <trkpt lat="42.98665" lon="0.86638">
        <ele>1366.353</ele>
        <time>2014-03-14T12:09:17Z</time>
      </trkpt>
      <trkpt lat="42.9867" lon="0.86642">
        <ele>1367.647</ele>
        <time>2014-03-14T12:09:18Z</time>
      </trkpt>
      <trkpt lat="42.98675" lon="0.86648">
        <ele>1368.689</ele>
        <time>2014-03-14T12:09:19Z</time>
      </trkpt>
      <trkpt lat="42.98678" lon="0.86654">
        <ele>1369.701</ele>
        <time>2014-03-14T12:09:20Z</time>
      </trkpt>
      <trkpt lat="42.98681" lon="0.86661">
        <ele>1370.353</ele>
        <time>2014-03-14T12:09:21Z</time>
      </trkpt>
      <trkpt lat="42.98683" lon="0.86668">
        <ele>1371.138</ele>
        <time>2014-03-14T12:09:22Z</time>
      </trkpt>
      <trkpt lat="42.98685" lon="0.86675">
        <ele>1371.676</ele>
        <time>2014-03-14T12:09:23Z</time>
      </trkpt>
      <trkpt lat="42.98685" lon="0.86682">
        <ele>1371.97</ele>
        <time>2014-03-14T12:09:24Z</time>
      </trkpt>
      <trkpt lat="42.98685" lon="0.8669">
        <ele>1372.087</ele>
        <time>2014-03-14T12:09:25Z</time>
      </trkpt>
      <trkpt lat="42.98685" lon="0.86698">
        <ele>1372.116</ele>
        <time>2014-03-14T12:09:26Z</time>
      </trkpt>
      <trkpt lat="42.98683" lon="0.86705">
        <ele>1372.168</ele>
        <time>2014-03-14T12:09:27Z</time>
      </trkpt>
      <trkpt lat="42.9868" lon="0.86713">
        <ele>1372.046</ele>
        <time>2014-03-14T12:09:28Z</time>
      </trkpt>
      <trkpt lat="42.98676" lon="0.86719">
        <ele>1371.691</ele>
        <time>2014-03-14T12:09:29Z</time>
      </trkpt>
      <trkpt lat="42.98667" lon="0.86729">
        <ele>1371.129</ele>
        <time>2014-03-14T12:09:31Z</time>
      </trkpt>
      <trkpt lat="42.98662" lon="0.86735">
        <ele>1370.353</ele>
        <time>2014-03-14T12:09:32Z</time>
      </trkpt>
      <trkpt lat="42.98657" lon="0.86739">
        <ele>1369.329</ele>
        <time>2014-03-14T12:09:33Z</time>
      </trkpt>
      <trkpt lat="42.98651" lon="0.86744">
        <ele>1368.007</ele>
        <time>2014-03-14T12:09:34Z</time>
      </trkpt>
      <trkpt lat="42.98644" lon="0.86747">
        <ele>1366.868</ele>
        <time>2014-03-14T12:09:35Z</time>
      </trkpt>
      <trkpt lat="42.98636" lon="0.86748">
        <ele>1365.304</ele>
        <time>2014-03-14T12:09:36Z</time>
      </trkpt>
      <trkpt lat="42.98628" lon="0.86748">
        <ele>1363.897</ele>
        <time>2014-03-14T12:09:37Z</time>
      </trkpt>
      <trkpt lat="42.98621" lon="0.86745">
        <ele>1362.888</ele>
        <time>2014-03-14T12:09:38Z</time>
      </trkpt>
      <trkpt lat="42.98613" lon="0.8674">
        <ele>1362.187</ele>
        <time>2014-03-14T12:09:39Z</time>
      </trkpt>
      <trkpt lat="42.98607" lon="0.86733">
        <ele>1361.914</ele>
        <time>2014-03-14T12:09:40Z</time>
      </trkpt>
      <trkpt lat="42.98603" lon="0.86724">
        <ele>1361.865</ele>
        <time>2014-03-14T12:09:41Z</time>
      </trkpt>
      <trkpt lat="42.986" lon="0.86715">
        <ele>1361.782</ele>
        <time>2014-03-14T12:09:42Z</time>
      </trkpt>
      <trkpt lat="42.98598" lon="0.86706">
        <ele>1361.435</ele>
        <time>2014-03-14T12:09:43Z</time>
      </trkpt>
      <trkpt lat="42.98597" lon="0.86697">
        <ele>1361.085</ele>
        <time>2014-03-14T12:09:44Z</time>
      </trkpt>
      <trkpt lat="42.98598" lon="0.86677">
        <ele>1360.826</ele>
        <time>2014-03-14T12:09:46Z</time>
      </trkpt>
      <trkpt lat="42.986" lon="0.86668">
        <ele>1360.902</ele>
        <time>2014-03-14T12:09:47Z</time>
      </trkpt>
      <trkpt lat="42.98602" lon="0.86661">
        <ele>1360.975</ele>
        <time>2014-03-14T12:09:48Z</time>
      </trkpt>
      <trkpt lat="42.98605" lon="0.86655">
        <ele>1360.827</ele>
        <time>2014-03-14T12:09:49Z</time>
      </trkpt>
      <trkpt lat="42.98609" lon="0.86649">
        <ele>1360.1</ele>
        <time>2014-03-14T12:09:50Z</time>
      </trkpt>
      <trkpt lat="42.98613" lon="0.86642">
        <ele>1359.09</ele>
        <time>2014-03-14T12:09:51Z</time>
      </trkpt>
      <trkpt lat="42.98618" lon="0.86635">
        <ele>1358.166</ele>
        <time>2014-03-14T12:09:52Z</time>
      </trkpt>
      <trkpt lat="42.98622" lon="0.86629">
        <ele>1357.159</ele>
        <time>2014-03-14T12:09:53Z</time>
      </trkpt>
      <trkpt lat="42.98627" lon="0.86624">
        <ele>1356.228</ele>
        <time>2014-03-14T12:09:54Z</time>
      </trkpt>
      <trkpt lat="42.98632" lon="0.86619">
        <ele>1355.345</ele>
        <time>2014-03-14T12:09:55Z</time>
      </trkpt>
      <trkpt lat="42.98636" lon="0.86615">
        <ele>1354.622</ele>
        <time>2014-03-14T12:09:56Z</time>
      </trkpt>
      <trkpt lat="42.98646" lon="0.8661">
        <ele>1353.499</ele>
        <time>2014-03-14T12:09:58Z</time>
      </trkpt>
      <trkpt lat="42.98653" lon="0.86611">
        <ele>1351.737</ele>
        <time>2014-03-14T12:09:59Z</time>
      </trkpt>
      <trkpt lat="42.98653" lon="0.86611">
        <ele>1350.273</ele>
        <time>2014-03-14T12:09:59Z</time>
      </trkpt>
      <trkpt lat="42.98667" lon="0.86616">
        <ele>1349.164</ele>
        <time>2014-03-14T12:10:01Z</time>
      </trkpt>
      <trkpt lat="42.98673" lon="0.86619">
        <ele>1349.021</ele>
        <time>2014-03-14T12:10:02Z</time>
      </trkpt>
      <trkpt lat="42.98677" lon="0.86624">
        <ele>1349.206</ele>
        <time>2014-03-14T12:10:03Z</time>
      </trkpt>
      <trkpt lat="42.98681" lon="0.86629">
        <ele>1349.231</ele>
        <time>2014-03-14T12:10:04Z</time>
      </trkpt>
      <trkpt lat="42.98684" lon="0.86635">
        <ele>1348.985</ele>
        <time>2014-03-14T12:10:05Z</time>
      </trkpt>
      <trkpt lat="42.98688" lon="0.8664">
        <ele>1348.383</ele>
        <time>2014-03-14T12:10:06Z</time>
      </trkpt>
      <trkpt lat="42.98693" lon="0.86645">
        <ele>1347.456</ele>
        <time>2014-03-14T12:10:07Z</time>
      </trkpt>
      <trkpt lat="42.98698" lon="0.86649">
        <ele>1346.449</ele>
        <time>2014-03-14T12:10:08Z</time>
      </trkpt>
      <trkpt lat="42.98703" lon="0.86655">
        <ele>1345.128</ele>
        <time>2014-03-14T12:10:09Z</time>
      </trkpt>
      <trkpt lat="42.98708" lon="0.86661">
        <ele>1343.926</ele>
        <time>2014-03-14T12:10:10Z</time>
      </trkpt>
      <trkpt lat="42.98712" lon="0.86667">
        <ele>1342.887</ele>
        <time>2014-03-14T12:10:11Z</time>
      </trkpt>
      <trkpt lat="42.98717" lon="0.86674">
        <ele>1342</ele>
        <time>2014-03-14T12:10:12Z</time>
      </trkpt>
      <trkpt lat="42.98717" lon="0.86674">
        <ele>1341.698</ele>
        <time>2014-03-14T12:10:12Z</time>
      </trkpt>
      <trkpt lat="42.98717" lon="0.86674">
        <ele>1342.183</ele>
        <time>2014-03-14T12:10:12Z</time>
      </trkpt>
      <trkpt lat="42.98738" lon="0.86694">
        <ele>1343.203</ele>
        <time>2014-03-14T12:10:16Z</time>
      </trkpt>
      <trkpt lat="42.98742" lon="0.86698">
        <ele>1344.145</ele>
        <time>2014-03-14T12:10:17Z</time>
      </trkpt>
      <trkpt lat="42.98746" lon="0.86701">
        <ele>1345.238</ele>
        <time>2014-03-14T12:10:18Z</time>
      </trkpt>
      <trkpt lat="42.9875" lon="0.86706">
        <ele>1346.071</ele>
        <time>2014-03-14T12:10:19Z</time>
      </trkpt>
      <trkpt lat="42.98755" lon="0.86711">
        <ele>1347.099</ele>
        <time>2014-03-14T12:10:20Z</time>
      </trkpt>
      <trkpt lat="42.98759" lon="0.86716">
        <ele>1348.578</ele>
        <time>2014-03-14T12:10:21Z</time>
      </trkpt>
      <trkpt lat="42.98762" lon="0.86721">
        <ele>1350.422</ele>
        <time>2014-03-14T12:10:22Z</time>
      </trkpt>
      <trkpt lat="42.98765" lon="0.86725">
        <ele>1352.355</ele>
        <time>2014-03-14T12:10:23Z</time>
      </trkpt>
      <trkpt lat="42.98767" lon="0.8673">
        <ele>1354.12</ele>
        <time>2014-03-14T12:10:24Z</time>
      </trkpt>
      <trkpt lat="42.98769" lon="0.86735">
        <ele>1355.559</ele>
        <time>2014-03-14T12:10:25Z</time>
      </trkpt>
      <trkpt lat="42.98771" lon="0.86742">
        <ele>1356.907</ele>
        <time>2014-03-14T12:10:26Z</time>
      </trkpt>
      <trkpt lat="42.98771" lon="0.86749">
        <ele>1358.455</ele>
        <time>2014-03-14T12:10:27Z</time>
      </trkpt>
      <trkpt lat="42.98772" lon="0.86756">
        <ele>1361.26</ele>
        <time>2014-03-14T12:10:28Z</time>
      </trkpt>
      <trkpt lat="42.98771" lon="0.86762">
        <ele>1364.361</ele>
        <time>2014-03-14T12:10:29Z</time>
      </trkpt>
      <trkpt lat="42.98769" lon="0.86767">
        <ele>1368.068</ele>
        <time>2014-03-14T12:10:30Z</time>
      </trkpt>
      <trkpt lat="42.98766" lon="0.86771">
        <ele>1372.228</ele>
        <time>2014-03-14T12:10:31Z</time>
      </trkpt>
      <trkpt lat="42.98762" lon="0.86775">
        <ele>1375.719</ele>
        <time>2014-03-14T12:10:32Z</time>
      </trkpt>
      <trkpt lat="42.98759" lon="0.8678">
        <ele>1379.125</ele>
        <time>2014-03-14T12:10:33Z</time>
      </trkpt>
      <trkpt lat="42.98754" lon="0.86783">
        <ele>1381.437</ele>
        <time>2014-03-14T12:10:34Z</time>
      </trkpt>
      <trkpt lat="42.98749" lon="0.86786">
        <ele>1382.507</ele>
        <time>2014-03-14T12:10:35Z</time>
      </trkpt>
      <trkpt lat="42.98742" lon="0.86789">
        <ele>1383.083</ele>
        <time>2014-03-14T12:10:36Z</time>
      </trkpt>
      <trkpt lat="42.98734" lon="0.8679">
        <ele>1383.637</ele>
        <time>2014-03-14T12:10:37Z</time>
      </trkpt>
      <trkpt lat="42.98724" lon="0.86789">
        <ele>1384.286</ele>
        <time>2014-03-14T12:10:38Z</time>
      </trkpt>
      <trkpt lat="42.98714" lon="0.86783">
        <ele>1385.189</ele>
        <time>2014-03-14T12:10:39Z</time>
      </trkpt>
      <trkpt lat="42.98705" lon="0.86772">
        <ele>1386.039</ele>
        <time>2014-03-14T12:10:40Z</time>
      </trkpt>
      <trkpt lat="42.98699" lon="0.86759">
        <ele>1386.742</ele>
        <time>2014-03-14T12:10:41Z</time>
      </trkpt>
      <trkpt lat="42.98694" lon="0.86745">
        <ele>1387.707</ele>
        <time>2014-03-14T12:10:42Z</time>
      </trkpt>
      <trkpt lat="42.98688" lon="0.86718">
        <ele>1388.805</ele>
        <time>2014-03-14T12:10:44Z</time>
      </trkpt>
      <trkpt lat="42.98688" lon="0.86718">
        <ele>1389.76</ele>
        <time>2014-03-14T12:10:44Z</time>
      </trkpt>
      <trkpt lat="42.98694" lon="0.86694">
        <ele>1390.484</ele>
        <time>2014-03-14T12:10:46Z</time>
      </trkpt>
      <trkpt lat="42.987" lon="0.86686">
        <ele>1391.326</ele>
        <time>2014-03-14T12:10:47Z</time>
      </trkpt>
      <trkpt lat="42.98706" lon="0.86682">
        <ele>1392.685</ele>
        <time>2014-03-14T12:10:48Z</time>
      </trkpt>
      <trkpt lat="42.98712" lon="0.8668">
        <ele>1394.736</ele>
        <time>2014-03-14T12:10:49Z</time>
      </trkpt>
      <trkpt lat="42.98712" lon="0.8668">
        <ele>1397.318</ele>
        <time>2014-03-14T12:10:49Z</time>
      </trkpt>
      <trkpt lat="42.98722" lon="0.86679">
        <ele>1400.119</ele>
        <time>2014-03-14T12:10:51Z</time>
      </trkpt>
      <trkpt lat="42.98727" lon="0.8668">
        <ele>1403.01</ele>
        <time>2014-03-14T12:10:52Z</time>
      </trkpt>
      <trkpt lat="42.9873" lon="0.86684">
        <ele>1405.919</ele>
        <time>2014-03-14T12:10:53Z</time>
      </trkpt>
      <trkpt lat="42.98732" lon="0.8669">
        <ele>1408.402</ele>
        <time>2014-03-14T12:10:54Z</time>
      </trkpt>
      <trkpt lat="42.9873" lon="0.86696">
        <ele>1410.704</ele>
        <time>2014-03-14T12:10:55Z</time>
      </trkpt>
      <trkpt lat="42.98726" lon="0.86701">
        <ele>1412.53</ele>
        <time>2014-03-14T12:10:56Z</time>
      </trkpt>
      <trkpt lat="42.9872" lon="0.86705">
        <ele>1414.715</ele>
        <time>2014-03-14T12:10:57Z</time>
      </trkpt>
      <trkpt lat="42.98714" lon="0.86708">
        <ele>1416.834</ele>
        <time>2014-03-14T12:10:58Z</time>
      </trkpt>
      <trkpt lat="42.98706" lon="0.8671">
        <ele>1418.837</ele>
        <time>2014-03-14T12:10:59Z</time>
      </trkpt>
      <trkpt lat="42.98697" lon="0.86709">
        <ele>1421.449</ele>
        <time>2014-03-14T12:11:00Z</time>
      </trkpt>
      <trkpt lat="42.98688" lon="0.86706">
        <ele>1423.21</ele>
        <time>2014-03-14T12:11:01Z</time>
      </trkpt>
      <trkpt lat="42.98678" lon="0.86699">
        <ele>1424.44</ele>
        <time>2014-03-14T12:11:02Z</time>
      </trkpt>
      <trkpt lat="42.9867" lon="0.8669">
        <ele>1425.158</ele>
        <time>2014-03-14T12:11:03Z</time>
      </trkpt>
      <trkpt lat="42.98662" lon="0.86679">
        <ele>1425.551</ele>
        <time>2014-03-14T12:11:04Z</time>
      </trkpt>
      <trkpt lat="42.98656" lon="0.86668">
        <ele>1425.793</ele>
        <time>2014-03-14T12:11:05Z</time>
      </trkpt>
      <trkpt lat="42.98651" lon="0.86655">
        <ele>1425.868</ele>
        <time>2014-03-14T12:11:06Z</time>
      </trkpt>
      <trkpt lat="42.98648" lon="0.86641">
        <ele>1425.974</ele>
        <time>2014-03-14T12:11:07Z</time>
      </trkpt>
      <trkpt lat="42.98648" lon="0.86626">
        <ele>1426.316</ele>
        <time>2014-03-14T12:11:08Z</time>
      </trkpt>
      <trkpt lat="42.98649" lon="0.86613">
        <ele>1426.792</ele>
        <time>2014-03-14T12:11:09Z</time>
      </trkpt>
      <trkpt lat="42.98652" lon="0.86602">
        <ele>1427.246</ele>
        <time>2014-03-14T12:11:10Z</time>
      </trkpt>
      <trkpt lat="42.98656" lon="0.86593">
        <ele>1427.321</ele>
        <time>2014-03-14T12:11:11Z</time>
      </trkpt>
      <trkpt lat="42.98661" lon="0.86585">
        <ele>1426.779</ele>
        <time>2014-03-14T12:11:12Z</time>
      </trkpt>
      <trkpt lat="42.98665" lon="0.86579">
        <ele>1425.837</ele>
        <time>2014-03-14T12:11:13Z</time>
      </trkpt>
      <trkpt lat="42.98671" lon="0.86576">
        <ele>1424.005</ele>
        <time>2014-03-14T12:11:14Z</time>
      </trkpt>
      <trkpt lat="42.98685" lon="0.86578">
        <ele>1422.489</ele>
        <time>2014-03-14T12:11:16Z</time>
      </trkpt>
      <trkpt lat="42.98692" lon="0.86582">
        <ele>1421.839</ele>
        <time>2014-03-14T12:11:17Z</time>
      </trkpt>
      <trkpt lat="42.98698" lon="0.86586">
        <ele>1422.173</ele>
        <time>2014-03-14T12:11:18Z</time>
      </trkpt>
      <trkpt lat="42.98698" lon="0.86586">
        <ele>1422.97</ele>
        <time>2014-03-14T12:11:18Z</time>
      </trkpt>
      <trkpt lat="42.98706" lon="0.86599">
        <ele>1423.755</ele>
        <time>2014-03-14T12:11:20Z</time>
      </trkpt>
      <trkpt lat="42.98707" lon="0.86607">
        <ele>1424.269</ele>
        <time>2014-03-14T12:11:21Z</time>
      </trkpt>
      <trkpt lat="42.98708" lon="0.86616">
        <ele>1424.587</ele>
        <time>2014-03-14T12:11:22Z</time>
      </trkpt>
      <trkpt lat="42.98709" lon="0.86625">
        <ele>1425.387</ele>
        <time>2014-03-14T12:11:23Z</time>
      </trkpt>
      <trkpt lat="42.98709" lon="0.86636">
        <ele>1427.182</ele>
        <time>2014-03-14T12:11:24Z</time>
      </trkpt>
      <trkpt lat="42.98706" lon="0.86643">
        <ele>1429.379</ele>
        <time>2014-03-14T12:11:25Z</time>
      </trkpt>
      <trkpt lat="42.98701" lon="0.86648">
        <ele>1431.454</ele>
        <time>2014-03-14T12:11:26Z</time>
      </trkpt>
      <trkpt lat="42.98695" lon="0.86652">
        <ele>1432.859</ele>
        <time>2014-03-14T12:11:27Z</time>
      </trkpt>
      <trkpt lat="42.98688" lon="0.86657">
        <ele>1433.838</ele>
        <time>2014-03-14T12:11:28Z</time>
      </trkpt>
      <trkpt lat="42.9868" lon="0.86661">
        <ele>1434.765</ele>
        <time>2014-03-14T12:11:29Z</time>
      </trkpt>
      <trkpt lat="42.98671" lon="0.86664">
        <ele>1435.641</ele>
        <time>2014-03-14T12:11:30Z</time>
      </trkpt>
      <trkpt lat="42.98662" lon="0.86663">
        <ele>1436.506</ele>
        <time>2014-03-14T12:11:31Z</time>
      </trkpt>
      <trkpt lat="42.98651" lon="0.8666">
        <ele>1437.213</ele>
        <time>2014-03-14T12:11:32Z</time>
      </trkpt>
      <trkpt lat="42.98641" lon="0.86653">
        <ele>1437.799</ele>
        <time>2014-03-14T12:11:33Z</time>
      </trkpt>
      <trkpt lat="42.98632" lon="0.86644">
        <ele>1438.772</ele>
        <time>2014-03-14T12:11:34Z</time>
      </trkpt>
      <trkpt lat="42.98625" lon="0.86633">
        <ele>1439.878</ele>
        <time>2014-03-14T12:11:35Z</time>
      </trkpt>
      <trkpt lat="42.98619" lon="0.8662">
        <ele>1440.958</ele>
        <time>2014-03-14T12:11:36Z</time>
      </trkpt>
      <trkpt lat="42.98615" lon="0.86605">
        <ele>1441.836</ele>
        <time>2014-03-14T12:11:37Z</time>
      </trkpt>
      <trkpt lat="42.98615" lon="0.86588">
        <ele>1442.748</ele>
        <time>2014-03-14T12:11:38Z</time>
      </trkpt>
      <trkpt lat="42.98618" lon="0.86573">
        <ele>1443.336</ele>
        <time>2014-03-14T12:11:39Z</time>
      </trkpt>
      <trkpt lat="42.98623" lon="0.86559">
        <ele>1443.778</ele>
        <time>2014-03-14T12:11:40Z</time>
      </trkpt>
      <trkpt lat="42.98628" lon="0.86548">
        <ele>1444.138</ele>
        <time>2014-03-14T12:11:41Z</time>
      </trkpt>
      <trkpt lat="42.98633" lon="0.86539">
        <ele>1444.432</ele>
        <time>2014-03-14T12:11:42Z</time>
      </trkpt>
      <trkpt lat="42.98645" lon="0.86529">
        <ele>1444.282</ele>
        <time>2014-03-14T12:11:44Z</time>
      </trkpt>
      <trkpt lat="42.98645" lon="0.86529">
        <ele>1443.689</ele>
        <time>2014-03-14T12:11:44Z</time>
      </trkpt>
      <trkpt lat="42.9866" lon="0.86536">
        <ele>1442.799</ele>
        <time>2014-03-14T12:11:46Z</time>
      </trkpt>
      <trkpt lat="42.9866" lon="0.86536">
        <ele>1442.548</ele>
        <time>2014-03-14T12:11:46Z</time>
      </trkpt>
      <trkpt lat="42.98668" lon="0.86551">
        <ele>1443.19</ele>
        <time>2014-03-14T12:11:48Z</time>
      </trkpt>
      <trkpt lat="42.98669" lon="0.86557">
        <ele>1444.241</ele>
        <time>2014-03-14T12:11:49Z</time>
      </trkpt>
      <trkpt lat="42.98669" lon="0.86563">
        <ele>1445.316</ele>
        <time>2014-03-14T12:11:50Z</time>
      </trkpt>
      <trkpt lat="42.98667" lon="0.86569">
        <ele>1446.778</ele>
        <time>2014-03-14T12:11:51Z</time>
      </trkpt>
      <trkpt lat="42.98663" lon="0.86574">
        <ele>1448.057</ele>
        <time>2014-03-14T12:11:52Z</time>
      </trkpt>
      <trkpt lat="42.98658" lon="0.86579">
        <ele>1448.756</ele>
        <time>2014-03-14T12:11:53Z</time>
      </trkpt>
      <trkpt lat="42.98652" lon="0.86582">
        <ele>1449.181</ele>
        <time>2014-03-14T12:11:54Z</time>
      </trkpt>
      <trkpt lat="42.98645" lon="0.8658">
        <ele>1449.168</ele>
        <time>2014-03-14T12:11:55Z</time>
      </trkpt>
      <trkpt lat="42.98637" lon="0.86572">
        <ele>1448.73</ele>
        <time>2014-03-14T12:11:56Z</time>
      </trkpt>
      <trkpt lat="42.9863" lon="0.8656">
        <ele>1448.234</ele>
        <time>2014-03-14T12:11:57Z</time>
      </trkpt>
      <trkpt lat="42.98626" lon="0.86546">
        <ele>1448.128</ele>
        <time>2014-03-14T12:11:58Z</time>
      </trkpt>
      <trkpt lat="42.98625" lon="0.86532">
        <ele>1448.711</ele>
        <time>2014-03-14T12:11:59Z</time>
      </trkpt>
      <trkpt lat="42.98626" lon="0.86518">
        <ele>1450.342</ele>
        <time>2014-03-14T12:12:00Z</time>
      </trkpt>
      <trkpt lat="42.98629" lon="0.86506">
        <ele>1452.763</ele>
        <time>2014-03-14T12:12:01Z</time>
      </trkpt>
      <trkpt lat="42.98633" lon="0.86497">
        <ele>1454.38</ele>
        <time>2014-03-14T12:12:02Z</time>
      </trkpt>
      <trkpt lat="42.98638" lon="0.86492">
        <ele>1455.19</ele>
        <time>2014-03-14T12:12:03Z</time>
      </trkpt>
      <trkpt lat="42.98644" lon="0.86489">
        <ele>1455.069</ele>
        <time>2014-03-14T12:12:04Z</time>
      </trkpt>
      <trkpt lat="42.98651" lon="0.86488">
        <ele>1453.893</ele>
        <time>2014-03-14T12:12:05Z</time>
      </trkpt>
      <trkpt lat="42.98657" lon="0.86489">
        <ele>1451.696</ele>
        <time>2014-03-14T12:12:06Z</time>
      </trkpt>
      <trkpt lat="42.98662" lon="0.86495">
        <ele>1449.208</ele>
        <time>2014-03-14T12:12:07Z</time>
      </trkpt>
      <trkpt lat="42.98666" lon="0.86505">
        <ele>1447.418</ele>
        <time>2014-03-14T12:12:08Z</time>
      </trkpt>
      <trkpt lat="42.98669" lon="0.86518">
        <ele>1446.291</ele>
        <time>2014-03-14T12:12:09Z</time>
      </trkpt>
      <trkpt lat="42.98674" lon="0.86535">
        <ele>1445.833</ele>
        <time>2014-03-14T12:12:11Z</time>
      </trkpt>
      <trkpt lat="42.98674" lon="0.86545">
        <ele>1445.528</ele>
        <time>2014-03-14T12:12:12Z</time>
      </trkpt>
      <trkpt lat="42.98675" lon="0.86557">
        <ele>1445.5</ele>
        <time>2014-03-14T12:12:13Z</time>
      </trkpt>
      <trkpt lat="42.98675" lon="0.86568">
        <ele>1446.185</ele>
        <time>2014-03-14T12:12:14Z</time>
      </trkpt>
      <trkpt lat="42.98675" lon="0.86568">
        <ele>1447.471</ele>
        <time>2014-03-14T12:12:14Z</time>
      </trkpt>
      <trkpt lat="42.98671" lon="0.86585">
        <ele>1448.434</ele>
        <time>2014-03-14T12:12:16Z</time>
      </trkpt>
      <trkpt lat="42.98667" lon="0.86592">
        <ele>1449.097</ele>
        <time>2014-03-14T12:12:17Z</time>
      </trkpt>
      <trkpt lat="42.98661" lon="0.86599">
        <ele>1449.614</ele>
        <time>2014-03-14T12:12:18Z</time>
      </trkpt>
      <trkpt lat="42.98654" lon="0.86603">
        <ele>1450.088</ele>
        <time>2014-03-14T12:12:19Z</time>
      </trkpt>
      <trkpt lat="42.98647" lon="0.86606">
        <ele>1450.437</ele>
        <time>2014-03-14T12:12:20Z</time>
      </trkpt>
      <trkpt lat="42.9864" lon="0.86607">
        <ele>1450.259</ele>
        <time>2014-03-14T12:12:21Z</time>
      </trkpt>
      <trkpt lat="42.98631" lon="0.86606">
        <ele>1449.446</ele>
        <time>2014-03-14T12:12:22Z</time>
      </trkpt>
      <trkpt lat="42.98621" lon="0.86604">
        <ele>1448.23</ele>
        <time>2014-03-14T12:12:23Z</time>
      </trkpt>
      <trkpt lat="42.98611" lon="0.86599">
        <ele>1446.523</ele>
        <time>2014-03-14T12:12:24Z</time>
      </trkpt>
      <trkpt lat="42.986" lon="0.86591">
        <ele>1444.607</ele>
        <time>2014-03-14T12:12:25Z</time>
      </trkpt>
      <trkpt lat="42.98589" lon="0.86581">
        <ele>1443.195</ele>
        <time>2014-03-14T12:12:26Z</time>
      </trkpt>
      <trkpt lat="42.9858" lon="0.86568">
        <ele>1442.358</ele>
        <time>2014-03-14T12:12:27Z</time>
      </trkpt>
      <trkpt lat="42.98574" lon="0.86554">
        <ele>1442.154</ele>
        <time>2014-03-14T12:12:28Z</time>
      </trkpt>
      <trkpt lat="42.9857" lon="0.8654">
        <ele>1442.367</ele>
        <time>2014-03-14T12:12:29Z</time>
      </trkpt>
      <trkpt lat="42.98569" lon="0.86527">
        <ele>1442.589</ele>
        <time>2014-03-14T12:12:30Z</time>
      </trkpt>
      <trkpt lat="42.98568" lon="0.86514">
        <ele>1442.758</ele>
        <time>2014-03-14T12:12:31Z</time>
      </trkpt>
      <trkpt lat="42.98568" lon="0.86514">
        <ele>1442.034</ele>
        <time>2014-03-14T12:12:31Z</time>
      </trkpt>
      <trkpt lat="42.98566" lon="0.86483">
        <ele>1440.861</ele>
        <time>2014-03-14T12:12:33Z</time>
      </trkpt>
      <trkpt lat="42.98566" lon="0.86467">
        <ele>1439.899</ele>
        <time>2014-03-14T12:12:34Z</time>
      </trkpt>
      <trkpt lat="42.98565" lon="0.86452">
        <ele>1439.498</ele>
        <time>2014-03-14T12:12:35Z</time>
      </trkpt>
      <trkpt lat="42.98565" lon="0.8644">
        <ele>1439.529</ele>
        <time>2014-03-14T12:12:36Z</time>
      </trkpt>
      <trkpt lat="42.98565" lon="0.8643">
        <ele>1439.168</ele>
        <time>2014-03-14T12:12:37Z</time>
      </trkpt>
      <trkpt lat="42.98565" lon="0.86421">
        <ele>1437.879</ele>
        <time>2014-03-14T12:12:38Z</time>
      </trkpt>
      <trkpt lat="42.98565" lon="0.86411">
        <ele>1435.547</ele>
        <time>2014-03-14T12:12:39Z</time>
      </trkpt>
      <trkpt lat="42.98565" lon="0.86402">
        <ele>1432.595</ele>
        <time>2014-03-14T12:12:40Z</time>
      </trkpt>
      <trkpt lat="42.98563" lon="0.86382">
        <ele>1429.599</ele>
        <time>2014-03-14T12:12:42Z</time>
      </trkpt>
      <trkpt lat="42.98565" lon="0.86372">
        <ele>1426.945</ele>
        <time>2014-03-14T12:12:43Z</time>
      </trkpt>
      <trkpt lat="42.98567" lon="0.86361">
        <ele>1425.249</ele>
        <time>2014-03-14T12:12:44Z</time>
      </trkpt>
      <trkpt lat="42.98569" lon="0.86352">
        <ele>1424.627</ele>
        <time>2014-03-14T12:12:45Z</time>
      </trkpt>
      <trkpt lat="42.9857" lon="0.86344">
        <ele>1424.539</ele>
        <time>2014-03-14T12:12:46Z</time>
      </trkpt>
      <trkpt lat="42.98571" lon="0.86335">
        <ele>1424.367</ele>
        <time>2014-03-14T12:12:47Z</time>
      </trkpt>
      <trkpt lat="42.98572" lon="0.86326">
        <ele>1423.86</ele>
        <time>2014-03-14T12:12:48Z</time>
      </trkpt>
      <trkpt lat="42.98573" lon="0.86316">
        <ele>1422.893</ele>
        <time>2014-03-14T12:12:49Z</time>
      </trkpt>
      <trkpt lat="42.98572" lon="0.86304">
        <ele>1421.797</ele>
        <time>2014-03-14T12:12:50Z</time>
      </trkpt>
      <trkpt lat="42.9857" lon="0.86292">
        <ele>1421.484</ele>
        <time>2014-03-14T12:12:51Z</time>
      </trkpt>
      <trkpt lat="42.98568" lon="0.8628">
        <ele>1422.233</ele>
        <time>2014-03-14T12:12:52Z</time>
      </trkpt>
      <trkpt lat="42.98567" lon="0.86269">
        <ele>1423.536</ele>
        <time>2014-03-14T12:12:53Z</time>
      </trkpt>
      <trkpt lat="42.98567" lon="0.86258">
        <ele>1425.203</ele>
        <time>2014-03-14T12:12:54Z</time>
      </trkpt>
      <trkpt lat="42.98568" lon="0.86248">
        <ele>1426.985</ele>
        <time>2014-03-14T12:12:55Z</time>
      </trkpt>
      <trkpt lat="42.98568" lon="0.86237">
        <ele>1430.063</ele>
        <time>2014-03-14T12:12:56Z</time>
      </trkpt>
      <trkpt lat="42.98566" lon="0.86227">
        <ele>1432.903</ele>
        <time>2014-03-14T12:12:57Z</time>
      </trkpt>
      <trkpt lat="42.98565" lon="0.86218">
        <ele>1435.045</ele>
        <time>2014-03-14T12:12:58Z</time>
      </trkpt>
      <trkpt lat="42.98565" lon="0.8621">
        <ele>1436.786</ele>
        <time>2014-03-14T12:12:59Z</time>
      </trkpt>
      <trkpt lat="42.98566" lon="0.86201">
        <ele>1437.935</ele>
        <time>2014-03-14T12:13:00Z</time>
      </trkpt>
      <trkpt lat="42.98567" lon="0.86192">
        <ele>1438.772</ele>
        <time>2014-03-14T12:13:01Z</time>
      </trkpt>
      <trkpt lat="42.98566" lon="0.86182">
        <ele>1439.743</ele>
        <time>2014-03-14T12:13:02Z</time>
      </trkpt>
      <trkpt lat="42.98564" lon="0.86163">
        <ele>1441.452</ele>
        <time>2014-03-14T12:13:04Z</time>
      </trkpt>
      <trkpt lat="42.98564" lon="0.86163">
        <ele>1443.094</ele>
        <time>2014-03-14T12:13:04Z</time>
      </trkpt>
      <trkpt lat="42.98564" lon="0.86149">
        <ele>1444.417</ele>
        <time>2014-03-14T12:13:06Z</time>
      </trkpt>
      <trkpt lat="42.98563" lon="0.86143">
        <ele>1445.166</ele>
        <time>2014-03-14T12:13:07Z</time>
      </trkpt>
      <trkpt lat="42.98562" lon="0.86135">
        <ele>1445.446</ele>
        <time>2014-03-14T12:13:08Z</time>
      </trkpt>
      <trkpt lat="42.98559" lon="0.86127">
        <ele>1445.885</ele>
        <time>2014-03-14T12:13:09Z</time>
      </trkpt>
      <trkpt lat="42.98556" lon="0.86118">
        <ele>1446.775</ele>
        <time>2014-03-14T12:13:10Z</time>
      </trkpt>
      <trkpt lat="42.98553" lon="0.86108">
        <ele>1448.241</ele>
        <time>2014-03-14T12:13:11Z</time>
      </trkpt>
      <trkpt lat="42.98551" lon="0.86099">
        <ele>1449.889</ele>
        <time>2014-03-14T12:13:12Z</time>
      </trkpt>
      <trkpt lat="42.98549" lon="0.86091">
        <ele>1451.334</ele>
        <time>2014-03-14T12:13:13Z</time>
      </trkpt>
      <trkpt lat="42.98546" lon="0.86082">
        <ele>1452.078</ele>
        <time>2014-03-14T12:13:14Z</time>
      </trkpt>
      <trkpt lat="42.98544" lon="0.86073">
        <ele>1452.349</ele>
        <time>2014-03-14T12:13:15Z</time>
      </trkpt>
      <trkpt lat="42.9854" lon="0.86063">
        <ele>1452.648</ele>
        <time>2014-03-14T12:13:16Z</time>
      </trkpt>
      <trkpt lat="42.98537" lon="0.86054">
        <ele>1453.134</ele>
        <time>2014-03-14T12:13:17Z</time>
      </trkpt>
      <trkpt lat="42.98534" lon="0.86044">
        <ele>1454.1</ele>
        <time>2014-03-14T12:13:18Z</time>
      </trkpt>
      <trkpt lat="42.9853" lon="0.86035">
        <ele>1454.769</ele>
        <time>2014-03-14T12:13:19Z</time>
      </trkpt>
      <trkpt lat="42.98527" lon="0.86026">
        <ele>1455.293</ele>
        <time>2014-03-14T12:13:20Z</time>
      </trkpt>
      <trkpt lat="42.98524" lon="0.86015">
        <ele>1455.878</ele>
        <time>2014-03-14T12:13:21Z</time>
      </trkpt>
      <trkpt lat="42.98521" lon="0.86004">
        <ele>1456.709</ele>
        <time>2014-03-14T12:13:22Z</time>
      </trkpt>
      <trkpt lat="42.98518" lon="0.85994">
        <ele>1457.751</ele>
        <time>2014-03-14T12:13:23Z</time>
      </trkpt>
      <trkpt lat="42.98515" lon="0.85984">
        <ele>1458.661</ele>
        <time>2014-03-14T12:13:24Z</time>
      </trkpt>
      <trkpt lat="42.98512" lon="0.85975">
        <ele>1459.496</ele>
        <time>2014-03-14T12:13:25Z</time>
      </trkpt>
      <trkpt lat="42.98509" lon="0.85966">
        <ele>1460.104</ele>
        <time>2014-03-14T12:13:26Z</time>
      </trkpt>
      <trkpt lat="42.98505" lon="0.85956">
        <ele>1460.873</ele>
        <time>2014-03-14T12:13:27Z</time>
      </trkpt>
      <trkpt lat="42.98501" lon="0.85948">
        <ele>1462.177</ele>
        <time>2014-03-14T12:13:28Z</time>
      </trkpt>
      <trkpt lat="42.98501" lon="0.85948">
        <ele>1464.27</ele>
        <time>2014-03-14T12:13:28Z</time>
      </trkpt>
      <trkpt lat="42.98494" lon="0.8592">
        <ele>1466.258</ele>
        <time>2014-03-14T12:13:31Z</time>
      </trkpt>
      <trkpt lat="42.98493" lon="0.85911">
        <ele>1468.02</ele>
        <time>2014-03-14T12:13:32Z</time>
      </trkpt>
      <trkpt lat="42.98491" lon="0.85902">
        <ele>1469.523</ele>
        <time>2014-03-14T12:13:33Z</time>
      </trkpt>
      <trkpt lat="42.98489" lon="0.85892">
        <ele>1470.861</ele>
        <time>2014-03-14T12:13:34Z</time>
      </trkpt>
      <trkpt lat="42.98489" lon="0.85892">
        <ele>1472.119</ele>
        <time>2014-03-14T12:13:34Z</time>
      </trkpt>
      <trkpt lat="42.98483" lon="0.85874">
        <ele>1473.096</ele>
        <time>2014-03-14T12:13:36Z</time>
      </trkpt>
      <trkpt lat="42.9848" lon="0.85867">
        <ele>1473.583</ele>
        <time>2014-03-14T12:13:37Z</time>
      </trkpt>
      <trkpt lat="42.98477" lon="0.85858">
        <ele>1473.419</ele>
        <time>2014-03-14T12:13:38Z</time>
      </trkpt>
      <trkpt lat="42.98474" lon="0.85849">
        <ele>1472.88</ele>
        <time>2014-03-14T12:13:39Z</time>
      </trkpt>
      <trkpt lat="42.98471" lon="0.8584">
        <ele>1472.457</ele>
        <time>2014-03-14T12:13:40Z</time>
      </trkpt>
      <trkpt lat="42.98467" lon="0.85831">
        <ele>1472.364</ele>
        <time>2014-03-14T12:13:41Z</time>
      </trkpt>
      <trkpt lat="42.98463" lon="0.85822">
        <ele>1472.386</ele>
        <time>2014-03-14T12:13:42Z</time>
      </trkpt>
      <trkpt lat="42.98459" lon="0.85814">
        <ele>1472.05</ele>
        <time>2014-03-14T12:13:43Z</time>
      </trkpt>
      <trkpt lat="42.98454" lon="0.85804">
        <ele>1471.556</ele>
        <time>2014-03-14T12:13:44Z</time>
      </trkpt>
      <trkpt lat="42.98449" lon="0.85794">
        <ele>1471.345</ele>
        <time>2014-03-14T12:13:45Z</time>
      </trkpt>
      <trkpt lat="42.98445" lon="0.85785">
        <ele>1471.387</ele>
        <time>2014-03-14T12:13:46Z</time>
      </trkpt>
      <trkpt lat="42.98441" lon="0.85775">
        <ele>1471.498</ele>
        <time>2014-03-14T12:13:47Z</time>
      </trkpt>
      <trkpt lat="42.98437" lon="0.85766">
        <ele>1471.441</ele>
        <time>2014-03-14T12:13:48Z</time>
      </trkpt>
      <trkpt lat="42.98433" lon="0.85757">
        <ele>1471.103</ele>
        <time>2014-03-14T12:13:49Z</time>
      </trkpt>
      <trkpt lat="42.98428" lon="0.85747">
        <ele>1470.565</ele>
        <time>2014-03-14T12:13:50Z</time>
      </trkpt>
      <trkpt lat="42.98424" lon="0.85737">
        <ele>1470.073</ele>
        <time>2014-03-14T12:13:51Z</time>
      </trkpt>
      <trkpt lat="42.98421" lon="0.85726">
        <ele>1469.74</ele>
        <time>2014-03-14T12:13:52Z</time>
      </trkpt>
      <trkpt lat="42.98418" lon="0.85716">
        <ele>1469.543</ele>
        <time>2014-03-14T12:13:53Z</time>
      </trkpt>
      <trkpt lat="42.98416" lon="0.85705">
        <ele>1469.32</ele>
        <time>2014-03-14T12:13:54Z</time>
      </trkpt>
      <trkpt lat="42.98414" lon="0.85693">
        <ele>1469.028</ele>
        <time>2014-03-14T12:13:55Z</time>
      </trkpt>
      <trkpt lat="42.98413" lon="0.85681">
        <ele>1468.551</ele>
        <time>2014-03-14T12:13:56Z</time>
      </trkpt>
      <trkpt lat="42.98412" lon="0.85658">
        <ele>1468.282</ele>
        <time>2014-03-14T12:13:58Z</time>
      </trkpt>
      <trkpt lat="42.98412" lon="0.85648">
        <ele>1468.134</ele>
        <time>2014-03-14T12:13:59Z</time>
      </trkpt>
      <trkpt lat="42.98412" lon="0.85648">
        <ele>1467.745</ele>
        <time>2014-03-14T12:13:59Z</time>
      </trkpt>
      <trkpt lat="42.98411" lon="0.85627">
        <ele>1467.142</ele>
        <time>2014-03-14T12:14:01Z</time>
      </trkpt>
      <trkpt lat="42.9841" lon="0.85615">
        <ele>1466.348</ele>
        <time>2014-03-14T12:14:02Z</time>
      </trkpt>
      <trkpt lat="42.98409" lon="0.85604">
        <ele>1465.81</ele>
        <time>2014-03-14T12:14:03Z</time>
      </trkpt>
      <trkpt lat="42.98407" lon="0.85592">
        <ele>1465.281</ele>
        <time>2014-03-14T12:14:04Z</time>
      </trkpt>
      <trkpt lat="42.98404" lon="0.8558">
        <ele>1464.96</ele>
        <time>2014-03-14T12:14:05Z</time>
      </trkpt>
      <trkpt lat="42.98401" lon="0.85569">
        <ele>1464.886</ele>
        <time>2014-03-14T12:14:06Z</time>
      </trkpt>
      <trkpt lat="42.98397" lon="0.85558">
        <ele>1464.794</ele>
        <time>2014-03-14T12:14:07Z</time>
      </trkpt>
      <trkpt lat="42.98393" lon="0.85548">
        <ele>1464.437</ele>
        <time>2014-03-14T12:14:08Z</time>
      </trkpt>
      <trkpt lat="42.98388" lon="0.85539">
        <ele>1463.67</ele>
        <time>2014-03-14T12:14:09Z</time>
      </trkpt>
      <trkpt lat="42.98383" lon="0.85529">
        <ele>1462.23</ele>
        <time>2014-03-14T12:14:10Z</time>
      </trkpt>
      <trkpt lat="42.98377" lon="0.85519">
        <ele>1460.824</ele>
        <time>2014-03-14T12:14:11Z</time>
      </trkpt>
      <trkpt lat="42.98371" lon="0.8551">
        <ele>1459.715</ele>
        <time>2014-03-14T12:14:12Z</time>
      </trkpt>
      <trkpt lat="42.98365" lon="0.85499">
        <ele>1459.304</ele>
        <time>2014-03-14T12:14:13Z</time>
      </trkpt>
      <trkpt lat="42.98359" lon="0.85488">
        <ele>1459.646</ele>
        <time>2014-03-14T12:14:14Z</time>
      </trkpt>
      <trkpt lat="42.98355" lon="0.85476">
        <ele>1460.553</ele>
        <time>2014-03-14T12:14:15Z</time>
      </trkpt>
      <trkpt lat="42.9835" lon="0.85465">
        <ele>1461.644</ele>
        <time>2014-03-14T12:14:16Z</time>
      </trkpt>
      <trkpt lat="42.98345" lon="0.85456">
        <ele>1462.59</ele>
        <time>2014-03-14T12:14:17Z</time>
      </trkpt>
      <trkpt lat="42.9834" lon="0.85446">
        <ele>1463.19</ele>
        <time>2014-03-14T12:14:18Z</time>
      </trkpt>
      <trkpt lat="42.98334" lon="0.85437">
        <ele>1463.468</ele>
        <time>2014-03-14T12:14:19Z</time>
      </trkpt>
      <trkpt lat="42.98329" lon="0.85427">
        <ele>1463.725</ele>
        <time>2014-03-14T12:14:20Z</time>
      </trkpt>
      <trkpt lat="42.98323" lon="0.85419">
        <ele>1463.959</ele>
        <time>2014-03-14T12:14:21Z</time>
      </trkpt>
      <trkpt lat="42.98317" lon="0.8541">
        <ele>1464.076</ele>
        <time>2014-03-14T12:14:22Z</time>
      </trkpt>
      <trkpt lat="42.9831" lon="0.85402">
        <ele>1464.226</ele>
        <time>2014-03-14T12:14:23Z</time>
      </trkpt>
      <trkpt lat="42.98303" lon="0.85395">
        <ele>1464.462</ele>
        <time>2014-03-14T12:14:24Z</time>
      </trkpt>
      <trkpt lat="42.9829" lon="0.85379">
        <ele>1464.831</ele>
        <time>2014-03-14T12:14:26Z</time>
      </trkpt>
      <trkpt lat="42.98284" lon="0.85371">
        <ele>1465.171</ele>
        <time>2014-03-14T12:14:27Z</time>
      </trkpt>
      <trkpt lat="42.98277" lon="0.85363">
        <ele>1465.524</ele>
        <time>2014-03-14T12:14:28Z</time>
      </trkpt>
      <trkpt lat="42.98269" lon="0.85357">
        <ele>1465.837</ele>
        <time>2014-03-14T12:14:29Z</time>
      </trkpt>
      <trkpt lat="42.98261" lon="0.85351">
        <ele>1466.198</ele>
        <time>2014-03-14T12:14:30Z</time>
      </trkpt>
      <trkpt lat="42.98254" lon="0.85346">
        <ele>1466.41</ele>
        <time>2014-03-14T12:14:31Z</time>
      </trkpt>
      <trkpt lat="42.98246" lon="0.85341">
        <ele>1466.32</ele>
        <time>2014-03-14T12:14:32Z</time>
      </trkpt>
      <trkpt lat="42.98238" lon="0.85338">
        <ele>1465.821</ele>
        <time>2014-03-14T12:14:33Z</time>
      </trkpt>
      <trkpt lat="42.98229" lon="0.85335">
        <ele>1464.711</ele>
        <time>2014-03-14T12:14:34Z</time>
      </trkpt>
      <trkpt lat="42.98219" lon="0.85332">
        <ele>1463.275</ele>
        <time>2014-03-14T12:14:35Z</time>
      </trkpt>
      <trkpt lat="42.98209" lon="0.8533">
        <ele>1462.594</ele>
        <time>2014-03-14T12:14:36Z</time>
      </trkpt>
      <trkpt lat="42.982" lon="0.85328">
        <ele>1462.648</ele>
        <time>2014-03-14T12:14:37Z</time>
      </trkpt>
      <trkpt lat="42.98192" lon="0.85324">
        <ele>1463.03</ele>
        <time>2014-03-14T12:14:38Z</time>
      </trkpt>
      <trkpt lat="42.98184" lon="0.85321">
        <ele>1463.365</ele>
        <time>2014-03-14T12:14:39Z</time>
      </trkpt>
      <trkpt lat="42.98175" lon="0.85317">
        <ele>1463.768</ele>
        <time>2014-03-14T12:14:40Z</time>
      </trkpt>
      <trkpt lat="42.98165" lon="0.85314">
        <ele>1464.483</ele>
        <time>2014-03-14T12:14:41Z</time>
      </trkpt>
      <trkpt lat="42.98155" lon="0.8531">
        <ele>1466.022</ele>
        <time>2014-03-14T12:14:42Z</time>
      </trkpt>
      <trkpt lat="42.98145" lon="0.85306">
        <ele>1468.137</ele>
        <time>2014-03-14T12:14:43Z</time>
      </trkpt>
      <trkpt lat="42.98137" lon="0.85303">
        <ele>1470.728</ele>
        <time>2014-03-14T12:14:44Z</time>
      </trkpt>
      <trkpt lat="42.98131" lon="0.85301">
        <ele>1472.385</ele>
        <time>2014-03-14T12:14:45Z</time>
      </trkpt>
      <trkpt lat="42.98124" lon="0.85299">
        <ele>1472.993</ele>
        <time>2014-03-14T12:14:46Z</time>
      </trkpt>
      <trkpt lat="42.98116" lon="0.85298">
        <ele>1472.563</ele>
        <time>2014-03-14T12:14:47Z</time>
      </trkpt>
      <trkpt lat="42.98108" lon="0.85296">
        <ele>1471.865</ele>
        <time>2014-03-14T12:14:48Z</time>
      </trkpt>
      <trkpt lat="42.981" lon="0.85296">
        <ele>1471.431</ele>
        <time>2014-03-14T12:14:49Z</time>
      </trkpt>
      <trkpt lat="42.98086" lon="0.85296">
        <ele>1471.213</ele>
        <time>2014-03-14T12:14:51Z</time>
      </trkpt>
      <trkpt lat="42.98081" lon="0.85297">
        <ele>1470.604</ele>
        <time>2014-03-14T12:14:52Z</time>
      </trkpt>
      <trkpt lat="42.98075" lon="0.853">
        <ele>1469.312</ele>
        <time>2014-03-14T12:14:53Z</time>
      </trkpt>
      <trkpt lat="42.98069" lon="0.85305">
        <ele>1467.688</ele>
        <time>2014-03-14T12:14:54Z</time>
      </trkpt>
      <trkpt lat="42.98069" lon="0.85305">
        <ele>1466.103</ele>
        <time>2014-03-14T12:14:54Z</time>
      </trkpt>
      <trkpt lat="42.9806" lon="0.8532">
        <ele>1464.895</ele>
        <time>2014-03-14T12:14:56Z</time>
      </trkpt>
      <trkpt lat="42.98058" lon="0.85328">
        <ele>1464.351</ele>
        <time>2014-03-14T12:14:57Z</time>
      </trkpt>
      <trkpt lat="42.98057" lon="0.85335">
        <ele>1463.853</ele>
        <time>2014-03-14T12:14:58Z</time>
      </trkpt>
      <trkpt lat="42.98057" lon="0.85341">
        <ele>1463.167</ele>
        <time>2014-03-14T12:14:59Z</time>
      </trkpt>
      <trkpt lat="42.98057" lon="0.85349">
        <ele>1462.051</ele>
        <time>2014-03-14T12:15:00Z</time>
      </trkpt>
      <trkpt lat="42.98059" lon="0.85357">
        <ele>1460.486</ele>
        <time>2014-03-14T12:15:01Z</time>
      </trkpt>
      <trkpt lat="42.98063" lon="0.85364">
        <ele>1459.185</ele>
        <time>2014-03-14T12:15:02Z</time>
      </trkpt>
      <trkpt lat="42.98068" lon="0.8537">
        <ele>1458.5</ele>
        <time>2014-03-14T12:15:03Z</time>
      </trkpt>
      <trkpt lat="42.98073" lon="0.85374">
        <ele>1458.29</ele>
        <time>2014-03-14T12:15:04Z</time>
      </trkpt>
      <trkpt lat="42.98079" lon="0.85376">
        <ele>1458.208</ele>
        <time>2014-03-14T12:15:05Z</time>
      </trkpt>
      <trkpt lat="42.98085" lon="0.85378">
        <ele>1458.164</ele>
        <time>2014-03-14T12:15:06Z</time>
      </trkpt>
      <trkpt lat="42.98092" lon="0.8538">
        <ele>1458.196</ele>
        <time>2014-03-14T12:15:07Z</time>
      </trkpt>
      <trkpt lat="42.98099" lon="0.8538">
        <ele>1458.508</ele>
        <time>2014-03-14T12:15:08Z</time>
      </trkpt>
      <trkpt lat="42.98106" lon="0.85379">
        <ele>1459.195</ele>
        <time>2014-03-14T12:15:09Z</time>
      </trkpt>
      <trkpt lat="42.98112" lon="0.85377">
        <ele>1459.998</ele>
        <time>2014-03-14T12:15:10Z</time>
      </trkpt>
      <trkpt lat="42.98119" lon="0.85374">
        <ele>1460.691</ele>
        <time>2014-03-14T12:15:11Z</time>
      </trkpt>
      <trkpt lat="42.98125" lon="0.85371">
        <ele>1461.357</ele>
        <time>2014-03-14T12:15:12Z</time>
      </trkpt>
      <trkpt lat="42.98132" lon="0.85366">
        <ele>1462.249</ele>
        <time>2014-03-14T12:15:13Z</time>
      </trkpt>
      <trkpt lat="42.98138" lon="0.8536">
        <ele>1463.473</ele>
        <time>2014-03-14T12:15:14Z</time>
      </trkpt>
      <trkpt lat="42.98143" lon="0.85353">
        <ele>1465.159</ele>
        <time>2014-03-14T12:15:15Z</time>
      </trkpt>
      <trkpt lat="42.98148" lon="0.85346">
        <ele>1467.253</ele>
        <time>2014-03-14T12:15:16Z</time>
      </trkpt>
      <trkpt lat="42.98152" lon="0.85337">
        <ele>1469.486</ele>
        <time>2014-03-14T12:15:17Z</time>
      </trkpt>
      <trkpt lat="42.98155" lon="0.85328">
        <ele>1471.756</ele>
        <time>2014-03-14T12:15:18Z</time>
      </trkpt>
      <trkpt lat="42.98158" lon="0.85318">
        <ele>1473.946</ele>
        <time>2014-03-14T12:15:19Z</time>
      </trkpt>
      <trkpt lat="42.98159" lon="0.85308">
        <ele>1475.851</ele>
        <time>2014-03-14T12:15:20Z</time>
      </trkpt>
      <trkpt lat="42.98158" lon="0.85287">
        <ele>1477.48</ele>
        <time>2014-03-14T12:15:22Z</time>
      </trkpt>
      <trkpt lat="42.98155" lon="0.85276">
        <ele>1478.911</ele>
        <time>2014-03-14T12:15:23Z</time>
      </trkpt>
      <trkpt lat="42.98149" lon="0.85268">
        <ele>1480.238</ele>
        <time>2014-03-14T12:15:24Z</time>
      </trkpt>
      <trkpt lat="42.98149" lon="0.85268">
        <ele>1481.594</ele>
        <time>2014-03-14T12:15:24Z</time>
      </trkpt>
      <trkpt lat="42.98132" lon="0.85258">
        <ele>1482.99</ele>
        <time>2014-03-14T12:15:26Z</time>
      </trkpt>
      <trkpt lat="42.98124" lon="0.85258">
        <ele>1484.679</ele>
        <time>2014-03-14T12:15:27Z</time>
      </trkpt>
      <trkpt lat="42.98116" lon="0.85259">
        <ele>1486.463</ele>
        <time>2014-03-14T12:15:28Z</time>
      </trkpt>
      <trkpt lat="42.98109" lon="0.85263">
        <ele>1488.24</ele>
        <time>2014-03-14T12:15:29Z</time>
      </trkpt>
      <trkpt lat="42.98103" lon="0.85268">
        <ele>1489.594</ele>
        <time>2014-03-14T12:15:30Z</time>
      </trkpt>
      <trkpt lat="42.98099" lon="0.85275">
        <ele>1490.702</ele>
        <time>2014-03-14T12:15:31Z</time>
      </trkpt>
      <trkpt lat="42.98096" lon="0.85283">
        <ele>1491.658</ele>
        <time>2014-03-14T12:15:32Z</time>
      </trkpt>
      <trkpt lat="42.98095" lon="0.85292">
        <ele>1492.508</ele>
        <time>2014-03-14T12:15:33Z</time>
      </trkpt>
      <trkpt lat="42.98096" lon="0.85302">
        <ele>1493.828</ele>
        <time>2014-03-14T12:15:34Z</time>
      </trkpt>
      <trkpt lat="42.98099" lon="0.8531">
        <ele>1495.447</ele>
        <time>2014-03-14T12:15:35Z</time>
      </trkpt>
      <trkpt lat="42.98102" lon="0.85317">
        <ele>1497.115</ele>
        <time>2014-03-14T12:15:36Z</time>
      </trkpt>
      <trkpt lat="42.98106" lon="0.85323">
        <ele>1498.454</ele>
        <time>2014-03-14T12:15:37Z</time>
      </trkpt>
      <trkpt lat="42.98111" lon="0.85326">
        <ele>1499.419</ele>
        <time>2014-03-14T12:15:38Z</time>
      </trkpt>
      <trkpt lat="42.98117" lon="0.85328">
        <ele>1500.257</ele>
        <time>2014-03-14T12:15:39Z</time>
      </trkpt>
      <trkpt lat="42.98124" lon="0.85328">
        <ele>1501.541</ele>
        <time>2014-03-14T12:15:40Z</time>
      </trkpt>
      <trkpt lat="42.9813" lon="0.85328">
        <ele>1503.891</ele>
        <time>2014-03-14T12:15:41Z</time>
      </trkpt>
      <trkpt lat="42.98135" lon="0.85326">
        <ele>1507.121</ele>
        <time>2014-03-14T12:15:42Z</time>
      </trkpt>
      <trkpt lat="42.9814" lon="0.85323">
        <ele>1510.311</ele>
        <time>2014-03-14T12:15:43Z</time>
      </trkpt>
      <trkpt lat="42.98145" lon="0.85319">
        <ele>1512.586</ele>
        <time>2014-03-14T12:15:44Z</time>
      </trkpt>
      <trkpt lat="42.98152" lon="0.85309">
        <ele>1514.433</ele>
        <time>2014-03-14T12:15:46Z</time>
      </trkpt>
      <trkpt lat="42.98157" lon="0.85301">
        <ele>1515.055</ele>
        <time>2014-03-14T12:15:47Z</time>
      </trkpt>
      <trkpt lat="42.9816" lon="0.85292">
        <ele>1515.779</ele>
        <time>2014-03-14T12:15:48Z</time>
      </trkpt>
      <trkpt lat="42.98161" lon="0.85282">
        <ele>1516.898</ele>
        <time>2014-03-14T12:15:49Z</time>
      </trkpt>
      <trkpt lat="42.98161" lon="0.85282">
        <ele>1518.255</ele>
        <time>2014-03-14T12:15:49Z</time>
      </trkpt>
      <trkpt lat="42.98154" lon="0.85265">
        <ele>1519.689</ele>
        <time>2014-03-14T12:15:51Z</time>
      </trkpt>
      <trkpt lat="42.98147" lon="0.85258">
        <ele>1521.319</ele>
        <time>2014-03-14T12:15:52Z</time>
      </trkpt>
      <trkpt lat="42.9814" lon="0.85253">
        <ele>1523.111</ele>
        <time>2014-03-14T12:15:53Z</time>
      </trkpt>
      <trkpt lat="42.98133" lon="0.85248">
        <ele>1525.389</ele>
        <time>2014-03-14T12:15:54Z</time>
      </trkpt>
      <trkpt lat="42.98126" lon="0.85245">
        <ele>1527.179</ele>
        <time>2014-03-14T12:15:55Z</time>
      </trkpt>
      <trkpt lat="42.98119" lon="0.85246">
        <ele>1529.568</ele>
        <time>2014-03-14T12:15:56Z</time>
      </trkpt>
      <trkpt lat="42.98112" lon="0.8525">
        <ele>1531.322</ele>
        <time>2014-03-14T12:15:57Z</time>
      </trkpt>
      <trkpt lat="42.98106" lon="0.85256">
        <ele>1533.737</ele>
        <time>2014-03-14T12:15:58Z</time>
      </trkpt>
      <trkpt lat="42.98101" lon="0.85264">
        <ele>1536.111</ele>
        <time>2014-03-14T12:15:59Z</time>
      </trkpt>
      <trkpt lat="42.98098" lon="0.85272">
        <ele>1539.115</ele>
        <time>2014-03-14T12:16:00Z</time>
      </trkpt>
      <trkpt lat="42.98097" lon="0.85279">
        <ele>1540.972</ele>
        <time>2014-03-14T12:16:01Z</time>
      </trkpt>
      <trkpt lat="42.98097" lon="0.85286">
        <ele>1542.657</ele>
        <time>2014-03-14T12:16:02Z</time>
      </trkpt>
      <trkpt lat="42.98098" lon="0.85294">
        <ele>1543.352</ele>
        <time>2014-03-14T12:16:03Z</time>
      </trkpt>
      <trkpt lat="42.98101" lon="0.85302">
        <ele>1543.911</ele>
        <time>2014-03-14T12:16:04Z</time>
      </trkpt>
      <trkpt lat="42.98106" lon="0.85309">
        <ele>1544.971</ele>
        <time>2014-03-14T12:16:05Z</time>
      </trkpt>
      <trkpt lat="42.98119" lon="0.85316">
        <ele>1546.404</ele>
        <time>2014-03-14T12:16:07Z</time>
      </trkpt>
      <trkpt lat="42.98125" lon="0.85316">
        <ele>1548.117</ele>
        <time>2014-03-14T12:16:08Z</time>
      </trkpt>
      <trkpt lat="42.98132" lon="0.85314">
        <ele>1549.903</ele>
        <time>2014-03-14T12:16:09Z</time>
      </trkpt>
      <trkpt lat="42.98132" lon="0.85314">
        <ele>1551.154</ele>
        <time>2014-03-14T12:16:09Z</time>
      </trkpt>
      <trkpt lat="42.98144" lon="0.85305">
        <ele>1552.523</ele>
        <time>2014-03-14T12:16:11Z</time>
      </trkpt>
      <trkpt lat="42.98151" lon="0.85298">
        <ele>1554.053</ele>
        <time>2014-03-14T12:16:12Z</time>
      </trkpt>
      <trkpt lat="42.98157" lon="0.85289">
        <ele>1556.292</ele>
        <time>2014-03-14T12:16:13Z</time>
      </trkpt>
      <trkpt lat="42.98161" lon="0.85278">
        <ele>1559.43</ele>
        <time>2014-03-14T12:16:14Z</time>
      </trkpt>
      <trkpt lat="42.98161" lon="0.85278">
        <ele>1563.018</ele>
        <time>2014-03-14T12:16:14Z</time>
      </trkpt>
      <trkpt lat="42.98162" lon="0.85256">
        <ele>1566.586</ele>
        <time>2014-03-14T12:16:16Z</time>
      </trkpt>
      <trkpt lat="42.98161" lon="0.85246">
        <ele>1569.896</ele>
        <time>2014-03-14T12:16:17Z</time>
      </trkpt>
      <trkpt lat="42.98159" lon="0.85235">
        <ele>1572.589</ele>
        <time>2014-03-14T12:16:18Z</time>
      </trkpt>
      <trkpt lat="42.98154" lon="0.85224">
        <ele>1574.981</ele>
        <time>2014-03-14T12:16:19Z</time>
      </trkpt>
      <trkpt lat="42.98148" lon="0.85215">
        <ele>1577.22</ele>
        <time>2014-03-14T12:16:20Z</time>
      </trkpt>
      <trkpt lat="42.98141" lon="0.8521">
        <ele>1579.381</ele>
        <time>2014-03-14T12:16:21Z</time>
      </trkpt>
      <trkpt lat="42.98133" lon="0.85208">
        <ele>1580.88</ele>
        <time>2014-03-14T12:16:22Z</time>
      </trkpt>
      <trkpt lat="42.98125" lon="0.85209">
        <ele>1582.018</ele>
        <time>2014-03-14T12:16:23Z</time>
      </trkpt>
      <trkpt lat="42.98116" lon="0.8521">
        <ele>1583.249</ele>
        <time>2014-03-14T12:16:24Z</time>
      </trkpt>
      <trkpt lat="42.98107" lon="0.85213">
        <ele>1584.828</ele>
        <time>2014-03-14T12:16:25Z</time>
      </trkpt>
      <trkpt lat="42.981" lon="0.85217">
        <ele>1586.318</ele>
        <time>2014-03-14T12:16:26Z</time>
      </trkpt>
      <trkpt lat="42.98095" lon="0.85224">
        <ele>1587.76</ele>
        <time>2014-03-14T12:16:27Z</time>
      </trkpt>
      <trkpt lat="42.98092" lon="0.85232">
        <ele>1588.597</ele>
        <time>2014-03-14T12:16:28Z</time>
      </trkpt>
      <trkpt lat="42.9809" lon="0.85242">
        <ele>1589.645</ele>
        <time>2014-03-14T12:16:29Z</time>
      </trkpt>
      <trkpt lat="42.98092" lon="0.85251">
        <ele>1590.742</ele>
        <time>2014-03-14T12:16:30Z</time>
      </trkpt>
      <trkpt lat="42.98095" lon="0.85259">
        <ele>1591.853</ele>
        <time>2014-03-14T12:16:31Z</time>
      </trkpt>
      <trkpt lat="42.981" lon="0.85265">
        <ele>1592.988</ele>
        <time>2014-03-14T12:16:32Z</time>
      </trkpt>
      <trkpt lat="42.98113" lon="0.85268">
        <ele>1594.716</ele>
        <time>2014-03-14T12:16:34Z</time>
      </trkpt>
      <trkpt lat="42.98113" lon="0.85268">
        <ele>1595.884</ele>
        <time>2014-03-14T12:16:34Z</time>
      </trkpt>
      <trkpt lat="42.98126" lon="0.85265">
        <ele>1597.268</ele>
        <time>2014-03-14T12:16:36Z</time>
      </trkpt>
      <trkpt lat="42.98133" lon="0.8526">
        <ele>1598.156</ele>
        <time>2014-03-14T12:16:37Z</time>
      </trkpt>
      <trkpt lat="42.98139" lon="0.85252">
        <ele>1599.124</ele>
        <time>2014-03-14T12:16:38Z</time>
      </trkpt>
      <trkpt lat="42.98146" lon="0.85242">
        <ele>1600.789</ele>
        <time>2014-03-14T12:16:39Z</time>
      </trkpt>
      <trkpt lat="42.98151" lon="0.85231">
        <ele>1602.682</ele>
        <time>2014-03-14T12:16:40Z</time>
      </trkpt>
      <trkpt lat="42.98155" lon="0.85219">
        <ele>1605.72</ele>
        <time>2014-03-14T12:16:41Z</time>
      </trkpt>
      <trkpt lat="42.98159" lon="0.85207">
        <ele>1608.928</ele>
        <time>2014-03-14T12:16:42Z</time>
      </trkpt>
      <trkpt lat="42.98161" lon="0.85193">
        <ele>1612.197</ele>
        <time>2014-03-14T12:16:43Z</time>
      </trkpt>
      <trkpt lat="42.98162" lon="0.8518">
        <ele>1615.603</ele>
        <time>2014-03-14T12:16:44Z</time>
      </trkpt>
      <trkpt lat="42.98162" lon="0.85168">
        <ele>1618.865</ele>
        <time>2014-03-14T12:16:45Z</time>
      </trkpt>
      <trkpt lat="42.98161" lon="0.85156">
        <ele>1621.877</ele>
        <time>2014-03-14T12:16:46Z</time>
      </trkpt>
      <trkpt lat="42.98159" lon="0.85143">
        <ele>1623.882</ele>
        <time>2014-03-14T12:16:47Z</time>
      </trkpt>
      <trkpt lat="42.98156" lon="0.85132">
        <ele>1625.328</ele>
        <time>2014-03-14T12:16:48Z</time>
      </trkpt>
      <trkpt lat="42.98152" lon="0.85122">
        <ele>1626.419</ele>
        <time>2014-03-14T12:16:49Z</time>
      </trkpt>
      <trkpt lat="42.98146" lon="0.85113">
        <ele>1627.221</ele>
        <time>2014-03-14T12:16:50Z</time>
      </trkpt>
      <trkpt lat="42.98141" lon="0.85106">
        <ele>1628.209</ele>
        <time>2014-03-14T12:16:51Z</time>
      </trkpt>
      <trkpt lat="42.98135" lon="0.85099">
        <ele>1629.491</ele>
        <time>2014-03-14T12:16:52Z</time>
      </trkpt>
      <trkpt lat="42.98129" lon="0.85093">
        <ele>1630.517</ele>
        <time>2014-03-14T12:16:53Z</time>
      </trkpt>
      <trkpt lat="42.98121" lon="0.8509">
        <ele>1632.076</ele>
        <time>2014-03-14T12:16:54Z</time>
      </trkpt>
      <trkpt lat="42.98113" lon="0.85088">
        <ele>1633.467</ele>
        <time>2014-03-14T12:16:55Z</time>
      </trkpt>
      <trkpt lat="42.98097" lon="0.85092">
        <ele>1635.781</ele>
        <time>2014-03-14T12:16:57Z</time>
      </trkpt>
      <trkpt lat="42.9809" lon="0.85097">
        <ele>1638.129</ele>
        <time>2014-03-14T12:16:58Z</time>
      </trkpt>
      <trkpt lat="42.98084" lon="0.85102">
        <ele>1640.499</ele>
        <time>2014-03-14T12:16:59Z</time>
      </trkpt>
      <trkpt lat="42.98084" lon="0.85102">
        <ele>1642.577</ele>
        <time>2014-03-14T12:16:59Z</time>
      </trkpt>
      <trkpt lat="42.98074" lon="0.85114">
        <ele>1644.392</ele>
        <time>2014-03-14T12:17:01Z</time>
      </trkpt>
      <trkpt lat="42.98071" lon="0.85121">
        <ele>1645.658</ele>
        <time>2014-03-14T12:17:02Z</time>
      </trkpt>
      <trkpt lat="42.98069" lon="0.8513">
        <ele>1647.269</ele>
        <time>2014-03-14T12:17:03Z</time>
      </trkpt>
      <trkpt lat="42.9807" lon="0.85139">
        <ele>1648.837</ele>
        <time>2014-03-14T12:17:04Z</time>
      </trkpt>
      <trkpt lat="42.98071" lon="0.85146">
        <ele>1650.592</ele>
        <time>2014-03-14T12:17:05Z</time>
      </trkpt>
      <trkpt lat="42.98073" lon="0.85153">
        <ele>1652.649</ele>
        <time>2014-03-14T12:17:06Z</time>
      </trkpt>
      <trkpt lat="42.98075" lon="0.85159">
        <ele>1654.211</ele>
        <time>2014-03-14T12:17:07Z</time>
      </trkpt>
      <trkpt lat="42.98079" lon="0.85166">
        <ele>1656.491</ele>
        <time>2014-03-14T12:17:08Z</time>
      </trkpt>
      <trkpt lat="42.98082" lon="0.85171">
        <ele>1658.205</ele>
        <time>2014-03-14T12:17:09Z</time>
      </trkpt>
      <trkpt lat="42.98086" lon="0.85174">
        <ele>1660.547</ele>
        <time>2014-03-14T12:17:10Z</time>
      </trkpt>
      <trkpt lat="42.98091" lon="0.85177">
        <ele>1662.383</ele>
        <time>2014-03-14T12:17:11Z</time>
      </trkpt>
      <trkpt lat="42.98096" lon="0.8518">
        <ele>1664.469</ele>
        <time>2014-03-14T12:17:12Z</time>
      </trkpt>
      <trkpt lat="42.98103" lon="0.85183">
        <ele>1666.09</ele>
        <time>2014-03-14T12:17:13Z</time>
      </trkpt>
      <trkpt lat="42.98109" lon="0.85185">
        <ele>1667.644</ele>
        <time>2014-03-14T12:17:14Z</time>
      </trkpt>
      <trkpt lat="42.98116" lon="0.85183">
        <ele>1668.996</ele>
        <time>2014-03-14T12:17:15Z</time>
      </trkpt>
      <trkpt lat="42.98122" lon="0.85177">
        <ele>1671.147</ele>
        <time>2014-03-14T12:17:16Z</time>
      </trkpt>
      <trkpt lat="42.98128" lon="0.8517">
        <ele>1672.606</ele>
        <time>2014-03-14T12:17:17Z</time>
      </trkpt>
      <trkpt lat="42.98134" lon="0.85162">
        <ele>1674.373</ele>
        <time>2014-03-14T12:17:18Z</time>
      </trkpt>
      <trkpt lat="42.98138" lon="0.85153">
        <ele>1675.778</ele>
        <time>2014-03-14T12:17:19Z</time>
      </trkpt>
      <trkpt lat="42.98141" lon="0.85141">
        <ele>1677.321</ele>
        <time>2014-03-14T12:17:20Z</time>
      </trkpt>
      <trkpt lat="42.98142" lon="0.85128">
        <ele>1678.984</ele>
        <time>2014-03-14T12:17:21Z</time>
      </trkpt>
      <trkpt lat="42.98142" lon="0.85117">
        <ele>1681.974</ele>
        <time>2014-03-14T12:17:22Z</time>
      </trkpt>
      <trkpt lat="42.98134" lon="0.85095">
        <ele>1684.841</ele>
        <time>2014-03-14T12:17:24Z</time>
      </trkpt>
      <trkpt lat="42.98134" lon="0.85095">
        <ele>1687.082</ele>
        <time>2014-03-14T12:17:24Z</time>
      </trkpt>
      <trkpt lat="42.98122" lon="0.8508">
        <ele>1689.501</ele>
        <time>2014-03-14T12:17:26Z</time>
      </trkpt>
      <trkpt lat="42.98115" lon="0.85074">
        <ele>1690.933</ele>
        <time>2014-03-14T12:17:27Z</time>
      </trkpt>
      <trkpt lat="42.98107" lon="0.85067">
        <ele>1692.269</ele>
        <time>2014-03-14T12:17:28Z</time>
      </trkpt>
      <trkpt lat="42.98099" lon="0.85062">
        <ele>1693.531</ele>
        <time>2014-03-14T12:17:29Z</time>
      </trkpt>
      <trkpt lat="42.98099" lon="0.85062">
        <ele>1694.882</ele>
        <time>2014-03-14T12:17:29Z</time>
      </trkpt>
      <trkpt lat="42.98082" lon="0.85058">
        <ele>1695.78</ele>
        <time>2014-03-14T12:17:31Z</time>
      </trkpt>
      <trkpt lat="42.98073" lon="0.8506">
        <ele>1696.067</ele>
        <time>2014-03-14T12:17:32Z</time>
      </trkpt>
      <trkpt lat="42.98065" lon="0.85063">
        <ele>1696.841</ele>
        <time>2014-03-14T12:17:33Z</time>
      </trkpt>
      <trkpt lat="42.98058" lon="0.85068">
        <ele>1698.592</ele>
        <time>2014-03-14T12:17:34Z</time>
      </trkpt>
      <trkpt lat="42.98052" lon="0.85074">
        <ele>1700.663</ele>
        <time>2014-03-14T12:17:35Z</time>
      </trkpt>
      <trkpt lat="42.98046" lon="0.8508">
        <ele>1702.078</ele>
        <time>2014-03-14T12:17:36Z</time>
      </trkpt>
      <trkpt lat="42.98039" lon="0.85088">
        <ele>1702.606</ele>
        <time>2014-03-14T12:17:37Z</time>
      </trkpt>
      <trkpt lat="42.98036" lon="0.85098">
        <ele>1702.853</ele>
        <time>2014-03-14T12:17:38Z</time>
      </trkpt>
      <trkpt lat="42.98033" lon="0.8511">
        <ele>1703.359</ele>
        <time>2014-03-14T12:17:39Z</time>
      </trkpt>
      <trkpt lat="42.98032" lon="0.85121">
        <ele>1704.384</ele>
        <time>2014-03-14T12:17:40Z</time>
      </trkpt>
      <trkpt lat="42.98031" lon="0.85132">
        <ele>1705.43</ele>
        <time>2014-03-14T12:17:41Z</time>
      </trkpt>
      <trkpt lat="42.98032" lon="0.85142">
        <ele>1706.773</ele>
        <time>2014-03-14T12:17:42Z</time>
      </trkpt>
      <trkpt lat="42.98034" lon="0.85152">
        <ele>1708.16</ele>
        <time>2014-03-14T12:17:43Z</time>
      </trkpt>
      <trkpt lat="42.98037" lon="0.85161">
        <ele>1709.624</ele>
        <time>2014-03-14T12:17:44Z</time>
      </trkpt>
      <trkpt lat="42.98041" lon="0.85169">
        <ele>1710.981</ele>
        <time>2014-03-14T12:17:45Z</time>
      </trkpt>
      <trkpt lat="42.98046" lon="0.85176">
        <ele>1712.106</ele>
        <time>2014-03-14T12:17:46Z</time>
      </trkpt>
      <trkpt lat="42.98052" lon="0.85182">
        <ele>1713.189</ele>
        <time>2014-03-14T12:17:47Z</time>
      </trkpt>
      <trkpt lat="42.98057" lon="0.85186">
        <ele>1714.109</ele>
        <time>2014-03-14T12:17:48Z</time>
      </trkpt>
      <trkpt lat="42.98062" lon="0.85189">
        <ele>1714.788</ele>
        <time>2014-03-14T12:17:49Z</time>
      </trkpt>
      <trkpt lat="42.98068" lon="0.85192">
        <ele>1715.636</ele>
        <time>2014-03-14T12:17:50Z</time>
      </trkpt>
      <trkpt lat="42.98081" lon="0.85192">
        <ele>1716.597</ele>
        <time>2014-03-14T12:17:52Z</time>
      </trkpt>
      <trkpt lat="42.98087" lon="0.8519">
        <ele>1718.129</ele>
        <time>2014-03-14T12:17:53Z</time>
      </trkpt>
      <trkpt lat="42.98093" lon="0.85186">
        <ele>1719.58</ele>
        <time>2014-03-14T12:17:54Z</time>
      </trkpt>
      <trkpt lat="42.98093" lon="0.85186">
        <ele>1720.902</ele>
        <time>2014-03-14T12:17:54Z</time>
      </trkpt>
      <trkpt lat="42.98104" lon="0.85172">
        <ele>1722.535</ele>
        <time>2014-03-14T12:17:56Z</time>
      </trkpt>
      <trkpt lat="42.98109" lon="0.85163">
        <ele>1724.198</ele>
        <time>2014-03-14T12:17:57Z</time>
      </trkpt>
      <trkpt lat="42.98113" lon="0.85153">
        <ele>1726.04</ele>
        <time>2014-03-14T12:17:58Z</time>
      </trkpt>
      <trkpt lat="42.98117" lon="0.85143">
        <ele>1727.999</ele>
        <time>2014-03-14T12:17:59Z</time>
      </trkpt>
      <trkpt lat="42.98119" lon="0.85133">
        <ele>1729.732</ele>
        <time>2014-03-14T12:18:00Z</time>
      </trkpt>
      <trkpt lat="42.98121" lon="0.85123">
        <ele>1731.226</ele>
        <time>2014-03-14T12:18:01Z</time>
      </trkpt>
      <trkpt lat="42.98122" lon="0.85112">
        <ele>1732.044</ele>
        <time>2014-03-14T12:18:02Z</time>
      </trkpt>
      <trkpt lat="42.98122" lon="0.85101">
        <ele>1732.831</ele>
        <time>2014-03-14T12:18:03Z</time>
      </trkpt>
      <trkpt lat="42.98121" lon="0.85087">
        <ele>1733.886</ele>
        <time>2014-03-14T12:18:04Z</time>
      </trkpt>
      <trkpt lat="42.98119" lon="0.85073">
        <ele>1735.29</ele>
        <time>2014-03-14T12:18:05Z</time>
      </trkpt>
      <trkpt lat="42.98116" lon="0.85059">
        <ele>1738.039</ele>
        <time>2014-03-14T12:18:06Z</time>
      </trkpt>
      <trkpt lat="42.98113" lon="0.85047">
        <ele>1740.888</ele>
        <time>2014-03-14T12:18:07Z</time>
      </trkpt>
      <trkpt lat="42.98109" lon="0.85037">
        <ele>1743.184</ele>
        <time>2014-03-14T12:18:08Z</time>
      </trkpt>
      <trkpt lat="42.98109" lon="0.85037">
        <ele>1745.572</ele>
        <time>2014-03-14T12:18:08Z</time>
      </trkpt>
      <trkpt lat="42.98099" lon="0.85022">
        <ele>1747.094</ele>
        <time>2014-03-14T12:18:10Z</time>
      </trkpt>
      <trkpt lat="42.98093" lon="0.85014">
        <ele>1748.709</ele>
        <time>2014-03-14T12:18:11Z</time>
      </trkpt>
      <trkpt lat="42.98078" lon="0.85006">
        <ele>1750.684</ele>
        <time>2014-03-14T12:18:13Z</time>
      </trkpt>
      <trkpt lat="42.9807" lon="0.85005">
        <ele>1753.395</ele>
        <time>2014-03-14T12:18:14Z</time>
      </trkpt>
      <trkpt lat="42.9807" lon="0.85005">
        <ele>1755.95</ele>
        <time>2014-03-14T12:18:14Z</time>
      </trkpt>
      <trkpt lat="42.98055" lon="0.85003">
        <ele>1758.266</ele>
        <time>2014-03-14T12:18:16Z</time>
      </trkpt>
      <trkpt lat="42.98047" lon="0.85002">
        <ele>1759.885</ele>
        <time>2014-03-14T12:18:17Z</time>
      </trkpt>
      <trkpt lat="42.9804" lon="0.85004">
        <ele>1760.781</ele>
        <time>2014-03-14T12:18:18Z</time>
      </trkpt>
      <trkpt lat="42.98033" lon="0.85007">
        <ele>1760.985</ele>
        <time>2014-03-14T12:18:19Z</time>
      </trkpt>
      <trkpt lat="42.98026" lon="0.85012">
        <ele>1760.601</ele>
        <time>2014-03-14T12:18:20Z</time>
      </trkpt>
      <trkpt lat="42.9802" lon="0.85016">
        <ele>1759.933</ele>
        <time>2014-03-14T12:18:21Z</time>
      </trkpt>
      <trkpt lat="42.98013" lon="0.8502">
        <ele>1759.187</ele>
        <time>2014-03-14T12:18:22Z</time>
      </trkpt>
      <trkpt lat="42.98008" lon="0.85025">
        <ele>1758.202</ele>
        <time>2014-03-14T12:18:23Z</time>
      </trkpt>
      <trkpt lat="42.98004" lon="0.85031">
        <ele>1756.811</ele>
        <time>2014-03-14T12:18:24Z</time>
      </trkpt>
      <trkpt lat="42.97999" lon="0.85036">
        <ele>1754.873</ele>
        <time>2014-03-14T12:18:25Z</time>
      </trkpt>
      <trkpt lat="42.97994" lon="0.85043">
        <ele>1752.346</ele>
        <time>2014-03-14T12:18:26Z</time>
      </trkpt>
      <trkpt lat="42.97989" lon="0.8505">
        <ele>1749.878</ele>
        <time>2014-03-14T12:18:27Z</time>
      </trkpt>
      <trkpt lat="42.97984" lon="0.85059">
        <ele>1747.673</ele>
        <time>2014-03-14T12:18:28Z</time>
      </trkpt>
      <trkpt lat="42.97979" lon="0.85068">
        <ele>1745.836</ele>
        <time>2014-03-14T12:18:29Z</time>
      </trkpt>
      <trkpt lat="42.97974" lon="0.85076">
        <ele>1744.53</ele>
        <time>2014-03-14T12:18:30Z</time>
      </trkpt>
      <trkpt lat="42.97968" lon="0.85083">
        <ele>1743.837</ele>
        <time>2014-03-14T12:18:31Z</time>
      </trkpt>
      <trkpt lat="42.97963" lon="0.85089">
        <ele>1743.219</ele>
        <time>2014-03-14T12:18:32Z</time>
      </trkpt>
      <trkpt lat="42.97957" lon="0.85094">
        <ele>1742.588</ele>
        <time>2014-03-14T12:18:33Z</time>
      </trkpt>
      <trkpt lat="42.97952" lon="0.85099">
        <ele>1741.769</ele>
        <time>2014-03-14T12:18:34Z</time>
      </trkpt>
      <trkpt lat="42.97947" lon="0.85104">
        <ele>1740.742</ele>
        <time>2014-03-14T12:18:35Z</time>
      </trkpt>
      <trkpt lat="42.97941" lon="0.8511">
        <ele>1739.345</ele>
        <time>2014-03-14T12:18:36Z</time>
      </trkpt>
      <trkpt lat="42.97936" lon="0.85116">
        <ele>1738.081</ele>
        <time>2014-03-14T12:18:37Z</time>
      </trkpt>
      <trkpt lat="42.97929" lon="0.85122">
        <ele>1736.835</ele>
        <time>2014-03-14T12:18:38Z</time>
      </trkpt>
      <trkpt lat="42.97923" lon="0.85127">
        <ele>1735.148</ele>
        <time>2014-03-14T12:18:39Z</time>
      </trkpt>
      <trkpt lat="42.97917" lon="0.85132">
        <ele>1732.743</ele>
        <time>2014-03-14T12:18:40Z</time>
      </trkpt>
      <trkpt lat="42.9791" lon="0.85137">
        <ele>1729.934</ele>
        <time>2014-03-14T12:18:41Z</time>
      </trkpt>
      <trkpt lat="42.97903" lon="0.85143">
        <ele>1727.211</ele>
        <time>2014-03-14T12:18:42Z</time>
      </trkpt>
      <trkpt lat="42.97895" lon="0.8515">
        <ele>1725.031</ele>
        <time>2014-03-14T12:18:43Z</time>
      </trkpt>
      <trkpt lat="42.97888" lon="0.85157">
        <ele>1722.5</ele>
        <time>2014-03-14T12:18:44Z</time>
      </trkpt>
      <trkpt lat="42.97879" lon="0.85172">
        <ele>1719.96</ele>
        <time>2014-03-14T12:18:46Z</time>
      </trkpt>
      <trkpt lat="42.97875" lon="0.85182">
        <ele>1716.759</ele>
        <time>2014-03-14T12:18:47Z</time>
      </trkpt>
      <trkpt lat="42.97872" lon="0.85191">
        <ele>1714.008</ele>
        <time>2014-03-14T12:18:48Z</time>
      </trkpt>
      <trkpt lat="42.9787" lon="0.852">
        <ele>1711.732</ele>
        <time>2014-03-14T12:18:49Z</time>
      </trkpt>
      <trkpt lat="42.9787" lon="0.852">
        <ele>1709.411</ele>
        <time>2014-03-14T12:18:49Z</time>
      </trkpt>
      <trkpt lat="42.9787" lon="0.85219">
        <ele>1707.355</ele>
        <time>2014-03-14T12:18:51Z</time>
      </trkpt>
      <trkpt lat="42.97872" lon="0.85228">
        <ele>1705.08</ele>
        <time>2014-03-14T12:18:52Z</time>
      </trkpt>
      <trkpt lat="42.97874" lon="0.85236">
        <ele>1703.064</ele>
        <time>2014-03-14T12:18:53Z</time>
      </trkpt>
      <trkpt lat="42.97876" lon="0.85244">
        <ele>1701.106</ele>
        <time>2014-03-14T12:18:54Z</time>
      </trkpt>
      <trkpt lat="42.97879" lon="0.85252">
        <ele>1699.322</ele>
        <time>2014-03-14T12:18:55Z</time>
      </trkpt>
      <trkpt lat="42.97881" lon="0.8526">
        <ele>1697.339</ele>
        <time>2014-03-14T12:18:56Z</time>
      </trkpt>
      <trkpt lat="42.97884" lon="0.85267">
        <ele>1695.17</ele>
        <time>2014-03-14T12:18:57Z</time>
      </trkpt>
      <trkpt lat="42.97886" lon="0.85275">
        <ele>1692.639</ele>
        <time>2014-03-14T12:18:58Z</time>
      </trkpt>
      <trkpt lat="42.97889" lon="0.85283">
        <ele>1690.215</ele>
        <time>2014-03-14T12:18:59Z</time>
      </trkpt>
      <trkpt lat="42.97891" lon="0.8529">
        <ele>1687.514</ele>
        <time>2014-03-14T12:19:00Z</time>
      </trkpt>
      <trkpt lat="42.97894" lon="0.85298">
        <ele>1684.714</ele>
        <time>2014-03-14T12:19:01Z</time>
      </trkpt>
      <trkpt lat="42.97896" lon="0.85307">
        <ele>1681.72</ele>
        <time>2014-03-14T12:19:02Z</time>
      </trkpt>
      <trkpt lat="42.97898" lon="0.85316">
        <ele>1679.203</ele>
        <time>2014-03-14T12:19:03Z</time>
      </trkpt>
      <trkpt lat="42.97902" lon="0.85324">
        <ele>1677.009</ele>
        <time>2014-03-14T12:19:04Z</time>
      </trkpt>
      <trkpt lat="42.97905" lon="0.85331">
        <ele>1675.101</ele>
        <time>2014-03-14T12:19:05Z</time>
      </trkpt>
      <trkpt lat="42.97908" lon="0.85337">
        <ele>1673.037</ele>
        <time>2014-03-14T12:19:06Z</time>
      </trkpt>
      <trkpt lat="42.9791" lon="0.85344">
        <ele>1670.397</ele>
        <time>2014-03-14T12:19:07Z</time>
      </trkpt>
      <trkpt lat="42.97912" lon="0.85351">
        <ele>1666.973</ele>
        <time>2014-03-14T12:19:08Z</time>
      </trkpt>
      <trkpt lat="42.97915" lon="0.85358">
        <ele>1663.117</ele>
        <time>2014-03-14T12:19:09Z</time>
      </trkpt>
      <trkpt lat="42.97919" lon="0.85366">
        <ele>1659.442</ele>
        <time>2014-03-14T12:19:10Z</time>
      </trkpt>
      <trkpt lat="42.97923" lon="0.85375">
        <ele>1656.902</ele>
        <time>2014-03-14T12:19:11Z</time>
      </trkpt>
      <trkpt lat="42.97927" lon="0.85381">
        <ele>1655.208</ele>
        <time>2014-03-14T12:19:12Z</time>
      </trkpt>
      <trkpt lat="42.97931" lon="0.85386">
        <ele>1653.75</ele>
        <time>2014-03-14T12:19:13Z</time>
      </trkpt>
      <trkpt lat="42.97936" lon="0.8539">
        <ele>1652.548</ele>
        <time>2014-03-14T12:19:14Z</time>
      </trkpt>
      <trkpt lat="42.97946" lon="0.85397">
        <ele>1650.876</ele>
        <time>2014-03-14T12:19:16Z</time>
      </trkpt>
      <trkpt lat="42.9795" lon="0.85401">
        <ele>1649.447</ele>
        <time>2014-03-14T12:19:17Z</time>
      </trkpt>
      <trkpt lat="42.97954" lon="0.85404">
        <ele>1648.155</ele>
        <time>2014-03-14T12:19:18Z</time>
      </trkpt>
      <trkpt lat="42.97958" lon="0.85408">
        <ele>1646.82</ele>
        <time>2014-03-14T12:19:19Z</time>
      </trkpt>
      <trkpt lat="42.97962" lon="0.85411">
        <ele>1644.941</ele>
        <time>2014-03-14T12:19:20Z</time>
      </trkpt>
      <trkpt lat="42.97967" lon="0.85416">
        <ele>1642.898</ele>
        <time>2014-03-14T12:19:21Z</time>
      </trkpt>
      <trkpt lat="42.97973" lon="0.85421">
        <ele>1640.879</ele>
        <time>2014-03-14T12:19:22Z</time>
      </trkpt>
      <trkpt lat="42.97978" lon="0.85426">
        <ele>1639.272</ele>
        <time>2014-03-14T12:19:23Z</time>
      </trkpt>
      <trkpt lat="42.97982" lon="0.85431">
        <ele>1638.075</ele>
        <time>2014-03-14T12:19:24Z</time>
      </trkpt>
      <trkpt lat="42.97987" lon="0.85436">
        <ele>1636.92</ele>
        <time>2014-03-14T12:19:25Z</time>
      </trkpt>
      <trkpt lat="42.97992" lon="0.85441">
        <ele>1635.668</ele>
        <time>2014-03-14T12:19:26Z</time>
      </trkpt>
      <trkpt lat="42.97997" lon="0.85449">
        <ele>1633.629</ele>
        <time>2014-03-14T12:19:27Z</time>
      </trkpt>
      <trkpt lat="42.98002" lon="0.85457">
        <ele>1632.218</ele>
        <time>2014-03-14T12:19:28Z</time>
      </trkpt>
      <trkpt lat="42.98006" lon="0.85466">
        <ele>1631.007</ele>
        <time>2014-03-14T12:19:29Z</time>
      </trkpt>
      <trkpt lat="42.98011" lon="0.85474">
        <ele>1630.601</ele>
        <time>2014-03-14T12:19:30Z</time>
      </trkpt>
      <trkpt lat="42.98016" lon="0.85481">
        <ele>1630.489</ele>
        <time>2014-03-14T12:19:31Z</time>
      </trkpt>
      <trkpt lat="42.9802" lon="0.85489">
        <ele>1630.348</ele>
        <time>2014-03-14T12:19:32Z</time>
      </trkpt>
      <trkpt lat="42.98024" lon="0.85496">
        <ele>1630.073</ele>
        <time>2014-03-14T12:19:33Z</time>
      </trkpt>
      <trkpt lat="42.98028" lon="0.85504">
        <ele>1629.611</ele>
        <time>2014-03-14T12:19:34Z</time>
      </trkpt>
      <trkpt lat="42.98032" lon="0.85511">
        <ele>1629.194</ele>
        <time>2014-03-14T12:19:35Z</time>
      </trkpt>
      <trkpt lat="42.98036" lon="0.85518">
        <ele>1628.878</ele>
        <time>2014-03-14T12:19:36Z</time>
      </trkpt>
      <trkpt lat="42.9804" lon="0.85524">
        <ele>1628.793</ele>
        <time>2014-03-14T12:19:37Z</time>
      </trkpt>
      <trkpt lat="42.98043" lon="0.85532">
        <ele>1628.954</ele>
        <time>2014-03-14T12:19:38Z</time>
      </trkpt>
      <trkpt lat="42.98045" lon="0.85539">
        <ele>1629.154</ele>
        <time>2014-03-14T12:19:39Z</time>
      </trkpt>
      <trkpt lat="42.98049" lon="0.85556">
        <ele>1629.375</ele>
        <time>2014-03-14T12:19:41Z</time>
      </trkpt>
      <trkpt lat="42.98051" lon="0.85563">
        <ele>1629.74</ele>
        <time>2014-03-14T12:19:42Z</time>
      </trkpt>
      <trkpt lat="42.98054" lon="0.8557">
        <ele>1629.984</ele>
        <time>2014-03-14T12:19:43Z</time>
      </trkpt>
      <trkpt lat="42.98054" lon="0.8557">
        <ele>1629.827</ele>
        <time>2014-03-14T12:19:43Z</time>
      </trkpt>
      <trkpt lat="42.98059" lon="0.85583">
        <ele>1629.352</ele>
        <time>2014-03-14T12:19:45Z</time>
      </trkpt>
      <trkpt lat="42.98062" lon="0.8559">
        <ele>1628.932</ele>
        <time>2014-03-14T12:19:46Z</time>
      </trkpt>
      <trkpt lat="42.98066" lon="0.85597">
        <ele>1628.749</ele>
        <time>2014-03-14T12:19:47Z</time>
      </trkpt>
      <trkpt lat="42.98069" lon="0.85603">
        <ele>1628.673</ele>
        <time>2014-03-14T12:19:48Z</time>
      </trkpt>
      <trkpt lat="42.98069" lon="0.85603">
        <ele>1628.512</ele>
        <time>2014-03-14T12:19:48Z</time>
      </trkpt>
      <trkpt lat="42.98069" lon="0.85603">
        <ele>1628.194</ele>
        <time>2014-03-14T12:19:48Z</time>
      </trkpt>
      <trkpt lat="42.98081" lon="0.85622">
        <ele>1627.97</ele>
        <time>2014-03-14T12:19:51Z</time>
      </trkpt>
      <trkpt lat="42.98084" lon="0.85629">
        <ele>1627.962</ele>
        <time>2014-03-14T12:19:52Z</time>
      </trkpt>
      <trkpt lat="42.98088" lon="0.85637">
        <ele>1628.289</ele>
        <time>2014-03-14T12:19:53Z</time>
      </trkpt>
      <trkpt lat="42.98088" lon="0.85637">
        <ele>1628.67</ele>
        <time>2014-03-14T12:19:53Z</time>
      </trkpt>
      <trkpt lat="42.98095" lon="0.85651">
        <ele>1629.044</ele>
        <time>2014-03-14T12:19:55Z</time>
      </trkpt>
      <trkpt lat="42.98098" lon="0.85658">
        <ele>1629.414</ele>
        <time>2014-03-14T12:19:56Z</time>
      </trkpt>
      <trkpt lat="42.98104" lon="0.85673">
        <ele>1629.659</ele>
        <time>2014-03-14T12:19:58Z</time>
      </trkpt>
      <trkpt lat="42.98106" lon="0.85681">
        <ele>1629.508</ele>
        <time>2014-03-14T12:19:59Z</time>
      </trkpt>
      <trkpt lat="42.98106" lon="0.85681">
        <ele>1629.053</ele>
        <time>2014-03-14T12:19:59Z</time>
      </trkpt>
      <trkpt lat="42.98113" lon="0.85696">
        <ele>1628.399</ele>
        <time>2014-03-14T12:20:01Z</time>
      </trkpt>
      <trkpt lat="42.98117" lon="0.85704">
        <ele>1628.214</ele>
        <time>2014-03-14T12:20:02Z</time>
      </trkpt>
      <trkpt lat="42.98121" lon="0.85711">
        <ele>1628.477</ele>
        <time>2014-03-14T12:20:03Z</time>
      </trkpt>
      <trkpt lat="42.98125" lon="0.85717">
        <ele>1629.156</ele>
        <time>2014-03-14T12:20:04Z</time>
      </trkpt>
      <trkpt lat="42.98128" lon="0.85724">
        <ele>1629.6</ele>
        <time>2014-03-14T12:20:05Z</time>
      </trkpt>
      <trkpt lat="42.98132" lon="0.8573">
        <ele>1629.544</ele>
        <time>2014-03-14T12:20:06Z</time>
      </trkpt>
      <trkpt lat="42.98136" lon="0.85737">
        <ele>1628.897</ele>
        <time>2014-03-14T12:20:07Z</time>
      </trkpt>
      <trkpt lat="42.98139" lon="0.85744">
        <ele>1628.05</ele>
        <time>2014-03-14T12:20:08Z</time>
      </trkpt>
      <trkpt lat="42.98143" lon="0.85752">
        <ele>1627.232</ele>
        <time>2014-03-14T12:20:09Z</time>
      </trkpt>
      <trkpt lat="42.98143" lon="0.85752">
        <ele>1626.338</ele>
        <time>2014-03-14T12:20:09Z</time>
      </trkpt>
      <trkpt lat="42.98149" lon="0.85767">
        <ele>1625.689</ele>
        <time>2014-03-14T12:20:11Z</time>
      </trkpt>
      <trkpt lat="42.98153" lon="0.85776">
        <ele>1625.27</ele>
        <time>2014-03-14T12:20:12Z</time>
      </trkpt>
      <trkpt lat="42.98156" lon="0.85784">
        <ele>1625.321</ele>
        <time>2014-03-14T12:20:13Z</time>
      </trkpt>
      <trkpt lat="42.98159" lon="0.85792">
        <ele>1625.989</ele>
        <time>2014-03-14T12:20:14Z</time>
      </trkpt>
      <trkpt lat="42.98162" lon="0.858">
        <ele>1626.717</ele>
        <time>2014-03-14T12:20:15Z</time>
      </trkpt>
      <trkpt lat="42.98164" lon="0.85807">
        <ele>1627.156</ele>
        <time>2014-03-14T12:20:16Z</time>
      </trkpt>
      <trkpt lat="42.98167" lon="0.85815">
        <ele>1627.137</ele>
        <time>2014-03-14T12:20:17Z</time>
      </trkpt>
      <trkpt lat="42.98169" lon="0.85823">
        <ele>1626.912</ele>
        <time>2014-03-14T12:20:18Z</time>
      </trkpt>
      <trkpt lat="42.98172" lon="0.85831">
        <ele>1626.83</ele>
        <time>2014-03-14T12:20:19Z</time>
      </trkpt>
      <trkpt lat="42.98175" lon="0.85839">
        <ele>1626.863</ele>
        <time>2014-03-14T12:20:20Z</time>
      </trkpt>
      <trkpt lat="42.98177" lon="0.85847">
        <ele>1626.74</ele>
        <time>2014-03-14T12:20:21Z</time>
      </trkpt>
      <trkpt lat="42.9818" lon="0.85855">
        <ele>1626.292</ele>
        <time>2014-03-14T12:20:22Z</time>
      </trkpt>
      <trkpt lat="42.98186" lon="0.85869">
        <ele>1625.566</ele>
        <time>2014-03-14T12:20:24Z</time>
      </trkpt>
      <trkpt lat="42.98186" lon="0.85869">
        <ele>1624.607</ele>
        <time>2014-03-14T12:20:24Z</time>
      </trkpt>
      <trkpt lat="42.98192" lon="0.85885">
        <ele>1623.597</ele>
        <time>2014-03-14T12:20:26Z</time>
      </trkpt>
      <trkpt lat="42.98195" lon="0.85894">
        <ele>1622.917</ele>
        <time>2014-03-14T12:20:27Z</time>
      </trkpt>
      <trkpt lat="42.98195" lon="0.85894">
        <ele>1622.33</ele>
        <time>2014-03-14T12:20:27Z</time>
      </trkpt>
      <trkpt lat="42.98199" lon="0.85909">
        <ele>1621.472</ele>
        <time>2014-03-14T12:20:29Z</time>
      </trkpt>
      <trkpt lat="42.98201" lon="0.85918">
        <ele>1620.491</ele>
        <time>2014-03-14T12:20:30Z</time>
      </trkpt>
      <trkpt lat="42.98205" lon="0.85926">
        <ele>1618.831</ele>
        <time>2014-03-14T12:20:31Z</time>
      </trkpt>
      <trkpt lat="42.98208" lon="0.85934">
        <ele>1617.252</ele>
        <time>2014-03-14T12:20:32Z</time>
      </trkpt>
      <trkpt lat="42.98212" lon="0.85943">
        <ele>1616.075</ele>
        <time>2014-03-14T12:20:33Z</time>
      </trkpt>
      <trkpt lat="42.98216" lon="0.85951">
        <ele>1614.586</ele>
        <time>2014-03-14T12:20:34Z</time>
      </trkpt>
      <trkpt lat="42.9822" lon="0.85959">
        <ele>1613.187</ele>
        <time>2014-03-14T12:20:35Z</time>
      </trkpt>
      <trkpt lat="42.98224" lon="0.85967">
        <ele>1611.511</ele>
        <time>2014-03-14T12:20:36Z</time>
      </trkpt>
      <trkpt lat="42.98228" lon="0.85974">
        <ele>1609.602</ele>
        <time>2014-03-14T12:20:37Z</time>
      </trkpt>
      <trkpt lat="42.98233" lon="0.85981">
        <ele>1607.18</ele>
        <time>2014-03-14T12:20:38Z</time>
      </trkpt>
      <trkpt lat="42.98237" lon="0.85987">
        <ele>1603.937</ele>
        <time>2014-03-14T12:20:39Z</time>
      </trkpt>
      <trkpt lat="42.98242" lon="0.85995">
        <ele>1599.548</ele>
        <time>2014-03-14T12:20:40Z</time>
      </trkpt>
      <trkpt lat="42.98242" lon="0.85995">
        <ele>1594.665</ele>
        <time>2014-03-14T12:20:40Z</time>
      </trkpt>
      <trkpt lat="42.98252" lon="0.86015">
        <ele>1591.125</ele>
        <time>2014-03-14T12:20:42Z</time>
      </trkpt>
      <trkpt lat="42.98256" lon="0.86025">
        <ele>1587.967</ele>
        <time>2014-03-14T12:20:43Z</time>
      </trkpt>
      <trkpt lat="42.9826" lon="0.86033">
        <ele>1585.87</ele>
        <time>2014-03-14T12:20:44Z</time>
      </trkpt>
      <trkpt lat="42.98264" lon="0.86042">
        <ele>1583.676</ele>
        <time>2014-03-14T12:20:45Z</time>
      </trkpt>
      <trkpt lat="42.9827" lon="0.86058">
        <ele>1580.875</ele>
        <time>2014-03-14T12:20:47Z</time>
      </trkpt>
      <trkpt lat="42.98273" lon="0.86066">
        <ele>1577.53</ele>
        <time>2014-03-14T12:20:48Z</time>
      </trkpt>
      <trkpt lat="42.98277" lon="0.86074">
        <ele>1574.049</ele>
        <time>2014-03-14T12:20:49Z</time>
      </trkpt>
      <trkpt lat="42.9828" lon="0.86082">
        <ele>1570.637</ele>
        <time>2014-03-14T12:20:50Z</time>
      </trkpt>
      <trkpt lat="42.98284" lon="0.8609">
        <ele>1567.869</ele>
        <time>2014-03-14T12:20:51Z</time>
      </trkpt>
      <trkpt lat="42.98287" lon="0.86098">
        <ele>1565.859</ele>
        <time>2014-03-14T12:20:52Z</time>
      </trkpt>
      <trkpt lat="42.98291" lon="0.86105">
        <ele>1563.274</ele>
        <time>2014-03-14T12:20:53Z</time>
      </trkpt>
      <trkpt lat="42.98294" lon="0.86112">
        <ele>1560.817</ele>
        <time>2014-03-14T12:20:54Z</time>
      </trkpt>
      <trkpt lat="42.98294" lon="0.86112">
        <ele>1558.218</ele>
        <time>2014-03-14T12:20:54Z</time>
      </trkpt>
      <trkpt lat="42.98301" lon="0.86125">
        <ele>1555.681</ele>
        <time>2014-03-14T12:20:56Z</time>
      </trkpt>
      <trkpt lat="42.98305" lon="0.86131">
        <ele>1553.404</ele>
        <time>2014-03-14T12:20:57Z</time>
      </trkpt>
      <trkpt lat="42.98308" lon="0.86138">
        <ele>1550.212</ele>
        <time>2014-03-14T12:20:58Z</time>
      </trkpt>
      <trkpt lat="42.98312" lon="0.86147">
        <ele>1547.487</ele>
        <time>2014-03-14T12:20:59Z</time>
      </trkpt>
      <trkpt lat="42.98315" lon="0.86155">
        <ele>1545.315</ele>
        <time>2014-03-14T12:21:00Z</time>
      </trkpt>
      <trkpt lat="42.98318" lon="0.86163">
        <ele>1543.482</ele>
        <time>2014-03-14T12:21:01Z</time>
      </trkpt>
      <trkpt lat="42.98321" lon="0.86171">
        <ele>1542.093</ele>
        <time>2014-03-14T12:21:02Z</time>
      </trkpt>
      <trkpt lat="42.98324" lon="0.86179">
        <ele>1540.588</ele>
        <time>2014-03-14T12:21:03Z</time>
      </trkpt>
      <trkpt lat="42.98326" lon="0.86187">
        <ele>1538.752</ele>
        <time>2014-03-14T12:21:04Z</time>
      </trkpt>
      <trkpt lat="42.98328" lon="0.86195">
        <ele>1536.904</ele>
        <time>2014-03-14T12:21:05Z</time>
      </trkpt>
      <trkpt lat="42.98331" lon="0.86205">
        <ele>1534.524</ele>
        <time>2014-03-14T12:21:06Z</time>
      </trkpt>
      <trkpt lat="42.98334" lon="0.86214">
        <ele>1532.65</ele>
        <time>2014-03-14T12:21:07Z</time>
      </trkpt>
      <trkpt lat="42.98335" lon="0.86223">
        <ele>1530.908</ele>
        <time>2014-03-14T12:21:08Z</time>
      </trkpt>
      <trkpt lat="42.98335" lon="0.86223">
        <ele>1529.046</ele>
        <time>2014-03-14T12:21:08Z</time>
      </trkpt>
      <trkpt lat="42.98338" lon="0.86241">
        <ele>1526.948</ele>
        <time>2014-03-14T12:21:10Z</time>
      </trkpt>
      <trkpt lat="42.9834" lon="0.8625">
        <ele>1524.632</ele>
        <time>2014-03-14T12:21:11Z</time>
      </trkpt>
      <trkpt lat="42.98344" lon="0.86257">
        <ele>1522.616</ele>
        <time>2014-03-14T12:21:12Z</time>
      </trkpt>
      <trkpt lat="42.98348" lon="0.86264">
        <ele>1520.347</ele>
        <time>2014-03-14T12:21:13Z</time>
      </trkpt>
      <trkpt lat="42.98348" lon="0.86264">
        <ele>1518.106</ele>
        <time>2014-03-14T12:21:13Z</time>
      </trkpt>
      <trkpt lat="42.98359" lon="0.86282">
        <ele>1515.087</ele>
        <time>2014-03-14T12:21:16Z</time>
      </trkpt>
      <trkpt lat="42.98363" lon="0.86288">
        <ele>1512.152</ele>
        <time>2014-03-14T12:21:17Z</time>
      </trkpt>
      <trkpt lat="42.98367" lon="0.86295">
        <ele>1509.415</ele>
        <time>2014-03-14T12:21:18Z</time>
      </trkpt>
      <trkpt lat="42.98371" lon="0.86301">
        <ele>1506.827</ele>
        <time>2014-03-14T12:21:19Z</time>
      </trkpt>
      <trkpt lat="42.98371" lon="0.86301">
        <ele>1503.95</ele>
        <time>2014-03-14T12:21:19Z</time>
      </trkpt>
      <trkpt lat="42.98378" lon="0.86313">
        <ele>1501.142</ele>
        <time>2014-03-14T12:21:21Z</time>
      </trkpt>
      <trkpt lat="42.98381" lon="0.86319">
        <ele>1498.316</ele>
        <time>2014-03-14T12:21:22Z</time>
      </trkpt>
      <trkpt lat="42.98385" lon="0.86326">
        <ele>1495.605</ele>
        <time>2014-03-14T12:21:23Z</time>
      </trkpt>
      <trkpt lat="42.98389" lon="0.86332">
        <ele>1492.315</ele>
        <time>2014-03-14T12:21:24Z</time>
      </trkpt>
      <trkpt lat="42.98394" lon="0.86337">
        <ele>1489.744</ele>
        <time>2014-03-14T12:21:25Z</time>
      </trkpt>
      <trkpt lat="42.98399" lon="0.86343">
        <ele>1486.339</ele>
        <time>2014-03-14T12:21:26Z</time>
      </trkpt>
      <trkpt lat="42.98404" lon="0.86349">
        <ele>1483.299</ele>
        <time>2014-03-14T12:21:27Z</time>
      </trkpt>
      <trkpt lat="42.98409" lon="0.86356">
        <ele>1480.338</ele>
        <time>2014-03-14T12:21:28Z</time>
      </trkpt>
      <trkpt lat="42.98414" lon="0.86363">
        <ele>1477.371</ele>
        <time>2014-03-14T12:21:29Z</time>
      </trkpt>
      <trkpt lat="42.98419" lon="0.8637">
        <ele>1474.922</ele>
        <time>2014-03-14T12:21:30Z</time>
      </trkpt>
      <trkpt lat="42.98423" lon="0.86377">
        <ele>1472.565</ele>
        <time>2014-03-14T12:21:31Z</time>
      </trkpt>
      <trkpt lat="42.98428" lon="0.86383">
        <ele>1470.652</ele>
        <time>2014-03-14T12:21:32Z</time>
      </trkpt>
      <trkpt lat="42.98432" lon="0.86389">
        <ele>1468.889</ele>
        <time>2014-03-14T12:21:33Z</time>
      </trkpt>
      <trkpt lat="42.98437" lon="0.86396">
        <ele>1466.587</ele>
        <time>2014-03-14T12:21:34Z</time>
      </trkpt>
      <trkpt lat="42.98442" lon="0.86404">
        <ele>1464.731</ele>
        <time>2014-03-14T12:21:35Z</time>
      </trkpt>
      <trkpt lat="42.98447" lon="0.86412">
        <ele>1462.838</ele>
        <time>2014-03-14T12:21:36Z</time>
      </trkpt>
      <trkpt lat="42.98452" lon="0.86419">
        <ele>1461.493</ele>
        <time>2014-03-14T12:21:37Z</time>
      </trkpt>
      <trkpt lat="42.98457" lon="0.86425">
        <ele>1460.377</ele>
        <time>2014-03-14T12:21:38Z</time>
      </trkpt>
      <trkpt lat="42.98457" lon="0.86425">
        <ele>1458.895</ele>
        <time>2014-03-14T12:21:38Z</time>
      </trkpt>
      <trkpt lat="42.98473" lon="0.86446">
        <ele>1456.978</ele>
        <time>2014-03-14T12:21:41Z</time>
      </trkpt>
      <trkpt lat="42.98478" lon="0.86454">
        <ele>1455.343</ele>
        <time>2014-03-14T12:21:42Z</time>
      </trkpt>
      <trkpt lat="42.98483" lon="0.86462">
        <ele>1453.91</ele>
        <time>2014-03-14T12:21:43Z</time>
      </trkpt>
      <trkpt lat="42.98488" lon="0.86469">
        <ele>1452.728</ele>
        <time>2014-03-14T12:21:44Z</time>
      </trkpt>
      <trkpt lat="42.98488" lon="0.86469">
        <ele>1451.766</ele>
        <time>2014-03-14T12:21:44Z</time>
      </trkpt>
      <trkpt lat="42.98499" lon="0.86482">
        <ele>1451.053</ele>
        <time>2014-03-14T12:21:46Z</time>
      </trkpt>
      <trkpt lat="42.98504" lon="0.86488">
        <ele>1450.172</ele>
        <time>2014-03-14T12:21:47Z</time>
      </trkpt>
      <trkpt lat="42.98508" lon="0.86494">
        <ele>1448.738</ele>
        <time>2014-03-14T12:21:48Z</time>
      </trkpt>
      <trkpt lat="42.98512" lon="0.86501">
        <ele>1446.997</ele>
        <time>2014-03-14T12:21:49Z</time>
      </trkpt>
      <trkpt lat="42.98512" lon="0.86501">
        <ele>1444.496</ele>
        <time>2014-03-14T12:21:49Z</time>
      </trkpt>
      <trkpt lat="42.98523" lon="0.86516">
        <ele>1441.602</ele>
        <time>2014-03-14T12:21:51Z</time>
      </trkpt>
      <trkpt lat="42.98529" lon="0.86525">
        <ele>1439.751</ele>
        <time>2014-03-14T12:21:52Z</time>
      </trkpt>
      <trkpt lat="42.98534" lon="0.86533">
        <ele>1438.71</ele>
        <time>2014-03-14T12:21:53Z</time>
      </trkpt>
      <trkpt lat="42.98538" lon="0.8654">
        <ele>1437.905</ele>
        <time>2014-03-14T12:21:54Z</time>
      </trkpt>
      <trkpt lat="42.98541" lon="0.86547">
        <ele>1436.421</ele>
        <time>2014-03-14T12:21:55Z</time>
      </trkpt>
      <trkpt lat="42.98545" lon="0.86555">
        <ele>1434.149</ele>
        <time>2014-03-14T12:21:56Z</time>
      </trkpt>
      <trkpt lat="42.98545" lon="0.86555">
        <ele>1431.809</ele>
        <time>2014-03-14T12:21:56Z</time>
      </trkpt>
      <trkpt lat="42.98554" lon="0.86573">
        <ele>1428.734</ele>
        <time>2014-03-14T12:21:58Z</time>
      </trkpt>
      <trkpt lat="42.9856" lon="0.86583">
        <ele>1426.544</ele>
        <time>2014-03-14T12:21:59Z</time>
      </trkpt>
      <trkpt lat="42.98565" lon="0.86592">
        <ele>1425.281</ele>
        <time>2014-03-14T12:22:00Z</time>
      </trkpt>
      <trkpt lat="42.98571" lon="0.866">
        <ele>1424.976</ele>
        <time>2014-03-14T12:22:01Z</time>
      </trkpt>
      <trkpt lat="42.98575" lon="0.86608">
        <ele>1425.218</ele>
        <time>2014-03-14T12:22:02Z</time>
      </trkpt>
      <trkpt lat="42.98579" lon="0.86616">
        <ele>1425.476</ele>
        <time>2014-03-14T12:22:03Z</time>
      </trkpt>
      <trkpt lat="42.98583" lon="0.86623">
        <ele>1425.217</ele>
        <time>2014-03-14T12:22:04Z</time>
      </trkpt>
      <trkpt lat="42.98586" lon="0.86631">
        <ele>1424.41</ele>
        <time>2014-03-14T12:22:05Z</time>
      </trkpt>
      <trkpt lat="42.9859" lon="0.86638">
        <ele>1422.784</ele>
        <time>2014-03-14T12:22:06Z</time>
      </trkpt>
      <trkpt lat="42.9859" lon="0.86638">
        <ele>1421.4</ele>
        <time>2014-03-14T12:22:06Z</time>
      </trkpt>
      <trkpt lat="42.98599" lon="0.86654">
        <ele>1420.212</ele>
        <time>2014-03-14T12:22:08Z</time>
      </trkpt>
      <trkpt lat="42.98604" lon="0.86661">
        <ele>1419.591</ele>
        <time>2014-03-14T12:22:09Z</time>
      </trkpt>
      <trkpt lat="42.98609" lon="0.86667">
        <ele>1419.146</ele>
        <time>2014-03-14T12:22:10Z</time>
      </trkpt>
      <trkpt lat="42.98609" lon="0.86667">
        <ele>1418.476</ele>
        <time>2014-03-14T12:22:10Z</time>
      </trkpt>
      <trkpt lat="42.98617" lon="0.86678">
        <ele>1417.277</ele>
        <time>2014-03-14T12:22:12Z</time>
      </trkpt>
      <trkpt lat="42.98621" lon="0.86684">
        <ele>1415.808</ele>
        <time>2014-03-14T12:22:13Z</time>
      </trkpt>
      <trkpt lat="42.98626" lon="0.8669">
        <ele>1413.991</ele>
        <time>2014-03-14T12:22:14Z</time>
      </trkpt>
      <trkpt lat="42.98631" lon="0.86696">
        <ele>1412.264</ele>
        <time>2014-03-14T12:22:15Z</time>
      </trkpt>
      <trkpt lat="42.98636" lon="0.86702">
        <ele>1410.57</ele>
        <time>2014-03-14T12:22:16Z</time>
      </trkpt>
      <trkpt lat="42.98641" lon="0.86709">
        <ele>1409.155</ele>
        <time>2014-03-14T12:22:17Z</time>
      </trkpt>
      <trkpt lat="42.98646" lon="0.86715">
        <ele>1408.003</ele>
        <time>2014-03-14T12:22:18Z</time>
      </trkpt>
      <trkpt lat="42.9865" lon="0.86722">
        <ele>1406.794</ele>
        <time>2014-03-14T12:22:19Z</time>
      </trkpt>
      <trkpt lat="42.98655" lon="0.86729">
        <ele>1405.973</ele>
        <time>2014-03-14T12:22:20Z</time>
      </trkpt>
      <trkpt lat="42.98665" lon="0.86743">
        <ele>1405.074</ele>
        <time>2014-03-14T12:22:22Z</time>
      </trkpt>
      <trkpt lat="42.9867" lon="0.8675">
        <ele>1404.487</ele>
        <time>2014-03-14T12:22:23Z</time>
      </trkpt>
      <trkpt lat="42.98675" lon="0.86757">
        <ele>1403.978</ele>
        <time>2014-03-14T12:22:24Z</time>
      </trkpt>
      <trkpt lat="42.98675" lon="0.86757">
        <ele>1403.752</ele>
        <time>2014-03-14T12:22:24Z</time>
      </trkpt>
      <trkpt lat="42.98685" lon="0.86771">
        <ele>1403.642</ele>
        <time>2014-03-14T12:22:26Z</time>
      </trkpt>
      <trkpt lat="42.9869" lon="0.86777">
        <ele>1403.437</ele>
        <time>2014-03-14T12:22:27Z</time>
      </trkpt>
      <trkpt lat="42.98694" lon="0.86784">
        <ele>1402.976</ele>
        <time>2014-03-14T12:22:28Z</time>
      </trkpt>
      <trkpt lat="42.98699" lon="0.86791">
        <ele>1402.404</ele>
        <time>2014-03-14T12:22:29Z</time>
      </trkpt>
      <trkpt lat="42.98703" lon="0.86798">
        <ele>1401.617</ele>
        <time>2014-03-14T12:22:30Z</time>
      </trkpt>
      <trkpt lat="42.98709" lon="0.86805">
        <ele>1400.744</ele>
        <time>2014-03-14T12:22:31Z</time>
      </trkpt>
      <trkpt lat="42.98714" lon="0.86812">
        <ele>1399.935</ele>
        <time>2014-03-14T12:22:32Z</time>
      </trkpt>
      <trkpt lat="42.98719" lon="0.8682">
        <ele>1399.078</ele>
        <time>2014-03-14T12:22:33Z</time>
      </trkpt>
      <trkpt lat="42.98724" lon="0.86828">
        <ele>1398.619</ele>
        <time>2014-03-14T12:22:34Z</time>
      </trkpt>
      <trkpt lat="42.98729" lon="0.86835">
        <ele>1398.533</ele>
        <time>2014-03-14T12:22:35Z</time>
      </trkpt>
      <trkpt lat="42.98734" lon="0.86842">
        <ele>1398.885</ele>
        <time>2014-03-14T12:22:36Z</time>
      </trkpt>
      <trkpt lat="42.98739" lon="0.86849">
        <ele>1399.468</ele>
        <time>2014-03-14T12:22:37Z</time>
      </trkpt>
      <trkpt lat="42.98743" lon="0.86856">
        <ele>1399.798</ele>
        <time>2014-03-14T12:22:38Z</time>
      </trkpt>
      <trkpt lat="42.98747" lon="0.86863">
        <ele>1399.725</ele>
        <time>2014-03-14T12:22:39Z</time>
      </trkpt>
      <trkpt lat="42.98751" lon="0.86871">
        <ele>1399.475</ele>
        <time>2014-03-14T12:22:40Z</time>
      </trkpt>
      <trkpt lat="42.98756" lon="0.86879">
        <ele>1399.363</ele>
        <time>2014-03-14T12:22:41Z</time>
      </trkpt>
      <trkpt lat="42.98761" lon="0.86886">
        <ele>1399.524</ele>
        <time>2014-03-14T12:22:42Z</time>
      </trkpt>
      <trkpt lat="42.98766" lon="0.86893">
        <ele>1399.946</ele>
        <time>2014-03-14T12:22:43Z</time>
      </trkpt>
      <trkpt lat="42.9877" lon="0.869">
        <ele>1400.494</ele>
        <time>2014-03-14T12:22:44Z</time>
      </trkpt>
      <trkpt lat="42.98775" lon="0.86907">
        <ele>1401.045</ele>
        <time>2014-03-14T12:22:45Z</time>
      </trkpt>
      <trkpt lat="42.98779" lon="0.86915">
        <ele>1401.449</ele>
        <time>2014-03-14T12:22:46Z</time>
      </trkpt>
      <trkpt lat="42.98783" lon="0.86923">
        <ele>1401.785</ele>
        <time>2014-03-14T12:22:47Z</time>
      </trkpt>
      <trkpt lat="42.98788" lon="0.86931">
        <ele>1402.336</ele>
        <time>2014-03-14T12:22:48Z</time>
      </trkpt>
      <trkpt lat="42.98792" lon="0.86939">
        <ele>1403.126</ele>
        <time>2014-03-14T12:22:49Z</time>
      </trkpt>
      <trkpt lat="42.98797" lon="0.86947">
        <ele>1404.071</ele>
        <time>2014-03-14T12:22:50Z</time>
      </trkpt>
      <trkpt lat="42.98802" lon="0.86954">
        <ele>1405.57</ele>
        <time>2014-03-14T12:22:51Z</time>
      </trkpt>
      <trkpt lat="42.98807" lon="0.86962">
        <ele>1406.925</ele>
        <time>2014-03-14T12:22:52Z</time>
      </trkpt>
      <trkpt lat="42.98812" lon="0.8697">
        <ele>1408.189</ele>
        <time>2014-03-14T12:22:53Z</time>
      </trkpt>
      <trkpt lat="42.98817" lon="0.86979">
        <ele>1409.84</ele>
        <time>2014-03-14T12:22:54Z</time>
      </trkpt>
      <trkpt lat="42.98827" lon="0.86995">
        <ele>1411.626</ele>
        <time>2014-03-14T12:22:56Z</time>
      </trkpt>
      <trkpt lat="42.98831" lon="0.87002">
        <ele>1413.557</ele>
        <time>2014-03-14T12:22:57Z</time>
      </trkpt>
      <trkpt lat="42.98836" lon="0.87009">
        <ele>1415.553</ele>
        <time>2014-03-14T12:22:58Z</time>
      </trkpt>
      <trkpt lat="42.9884" lon="0.87017">
        <ele>1417.827</ele>
        <time>2014-03-14T12:22:59Z</time>
      </trkpt>
      <trkpt lat="42.98844" lon="0.87024">
        <ele>1420.73</ele>
        <time>2014-03-14T12:23:00Z</time>
      </trkpt>
      <trkpt lat="42.98848" lon="0.87031">
        <ele>1423.794</ele>
        <time>2014-03-14T12:23:01Z</time>
      </trkpt>
      <trkpt lat="42.98852" lon="0.87038">
        <ele>1427.467</ele>
        <time>2014-03-14T12:23:02Z</time>
      </trkpt>
      <trkpt lat="42.98858" lon="0.87044">
        <ele>1430.307</ele>
        <time>2014-03-14T12:23:03Z</time>
      </trkpt>
      <trkpt lat="42.98864" lon="0.87049">
        <ele>1434.93</ele>
        <time>2014-03-14T12:23:04Z</time>
      </trkpt>
      <trkpt lat="42.98871" lon="0.87053">
        <ele>1439.507</ele>
        <time>2014-03-14T12:23:05Z</time>
      </trkpt>
      <trkpt lat="42.98878" lon="0.87056">
        <ele>1443.948</ele>
        <time>2014-03-14T12:23:06Z</time>
      </trkpt>
      <trkpt lat="42.98883" lon="0.87056">
        <ele>1449.332</ele>
        <time>2014-03-14T12:23:07Z</time>
      </trkpt>
      <trkpt lat="42.98888" lon="0.87057">
        <ele>1454.863</ele>
        <time>2014-03-14T12:23:08Z</time>
      </trkpt>
      <trkpt lat="42.98894" lon="0.87056">
        <ele>1459.253</ele>
        <time>2014-03-14T12:23:09Z</time>
      </trkpt>
      <trkpt lat="42.98901" lon="0.87054">
        <ele>1463.366</ele>
        <time>2014-03-14T12:23:10Z</time>
      </trkpt>
      <trkpt lat="42.98907" lon="0.87051">
        <ele>1466.749</ele>
        <time>2014-03-14T12:23:11Z</time>
      </trkpt>
      <trkpt lat="42.98912" lon="0.87045">
        <ele>1471.229</ele>
        <time>2014-03-14T12:23:12Z</time>
      </trkpt>
      <trkpt lat="42.98916" lon="0.87038">
        <ele>1474.346</ele>
        <time>2014-03-14T12:23:13Z</time>
      </trkpt>
      <trkpt lat="42.9892" lon="0.8703">
        <ele>1477.652</ele>
        <time>2014-03-14T12:23:14Z</time>
      </trkpt>
      <trkpt lat="42.98926" lon="0.87012">
        <ele>1480.479</ele>
        <time>2014-03-14T12:23:16Z</time>
      </trkpt>
      <trkpt lat="42.98928" lon="0.87001">
        <ele>1483.328</ele>
        <time>2014-03-14T12:23:17Z</time>
      </trkpt>
      <trkpt lat="42.9893" lon="0.86989">
        <ele>1486.147</ele>
        <time>2014-03-14T12:23:18Z</time>
      </trkpt>
      <trkpt lat="42.9893" lon="0.86976">
        <ele>1489.757</ele>
        <time>2014-03-14T12:23:19Z</time>
      </trkpt>
      <trkpt lat="42.98928" lon="0.86966">
        <ele>1493.923</ele>
        <time>2014-03-14T12:23:20Z</time>
      </trkpt>
      <trkpt lat="42.98924" lon="0.86958">
        <ele>1497.547</ele>
        <time>2014-03-14T12:23:21Z</time>
      </trkpt>
      <trkpt lat="42.98919" lon="0.86952">
        <ele>1501.967</ele>
        <time>2014-03-14T12:23:22Z</time>
      </trkpt>
      <trkpt lat="42.98913" lon="0.86946">
        <ele>1505.221</ele>
        <time>2014-03-14T12:23:23Z</time>
      </trkpt>
      <trkpt lat="42.98906" lon="0.86942">
        <ele>1507.987</ele>
        <time>2014-03-14T12:23:24Z</time>
      </trkpt>
      <trkpt lat="42.98898" lon="0.8694">
        <ele>1510.413</ele>
        <time>2014-03-14T12:23:25Z</time>
      </trkpt>
      <trkpt lat="42.98891" lon="0.86942">
        <ele>1512.497</ele>
        <time>2014-03-14T12:23:26Z</time>
      </trkpt>
      <trkpt lat="42.98884" lon="0.86946">
        <ele>1514.959</ele>
        <time>2014-03-14T12:23:27Z</time>
      </trkpt>
      <trkpt lat="42.98879" lon="0.86952">
        <ele>1517.338</ele>
        <time>2014-03-14T12:23:28Z</time>
      </trkpt>
      <trkpt lat="42.98874" lon="0.86959">
        <ele>1519.605</ele>
        <time>2014-03-14T12:23:29Z</time>
      </trkpt>
      <trkpt lat="42.98871" lon="0.86968">
        <ele>1522.135</ele>
        <time>2014-03-14T12:23:30Z</time>
      </trkpt>
      <trkpt lat="42.98868" lon="0.86977">
        <ele>1525.148</ele>
        <time>2014-03-14T12:23:31Z</time>
      </trkpt>
      <trkpt lat="42.98866" lon="0.86988">
        <ele>1528.881</ele>
        <time>2014-03-14T12:23:32Z</time>
      </trkpt>
      <trkpt lat="42.98865" lon="0.86998">
        <ele>1532.71</ele>
        <time>2014-03-14T12:23:33Z</time>
      </trkpt>
      <trkpt lat="42.98864" lon="0.87009">
        <ele>1538.302</ele>
        <time>2014-03-14T12:23:34Z</time>
      </trkpt>
      <trkpt lat="42.98864" lon="0.87018">
        <ele>1542.334</ele>
        <time>2014-03-14T12:23:35Z</time>
      </trkpt>
      <trkpt lat="42.98862" lon="0.87038">
        <ele>1547.121</ele>
        <time>2014-03-14T12:23:37Z</time>
      </trkpt>
      <trkpt lat="42.9886" lon="0.8705">
        <ele>1550.609</ele>
        <time>2014-03-14T12:23:38Z</time>
      </trkpt>
      <trkpt lat="42.9886" lon="0.87062">
        <ele>1554.061</ele>
        <time>2014-03-14T12:23:39Z</time>
      </trkpt>
      <trkpt lat="42.9886" lon="0.87062">
        <ele>1558.417</ele>
        <time>2014-03-14T12:23:39Z</time>
      </trkpt>
      <trkpt lat="42.98861" lon="0.87083">
        <ele>1561.884</ele>
        <time>2014-03-14T12:23:41Z</time>
      </trkpt>
      <trkpt lat="42.98861" lon="0.87094">
        <ele>1564.649</ele>
        <time>2014-03-14T12:23:42Z</time>
      </trkpt>
      <trkpt lat="42.98861" lon="0.87105">
        <ele>1566.973</ele>
        <time>2014-03-14T12:23:43Z</time>
      </trkpt>
      <trkpt lat="42.98862" lon="0.87116">
        <ele>1569.194</ele>
        <time>2014-03-14T12:23:44Z</time>
      </trkpt>
      <trkpt lat="42.98862" lon="0.87127">
        <ele>1571.712</ele>
        <time>2014-03-14T12:23:45Z</time>
      </trkpt>
      <trkpt lat="42.98863" lon="0.87137">
        <ele>1574.91</ele>
        <time>2014-03-14T12:23:46Z</time>
      </trkpt>
      <trkpt lat="42.98863" lon="0.87146">
        <ele>1578.343</ele>
        <time>2014-03-14T12:23:47Z</time>
      </trkpt>
      <trkpt lat="42.98862" lon="0.87154">
        <ele>1580.532</ele>
        <time>2014-03-14T12:23:48Z</time>
      </trkpt>
      <trkpt lat="42.9886" lon="0.87162">
        <ele>1582.506</ele>
        <time>2014-03-14T12:23:49Z</time>
      </trkpt>
      <trkpt lat="42.98857" lon="0.87172">
        <ele>1583.948</ele>
        <time>2014-03-14T12:23:50Z</time>
      </trkpt>
      <trkpt lat="42.98854" lon="0.87182">
        <ele>1585.178</ele>
        <time>2014-03-14T12:23:51Z</time>
      </trkpt>
      <trkpt lat="42.9885" lon="0.87193">
        <ele>1586.577</ele>
        <time>2014-03-14T12:23:52Z</time>
      </trkpt>
      <trkpt lat="42.98846" lon="0.87203">
        <ele>1587.365</ele>
        <time>2014-03-14T12:23:53Z</time>
      </trkpt>
      <trkpt lat="42.98842" lon="0.87211">
        <ele>1588.086</ele>
        <time>2014-03-14T12:23:54Z</time>
      </trkpt>
      <trkpt lat="42.98838" lon="0.87219">
        <ele>1588.973</ele>
        <time>2014-03-14T12:23:55Z</time>
      </trkpt>
      <trkpt lat="42.98833" lon="0.87227">
        <ele>1589.887</ele>
        <time>2014-03-14T12:23:56Z</time>
      </trkpt>
      <trkpt lat="42.98827" lon="0.87235">
        <ele>1590.625</ele>
        <time>2014-03-14T12:23:57Z</time>
      </trkpt>
      <trkpt lat="42.98821" lon="0.87243">
        <ele>1590.929</ele>
        <time>2014-03-14T12:23:58Z</time>
      </trkpt>
      <trkpt lat="42.98817" lon="0.8725">
        <ele>1590.442</ele>
        <time>2014-03-14T12:23:59Z</time>
      </trkpt>
      <trkpt lat="42.98813" lon="0.87259">
        <ele>1588.938</ele>
        <time>2014-03-14T12:24:00Z</time>
      </trkpt>
      <trkpt lat="42.98811" lon="0.87268">
        <ele>1586.797</ele>
        <time>2014-03-14T12:24:01Z</time>
      </trkpt>
      <trkpt lat="42.98805" lon="0.87287">
        <ele>1583.549</ele>
        <time>2014-03-14T12:24:03Z</time>
      </trkpt>
      <trkpt lat="42.988" lon="0.87297">
        <ele>1580.149</ele>
        <time>2014-03-14T12:24:04Z</time>
      </trkpt>
      <trkpt lat="42.988" lon="0.87297">
        <ele>1577.35</ele>
        <time>2014-03-14T12:24:04Z</time>
      </trkpt>
      <trkpt lat="42.98786" lon="0.87313">
        <ele>1574.019</ele>
        <time>2014-03-14T12:24:06Z</time>
      </trkpt>
      <trkpt lat="42.98779" lon="0.87319">
        <ele>1571.375</ele>
        <time>2014-03-14T12:24:07Z</time>
      </trkpt>
      <trkpt lat="42.98773" lon="0.87325">
        <ele>1568.721</ele>
        <time>2014-03-14T12:24:08Z</time>
      </trkpt>
      <trkpt lat="42.98767" lon="0.8733">
        <ele>1566.17</ele>
        <time>2014-03-14T12:24:09Z</time>
      </trkpt>
      <trkpt lat="42.98761" lon="0.87336">
        <ele>1562.523</ele>
        <time>2014-03-14T12:24:10Z</time>
      </trkpt>
      <trkpt lat="42.98755" lon="0.87342">
        <ele>1559.073</ele>
        <time>2014-03-14T12:24:11Z</time>
      </trkpt>
      <trkpt lat="42.98749" lon="0.87349">
        <ele>1555.005</ele>
        <time>2014-03-14T12:24:12Z</time>
      </trkpt>
      <trkpt lat="42.98743" lon="0.87357">
        <ele>1551.991</ele>
        <time>2014-03-14T12:24:13Z</time>
      </trkpt>
      <trkpt lat="42.98737" lon="0.87365">
        <ele>1549.781</ele>
        <time>2014-03-14T12:24:14Z</time>
      </trkpt>
      <trkpt lat="42.98732" lon="0.87373">
        <ele>1548.25</ele>
        <time>2014-03-14T12:24:15Z</time>
      </trkpt>
      <trkpt lat="42.98727" lon="0.8738">
        <ele>1546.633</ele>
        <time>2014-03-14T12:24:16Z</time>
      </trkpt>
      <trkpt lat="42.98722" lon="0.87386">
        <ele>1544.931</ele>
        <time>2014-03-14T12:24:17Z</time>
      </trkpt>
      <trkpt lat="42.98717" lon="0.87392">
        <ele>1542.674</ele>
        <time>2014-03-14T12:24:18Z</time>
      </trkpt>
      <trkpt lat="42.98711" lon="0.87398">
        <ele>1539.688</ele>
        <time>2014-03-14T12:24:19Z</time>
      </trkpt>
      <trkpt lat="42.98706" lon="0.87406">
        <ele>1536.46</ele>
        <time>2014-03-14T12:24:20Z</time>
      </trkpt>
      <trkpt lat="42.98701" lon="0.87414">
        <ele>1533.511</ele>
        <time>2014-03-14T12:24:21Z</time>
      </trkpt>
      <trkpt lat="42.98695" lon="0.87422">
        <ele>1530.894</ele>
        <time>2014-03-14T12:24:22Z</time>
      </trkpt>
      <trkpt lat="42.9869" lon="0.87429">
        <ele>1528.319</ele>
        <time>2014-03-14T12:24:23Z</time>
      </trkpt>
      <trkpt lat="42.98685" lon="0.87436">
        <ele>1525.459</ele>
        <time>2014-03-14T12:24:24Z</time>
      </trkpt>
      <trkpt lat="42.9868" lon="0.87443">
        <ele>1522.337</ele>
        <time>2014-03-14T12:24:25Z</time>
      </trkpt>
      <trkpt lat="42.98674" lon="0.87452">
        <ele>1518.995</ele>
        <time>2014-03-14T12:24:26Z</time>
      </trkpt>
      <trkpt lat="42.98669" lon="0.87461">
        <ele>1515.994</ele>
        <time>2014-03-14T12:24:27Z</time>
      </trkpt>
      <trkpt lat="42.98664" lon="0.87469">
        <ele>1513.416</ele>
        <time>2014-03-14T12:24:28Z</time>
      </trkpt>
      <trkpt lat="42.98659" lon="0.87477">
        <ele>1510.669</ele>
        <time>2014-03-14T12:24:29Z</time>
      </trkpt>
      <trkpt lat="42.98654" lon="0.87485">
        <ele>1508.007</ele>
        <time>2014-03-14T12:24:30Z</time>
      </trkpt>
      <trkpt lat="42.98648" lon="0.87495">
        <ele>1504.689</ele>
        <time>2014-03-14T12:24:31Z</time>
      </trkpt>
      <trkpt lat="42.98643" lon="0.87505">
        <ele>1501.266</ele>
        <time>2014-03-14T12:24:32Z</time>
      </trkpt>
      <trkpt lat="42.9863" lon="0.87526">
        <ele>1499.097</ele>
        <time>2014-03-14T12:24:34Z</time>
      </trkpt>
      <trkpt lat="42.9863" lon="0.87526">
        <ele>1497.379</ele>
        <time>2014-03-14T12:24:34Z</time>
      </trkpt>
      <trkpt lat="42.9862" lon="0.87544">
        <ele>1495.959</ele>
        <time>2014-03-14T12:24:36Z</time>
      </trkpt>
      <trkpt lat="42.98615" lon="0.87553">
        <ele>1493.969</ele>
        <time>2014-03-14T12:24:37Z</time>
      </trkpt>
      <trkpt lat="42.98609" lon="0.87563">
        <ele>1492.077</ele>
        <time>2014-03-14T12:24:38Z</time>
      </trkpt>
      <trkpt lat="42.98604" lon="0.87574">
        <ele>1489.839</ele>
        <time>2014-03-14T12:24:39Z</time>
      </trkpt>
      <trkpt lat="42.98598" lon="0.87584">
        <ele>1488.047</ele>
        <time>2014-03-14T12:24:40Z</time>
      </trkpt>
      <trkpt lat="42.98592" lon="0.87593">
        <ele>1486.746</ele>
        <time>2014-03-14T12:24:41Z</time>
      </trkpt>
      <trkpt lat="42.98586" lon="0.87603">
        <ele>1485.727</ele>
        <time>2014-03-14T12:24:42Z</time>
      </trkpt>
      <trkpt lat="42.98579" lon="0.87612">
        <ele>1484.531</ele>
        <time>2014-03-14T12:24:43Z</time>
      </trkpt>
      <trkpt lat="42.98573" lon="0.8762">
        <ele>1483.346</ele>
        <time>2014-03-14T12:24:44Z</time>
      </trkpt>
      <trkpt lat="42.98566" lon="0.87629">
        <ele>1481.754</ele>
        <time>2014-03-14T12:24:45Z</time>
      </trkpt>
      <trkpt lat="42.9856" lon="0.87638">
        <ele>1479.539</ele>
        <time>2014-03-14T12:24:46Z</time>
      </trkpt>
      <trkpt lat="42.98554" lon="0.8765">
        <ele>1477.206</ele>
        <time>2014-03-14T12:24:47Z</time>
      </trkpt>
      <trkpt lat="42.98548" lon="0.87662">
        <ele>1475.183</ele>
        <time>2014-03-14T12:24:48Z</time>
      </trkpt>
      <trkpt lat="42.98542" lon="0.87675">
        <ele>1473.982</ele>
        <time>2014-03-14T12:24:49Z</time>
      </trkpt>
      <trkpt lat="42.98536" lon="0.87686">
        <ele>1473.459</ele>
        <time>2014-03-14T12:24:50Z</time>
      </trkpt>
      <trkpt lat="42.9853" lon="0.87694">
        <ele>1473.053</ele>
        <time>2014-03-14T12:24:51Z</time>
      </trkpt>
      <trkpt lat="42.98525" lon="0.87701">
        <ele>1471.876</ele>
        <time>2014-03-14T12:24:52Z</time>
      </trkpt>
      <trkpt lat="42.98521" lon="0.87709">
        <ele>1469.564</ele>
        <time>2014-03-14T12:24:53Z</time>
      </trkpt>
      <trkpt lat="42.98517" lon="0.87718">
        <ele>1466.328</ele>
        <time>2014-03-14T12:24:54Z</time>
      </trkpt>
      <trkpt lat="42.98513" lon="0.87728">
        <ele>1463.183</ele>
        <time>2014-03-14T12:24:55Z</time>
      </trkpt>
      <trkpt lat="42.9851" lon="0.87739">
        <ele>1461.066</ele>
        <time>2014-03-14T12:24:56Z</time>
      </trkpt>
      <trkpt lat="42.98507" lon="0.8775">
        <ele>1459.276</ele>
        <time>2014-03-14T12:24:57Z</time>
      </trkpt>
      <trkpt lat="42.98505" lon="0.8776">
        <ele>1458.234</ele>
        <time>2014-03-14T12:24:58Z</time>
      </trkpt>
      <trkpt lat="42.98503" lon="0.87768">
        <ele>1457.238</ele>
        <time>2014-03-14T12:24:59Z</time>
      </trkpt>
      <trkpt lat="42.98501" lon="0.87777">
        <ele>1455.697</ele>
        <time>2014-03-14T12:25:00Z</time>
      </trkpt>
      <trkpt lat="42.98499" lon="0.87786">
        <ele>1453.897</ele>
        <time>2014-03-14T12:25:01Z</time>
      </trkpt>
      <trkpt lat="42.98494" lon="0.87803">
        <ele>1451.963</ele>
        <time>2014-03-14T12:25:03Z</time>
      </trkpt>
      <trkpt lat="42.98491" lon="0.87812">
        <ele>1450.109</ele>
        <time>2014-03-14T12:25:04Z</time>
      </trkpt>
      <trkpt lat="42.98491" lon="0.87812">
        <ele>1448.337</ele>
        <time>2014-03-14T12:25:04Z</time>
      </trkpt>
      <trkpt lat="42.98485" lon="0.87827">
        <ele>1446.424</ele>
        <time>2014-03-14T12:25:06Z</time>
      </trkpt>
      <trkpt lat="42.98482" lon="0.87835">
        <ele>1444.569</ele>
        <time>2014-03-14T12:25:07Z</time>
      </trkpt>
      <trkpt lat="42.98478" lon="0.87843">
        <ele>1442.612</ele>
        <time>2014-03-14T12:25:08Z</time>
      </trkpt>
      <trkpt lat="42.98474" lon="0.87851">
        <ele>1441.024</ele>
        <time>2014-03-14T12:25:09Z</time>
      </trkpt>
      <trkpt lat="42.98469" lon="0.87858">
        <ele>1439.079</ele>
        <time>2014-03-14T12:25:10Z</time>
      </trkpt>
      <trkpt lat="42.98465" lon="0.87864">
        <ele>1437.481</ele>
        <time>2014-03-14T12:25:11Z</time>
      </trkpt>
      <trkpt lat="42.9846" lon="0.87871">
        <ele>1435.729</ele>
        <time>2014-03-14T12:25:12Z</time>
      </trkpt>
      <trkpt lat="42.98455" lon="0.87877">
        <ele>1433.797</ele>
        <time>2014-03-14T12:25:13Z</time>
      </trkpt>
      <trkpt lat="42.98449" lon="0.87883">
        <ele>1431.846</ele>
        <time>2014-03-14T12:25:14Z</time>
      </trkpt>
      <trkpt lat="42.98444" lon="0.87889">
        <ele>1429.909</ele>
        <time>2014-03-14T12:25:15Z</time>
      </trkpt>
      <trkpt lat="42.98438" lon="0.87895">
        <ele>1428.095</ele>
        <time>2014-03-14T12:25:16Z</time>
      </trkpt>
      <trkpt lat="42.98432" lon="0.879">
        <ele>1426.371</ele>
        <time>2014-03-14T12:25:17Z</time>
      </trkpt>
      <trkpt lat="42.98427" lon="0.87905">
        <ele>1424.575</ele>
        <time>2014-03-14T12:25:18Z</time>
      </trkpt>
      <trkpt lat="42.98421" lon="0.8791">
        <ele>1422.784</ele>
        <time>2014-03-14T12:25:19Z</time>
      </trkpt>
      <trkpt lat="42.98414" lon="0.87914">
        <ele>1420.641</ele>
        <time>2014-03-14T12:25:20Z</time>
      </trkpt>
      <trkpt lat="42.98407" lon="0.87919">
        <ele>1418.763</ele>
        <time>2014-03-14T12:25:21Z</time>
      </trkpt>
      <trkpt lat="42.98401" lon="0.87923">
        <ele>1416.968</ele>
        <time>2014-03-14T12:25:22Z</time>
      </trkpt>
      <trkpt lat="42.98395" lon="0.87927">
        <ele>1415.122</ele>
        <time>2014-03-14T12:25:23Z</time>
      </trkpt>
      <trkpt lat="42.98388" lon="0.87932">
        <ele>1413.107</ele>
        <time>2014-03-14T12:25:24Z</time>
      </trkpt>
      <trkpt lat="42.98382" lon="0.87937">
        <ele>1411.242</ele>
        <time>2014-03-14T12:25:25Z</time>
      </trkpt>
      <trkpt lat="42.98375" lon="0.87941">
        <ele>1409.416</ele>
        <time>2014-03-14T12:25:26Z</time>
      </trkpt>
      <trkpt lat="42.98368" lon="0.87946">
        <ele>1407.643</ele>
        <time>2014-03-14T12:25:27Z</time>
      </trkpt>
      <trkpt lat="42.98362" lon="0.8795">
        <ele>1405.922</ele>
        <time>2014-03-14T12:25:28Z</time>
      </trkpt>
      <trkpt lat="42.98355" lon="0.87953">
        <ele>1403.845</ele>
        <time>2014-03-14T12:25:29Z</time>
      </trkpt>
      <trkpt lat="42.98348" lon="0.87956">
        <ele>1401.631</ele>
        <time>2014-03-14T12:25:30Z</time>
      </trkpt>
      <trkpt lat="42.9834" lon="0.87959">
        <ele>1399.119</ele>
        <time>2014-03-14T12:25:31Z</time>
      </trkpt>
      <trkpt lat="42.98331" lon="0.87962">
        <ele>1397.188</ele>
        <time>2014-03-14T12:25:32Z</time>
      </trkpt>
      <trkpt lat="42.98316" lon="0.87965">
        <ele>1395.445</ele>
        <time>2014-03-14T12:25:34Z</time>
      </trkpt>
      <trkpt lat="42.98316" lon="0.87965">
        <ele>1393.947</ele>
        <time>2014-03-14T12:25:34Z</time>
      </trkpt>
      <trkpt lat="42.98301" lon="0.87967">
        <ele>1391.898</ele>
        <time>2014-03-14T12:25:36Z</time>
      </trkpt>
      <trkpt lat="42.98293" lon="0.87968">
        <ele>1389.775</ele>
        <time>2014-03-14T12:25:37Z</time>
      </trkpt>
      <trkpt lat="42.98285" lon="0.87969">
        <ele>1387.738</ele>
        <time>2014-03-14T12:25:38Z</time>
      </trkpt>
      <trkpt lat="42.98277" lon="0.8797">
        <ele>1385.833</ele>
        <time>2014-03-14T12:25:39Z</time>
      </trkpt>
      <trkpt lat="42.98269" lon="0.87969">
        <ele>1383.959</ele>
        <time>2014-03-14T12:25:40Z</time>
      </trkpt>
      <trkpt lat="42.98262" lon="0.87968">
        <ele>1382.228</ele>
        <time>2014-03-14T12:25:41Z</time>
      </trkpt>
      <trkpt lat="42.98254" lon="0.87965">
        <ele>1380.391</ele>
        <time>2014-03-14T12:25:42Z</time>
      </trkpt>
      <trkpt lat="42.98246" lon="0.87962">
        <ele>1378.334</ele>
        <time>2014-03-14T12:25:43Z</time>
      </trkpt>
      <trkpt lat="42.98237" lon="0.87959">
        <ele>1376.389</ele>
        <time>2014-03-14T12:25:44Z</time>
      </trkpt>
      <trkpt lat="42.98229" lon="0.87955">
        <ele>1374.606</ele>
        <time>2014-03-14T12:25:45Z</time>
      </trkpt>
      <trkpt lat="42.9822" lon="0.87952">
        <ele>1372.994</ele>
        <time>2014-03-14T12:25:46Z</time>
      </trkpt>
      <trkpt lat="42.98213" lon="0.87948">
        <ele>1371.328</ele>
        <time>2014-03-14T12:25:47Z</time>
      </trkpt>
      <trkpt lat="42.98205" lon="0.87944">
        <ele>1369.384</ele>
        <time>2014-03-14T12:25:48Z</time>
      </trkpt>
      <trkpt lat="42.98197" lon="0.8794">
        <ele>1367.427</ele>
        <time>2014-03-14T12:25:49Z</time>
      </trkpt>
      <trkpt lat="42.98188" lon="0.87936">
        <ele>1364.727</ele>
        <time>2014-03-14T12:25:50Z</time>
      </trkpt>
      <trkpt lat="42.9818" lon="0.87931">
        <ele>1362.579</ele>
        <time>2014-03-14T12:25:51Z</time>
      </trkpt>
      <trkpt lat="42.98172" lon="0.87926">
        <ele>1361.034</ele>
        <time>2014-03-14T12:25:52Z</time>
      </trkpt>
      <trkpt lat="42.98164" lon="0.87921">
        <ele>1359.247</ele>
        <time>2014-03-14T12:25:53Z</time>
      </trkpt>
      <trkpt lat="42.98156" lon="0.87915">
        <ele>1357.616</ele>
        <time>2014-03-14T12:25:54Z</time>
      </trkpt>
      <trkpt lat="42.98149" lon="0.87909">
        <ele>1355.861</ele>
        <time>2014-03-14T12:25:55Z</time>
      </trkpt>
      <trkpt lat="42.98141" lon="0.87903">
        <ele>1354.302</ele>
        <time>2014-03-14T12:25:56Z</time>
      </trkpt>
      <trkpt lat="42.98134" lon="0.87897">
        <ele>1352.212</ele>
        <time>2014-03-14T12:25:57Z</time>
      </trkpt>
      <trkpt lat="42.98126" lon="0.87891">
        <ele>1350.745</ele>
        <time>2014-03-14T12:25:58Z</time>
      </trkpt>
      <trkpt lat="42.98118" lon="0.87885">
        <ele>1349.226</ele>
        <time>2014-03-14T12:25:59Z</time>
      </trkpt>
      <trkpt lat="42.98104" lon="0.87874">
        <ele>1348.077</ele>
        <time>2014-03-14T12:26:01Z</time>
      </trkpt>
      <trkpt lat="42.98096" lon="0.87868">
        <ele>1347.217</ele>
        <time>2014-03-14T12:26:02Z</time>
      </trkpt>
      <trkpt lat="42.9809" lon="0.87863">
        <ele>1346.399</ele>
        <time>2014-03-14T12:26:03Z</time>
      </trkpt>
      <trkpt lat="42.98083" lon="0.87859">
        <ele>1345.414</ele>
        <time>2014-03-14T12:26:04Z</time>
      </trkpt>
      <trkpt lat="42.98075" lon="0.87855">
        <ele>1343.753</ele>
        <time>2014-03-14T12:26:05Z</time>
      </trkpt>
      <trkpt lat="42.98067" lon="0.87851">
        <ele>1342.041</ele>
        <time>2014-03-14T12:26:06Z</time>
      </trkpt>
      <trkpt lat="42.98059" lon="0.87847">
        <ele>1340.055</ele>
        <time>2014-03-14T12:26:07Z</time>
      </trkpt>
      <trkpt lat="42.9805" lon="0.87844">
        <ele>1338.469</ele>
        <time>2014-03-14T12:26:08Z</time>
      </trkpt>
      <trkpt lat="42.98041" lon="0.8784">
        <ele>1337.213</ele>
        <time>2014-03-14T12:26:09Z</time>
      </trkpt>
      <trkpt lat="42.98033" lon="0.87837">
        <ele>1336.281</ele>
        <time>2014-03-14T12:26:10Z</time>
      </trkpt>
      <trkpt lat="42.98025" lon="0.87833">
        <ele>1335.304</ele>
        <time>2014-03-14T12:26:11Z</time>
      </trkpt>
      <trkpt lat="42.98017" lon="0.8783">
        <ele>1334.447</ele>
        <time>2014-03-14T12:26:12Z</time>
      </trkpt>
      <trkpt lat="42.98009" lon="0.87827">
        <ele>1333.534</ele>
        <time>2014-03-14T12:26:13Z</time>
      </trkpt>
      <trkpt lat="42.98001" lon="0.87824">
        <ele>1332.548</ele>
        <time>2014-03-14T12:26:14Z</time>
      </trkpt>
      <trkpt lat="42.97993" lon="0.87821">
        <ele>1331.444</ele>
        <time>2014-03-14T12:26:15Z</time>
      </trkpt>
      <trkpt lat="42.97985" lon="0.87817">
        <ele>1330.43</ele>
        <time>2014-03-14T12:26:16Z</time>
      </trkpt>
      <trkpt lat="42.97978" lon="0.87814">
        <ele>1329.507</ele>
        <time>2014-03-14T12:26:17Z</time>
      </trkpt>
      <trkpt lat="42.97971" lon="0.87811">
        <ele>1328.656</ele>
        <time>2014-03-14T12:26:18Z</time>
      </trkpt>
      <trkpt lat="42.97964" lon="0.87808">
        <ele>1327.362</ele>
        <time>2014-03-14T12:26:19Z</time>
      </trkpt>
      <trkpt lat="42.97956" lon="0.87806">
        <ele>1325.831</ele>
        <time>2014-03-14T12:26:20Z</time>
      </trkpt>
      <trkpt lat="42.97948" lon="0.87803">
        <ele>1324.492</ele>
        <time>2014-03-14T12:26:21Z</time>
      </trkpt>
      <trkpt lat="42.9794" lon="0.878">
        <ele>1323.422</ele>
        <time>2014-03-14T12:26:22Z</time>
      </trkpt>
      <trkpt lat="42.97933" lon="0.87796">
        <ele>1322.55</ele>
        <time>2014-03-14T12:26:23Z</time>
      </trkpt>
      <trkpt lat="42.97926" lon="0.87793">
        <ele>1321.767</ele>
        <time>2014-03-14T12:26:24Z</time>
      </trkpt>
      <trkpt lat="42.97914" lon="0.87785">
        <ele>1320.762</ele>
        <time>2014-03-14T12:26:26Z</time>
      </trkpt>
      <trkpt lat="42.97907" lon="0.8778">
        <ele>1319.148</ele>
        <time>2014-03-14T12:26:27Z</time>
      </trkpt>
      <trkpt lat="42.979" lon="0.87775">
        <ele>1317.489</ele>
        <time>2014-03-14T12:26:28Z</time>
      </trkpt>
      <trkpt lat="42.97893" lon="0.8777">
        <ele>1316.213</ele>
        <time>2014-03-14T12:26:29Z</time>
      </trkpt>
      <trkpt lat="42.97893" lon="0.8777">
        <ele>1314.945</ele>
        <time>2014-03-14T12:26:29Z</time>
      </trkpt>
      <trkpt lat="42.9788" lon="0.8776">
        <ele>1313.746</ele>
        <time>2014-03-14T12:26:31Z</time>
      </trkpt>
      <trkpt lat="42.97873" lon="0.87754">
        <ele>1312.627</ele>
        <time>2014-03-14T12:26:32Z</time>
      </trkpt>
      <trkpt lat="42.97866" lon="0.87749">
        <ele>1311.189</ele>
        <time>2014-03-14T12:26:33Z</time>
      </trkpt>
      <trkpt lat="42.97859" lon="0.87742">
        <ele>1309.911</ele>
        <time>2014-03-14T12:26:34Z</time>
      </trkpt>
      <trkpt lat="42.97853" lon="0.87736">
        <ele>1308.737</ele>
        <time>2014-03-14T12:26:35Z</time>
      </trkpt>
      <trkpt lat="42.97848" lon="0.87728">
        <ele>1307.565</ele>
        <time>2014-03-14T12:26:36Z</time>
      </trkpt>
      <trkpt lat="42.97844" lon="0.87719">
        <ele>1306.459</ele>
        <time>2014-03-14T12:26:37Z</time>
      </trkpt>
      <trkpt lat="42.97842" lon="0.87709">
        <ele>1304.851</ele>
        <time>2014-03-14T12:26:38Z</time>
      </trkpt>
      <trkpt lat="42.9784" lon="0.87699">
        <ele>1303.43</ele>
        <time>2014-03-14T12:26:39Z</time>
      </trkpt>
      <trkpt lat="42.97841" lon="0.87688">
        <ele>1302.254</ele>
        <time>2014-03-14T12:26:40Z</time>
      </trkpt>
      <trkpt lat="42.97843" lon="0.87678">
        <ele>1300.826</ele>
        <time>2014-03-14T12:26:41Z</time>
      </trkpt>
      <trkpt lat="42.97847" lon="0.8767">
        <ele>1299.661</ele>
        <time>2014-03-14T12:26:42Z</time>
      </trkpt>
      <trkpt lat="42.97851" lon="0.87663">
        <ele>1298.63</ele>
        <time>2014-03-14T12:26:43Z</time>
      </trkpt>
      <trkpt lat="42.97857" lon="0.87658">
        <ele>1297.361</ele>
        <time>2014-03-14T12:26:44Z</time>
      </trkpt>
      <trkpt lat="42.97864" lon="0.87656">
        <ele>1296.128</ele>
        <time>2014-03-14T12:26:45Z</time>
      </trkpt>
      <trkpt lat="42.97872" lon="0.87656">
        <ele>1295.014</ele>
        <time>2014-03-14T12:26:46Z</time>
      </trkpt>
      <trkpt lat="42.97878" lon="0.87659">
        <ele>1294.046</ele>
        <time>2014-03-14T12:26:47Z</time>
      </trkpt>
      <trkpt lat="42.97884" lon="0.87663">
        <ele>1292.805</ele>
        <time>2014-03-14T12:26:48Z</time>
      </trkpt>
      <trkpt lat="42.97888" lon="0.8767">
        <ele>1291.582</ele>
        <time>2014-03-14T12:26:49Z</time>
      </trkpt>
      <trkpt lat="42.97892" lon="0.87678">
        <ele>1289.664</ele>
        <time>2014-03-14T12:26:50Z</time>
      </trkpt>
      <trkpt lat="42.97896" lon="0.87687">
        <ele>1287.83</ele>
        <time>2014-03-14T12:26:51Z</time>
      </trkpt>
      <trkpt lat="42.97899" lon="0.87697">
        <ele>1286.152</ele>
        <time>2014-03-14T12:26:52Z</time>
      </trkpt>
      <trkpt lat="42.97902" lon="0.87708">
        <ele>1285.101</ele>
        <time>2014-03-14T12:26:53Z</time>
      </trkpt>
      <trkpt lat="42.97904" lon="0.87718">
        <ele>1284.301</ele>
        <time>2014-03-14T12:26:54Z</time>
      </trkpt>
      <trkpt lat="42.97908" lon="0.87738">
        <ele>1283.47</ele>
        <time>2014-03-14T12:26:56Z</time>
      </trkpt>
      <trkpt lat="42.9791" lon="0.87747">
        <ele>1282.438</ele>
        <time>2014-03-14T12:26:57Z</time>
      </trkpt>
      <trkpt lat="42.97913" lon="0.87758">
        <ele>1281.396</ele>
        <time>2014-03-14T12:26:58Z</time>
      </trkpt>
      <trkpt lat="42.97915" lon="0.87768">
        <ele>1280.595</ele>
        <time>2014-03-14T12:26:59Z</time>
      </trkpt>
      <trkpt lat="42.97917" lon="0.87777">
        <ele>1279.934</ele>
        <time>2014-03-14T12:27:00Z</time>
      </trkpt>
      <trkpt lat="42.9792" lon="0.87786">
        <ele>1279.475</ele>
        <time>2014-03-14T12:27:01Z</time>
      </trkpt>
      <trkpt lat="42.97922" lon="0.87795">
        <ele>1278.914</ele>
        <time>2014-03-14T12:27:02Z</time>
      </trkpt>
      <trkpt lat="42.97924" lon="0.87804">
        <ele>1278.433</ele>
        <time>2014-03-14T12:27:03Z</time>
      </trkpt>
      <trkpt lat="42.97927" lon="0.87813">
        <ele>1277.638</ele>
        <time>2014-03-14T12:27:04Z</time>
      </trkpt>
      <trkpt lat="42.97929" lon="0.87822">
        <ele>1276.73</ele>
        <time>2014-03-14T12:27:05Z</time>
      </trkpt>
      <trkpt lat="42.97932" lon="0.87831">
        <ele>1275.775</ele>
        <time>2014-03-14T12:27:06Z</time>
      </trkpt>
      <trkpt lat="42.97935" lon="0.87841">
        <ele>1274.685</ele>
        <time>2014-03-14T12:27:07Z</time>
      </trkpt>
      <trkpt lat="42.97938" lon="0.8785">
        <ele>1273.917</ele>
        <time>2014-03-14T12:27:08Z</time>
      </trkpt>
      <trkpt lat="42.97941" lon="0.8786">
        <ele>1273.077</ele>
        <time>2014-03-14T12:27:09Z</time>
      </trkpt>
      <trkpt lat="42.97943" lon="0.87869">
        <ele>1272.196</ele>
        <time>2014-03-14T12:27:10Z</time>
      </trkpt>
      <trkpt lat="42.97945" lon="0.87877">
        <ele>1271.158</ele>
        <time>2014-03-14T12:27:11Z</time>
      </trkpt>
      <trkpt lat="42.97948" lon="0.87885">
        <ele>1270.042</ele>
        <time>2014-03-14T12:27:12Z</time>
      </trkpt>
      <trkpt lat="42.9795" lon="0.87894">
        <ele>1268.222</ele>
        <time>2014-03-14T12:27:13Z</time>
      </trkpt>
      <trkpt lat="42.97953" lon="0.87903">
        <ele>1266.437</ele>
        <time>2014-03-14T12:27:14Z</time>
      </trkpt>
      <trkpt lat="42.97955" lon="0.87912">
        <ele>1264.893</ele>
        <time>2014-03-14T12:27:15Z</time>
      </trkpt>
      <trkpt lat="42.97957" lon="0.8792">
        <ele>1263.322</ele>
        <time>2014-03-14T12:27:16Z</time>
      </trkpt>
      <trkpt lat="42.9796" lon="0.87928">
        <ele>1261.586</ele>
        <time>2014-03-14T12:27:17Z</time>
      </trkpt>
      <trkpt lat="42.97966" lon="0.87944">
        <ele>1259.837</ele>
        <time>2014-03-14T12:27:19Z</time>
      </trkpt>
      <trkpt lat="42.97966" lon="0.87944">
        <ele>1258.227</ele>
        <time>2014-03-14T12:27:19Z</time>
      </trkpt>
      <trkpt lat="42.9797" lon="0.8796">
        <ele>1256.879</ele>
        <time>2014-03-14T12:27:21Z</time>
      </trkpt>
      <trkpt lat="42.97973" lon="0.87967">
        <ele>1255.087</ele>
        <time>2014-03-14T12:27:22Z</time>
      </trkpt>
      <trkpt lat="42.97975" lon="0.87975">
        <ele>1253.339</ele>
        <time>2014-03-14T12:27:23Z</time>
      </trkpt>
      <trkpt lat="42.97977" lon="0.87982">
        <ele>1251.598</ele>
        <time>2014-03-14T12:27:24Z</time>
      </trkpt>
      <trkpt lat="42.97979" lon="0.8799">
        <ele>1249.833</ele>
        <time>2014-03-14T12:27:25Z</time>
      </trkpt>
      <trkpt lat="42.97981" lon="0.87998">
        <ele>1248.317</ele>
        <time>2014-03-14T12:27:26Z</time>
      </trkpt>
      <trkpt lat="42.97983" lon="0.88005">
        <ele>1247.259</ele>
        <time>2014-03-14T12:27:27Z</time>
      </trkpt>
      <trkpt lat="42.97985" lon="0.88012">
        <ele>1246.072</ele>
        <time>2014-03-14T12:27:28Z</time>
      </trkpt>
      <trkpt lat="42.97987" lon="0.88019">
        <ele>1244.648</ele>
        <time>2014-03-14T12:27:29Z</time>
      </trkpt>
      <trkpt lat="42.97989" lon="0.88027">
        <ele>1243.335</ele>
        <time>2014-03-14T12:27:30Z</time>
      </trkpt>
      <trkpt lat="42.97991" lon="0.88034">
        <ele>1241.697</ele>
        <time>2014-03-14T12:27:31Z</time>
      </trkpt>
      <trkpt lat="42.97994" lon="0.88041">
        <ele>1240.138</ele>
        <time>2014-03-14T12:27:32Z</time>
      </trkpt>
      <trkpt lat="42.97996" lon="0.88048">
        <ele>1238.468</ele>
        <time>2014-03-14T12:27:33Z</time>
      </trkpt>
      <trkpt lat="42.97998" lon="0.88055">
        <ele>1236.584</ele>
        <time>2014-03-14T12:27:34Z</time>
      </trkpt>
      <trkpt lat="42.98001" lon="0.88062">
        <ele>1234.804</ele>
        <time>2014-03-14T12:27:35Z</time>
      </trkpt>
      <trkpt lat="42.98003" lon="0.88069">
        <ele>1232.673</ele>
        <time>2014-03-14T12:27:36Z</time>
      </trkpt>
      <trkpt lat="42.98006" lon="0.88077">
        <ele>1230.327</ele>
        <time>2014-03-14T12:27:37Z</time>
      </trkpt>
      <trkpt lat="42.9801" lon="0.88084">
        <ele>1228.615</ele>
        <time>2014-03-14T12:27:38Z</time>
      </trkpt>
      <trkpt lat="42.98012" lon="0.88091">
        <ele>1226.893</ele>
        <time>2014-03-14T12:27:39Z</time>
      </trkpt>
      <trkpt lat="42.98015" lon="0.88098">
        <ele>1225.03</ele>
        <time>2014-03-14T12:27:40Z</time>
      </trkpt>
      <trkpt lat="42.98017" lon="0.88105">
        <ele>1223.032</ele>
        <time>2014-03-14T12:27:41Z</time>
      </trkpt>
      <trkpt lat="42.98019" lon="0.88111">
        <ele>1220.93</ele>
        <time>2014-03-14T12:27:42Z</time>
      </trkpt>
      <trkpt lat="42.98024" lon="0.88126">
        <ele>1219.219</ele>
        <time>2014-03-14T12:27:44Z</time>
      </trkpt>
      <trkpt lat="42.98024" lon="0.88126">
        <ele>1217.496</ele>
        <time>2014-03-14T12:27:44Z</time>
      </trkpt>
      <trkpt lat="42.98027" lon="0.8814">
        <ele>1215.858</ele>
        <time>2014-03-14T12:27:46Z</time>
      </trkpt>
      <trkpt lat="42.98029" lon="0.88147">
        <ele>1213.956</ele>
        <time>2014-03-14T12:27:47Z</time>
      </trkpt>
      <trkpt lat="42.98031" lon="0.88155">
        <ele>1211.908</ele>
        <time>2014-03-14T12:27:48Z</time>
      </trkpt>
      <trkpt lat="42.98032" lon="0.88164">
        <ele>1210.082</ele>
        <time>2014-03-14T12:27:49Z</time>
      </trkpt>
      <trkpt lat="42.98032" lon="0.88164">
        <ele>1208.3</ele>
        <time>2014-03-14T12:27:49Z</time>
      </trkpt>
      <trkpt lat="42.98036" lon="0.8818">
        <ele>1206.982</ele>
        <time>2014-03-14T12:27:51Z</time>
      </trkpt>
      <trkpt lat="42.98038" lon="0.88188">
        <ele>1205.644</ele>
        <time>2014-03-14T12:27:52Z</time>
      </trkpt>
      <trkpt lat="42.98039" lon="0.88195">
        <ele>1204.082</ele>
        <time>2014-03-14T12:27:53Z</time>
      </trkpt>
      <trkpt lat="42.9804" lon="0.88204">
        <ele>1202.362</ele>
        <time>2014-03-14T12:27:54Z</time>
      </trkpt>
      <trkpt lat="42.98042" lon="0.88212">
        <ele>1200.287</ele>
        <time>2014-03-14T12:27:55Z</time>
      </trkpt>
      <trkpt lat="42.98043" lon="0.88221">
        <ele>1198.618</ele>
        <time>2014-03-14T12:27:56Z</time>
      </trkpt>
      <trkpt lat="42.98045" lon="0.88229">
        <ele>1196.895</ele>
        <time>2014-03-14T12:27:57Z</time>
      </trkpt>
      <trkpt lat="42.98046" lon="0.88236">
        <ele>1195.302</ele>
        <time>2014-03-14T12:27:58Z</time>
      </trkpt>
      <trkpt lat="42.98049" lon="0.88244">
        <ele>1193.787</ele>
        <time>2014-03-14T12:27:59Z</time>
      </trkpt>
      <trkpt lat="42.98051" lon="0.88251">
        <ele>1191.513</ele>
        <time>2014-03-14T12:28:00Z</time>
      </trkpt>
      <trkpt lat="42.98053" lon="0.88259">
        <ele>1189.43</ele>
        <time>2014-03-14T12:28:01Z</time>
      </trkpt>
      <trkpt lat="42.98055" lon="0.88267">
        <ele>1187.38</ele>
        <time>2014-03-14T12:28:02Z</time>
      </trkpt>
      <trkpt lat="42.98057" lon="0.88276">
        <ele>1185.501</ele>
        <time>2014-03-14T12:28:03Z</time>
      </trkpt>
      <trkpt lat="42.98059" lon="0.88284">
        <ele>1184.074</ele>
        <time>2014-03-14T12:28:04Z</time>
      </trkpt>
      <trkpt lat="42.98061" lon="0.88292">
        <ele>1182.237</ele>
        <time>2014-03-14T12:28:05Z</time>
      </trkpt>
      <trkpt lat="42.98064" lon="0.883">
        <ele>1180.577</ele>
        <time>2014-03-14T12:28:06Z</time>
      </trkpt>
      <trkpt lat="42.98066" lon="0.88308">
        <ele>1179.006</ele>
        <time>2014-03-14T12:28:07Z</time>
      </trkpt>
      <trkpt lat="42.98068" lon="0.88316">
        <ele>1176.817</ele>
        <time>2014-03-14T12:28:08Z</time>
      </trkpt>
      <trkpt lat="42.98071" lon="0.88325">
        <ele>1175.039</ele>
        <time>2014-03-14T12:28:09Z</time>
      </trkpt>
      <trkpt lat="42.98074" lon="0.88334">
        <ele>1173.649</ele>
        <time>2014-03-14T12:28:10Z</time>
      </trkpt>
      <trkpt lat="42.98078" lon="0.88343">
        <ele>1172.776</ele>
        <time>2014-03-14T12:28:11Z</time>
      </trkpt>
      <trkpt lat="42.9808" lon="0.88351">
        <ele>1172.107</ele>
        <time>2014-03-14T12:28:12Z</time>
      </trkpt>
      <trkpt lat="42.98083" lon="0.88358">
        <ele>1171.27</ele>
        <time>2014-03-14T12:28:13Z</time>
      </trkpt>
      <trkpt lat="42.98086" lon="0.88365">
        <ele>1170.054</ele>
        <time>2014-03-14T12:28:14Z</time>
      </trkpt>
      <trkpt lat="42.98088" lon="0.88372">
        <ele>1168.471</ele>
        <time>2014-03-14T12:28:15Z</time>
      </trkpt>
      <trkpt lat="42.98091" lon="0.88381">
        <ele>1166.834</ele>
        <time>2014-03-14T12:28:16Z</time>
      </trkpt>
      <trkpt lat="42.98094" lon="0.8839">
        <ele>1165.358</ele>
        <time>2014-03-14T12:28:17Z</time>
      </trkpt>
      <trkpt lat="42.98097" lon="0.88398">
        <ele>1164.047</ele>
        <time>2014-03-14T12:28:18Z</time>
      </trkpt>
      <trkpt lat="42.98099" lon="0.88407">
        <ele>1162.927</ele>
        <time>2014-03-14T12:28:19Z</time>
      </trkpt>
      <trkpt lat="42.98102" lon="0.88415">
        <ele>1161.299</ele>
        <time>2014-03-14T12:28:20Z</time>
      </trkpt>
      <trkpt lat="42.98107" lon="0.88433">
        <ele>1159.817</ele>
        <time>2014-03-14T12:28:22Z</time>
      </trkpt>
      <trkpt lat="42.98109" lon="0.88443">
        <ele>1158.418</ele>
        <time>2014-03-14T12:28:23Z</time>
      </trkpt>
      <trkpt lat="42.98112" lon="0.88452">
        <ele>1156.918</ele>
        <time>2014-03-14T12:28:24Z</time>
      </trkpt>
      <trkpt lat="42.98112" lon="0.88452">
        <ele>1155.626</ele>
        <time>2014-03-14T12:28:24Z</time>
      </trkpt>
      <trkpt lat="42.98117" lon="0.8847">
        <ele>1154.41</ele>
        <time>2014-03-14T12:28:26Z</time>
      </trkpt>
      <trkpt lat="42.98119" lon="0.88479">
        <ele>1152.929</ele>
        <time>2014-03-14T12:28:27Z</time>
      </trkpt>
      <trkpt lat="42.98121" lon="0.88488">
        <ele>1151.391</ele>
        <time>2014-03-14T12:28:28Z</time>
      </trkpt>
      <trkpt lat="42.98123" lon="0.88497">
        <ele>1149.829</ele>
        <time>2014-03-14T12:28:29Z</time>
      </trkpt>
      <trkpt lat="42.98125" lon="0.88506">
        <ele>1148.34</ele>
        <time>2014-03-14T12:28:30Z</time>
      </trkpt>
      <trkpt lat="42.98127" lon="0.88515">
        <ele>1146.585</ele>
        <time>2014-03-14T12:28:31Z</time>
      </trkpt>
      <trkpt lat="42.98128" lon="0.88525">
        <ele>1144.969</ele>
        <time>2014-03-14T12:28:32Z</time>
      </trkpt>
      <trkpt lat="42.9813" lon="0.88534">
        <ele>1143.668</ele>
        <time>2014-03-14T12:28:33Z</time>
      </trkpt>
      <trkpt lat="42.98132" lon="0.88544">
        <ele>1142.131</ele>
        <time>2014-03-14T12:28:34Z</time>
      </trkpt>
      <trkpt lat="42.98134" lon="0.88553">
        <ele>1141.066</ele>
        <time>2014-03-14T12:28:35Z</time>
      </trkpt>
      <trkpt lat="42.98135" lon="0.88562">
        <ele>1140.061</ele>
        <time>2014-03-14T12:28:36Z</time>
      </trkpt>
      <trkpt lat="42.98137" lon="0.88571">
        <ele>1138.834</ele>
        <time>2014-03-14T12:28:37Z</time>
      </trkpt>
      <trkpt lat="42.98138" lon="0.8858">
        <ele>1137.839</ele>
        <time>2014-03-14T12:28:38Z</time>
      </trkpt>
      <trkpt lat="42.9814" lon="0.88588">
        <ele>1136.39</ele>
        <time>2014-03-14T12:28:39Z</time>
      </trkpt>
      <trkpt lat="42.9814" lon="0.88596">
        <ele>1134.956</ele>
        <time>2014-03-14T12:28:40Z</time>
      </trkpt>
      <trkpt lat="42.9814" lon="0.88605">
        <ele>1133.168</ele>
        <time>2014-03-14T12:28:41Z</time>
      </trkpt>
      <trkpt lat="42.98141" lon="0.88613">
        <ele>1131.173</ele>
        <time>2014-03-14T12:28:42Z</time>
      </trkpt>
      <trkpt lat="42.98143" lon="0.88621">
        <ele>1129.262</ele>
        <time>2014-03-14T12:28:43Z</time>
      </trkpt>
      <trkpt lat="42.98145" lon="0.88629">
        <ele>1127.481</ele>
        <time>2014-03-14T12:28:44Z</time>
      </trkpt>
      <trkpt lat="42.98147" lon="0.88637">
        <ele>1125.892</ele>
        <time>2014-03-14T12:28:45Z</time>
      </trkpt>
      <trkpt lat="42.98149" lon="0.88645">
        <ele>1124.45</ele>
        <time>2014-03-14T12:28:46Z</time>
      </trkpt>
      <trkpt lat="42.98151" lon="0.88652">
        <ele>1122.986</ele>
        <time>2014-03-14T12:28:47Z</time>
      </trkpt>
      <trkpt lat="42.98153" lon="0.8866">
        <ele>1121.168</ele>
        <time>2014-03-14T12:28:48Z</time>
      </trkpt>
      <trkpt lat="42.98155" lon="0.88668">
        <ele>1119.661</ele>
        <time>2014-03-14T12:28:49Z</time>
      </trkpt>
      <trkpt lat="42.98158" lon="0.88676">
        <ele>1118.327</ele>
        <time>2014-03-14T12:28:50Z</time>
      </trkpt>
      <trkpt lat="42.9816" lon="0.88684">
        <ele>1117.122</ele>
        <time>2014-03-14T12:28:51Z</time>
      </trkpt>
      <trkpt lat="42.98163" lon="0.88692">
        <ele>1116.057</ele>
        <time>2014-03-14T12:28:52Z</time>
      </trkpt>
      <trkpt lat="42.98168" lon="0.88707">
        <ele>1115.045</ele>
        <time>2014-03-14T12:28:54Z</time>
      </trkpt>
      <trkpt lat="42.98168" lon="0.88707">
        <ele>1114.173</ele>
        <time>2014-03-14T12:28:54Z</time>
      </trkpt>
      <trkpt lat="42.98173" lon="0.88722">
        <ele>1113.174</ele>
        <time>2014-03-14T12:28:56Z</time>
      </trkpt>
      <trkpt lat="42.98175" lon="0.88729">
        <ele>1112.096</ele>
        <time>2014-03-14T12:28:57Z</time>
      </trkpt>
      <trkpt lat="42.98177" lon="0.88736">
        <ele>1110.902</ele>
        <time>2014-03-14T12:28:58Z</time>
      </trkpt>
      <trkpt lat="42.98179" lon="0.88744">
        <ele>1109.518</ele>
        <time>2014-03-14T12:28:59Z</time>
      </trkpt>
      <trkpt lat="42.98182" lon="0.88752">
        <ele>1108.295</ele>
        <time>2014-03-14T12:29:00Z</time>
      </trkpt>
      <trkpt lat="42.98184" lon="0.88761">
        <ele>1107.22</ele>
        <time>2014-03-14T12:29:01Z</time>
      </trkpt>
      <trkpt lat="42.98186" lon="0.88769">
        <ele>1106.155</ele>
        <time>2014-03-14T12:29:02Z</time>
      </trkpt>
      <trkpt lat="42.98187" lon="0.88777">
        <ele>1104.916</ele>
        <time>2014-03-14T12:29:03Z</time>
      </trkpt>
      <trkpt lat="42.98189" lon="0.88786">
        <ele>1102.961</ele>
        <time>2014-03-14T12:29:04Z</time>
      </trkpt>
      <trkpt lat="42.9819" lon="0.88797">
        <ele>1101.137</ele>
        <time>2014-03-14T12:29:05Z</time>
      </trkpt>
      <trkpt lat="42.98192" lon="0.88807">
        <ele>1099.389</ele>
        <time>2014-03-14T12:29:06Z</time>
      </trkpt>
      <trkpt lat="42.98194" lon="0.88817">
        <ele>1098.079</ele>
        <time>2014-03-14T12:29:07Z</time>
      </trkpt>
      <trkpt lat="42.98196" lon="0.88827">
        <ele>1097.165</ele>
        <time>2014-03-14T12:29:08Z</time>
      </trkpt>
      <trkpt lat="42.98199" lon="0.88835">
        <ele>1095.799</ele>
        <time>2014-03-14T12:29:09Z</time>
      </trkpt>
      <trkpt lat="42.98201" lon="0.88843">
        <ele>1094.232</ele>
        <time>2014-03-14T12:29:10Z</time>
      </trkpt>
      <trkpt lat="42.98204" lon="0.88852">
        <ele>1091.911</ele>
        <time>2014-03-14T12:29:11Z</time>
      </trkpt>
      <trkpt lat="42.98208" lon="0.88861">
        <ele>1089.633</ele>
        <time>2014-03-14T12:29:12Z</time>
      </trkpt>
      <trkpt lat="42.98211" lon="0.88871">
        <ele>1087.566</ele>
        <time>2014-03-14T12:29:13Z</time>
      </trkpt>
      <trkpt lat="42.98215" lon="0.88881">
        <ele>1085.736</ele>
        <time>2014-03-14T12:29:14Z</time>
      </trkpt>
      <trkpt lat="42.98218" lon="0.88889">
        <ele>1083.96</ele>
        <time>2014-03-14T12:29:15Z</time>
      </trkpt>
      <trkpt lat="42.98221" lon="0.88897">
        <ele>1082.397</ele>
        <time>2014-03-14T12:29:16Z</time>
      </trkpt>
      <trkpt lat="42.98225" lon="0.88906">
        <ele>1080.547</ele>
        <time>2014-03-14T12:29:17Z</time>
      </trkpt>
      <trkpt lat="42.98229" lon="0.88914">
        <ele>1078.731</ele>
        <time>2014-03-14T12:29:18Z</time>
      </trkpt>
      <trkpt lat="42.98233" lon="0.88923">
        <ele>1077.544</ele>
        <time>2014-03-14T12:29:19Z</time>
      </trkpt>
      <trkpt lat="42.98237" lon="0.88932">
        <ele>1076.655</ele>
        <time>2014-03-14T12:29:20Z</time>
      </trkpt>
      <trkpt lat="42.9824" lon="0.88941">
        <ele>1075.914</ele>
        <time>2014-03-14T12:29:21Z</time>
      </trkpt>
      <trkpt lat="42.98243" lon="0.8895">
        <ele>1075.43</ele>
        <time>2014-03-14T12:29:22Z</time>
      </trkpt>
      <trkpt lat="42.98245" lon="0.8896">
        <ele>1075.24</ele>
        <time>2014-03-14T12:29:23Z</time>
      </trkpt>
      <trkpt lat="42.98247" lon="0.88968">
        <ele>1075.225</ele>
        <time>2014-03-14T12:29:24Z</time>
      </trkpt>
      <trkpt lat="42.98249" lon="0.88975">
        <ele>1075.051</ele>
        <time>2014-03-14T12:29:25Z</time>
      </trkpt>
      <trkpt lat="42.98251" lon="0.88983">
        <ele>1074.573</ele>
        <time>2014-03-14T12:29:26Z</time>
      </trkpt>
      <trkpt lat="42.98253" lon="0.88991">
        <ele>1073.872</ele>
        <time>2014-03-14T12:29:27Z</time>
      </trkpt>
      <trkpt lat="42.98256" lon="0.89">
        <ele>1072.84</ele>
        <time>2014-03-14T12:29:28Z</time>
      </trkpt>
      <trkpt lat="42.98258" lon="0.89009">
        <ele>1072.003</ele>
        <time>2014-03-14T12:29:29Z</time>
      </trkpt>
      <trkpt lat="42.98263" lon="0.89026">
        <ele>1071.332</ele>
        <time>2014-03-14T12:29:31Z</time>
      </trkpt>
      <trkpt lat="42.98265" lon="0.89035">
        <ele>1070.599</ele>
        <time>2014-03-14T12:29:32Z</time>
      </trkpt>
      <trkpt lat="42.98265" lon="0.89035">
        <ele>1069.587</ele>
        <time>2014-03-14T12:29:32Z</time>
      </trkpt>
      <trkpt lat="42.9827" lon="0.89052">
        <ele>1068.221</ele>
        <time>2014-03-14T12:29:34Z</time>
      </trkpt>
      <trkpt lat="42.9827" lon="0.89052">
        <ele>1066.73</ele>
        <time>2014-03-14T12:29:34Z</time>
      </trkpt>
      <trkpt lat="42.98274" lon="0.89071">
        <ele>1065.483</ele>
        <time>2014-03-14T12:29:36Z</time>
      </trkpt>
      <trkpt lat="42.98276" lon="0.89081">
        <ele>1064.117</ele>
        <time>2014-03-14T12:29:37Z</time>
      </trkpt>
      <trkpt lat="42.98278" lon="0.8909">
        <ele>1063.293</ele>
        <time>2014-03-14T12:29:38Z</time>
      </trkpt>
      <trkpt lat="42.9828" lon="0.89099">
        <ele>1062.255</ele>
        <time>2014-03-14T12:29:39Z</time>
      </trkpt>
      <trkpt lat="42.98282" lon="0.89107">
        <ele>1060.964</ele>
        <time>2014-03-14T12:29:40Z</time>
      </trkpt>
      <trkpt lat="42.98284" lon="0.89117">
        <ele>1059.562</ele>
        <time>2014-03-14T12:29:41Z</time>
      </trkpt>
      <trkpt lat="42.98286" lon="0.89127">
        <ele>1058.302</ele>
        <time>2014-03-14T12:29:42Z</time>
      </trkpt>
      <trkpt lat="42.98288" lon="0.89136">
        <ele>1057.343</ele>
        <time>2014-03-14T12:29:43Z</time>
      </trkpt>
      <trkpt lat="42.9829" lon="0.89146">
        <ele>1056.48</ele>
        <time>2014-03-14T12:29:44Z</time>
      </trkpt>
      <trkpt lat="42.98292" lon="0.89155">
        <ele>1055.331</ele>
        <time>2014-03-14T12:29:45Z</time>
      </trkpt>
      <trkpt lat="42.98293" lon="0.89164">
        <ele>1054.118</ele>
        <time>2014-03-14T12:29:46Z</time>
      </trkpt>
      <trkpt lat="42.98295" lon="0.89174">
        <ele>1052.877</ele>
        <time>2014-03-14T12:29:47Z</time>
      </trkpt>
      <trkpt lat="42.98298" lon="0.89184">
        <ele>1051.85</ele>
        <time>2014-03-14T12:29:48Z</time>
      </trkpt>
      <trkpt lat="42.98301" lon="0.89193">
        <ele>1051.261</ele>
        <time>2014-03-14T12:29:49Z</time>
      </trkpt>
      <trkpt lat="42.98303" lon="0.89201">
        <ele>1050.71</ele>
        <time>2014-03-14T12:29:50Z</time>
      </trkpt>
      <trkpt lat="42.98305" lon="0.8921">
        <ele>1049.922</ele>
        <time>2014-03-14T12:29:51Z</time>
      </trkpt>
      <trkpt lat="42.98307" lon="0.8922">
        <ele>1048.798</ele>
        <time>2014-03-14T12:29:52Z</time>
      </trkpt>
      <trkpt lat="42.98308" lon="0.8923">
        <ele>1047.481</ele>
        <time>2014-03-14T12:29:53Z</time>
      </trkpt>
      <trkpt lat="42.98308" lon="0.8923">
        <ele>1045.947</ele>
        <time>2014-03-14T12:29:53Z</time>
      </trkpt>
      <trkpt lat="42.9831" lon="0.89251">
        <ele>1044.402</ele>
        <time>2014-03-14T12:29:55Z</time>
      </trkpt>
      <trkpt lat="42.98311" lon="0.89261">
        <ele>1042.559</ele>
        <time>2014-03-14T12:29:56Z</time>
      </trkpt>
      <trkpt lat="42.98314" lon="0.89281">
        <ele>1040.052</ele>
        <time>2014-03-14T12:29:58Z</time>
      </trkpt>
      <trkpt lat="42.98315" lon="0.8929">
        <ele>1037.657</ele>
        <time>2014-03-14T12:29:59Z</time>
      </trkpt>
      <trkpt lat="42.98315" lon="0.8929">
        <ele>1035.588</ele>
        <time>2014-03-14T12:29:59Z</time>
      </trkpt>
      <trkpt lat="42.98317" lon="0.89309">
        <ele>1033.793</ele>
        <time>2014-03-14T12:30:01Z</time>
      </trkpt>
      <trkpt lat="42.98318" lon="0.89318">
        <ele>1032.16</ele>
        <time>2014-03-14T12:30:02Z</time>
      </trkpt>
      <trkpt lat="42.98319" lon="0.89328">
        <ele>1030.711</ele>
        <time>2014-03-14T12:30:03Z</time>
      </trkpt>
      <trkpt lat="42.9832" lon="0.89337">
        <ele>1028.572</ele>
        <time>2014-03-14T12:30:04Z</time>
      </trkpt>
      <trkpt lat="42.98319" lon="0.89347">
        <ele>1026.65</ele>
        <time>2014-03-14T12:30:05Z</time>
      </trkpt>
      <trkpt lat="42.98319" lon="0.89358">
        <ele>1024.172</ele>
        <time>2014-03-14T12:30:06Z</time>
      </trkpt>
      <trkpt lat="42.98319" lon="0.89369">
        <ele>1021.585</ele>
        <time>2014-03-14T12:30:07Z</time>
      </trkpt>
      <trkpt lat="42.9832" lon="0.8938">
        <ele>1019.016</ele>
        <time>2014-03-14T12:30:08Z</time>
      </trkpt>
      <trkpt lat="42.9832" lon="0.89391">
        <ele>1016.947</ele>
        <time>2014-03-14T12:30:09Z</time>
      </trkpt>
      <trkpt lat="42.9832" lon="0.89401">
        <ele>1014.439</ele>
        <time>2014-03-14T12:30:10Z</time>
      </trkpt>
      <trkpt lat="42.9832" lon="0.89412">
        <ele>1012.378</ele>
        <time>2014-03-14T12:30:11Z</time>
      </trkpt>
      <trkpt lat="42.98321" lon="0.89423">
        <ele>1010.385</ele>
        <time>2014-03-14T12:30:12Z</time>
      </trkpt>
      <trkpt lat="42.98321" lon="0.89434">
        <ele>1008.484</ele>
        <time>2014-03-14T12:30:13Z</time>
      </trkpt>
      <trkpt lat="42.98322" lon="0.89445">
        <ele>1006.635</ele>
        <time>2014-03-14T12:30:14Z</time>
      </trkpt>
      <trkpt lat="42.98323" lon="0.89455">
        <ele>1005.129</ele>
        <time>2014-03-14T12:30:15Z</time>
      </trkpt>
      <trkpt lat="42.98324" lon="0.89466">
        <ele>1003.853</ele>
        <time>2014-03-14T12:30:16Z</time>
      </trkpt>
      <trkpt lat="42.98325" lon="0.89476">
        <ele>1002.48</ele>
        <time>2014-03-14T12:30:17Z</time>
      </trkpt>
      <trkpt lat="42.98326" lon="0.89486">
        <ele>1000.873</ele>
        <time>2014-03-14T12:30:18Z</time>
      </trkpt>
      <trkpt lat="42.98326" lon="0.89497">
        <ele>999.282</ele>
        <time>2014-03-14T12:30:19Z</time>
      </trkpt>
      <trkpt lat="42.98327" lon="0.89507">
        <ele>997.756</ele>
        <time>2014-03-14T12:30:20Z</time>
      </trkpt>
      <trkpt lat="42.98328" lon="0.89517">
        <ele>996.297</ele>
        <time>2014-03-14T12:30:21Z</time>
      </trkpt>
      <trkpt lat="42.98329" lon="0.89527">
        <ele>995.115</ele>
        <time>2014-03-14T12:30:22Z</time>
      </trkpt>
      <trkpt lat="42.9833" lon="0.89537">
        <ele>993.558</ele>
        <time>2014-03-14T12:30:23Z</time>
      </trkpt>
      <trkpt lat="42.98331" lon="0.89546">
        <ele>992.056</ele>
        <time>2014-03-14T12:30:24Z</time>
      </trkpt>
      <trkpt lat="42.98331" lon="0.89556">
        <ele>990.511</ele>
        <time>2014-03-14T12:30:25Z</time>
      </trkpt>
      <trkpt lat="42.98332" lon="0.89565">
        <ele>989.268</ele>
        <time>2014-03-14T12:30:26Z</time>
      </trkpt>
      <trkpt lat="42.98333" lon="0.89575">
        <ele>988.035</ele>
        <time>2014-03-14T12:30:27Z</time>
      </trkpt>
      <trkpt lat="42.98335" lon="0.89585">
        <ele>986.925</ele>
        <time>2014-03-14T12:30:28Z</time>
      </trkpt>
      <trkpt lat="42.98335" lon="0.89595">
        <ele>986.125</ele>
        <time>2014-03-14T12:30:29Z</time>
      </trkpt>
      <trkpt lat="42.98336" lon="0.89604">
        <ele>984.873</ele>
        <time>2014-03-14T12:30:30Z</time>
      </trkpt>
      <trkpt lat="42.98337" lon="0.89613">
        <ele>983.677</ele>
        <time>2014-03-14T12:30:31Z</time>
      </trkpt>
      <trkpt lat="42.98339" lon="0.89633">
        <ele>981.908</ele>
        <time>2014-03-14T12:30:33Z</time>
      </trkpt>
      <trkpt lat="42.9834" lon="0.89642">
        <ele>980.358</ele>
        <time>2014-03-14T12:30:34Z</time>
      </trkpt>
      <trkpt lat="42.9834" lon="0.89642">
        <ele>978.815</ele>
        <time>2014-03-14T12:30:34Z</time>
      </trkpt>
      <trkpt lat="42.98341" lon="0.89661">
        <ele>977.187</ele>
        <time>2014-03-14T12:30:36Z</time>
      </trkpt>
      <trkpt lat="42.98342" lon="0.89671">
        <ele>975.579</ele>
        <time>2014-03-14T12:30:37Z</time>
      </trkpt>
      <trkpt lat="42.98342" lon="0.89681">
        <ele>973.605</ele>
        <time>2014-03-14T12:30:38Z</time>
      </trkpt>
      <trkpt lat="42.98342" lon="0.89691">
        <ele>971.773</ele>
        <time>2014-03-14T12:30:39Z</time>
      </trkpt>
      <trkpt lat="42.98343" lon="0.89701">
        <ele>970.015</ele>
        <time>2014-03-14T12:30:40Z</time>
      </trkpt>
      <trkpt lat="42.98343" lon="0.8971">
        <ele>968.351</ele>
        <time>2014-03-14T12:30:41Z</time>
      </trkpt>
      <trkpt lat="42.98344" lon="0.8972">
        <ele>966.697</ele>
        <time>2014-03-14T12:30:42Z</time>
      </trkpt>
      <trkpt lat="42.98345" lon="0.8973">
        <ele>965.055</ele>
        <time>2014-03-14T12:30:43Z</time>
      </trkpt>
      <trkpt lat="42.98346" lon="0.89739">
        <ele>963.444</ele>
        <time>2014-03-14T12:30:44Z</time>
      </trkpt>
      <trkpt lat="42.98347" lon="0.89748">
        <ele>961.865</ele>
        <time>2014-03-14T12:30:45Z</time>
      </trkpt>
      <trkpt lat="42.98349" lon="0.89756">
        <ele>960.044</ele>
        <time>2014-03-14T12:30:46Z</time>
      </trkpt>
      <trkpt lat="42.98352" lon="0.89764">
        <ele>958.426</ele>
        <time>2014-03-14T12:30:47Z</time>
      </trkpt>
      <trkpt lat="42.98355" lon="0.89773">
        <ele>956.177</ele>
        <time>2014-03-14T12:30:48Z</time>
      </trkpt>
      <trkpt lat="42.98359" lon="0.89781">
        <ele>954.287</ele>
        <time>2014-03-14T12:30:49Z</time>
      </trkpt>
      <trkpt lat="42.98363" lon="0.89788">
        <ele>952.804</ele>
        <time>2014-03-14T12:30:50Z</time>
      </trkpt>
      <trkpt lat="42.98367" lon="0.89796">
        <ele>951.099</ele>
        <time>2014-03-14T12:30:51Z</time>
      </trkpt>
      <trkpt lat="42.98371" lon="0.89802">
        <ele>949.569</ele>
        <time>2014-03-14T12:30:52Z</time>
      </trkpt>
      <trkpt lat="42.98376" lon="0.89808">
        <ele>948.059</ele>
        <time>2014-03-14T12:30:53Z</time>
      </trkpt>
      <trkpt lat="42.98381" lon="0.89814">
        <ele>946.719</ele>
        <time>2014-03-14T12:30:54Z</time>
      </trkpt>
      <trkpt lat="42.98387" lon="0.8982">
        <ele>945.384</ele>
        <time>2014-03-14T12:30:55Z</time>
      </trkpt>
      <trkpt lat="42.98392" lon="0.89825">
        <ele>944.004</ele>
        <time>2014-03-14T12:30:56Z</time>
      </trkpt>
      <trkpt lat="42.98398" lon="0.8983">
        <ele>942.699</ele>
        <time>2014-03-14T12:30:57Z</time>
      </trkpt>
      <trkpt lat="42.98403" lon="0.89835">
        <ele>940.78</ele>
        <time>2014-03-14T12:30:58Z</time>
      </trkpt>
      <trkpt lat="42.9841" lon="0.89839">
        <ele>939.285</ele>
        <time>2014-03-14T12:30:59Z</time>
      </trkpt>
      <trkpt lat="42.98416" lon="0.89844">
        <ele>937.331</ele>
        <time>2014-03-14T12:31:00Z</time>
      </trkpt>
      <trkpt lat="42.98422" lon="0.89848">
        <ele>935.616</ele>
        <time>2014-03-14T12:31:01Z</time>
      </trkpt>
      <trkpt lat="42.98428" lon="0.89852">
        <ele>933.862</ele>
        <time>2014-03-14T12:31:02Z</time>
      </trkpt>
      <trkpt lat="42.98434" lon="0.89856">
        <ele>931.586</ele>
        <time>2014-03-14T12:31:03Z</time>
      </trkpt>
      <trkpt lat="42.9844" lon="0.8986">
        <ele>929.216</ele>
        <time>2014-03-14T12:31:04Z</time>
      </trkpt>
      <trkpt lat="42.98452" lon="0.8987">
        <ele>927.084</ele>
        <time>2014-03-14T12:31:06Z</time>
      </trkpt>
      <trkpt lat="42.98459" lon="0.89875">
        <ele>925.025</ele>
        <time>2014-03-14T12:31:07Z</time>
      </trkpt>
      <trkpt lat="42.98465" lon="0.8988">
        <ele>923.089</ele>
        <time>2014-03-14T12:31:08Z</time>
      </trkpt>
      <trkpt lat="42.98471" lon="0.89885">
        <ele>921.066</ele>
        <time>2014-03-14T12:31:09Z</time>
      </trkpt>
      <trkpt lat="42.98478" lon="0.8989">
        <ele>919.024</ele>
        <time>2014-03-14T12:31:10Z</time>
      </trkpt>
      <trkpt lat="42.98484" lon="0.89896">
        <ele>916.78</ele>
        <time>2014-03-14T12:31:11Z</time>
      </trkpt>
      <trkpt lat="42.9849" lon="0.89902">
        <ele>915.088</ele>
        <time>2014-03-14T12:31:12Z</time>
      </trkpt>
      <trkpt lat="42.98495" lon="0.89907">
        <ele>913.091</ele>
        <time>2014-03-14T12:31:13Z</time>
      </trkpt>
      <trkpt lat="42.985" lon="0.89913">
        <ele>911.195</ele>
        <time>2014-03-14T12:31:14Z</time>
      </trkpt>
      <trkpt lat="42.98506" lon="0.89918">
        <ele>908.943</ele>
        <time>2014-03-14T12:31:15Z</time>
      </trkpt>
      <trkpt lat="42.98511" lon="0.89924">
        <ele>906.531</ele>
        <time>2014-03-14T12:31:16Z</time>
      </trkpt>
      <trkpt lat="42.98517" lon="0.8993">
        <ele>904.511</ele>
        <time>2014-03-14T12:31:17Z</time>
      </trkpt>
      <trkpt lat="42.98522" lon="0.89936">
        <ele>902.4</ele>
        <time>2014-03-14T12:31:18Z</time>
      </trkpt>
      <trkpt lat="42.98527" lon="0.89942">
        <ele>900.599</ele>
        <time>2014-03-14T12:31:19Z</time>
      </trkpt>
      <trkpt lat="42.98531" lon="0.89948">
        <ele>898.683</ele>
        <time>2014-03-14T12:31:20Z</time>
      </trkpt>
      <trkpt lat="42.98536" lon="0.89954">
        <ele>896.427</ele>
        <time>2014-03-14T12:31:21Z</time>
      </trkpt>
      <trkpt lat="42.98539" lon="0.89962">
        <ele>893.78</ele>
        <time>2014-03-14T12:31:22Z</time>
      </trkpt>
      <trkpt lat="42.98543" lon="0.89971">
        <ele>891.076</ele>
        <time>2014-03-14T12:31:23Z</time>
      </trkpt>
      <trkpt lat="42.98546" lon="0.89981">
        <ele>888.299</ele>
        <time>2014-03-14T12:31:24Z</time>
      </trkpt>
      <trkpt lat="42.98549" lon="0.89991">
        <ele>885.082</ele>
        <time>2014-03-14T12:31:25Z</time>
      </trkpt>
      <trkpt lat="42.98551" lon="0.90001">
        <ele>882.714</ele>
        <time>2014-03-14T12:31:26Z</time>
      </trkpt>
      <trkpt lat="42.98553" lon="0.90011">
        <ele>880.21</ele>
        <time>2014-03-14T12:31:27Z</time>
      </trkpt>
      <trkpt lat="42.98555" lon="0.90021">
        <ele>877.829</ele>
        <time>2014-03-14T12:31:28Z</time>
      </trkpt>
      <trkpt lat="42.98556" lon="0.9003">
        <ele>875.587</ele>
        <time>2014-03-14T12:31:29Z</time>
      </trkpt>
      <trkpt lat="42.98557" lon="0.9004">
        <ele>872.445</ele>
        <time>2014-03-14T12:31:30Z</time>
      </trkpt>
      <trkpt lat="42.98559" lon="0.90051">
        <ele>869.918</ele>
        <time>2014-03-14T12:31:31Z</time>
      </trkpt>
      <trkpt lat="42.98561" lon="0.90062">
        <ele>868.007</ele>
        <time>2014-03-14T12:31:32Z</time>
      </trkpt>
      <trkpt lat="42.98563" lon="0.90073">
        <ele>866.182</ele>
        <time>2014-03-14T12:31:33Z</time>
      </trkpt>
      <trkpt lat="42.98564" lon="0.90082">
        <ele>864.618</ele>
        <time>2014-03-14T12:31:34Z</time>
      </trkpt>
      <trkpt lat="42.98565" lon="0.90091">
        <ele>862.292</ele>
        <time>2014-03-14T12:31:35Z</time>
      </trkpt>
      <trkpt lat="42.98566" lon="0.90101">
        <ele>859.629</ele>
        <time>2014-03-14T12:31:36Z</time>
      </trkpt>
      <trkpt lat="42.98568" lon="0.90112">
        <ele>857.373</ele>
        <time>2014-03-14T12:31:37Z</time>
      </trkpt>
      <trkpt lat="42.98569" lon="0.90122">
        <ele>855.364</ele>
        <time>2014-03-14T12:31:38Z</time>
      </trkpt>
      <trkpt lat="42.9857" lon="0.90133">
        <ele>853.494</ele>
        <time>2014-03-14T12:31:39Z</time>
      </trkpt>
      <trkpt lat="42.98569" lon="0.90152">
        <ele>851.17</ele>
        <time>2014-03-14T12:31:41Z</time>
      </trkpt>
      <trkpt lat="42.98568" lon="0.90162">
        <ele>848.925</ele>
        <time>2014-03-14T12:31:42Z</time>
      </trkpt>
      <trkpt lat="42.98567" lon="0.90173">
        <ele>846.715</ele>
        <time>2014-03-14T12:31:43Z</time>
      </trkpt>
      <trkpt lat="42.98566" lon="0.90183">
        <ele>844.026</ele>
        <time>2014-03-14T12:31:44Z</time>
      </trkpt>
      <trkpt lat="42.98567" lon="0.90192">
        <ele>841.719</ele>
        <time>2014-03-14T12:31:45Z</time>
      </trkpt>
      <trkpt lat="42.98568" lon="0.90201">
        <ele>839.351</ele>
        <time>2014-03-14T12:31:46Z</time>
      </trkpt>
      <trkpt lat="42.98569" lon="0.9021">
        <ele>836.791</ele>
        <time>2014-03-14T12:31:47Z</time>
      </trkpt>
      <trkpt lat="42.98572" lon="0.90218">
        <ele>834.401</ele>
        <time>2014-03-14T12:31:48Z</time>
      </trkpt>
      <trkpt lat="42.98574" lon="0.90226">
        <ele>831.018</ele>
        <time>2014-03-14T12:31:49Z</time>
      </trkpt>
      <trkpt lat="42.98576" lon="0.90234">
        <ele>827.972</ele>
        <time>2014-03-14T12:31:50Z</time>
      </trkpt>
      <trkpt lat="42.98579" lon="0.90243">
        <ele>824.931</ele>
        <time>2014-03-14T12:31:51Z</time>
      </trkpt>
      <trkpt lat="42.98582" lon="0.90251">
        <ele>822.191</ele>
        <time>2014-03-14T12:31:52Z</time>
      </trkpt>
      <trkpt lat="42.98585" lon="0.90259">
        <ele>819.545</ele>
        <time>2014-03-14T12:31:53Z</time>
      </trkpt>
      <trkpt lat="42.98588" lon="0.90268">
        <ele>816.332</ele>
        <time>2014-03-14T12:31:54Z</time>
      </trkpt>
      <trkpt lat="42.98591" lon="0.90277">
        <ele>813.595</ele>
        <time>2014-03-14T12:31:55Z</time>
      </trkpt>
      <trkpt lat="42.98594" lon="0.90286">
        <ele>810.857</ele>
        <time>2014-03-14T12:31:56Z</time>
      </trkpt>
      <trkpt lat="42.98597" lon="0.90295">
        <ele>808.577</ele>
        <time>2014-03-14T12:31:57Z</time>
      </trkpt>
      <trkpt lat="42.98601" lon="0.90304">
        <ele>806.304</ele>
        <time>2014-03-14T12:31:58Z</time>
      </trkpt>
      <trkpt lat="42.98603" lon="0.90312">
        <ele>803.949</ele>
        <time>2014-03-14T12:31:59Z</time>
      </trkpt>
      <trkpt lat="42.98606" lon="0.90321">
        <ele>801.833</ele>
        <time>2014-03-14T12:32:00Z</time>
      </trkpt>
      <trkpt lat="42.9861" lon="0.90339">
        <ele>799.357</ele>
        <time>2014-03-14T12:32:02Z</time>
      </trkpt>
      <trkpt lat="42.98613" lon="0.90348">
        <ele>796.959</ele>
        <time>2014-03-14T12:32:03Z</time>
      </trkpt>
      <trkpt lat="42.98615" lon="0.90357">
        <ele>793.551</ele>
        <time>2014-03-14T12:32:04Z</time>
      </trkpt>
      <trkpt lat="42.98615" lon="0.90357">
        <ele>790.767</ele>
        <time>2014-03-14T12:32:04Z</time>
      </trkpt>
      <trkpt lat="42.9862" lon="0.90378">
        <ele>787.813</ele>
        <time>2014-03-14T12:32:06Z</time>
      </trkpt>
      <trkpt lat="42.98621" lon="0.90388">
        <ele>785.382</ele>
        <time>2014-03-14T12:32:07Z</time>
      </trkpt>
      <trkpt lat="42.98623" lon="0.90398">
        <ele>782.825</ele>
        <time>2014-03-14T12:32:08Z</time>
      </trkpt>
      <trkpt lat="42.98625" lon="0.90408">
        <ele>780.781</ele>
        <time>2014-03-14T12:32:09Z</time>
      </trkpt>
      <trkpt lat="42.98628" lon="0.90417">
        <ele>777.972</ele>
        <time>2014-03-14T12:32:10Z</time>
      </trkpt>
      <trkpt lat="42.98631" lon="0.90427">
        <ele>775.389</ele>
        <time>2014-03-14T12:32:11Z</time>
      </trkpt>
      <trkpt lat="42.98634" lon="0.90436">
        <ele>772.611</ele>
        <time>2014-03-14T12:32:12Z</time>
      </trkpt>
      <trkpt lat="42.98637" lon="0.90445">
        <ele>769.626</ele>
        <time>2014-03-14T12:32:13Z</time>
      </trkpt>
      <trkpt lat="42.9864" lon="0.90454">
        <ele>766.603</ele>
        <time>2014-03-14T12:32:14Z</time>
      </trkpt>
      <trkpt lat="42.98643" lon="0.90464">
        <ele>764.078</ele>
        <time>2014-03-14T12:32:15Z</time>
      </trkpt>
      <trkpt lat="42.98647" lon="0.90472">
        <ele>760.908</ele>
        <time>2014-03-14T12:32:16Z</time>
      </trkpt>
      <trkpt lat="42.9865" lon="0.9048">
        <ele>758.213</ele>
        <time>2014-03-14T12:32:17Z</time>
      </trkpt>
      <trkpt lat="42.98654" lon="0.90487">
        <ele>755.539</ele>
        <time>2014-03-14T12:32:18Z</time>
      </trkpt>
      <trkpt lat="42.98658" lon="0.90495">
        <ele>752.868</ele>
        <time>2014-03-14T12:32:19Z</time>
      </trkpt>
      <trkpt lat="42.98662" lon="0.90502">
        <ele>750.168</ele>
        <time>2014-03-14T12:32:20Z</time>
      </trkpt>
      <trkpt lat="42.98666" lon="0.9051">
        <ele>747.524</ele>
        <time>2014-03-14T12:32:21Z</time>
      </trkpt>
      <trkpt lat="42.9867" lon="0.90518">
        <ele>744.579</ele>
        <time>2014-03-14T12:32:22Z</time>
      </trkpt>
      <trkpt lat="42.98674" lon="0.90526">
        <ele>741.909</ele>
        <time>2014-03-14T12:32:23Z</time>
      </trkpt>
      <trkpt lat="42.98678" lon="0.90534">
        <ele>739.498</ele>
        <time>2014-03-14T12:32:24Z</time>
      </trkpt>
      <trkpt lat="42.98687" lon="0.90552">
        <ele>736.873</ele>
        <time>2014-03-14T12:32:26Z</time>
      </trkpt>
      <trkpt lat="42.98691" lon="0.9056">
        <ele>734.724</ele>
        <time>2014-03-14T12:32:27Z</time>
      </trkpt>
      <trkpt lat="42.98695" lon="0.90568">
        <ele>732.744</ele>
        <time>2014-03-14T12:32:28Z</time>
      </trkpt>
      <trkpt lat="42.98699" lon="0.90575">
        <ele>730.389</ele>
        <time>2014-03-14T12:32:29Z</time>
      </trkpt>
      <trkpt lat="42.98699" lon="0.90575">
        <ele>727.932</ele>
        <time>2014-03-14T12:32:29Z</time>
      </trkpt>
      <trkpt lat="42.98709" lon="0.9059">
        <ele>725.766</ele>
        <time>2014-03-14T12:32:31Z</time>
      </trkpt>
      <trkpt lat="42.98709" lon="0.9059">
        <ele>723.447</ele>
        <time>2014-03-14T12:32:31Z</time>
      </trkpt>
      <trkpt lat="42.98718" lon="0.90604">
        <ele>721.161</ele>
        <time>2014-03-14T12:32:33Z</time>
      </trkpt>
      <trkpt lat="42.98723" lon="0.90611">
        <ele>718.865</ele>
        <time>2014-03-14T12:32:34Z</time>
      </trkpt>
      <trkpt lat="42.98728" lon="0.90618">
        <ele>716.132</ele>
        <time>2014-03-14T12:32:35Z</time>
      </trkpt>
      <trkpt lat="42.98732" lon="0.90626">
        <ele>713.966</ele>
        <time>2014-03-14T12:32:36Z</time>
      </trkpt>
      <trkpt lat="42.98737" lon="0.90633">
        <ele>711.016</ele>
        <time>2014-03-14T12:32:37Z</time>
      </trkpt>
      <trkpt lat="42.98742" lon="0.9064">
        <ele>708.478</ele>
        <time>2014-03-14T12:32:38Z</time>
      </trkpt>
      <trkpt lat="42.98742" lon="0.9064">
        <ele>706.033</ele>
        <time>2014-03-14T12:32:38Z</time>
      </trkpt>
      <trkpt lat="42.98753" lon="0.90653">
        <ele>703.97</ele>
        <time>2014-03-14T12:32:40Z</time>
      </trkpt>
      <trkpt lat="42.98758" lon="0.9066">
        <ele>701.885</ele>
        <time>2014-03-14T12:32:41Z</time>
      </trkpt>
      <trkpt lat="42.98758" lon="0.9066">
        <ele>700.31</ele>
        <time>2014-03-14T12:32:41Z</time>
      </trkpt>
      <trkpt lat="42.98758" lon="0.9066">
        <ele>698.409</ele>
        <time>2014-03-14T12:32:41Z</time>
      </trkpt>
      <trkpt lat="42.98774" lon="0.90679">
        <ele>695.944</ele>
        <time>2014-03-14T12:32:44Z</time>
      </trkpt>
      <trkpt lat="42.9878" lon="0.90685">
        <ele>693.651</ele>
        <time>2014-03-14T12:32:45Z</time>
      </trkpt>
      <trkpt lat="42.98786" lon="0.9069">
        <ele>691.452</ele>
        <time>2014-03-14T12:32:46Z</time>
      </trkpt>
      <trkpt lat="42.98792" lon="0.90696">
        <ele>689.606</ele>
        <time>2014-03-14T12:32:47Z</time>
      </trkpt>
      <trkpt lat="42.98798" lon="0.90703">
        <ele>688.325</ele>
        <time>2014-03-14T12:32:48Z</time>
      </trkpt>
      <trkpt lat="42.98803" lon="0.90709">
        <ele>686.794</ele>
        <time>2014-03-14T12:32:49Z</time>
      </trkpt>
      <trkpt lat="42.98808" lon="0.90715">
        <ele>685.309</ele>
        <time>2014-03-14T12:32:50Z</time>
      </trkpt>
      <trkpt lat="42.98812" lon="0.90722">
        <ele>683.669</ele>
        <time>2014-03-14T12:32:51Z</time>
      </trkpt>
      <trkpt lat="42.98818" lon="0.90729">
        <ele>682.221</ele>
        <time>2014-03-14T12:32:52Z</time>
      </trkpt>
      <trkpt lat="42.98823" lon="0.90736">
        <ele>680.924</ele>
        <time>2014-03-14T12:32:53Z</time>
      </trkpt>
      <trkpt lat="42.98829" lon="0.90743">
        <ele>680.258</ele>
        <time>2014-03-14T12:32:54Z</time>
      </trkpt>
      <trkpt lat="42.98835" lon="0.90749">
        <ele>679.995</ele>
        <time>2014-03-14T12:32:55Z</time>
      </trkpt>
      <trkpt lat="42.98839" lon="0.90754">
        <ele>679.668</ele>
        <time>2014-03-14T12:32:56Z</time>
      </trkpt>
      <trkpt lat="42.98844" lon="0.90759">
        <ele>678.861</ele>
        <time>2014-03-14T12:32:57Z</time>
      </trkpt>
      <trkpt lat="42.98848" lon="0.90765">
        <ele>677.479</ele>
        <time>2014-03-14T12:32:58Z</time>
      </trkpt>
      <trkpt lat="42.98853" lon="0.90771">
        <ele>675.939</ele>
        <time>2014-03-14T12:32:59Z</time>
      </trkpt>
      <trkpt lat="42.98859" lon="0.90778">
        <ele>674.732</ele>
        <time>2014-03-14T12:33:00Z</time>
      </trkpt>
      <trkpt lat="42.98865" lon="0.90784">
        <ele>674.169</ele>
        <time>2014-03-14T12:33:01Z</time>
      </trkpt>
      <trkpt lat="42.98871" lon="0.9079">
        <ele>673.965</ele>
        <time>2014-03-14T12:33:02Z</time>
      </trkpt>
      <trkpt lat="42.98871" lon="0.9079">
        <ele>673.826</ele>
        <time>2014-03-14T12:33:02Z</time>
      </trkpt>
      <trkpt lat="42.98871" lon="0.9079">
        <ele>673.346</ele>
        <time>2014-03-14T12:33:02Z</time>
      </trkpt>
      <trkpt lat="42.98892" lon="0.90814">
        <ele>672.748</ele>
        <time>2014-03-14T12:33:06Z</time>
      </trkpt>
      <trkpt lat="42.98892" lon="0.90814">
        <ele>672.238</ele>
        <time>2014-03-14T12:33:06Z</time>
      </trkpt>
      <trkpt lat="42.98904" lon="0.90827">
        <ele>672.041</ele>
        <time>2014-03-14T12:33:08Z</time>
      </trkpt>
      <trkpt lat="42.98909" lon="0.90832">
        <ele>672.028</ele>
        <time>2014-03-14T12:33:09Z</time>
      </trkpt>
      <trkpt lat="42.98914" lon="0.90838">
        <ele>672.081</ele>
        <time>2014-03-14T12:33:10Z</time>
      </trkpt>
      <trkpt lat="42.98919" lon="0.90845">
        <ele>672.095</ele>
        <time>2014-03-14T12:33:11Z</time>
      </trkpt>
      <trkpt lat="42.98924" lon="0.90851">
        <ele>672.084</ele>
        <time>2014-03-14T12:33:12Z</time>
      </trkpt>
      <trkpt lat="42.98929" lon="0.90858">
        <ele>672.23</ele>
        <time>2014-03-14T12:33:13Z</time>
      </trkpt>
      <trkpt lat="42.98934" lon="0.90865">
        <ele>672.479</ele>
        <time>2014-03-14T12:33:14Z</time>
      </trkpt>
      <trkpt lat="42.98939" lon="0.90871">
        <ele>672.64</ele>
        <time>2014-03-14T12:33:15Z</time>
      </trkpt>
      <trkpt lat="42.98943" lon="0.90878">
        <ele>672.728</ele>
        <time>2014-03-14T12:33:16Z</time>
      </trkpt>
      <trkpt lat="42.98948" lon="0.90885">
        <ele>672.94</ele>
        <time>2014-03-14T12:33:17Z</time>
      </trkpt>
      <trkpt lat="42.98954" lon="0.90892">
        <ele>673.421</ele>
        <time>2014-03-14T12:33:18Z</time>
      </trkpt>
      <trkpt lat="42.9896" lon="0.90899">
        <ele>674.057</ele>
        <time>2014-03-14T12:33:19Z</time>
      </trkpt>
      <trkpt lat="42.9896" lon="0.90899">
        <ele>674.781</ele>
        <time>2014-03-14T12:33:19Z</time>
      </trkpt>
      <trkpt lat="42.9897" lon="0.90913">
        <ele>675.432</ele>
        <time>2014-03-14T12:33:21Z</time>
      </trkpt>
      <trkpt lat="42.98975" lon="0.90921">
        <ele>675.872</ele>
        <time>2014-03-14T12:33:22Z</time>
      </trkpt>
      <trkpt lat="42.98981" lon="0.90929">
        <ele>676.461</ele>
        <time>2014-03-14T12:33:23Z</time>
      </trkpt>
      <trkpt lat="42.98986" lon="0.90937">
        <ele>677.08</ele>
        <time>2014-03-14T12:33:24Z</time>
      </trkpt>
      <trkpt lat="42.9899" lon="0.90944">
        <ele>677.443</ele>
        <time>2014-03-14T12:33:25Z</time>
      </trkpt>
      <trkpt lat="42.98994" lon="0.90952">
        <ele>677.397</ele>
        <time>2014-03-14T12:33:26Z</time>
      </trkpt>
      <trkpt lat="42.98999" lon="0.90961">
        <ele>676.95</ele>
        <time>2014-03-14T12:33:27Z</time>
      </trkpt>
      <trkpt lat="42.99005" lon="0.90969">
        <ele>676.195</ele>
        <time>2014-03-14T12:33:28Z</time>
      </trkpt>
      <trkpt lat="42.9901" lon="0.90977">
        <ele>675.532</ele>
        <time>2014-03-14T12:33:29Z</time>
      </trkpt>
      <trkpt lat="42.99015" lon="0.90986">
        <ele>674.967</ele>
        <time>2014-03-14T12:33:30Z</time>
      </trkpt>
      <trkpt lat="42.99019" lon="0.90994">
        <ele>674.311</ele>
        <time>2014-03-14T12:33:31Z</time>
      </trkpt>
      <trkpt lat="42.99023" lon="0.91003">
        <ele>673.404</ele>
        <time>2014-03-14T12:33:32Z</time>
      </trkpt>
      <trkpt lat="42.99027" lon="0.91011">
        <ele>672.408</ele>
        <time>2014-03-14T12:33:33Z</time>
      </trkpt>
      <trkpt lat="42.99031" lon="0.91019">
        <ele>670.991</ele>
        <time>2014-03-14T12:33:34Z</time>
      </trkpt>
      <trkpt lat="42.99035" lon="0.91028">
        <ele>669.79</ele>
        <time>2014-03-14T12:33:35Z</time>
      </trkpt>
      <trkpt lat="42.99039" lon="0.91036">
        <ele>668.519</ele>
        <time>2014-03-14T12:33:36Z</time>
      </trkpt>
      <trkpt lat="42.99043" lon="0.91044">
        <ele>666.962</ele>
        <time>2014-03-14T12:33:37Z</time>
      </trkpt>
      <trkpt lat="42.99048" lon="0.91052">
        <ele>664.958</ele>
        <time>2014-03-14T12:33:38Z</time>
      </trkpt>
      <trkpt lat="42.99048" lon="0.91052">
        <ele>662.624</ele>
        <time>2014-03-14T12:33:38Z</time>
      </trkpt>
      <trkpt lat="42.99058" lon="0.91065">
        <ele>660.762</ele>
        <time>2014-03-14T12:33:40Z</time>
      </trkpt>
      <trkpt lat="42.99069" lon="0.91073">
        <ele>658.403</ele>
        <time>2014-03-14T12:33:42Z</time>
      </trkpt>
      <trkpt lat="42.99075" lon="0.91076">
        <ele>656.297</ele>
        <time>2014-03-14T12:33:43Z</time>
      </trkpt>
      <trkpt lat="42.99082" lon="0.91079">
        <ele>654.483</ele>
        <time>2014-03-14T12:33:44Z</time>
      </trkpt>
      <trkpt lat="42.99082" lon="0.91079">
        <ele>652.96</ele>
        <time>2014-03-14T12:33:44Z</time>
      </trkpt>
      <trkpt lat="42.99093" lon="0.91085">
        <ele>651.58</ele>
        <time>2014-03-14T12:33:46Z</time>
      </trkpt>
      <trkpt lat="42.99098" lon="0.91087">
        <ele>650.409</ele>
        <time>2014-03-14T12:33:47Z</time>
      </trkpt>
      <trkpt lat="42.99103" lon="0.91088">
        <ele>649.303</ele>
        <time>2014-03-14T12:33:48Z</time>
      </trkpt>
      <trkpt lat="42.99107" lon="0.91087">
        <ele>648.236</ele>
        <time>2014-03-14T12:33:49Z</time>
      </trkpt>
      <trkpt lat="42.99111" lon="0.91086">
        <ele>647.17</ele>
        <time>2014-03-14T12:33:50Z</time>
      </trkpt>
      <trkpt lat="42.99116" lon="0.91084">
        <ele>646.204</ele>
        <time>2014-03-14T12:33:51Z</time>
      </trkpt>
      <trkpt lat="42.99121" lon="0.91083">
        <ele>644.913</ele>
        <time>2014-03-14T12:33:52Z</time>
      </trkpt>
      <trkpt lat="42.99126" lon="0.91081">
        <ele>644.021</ele>
        <time>2014-03-14T12:33:53Z</time>
      </trkpt>
      <trkpt lat="42.99131" lon="0.9108">
        <ele>643.277</ele>
        <time>2014-03-14T12:33:54Z</time>
      </trkpt>
      <trkpt lat="42.99135" lon="0.91078">
        <ele>642.683</ele>
        <time>2014-03-14T12:33:55Z</time>
      </trkpt>
      <trkpt lat="42.99138" lon="0.91077">
        <ele>642.168</ele>
        <time>2014-03-14T12:33:56Z</time>
      </trkpt>
      <trkpt lat="42.99142" lon="0.91076">
        <ele>640.994</ele>
        <time>2014-03-14T12:33:57Z</time>
      </trkpt>
      <trkpt lat="42.99146" lon="0.91077">
        <ele>639.495</ele>
        <time>2014-03-14T12:33:58Z</time>
      </trkpt>
      <trkpt lat="42.99151" lon="0.91079">
        <ele>637.908</ele>
        <time>2014-03-14T12:33:59Z</time>
      </trkpt>
      <trkpt lat="42.99157" lon="0.91081">
        <ele>636.709</ele>
        <time>2014-03-14T12:34:00Z</time>
      </trkpt>
      <trkpt lat="42.99162" lon="0.91084">
        <ele>636.056</ele>
        <time>2014-03-14T12:34:01Z</time>
      </trkpt>
      <trkpt lat="42.99167" lon="0.91088">
        <ele>635.34</ele>
        <time>2014-03-14T12:34:02Z</time>
      </trkpt>
      <trkpt lat="42.99172" lon="0.91092">
        <ele>634.176</ele>
        <time>2014-03-14T12:34:03Z</time>
      </trkpt>
      <trkpt lat="42.99177" lon="0.91096">
        <ele>632.271</ele>
        <time>2014-03-14T12:34:04Z</time>
      </trkpt>
      <trkpt lat="42.99182" lon="0.91101">
        <ele>629.696</ele>
        <time>2014-03-14T12:34:05Z</time>
      </trkpt>
      <trkpt lat="42.99188" lon="0.91105">
        <ele>626.976</ele>
        <time>2014-03-14T12:34:06Z</time>
      </trkpt>
      <trkpt lat="42.99195" lon="0.91109">
        <ele>624.553</ele>
        <time>2014-03-14T12:34:07Z</time>
      </trkpt>
      <trkpt lat="42.99206" lon="0.91114">
        <ele>622.607</ele>
        <time>2014-03-14T12:34:09Z</time>
      </trkpt>
      <trkpt lat="42.99206" lon="0.91114">
        <ele>620.965</ele>
        <time>2014-03-14T12:34:09Z</time>
      </trkpt>
      <trkpt lat="42.99217" lon="0.91112">
        <ele>619.932</ele>
        <time>2014-03-14T12:34:11Z</time>
      </trkpt>
      <trkpt lat="42.99223" lon="0.91108">
        <ele>619.31</ele>
        <time>2014-03-14T12:34:12Z</time>
      </trkpt>
      <trkpt lat="42.99228" lon="0.91105">
        <ele>619.349</ele>
        <time>2014-03-14T12:34:13Z</time>
      </trkpt>
      <trkpt lat="42.99233" lon="0.91103">
        <ele>619.8</ele>
        <time>2014-03-14T12:34:14Z</time>
      </trkpt>
      <trkpt lat="42.99238" lon="0.91103">
        <ele>620.443</ele>
        <time>2014-03-14T12:34:15Z</time>
      </trkpt>
      <trkpt lat="42.99244" lon="0.91102">
        <ele>620.677</ele>
        <time>2014-03-14T12:34:16Z</time>
      </trkpt>
      <trkpt lat="42.9925" lon="0.91102">
        <ele>620.68</ele>
        <time>2014-03-14T12:34:17Z</time>
      </trkpt>
      <trkpt lat="42.99256" lon="0.91101">
        <ele>620.605</ele>
        <time>2014-03-14T12:34:18Z</time>
      </trkpt>
      <trkpt lat="42.99263" lon="0.91099">
        <ele>620.582</ele>
        <time>2014-03-14T12:34:19Z</time>
      </trkpt>
      <trkpt lat="42.99269" lon="0.91097">
        <ele>621.046</ele>
        <time>2014-03-14T12:34:20Z</time>
      </trkpt>
      <trkpt lat="42.99275" lon="0.91096">
        <ele>621.959</ele>
        <time>2014-03-14T12:34:21Z</time>
      </trkpt>
      <trkpt lat="42.9928" lon="0.91095">
        <ele>623.146</ele>
        <time>2014-03-14T12:34:22Z</time>
      </trkpt>
      <trkpt lat="42.99285" lon="0.91094">
        <ele>624.178</ele>
        <time>2014-03-14T12:34:23Z</time>
      </trkpt>
      <trkpt lat="42.9929" lon="0.91094">
        <ele>625.205</ele>
        <time>2014-03-14T12:34:24Z</time>
      </trkpt>
      <trkpt lat="42.99294" lon="0.91094">
        <ele>625.807</ele>
        <time>2014-03-14T12:34:25Z</time>
      </trkpt>
      <trkpt lat="42.99299" lon="0.91094">
        <ele>625.925</ele>
        <time>2014-03-14T12:34:26Z</time>
      </trkpt>
      <trkpt lat="42.99303" lon="0.91093">
        <ele>625.682</ele>
        <time>2014-03-14T12:34:27Z</time>
      </trkpt>
      <trkpt lat="42.99308" lon="0.91091">
        <ele>625.257</ele>
        <time>2014-03-14T12:34:28Z</time>
      </trkpt>
      <trkpt lat="42.99312" lon="0.91088">
        <ele>624.732</ele>
        <time>2014-03-14T12:34:29Z</time>
      </trkpt>
      <trkpt lat="42.99315" lon="0.91085">
        <ele>624.104</ele>
        <time>2014-03-14T12:34:30Z</time>
      </trkpt>
      <trkpt lat="42.99318" lon="0.91081">
        <ele>623.108</ele>
        <time>2014-03-14T12:34:31Z</time>
      </trkpt>
      <trkpt lat="42.99322" lon="0.91077">
        <ele>622.032</ele>
        <time>2014-03-14T12:34:32Z</time>
      </trkpt>
      <trkpt lat="42.99325" lon="0.91074">
        <ele>620.948</ele>
        <time>2014-03-14T12:34:33Z</time>
      </trkpt>
      <trkpt lat="42.99328" lon="0.9107">
        <ele>619.918</ele>
        <time>2014-03-14T12:34:34Z</time>
      </trkpt>
      <trkpt lat="42.99332" lon="0.91067">
        <ele>618.964</ele>
        <time>2014-03-14T12:34:35Z</time>
      </trkpt>
      <trkpt lat="42.99335" lon="0.91063">
        <ele>618.122</ele>
        <time>2014-03-14T12:34:36Z</time>
      </trkpt>
      <trkpt lat="42.99339" lon="0.9106">
        <ele>617.421</ele>
        <time>2014-03-14T12:34:37Z</time>
      </trkpt>
      <trkpt lat="42.99343" lon="0.91058">
        <ele>616.947</ele>
        <time>2014-03-14T12:34:38Z</time>
      </trkpt>
      <trkpt lat="42.99348" lon="0.91057">
        <ele>616.603</ele>
        <time>2014-03-14T12:34:39Z</time>
      </trkpt>
      <trkpt lat="42.99352" lon="0.91057">
        <ele>616.16</ele>
        <time>2014-03-14T12:34:40Z</time>
      </trkpt>
      <trkpt lat="42.99357" lon="0.91058">
        <ele>615.4</ele>
        <time>2014-03-14T12:34:41Z</time>
      </trkpt>
      <trkpt lat="42.9936" lon="0.91062">
        <ele>614.471</ele>
        <time>2014-03-14T12:34:42Z</time>
      </trkpt>
      <trkpt lat="42.99365" lon="0.91065">
        <ele>613.351</ele>
        <time>2014-03-14T12:34:43Z</time>
      </trkpt>
      <trkpt lat="42.99365" lon="0.91065">
        <ele>612.435</ele>
        <time>2014-03-14T12:34:43Z</time>
      </trkpt>
      <trkpt lat="42.99377" lon="0.91068">
        <ele>611.283</ele>
        <time>2014-03-14T12:34:46Z</time>
      </trkpt>
      <trkpt lat="42.99381" lon="0.91066">
        <ele>609.516</ele>
        <time>2014-03-14T12:34:47Z</time>
      </trkpt>
      <trkpt lat="42.99385" lon="0.91061">
        <ele>607.129</ele>
        <time>2014-03-14T12:34:48Z</time>
      </trkpt>
      <trkpt lat="42.99388" lon="0.91055">
        <ele>604.56</ele>
        <time>2014-03-14T12:34:49Z</time>
      </trkpt>
      <trkpt lat="42.99391" lon="0.91048">
        <ele>602.461</ele>
        <time>2014-03-14T12:34:50Z</time>
      </trkpt>
      <trkpt lat="42.99392" lon="0.91041">
        <ele>601.209</ele>
        <time>2014-03-14T12:34:51Z</time>
      </trkpt>
      <trkpt lat="42.99394" lon="0.91035">
        <ele>600.37</ele>
        <time>2014-03-14T12:34:52Z</time>
      </trkpt>
      <trkpt lat="42.99396" lon="0.9103">
        <ele>599.514</ele>
        <time>2014-03-14T12:34:53Z</time>
      </trkpt>
      <trkpt lat="42.99399" lon="0.91025">
        <ele>598.23</ele>
        <time>2014-03-14T12:34:54Z</time>
      </trkpt>
      <trkpt lat="42.99403" lon="0.91019">
        <ele>596.864</ele>
        <time>2014-03-14T12:34:55Z</time>
      </trkpt>
      <trkpt lat="42.99407" lon="0.91012">
        <ele>595.459</ele>
        <time>2014-03-14T12:34:56Z</time>
      </trkpt>
      <trkpt lat="42.99411" lon="0.91006">
        <ele>594.74</ele>
        <time>2014-03-14T12:34:57Z</time>
      </trkpt>
      <trkpt lat="42.99416" lon="0.90999">
        <ele>594.622</ele>
        <time>2014-03-14T12:34:58Z</time>
      </trkpt>
      <trkpt lat="42.99421" lon="0.90995">
        <ele>594.869</ele>
        <time>2014-03-14T12:34:59Z</time>
      </trkpt>
      <trkpt lat="42.99425" lon="0.90991">
        <ele>595.137</ele>
        <time>2014-03-14T12:35:00Z</time>
      </trkpt>
      <trkpt lat="42.9943" lon="0.90988">
        <ele>595.039</ele>
        <time>2014-03-14T12:35:01Z</time>
      </trkpt>
      <trkpt lat="42.99434" lon="0.90983">
        <ele>594.456</ele>
        <time>2014-03-14T12:35:02Z</time>
      </trkpt>
      <trkpt lat="42.99438" lon="0.90978">
        <ele>593.497</ele>
        <time>2014-03-14T12:35:03Z</time>
      </trkpt>
      <trkpt lat="42.99442" lon="0.90972">
        <ele>592.583</ele>
        <time>2014-03-14T12:35:04Z</time>
      </trkpt>
      <trkpt lat="42.99446" lon="0.90968">
        <ele>591.536</ele>
        <time>2014-03-14T12:35:05Z</time>
      </trkpt>
      <trkpt lat="42.9945" lon="0.90963">
        <ele>590.545</ele>
        <time>2014-03-14T12:35:06Z</time>
      </trkpt>
      <trkpt lat="42.99454" lon="0.90958">
        <ele>589.889</ele>
        <time>2014-03-14T12:35:07Z</time>
      </trkpt>
      <trkpt lat="42.99459" lon="0.90952">
        <ele>589.785</ele>
        <time>2014-03-14T12:35:08Z</time>
      </trkpt>
      <trkpt lat="42.99463" lon="0.90947">
        <ele>590.075</ele>
        <time>2014-03-14T12:35:09Z</time>
      </trkpt>
      <trkpt lat="42.99467" lon="0.90943">
        <ele>590.306</ele>
        <time>2014-03-14T12:35:10Z</time>
      </trkpt>
      <trkpt lat="42.99472" lon="0.9094">
        <ele>590.209</ele>
        <time>2014-03-14T12:35:11Z</time>
      </trkpt>
      <trkpt lat="42.99478" lon="0.90938">
        <ele>589.752</ele>
        <time>2014-03-14T12:35:12Z</time>
      </trkpt>
      <trkpt lat="42.99484" lon="0.90939">
        <ele>588.79</ele>
        <time>2014-03-14T12:35:13Z</time>
      </trkpt>
      <trkpt lat="42.99489" lon="0.90943">
        <ele>587.665</ele>
        <time>2014-03-14T12:35:14Z</time>
      </trkpt>
      <trkpt lat="42.99499" lon="0.90949">
        <ele>586.303</ele>
        <time>2014-03-14T12:35:16Z</time>
      </trkpt>
      <trkpt lat="42.99503" lon="0.9095">
        <ele>584.826</ele>
        <time>2014-03-14T12:35:17Z</time>
      </trkpt>
      <trkpt lat="42.99508" lon="0.90948">
        <ele>583.182</ele>
        <time>2014-03-14T12:35:18Z</time>
      </trkpt>
      <trkpt lat="42.99512" lon="0.90945">
        <ele>580.76</ele>
        <time>2014-03-14T12:35:19Z</time>
      </trkpt>
      <trkpt lat="42.99512" lon="0.90945">
        <ele>578.777</ele>
        <time>2014-03-14T12:35:19Z</time>
      </trkpt>
      <trkpt lat="42.99519" lon="0.90935">
        <ele>576.984</ele>
        <time>2014-03-14T12:35:21Z</time>
      </trkpt>
      <trkpt lat="42.99521" lon="0.90929">
        <ele>575.28</ele>
        <time>2014-03-14T12:35:22Z</time>
      </trkpt>
      <trkpt lat="42.99521" lon="0.90921">
        <ele>573.526</ele>
        <time>2014-03-14T12:35:23Z</time>
      </trkpt>
      <trkpt lat="42.99521" lon="0.90912">
        <ele>572.136</ele>
        <time>2014-03-14T12:35:24Z</time>
      </trkpt>
      <trkpt lat="42.9952" lon="0.90904">
        <ele>571.095</ele>
        <time>2014-03-14T12:35:25Z</time>
      </trkpt>
      <trkpt lat="42.99519" lon="0.90896">
        <ele>569.985</ele>
        <time>2014-03-14T12:35:26Z</time>
      </trkpt>
      <trkpt lat="42.99518" lon="0.90889">
        <ele>568.741</ele>
        <time>2014-03-14T12:35:27Z</time>
      </trkpt>
      <trkpt lat="42.99516" lon="0.9088">
        <ele>567.303</ele>
        <time>2014-03-14T12:35:28Z</time>
      </trkpt>
      <trkpt lat="42.99514" lon="0.90871">
        <ele>565.881</ele>
        <time>2014-03-14T12:35:29Z</time>
      </trkpt>
      <trkpt lat="42.99512" lon="0.90862">
        <ele>564.768</ele>
        <time>2014-03-14T12:35:30Z</time>
      </trkpt>
      <trkpt lat="42.99511" lon="0.90854">
        <ele>563.987</ele>
        <time>2014-03-14T12:35:31Z</time>
      </trkpt>
      <trkpt lat="42.99511" lon="0.90846">
        <ele>563.392</ele>
        <time>2014-03-14T12:35:32Z</time>
      </trkpt>
      <trkpt lat="42.99511" lon="0.90838">
        <ele>562.874</ele>
        <time>2014-03-14T12:35:33Z</time>
      </trkpt>
      <trkpt lat="42.99511" lon="0.9083">
        <ele>562.55</ele>
        <time>2014-03-14T12:35:34Z</time>
      </trkpt>
      <trkpt lat="42.9951" lon="0.90823">
        <ele>562.487</ele>
        <time>2014-03-14T12:35:35Z</time>
      </trkpt>
      <trkpt lat="42.9951" lon="0.90817">
        <ele>562.496</ele>
        <time>2014-03-14T12:35:36Z</time>
      </trkpt>
      <trkpt lat="42.99509" lon="0.90811">
        <ele>562.407</ele>
        <time>2014-03-14T12:35:37Z</time>
      </trkpt>
      <trkpt lat="42.99509" lon="0.90805">
        <ele>562.221</ele>
        <time>2014-03-14T12:35:38Z</time>
      </trkpt>
      <trkpt lat="42.99509" lon="0.90798">
        <ele>561.845</ele>
        <time>2014-03-14T12:35:39Z</time>
      </trkpt>
      <trkpt lat="42.99509" lon="0.90791">
        <ele>561.258</ele>
        <time>2014-03-14T12:35:40Z</time>
      </trkpt>
      <trkpt lat="42.99509" lon="0.90784">
        <ele>560.374</ele>
        <time>2014-03-14T12:35:41Z</time>
      </trkpt>
      <trkpt lat="42.99508" lon="0.90776">
        <ele>559.409</ele>
        <time>2014-03-14T12:35:42Z</time>
      </trkpt>
      <trkpt lat="42.99508" lon="0.90768">
        <ele>558.157</ele>
        <time>2014-03-14T12:35:43Z</time>
      </trkpt>
      <trkpt lat="42.99508" lon="0.9076">
        <ele>556.873</ele>
        <time>2014-03-14T12:35:44Z</time>
      </trkpt>
      <trkpt lat="42.99507" lon="0.90752">
        <ele>555.986</ele>
        <time>2014-03-14T12:35:45Z</time>
      </trkpt>
      <trkpt lat="42.99506" lon="0.90743">
        <ele>555.35</ele>
        <time>2014-03-14T12:35:46Z</time>
      </trkpt>
      <trkpt lat="42.99503" lon="0.90734">
        <ele>554.734</ele>
        <time>2014-03-14T12:35:47Z</time>
      </trkpt>
      <trkpt lat="42.99501" lon="0.90726">
        <ele>554.314</ele>
        <time>2014-03-14T12:35:48Z</time>
      </trkpt>
      <trkpt lat="42.99499" lon="0.90718">
        <ele>553.86</ele>
        <time>2014-03-14T12:35:49Z</time>
      </trkpt>
      <trkpt lat="42.99496" lon="0.90703">
        <ele>553.216</ele>
        <time>2014-03-14T12:35:51Z</time>
      </trkpt>
      <trkpt lat="42.99494" lon="0.90694">
        <ele>552.4</ele>
        <time>2014-03-14T12:35:52Z</time>
      </trkpt>
      <trkpt lat="42.99492" lon="0.90686">
        <ele>551.625</ele>
        <time>2014-03-14T12:35:53Z</time>
      </trkpt>
      <trkpt lat="42.99489" lon="0.90678">
        <ele>551.006</ele>
        <time>2014-03-14T12:35:54Z</time>
      </trkpt>
      <trkpt lat="42.99489" lon="0.90678">
        <ele>550.584</ele>
        <time>2014-03-14T12:35:54Z</time>
      </trkpt>
      <trkpt lat="42.99483" lon="0.90663">
        <ele>549.939</ele>
        <time>2014-03-14T12:35:56Z</time>
      </trkpt>
      <trkpt lat="42.99479" lon="0.90656">
        <ele>549.088</ele>
        <time>2014-03-14T12:35:57Z</time>
      </trkpt>
      <trkpt lat="42.99476" lon="0.90648">
        <ele>548.164</ele>
        <time>2014-03-14T12:35:58Z</time>
      </trkpt>
      <trkpt lat="42.99473" lon="0.9064">
        <ele>547.391</ele>
        <time>2014-03-14T12:35:59Z</time>
      </trkpt>
      <trkpt lat="42.99469" lon="0.90632">
        <ele>546.871</ele>
        <time>2014-03-14T12:36:00Z</time>
      </trkpt>
      <trkpt lat="42.99466" lon="0.90625">
        <ele>546.046</ele>
        <time>2014-03-14T12:36:01Z</time>
      </trkpt>
      <trkpt lat="42.99463" lon="0.90618">
        <ele>544.855</ele>
        <time>2014-03-14T12:36:02Z</time>
      </trkpt>
      <trkpt lat="42.99459" lon="0.90608">
        <ele>543.377</ele>
        <time>2014-03-14T12:36:03Z</time>
      </trkpt>
      <trkpt lat="42.99455" lon="0.90598">
        <ele>542.127</ele>
        <time>2014-03-14T12:36:04Z</time>
      </trkpt>
      <trkpt lat="42.99451" lon="0.90589">
        <ele>541.428</ele>
        <time>2014-03-14T12:36:05Z</time>
      </trkpt>
      <trkpt lat="42.99447" lon="0.90582">
        <ele>540.872</ele>
        <time>2014-03-14T12:36:06Z</time>
      </trkpt>
      <trkpt lat="42.99443" lon="0.90576">
        <ele>540.033</ele>
        <time>2014-03-14T12:36:07Z</time>
      </trkpt>
      <trkpt lat="42.99438" lon="0.90571">
        <ele>538.711</ele>
        <time>2014-03-14T12:36:08Z</time>
      </trkpt>
      <trkpt lat="42.99433" lon="0.90565">
        <ele>536.493</ele>
        <time>2014-03-14T12:36:09Z</time>
      </trkpt>
      <trkpt lat="42.99427" lon="0.90559">
        <ele>534.346</ele>
        <time>2014-03-14T12:36:10Z</time>
      </trkpt>
      <trkpt lat="42.99421" lon="0.90554">
        <ele>531.826</ele>
        <time>2014-03-14T12:36:11Z</time>
      </trkpt>
      <trkpt lat="42.99415" lon="0.90549">
        <ele>529.663</ele>
        <time>2014-03-14T12:36:12Z</time>
      </trkpt>
      <trkpt lat="42.99409" lon="0.90545">
        <ele>527.628</ele>
        <time>2014-03-14T12:36:13Z</time>
      </trkpt>
      <trkpt lat="42.99402" lon="0.90543">
        <ele>525.776</ele>
        <time>2014-03-14T12:36:14Z</time>
      </trkpt>
      <trkpt lat="42.99394" lon="0.90542">
        <ele>523.428</ele>
        <time>2014-03-14T12:36:15Z</time>
      </trkpt>
      <trkpt lat="42.99386" lon="0.90542">
        <ele>521.201</ele>
        <time>2014-03-14T12:36:16Z</time>
      </trkpt>
      <trkpt lat="42.99378" lon="0.90543">
        <ele>518.879</ele>
        <time>2014-03-14T12:36:17Z</time>
      </trkpt>
      <trkpt lat="42.9937" lon="0.90545">
        <ele>516.596</ele>
        <time>2014-03-14T12:36:18Z</time>
      </trkpt>
      <trkpt lat="42.99361" lon="0.90547">
        <ele>514.633</ele>
        <time>2014-03-14T12:36:19Z</time>
      </trkpt>
      <trkpt lat="42.99353" lon="0.90549">
        <ele>513.022</ele>
        <time>2014-03-14T12:36:20Z</time>
      </trkpt>
      <trkpt lat="42.99345" lon="0.90551">
        <ele>511.441</ele>
        <time>2014-03-14T12:36:21Z</time>
      </trkpt>
      <trkpt lat="42.99338" lon="0.90553">
        <ele>509.538</ele>
        <time>2014-03-14T12:36:22Z</time>
      </trkpt>
      <trkpt lat="42.99331" lon="0.90554">
        <ele>507.149</ele>
        <time>2014-03-14T12:36:23Z</time>
      </trkpt>
      <trkpt lat="42.99324" lon="0.90555">
        <ele>504.756</ele>
        <time>2014-03-14T12:36:24Z</time>
      </trkpt>
      <trkpt lat="42.99315" lon="0.90556">
        <ele>502.573</ele>
        <time>2014-03-14T12:36:25Z</time>
      </trkpt>
      <trkpt lat="42.99307" lon="0.90557">
        <ele>500.419</ele>
        <time>2014-03-14T12:36:26Z</time>
      </trkpt>
      <trkpt lat="42.993" lon="0.90556">
        <ele>498.954</ele>
        <time>2014-03-14T12:36:27Z</time>
      </trkpt>
      <trkpt lat="42.99285" lon="0.90554">
        <ele>497.769</ele>
        <time>2014-03-14T12:36:29Z</time>
      </trkpt>
      <trkpt lat="42.99285" lon="0.90554">
        <ele>496.64</ele>
        <time>2014-03-14T12:36:29Z</time>
      </trkpt>
      <trkpt lat="42.9927" lon="0.90553">
        <ele>495.154</ele>
        <time>2014-03-14T12:36:31Z</time>
      </trkpt>
      <trkpt lat="42.99262" lon="0.90553">
        <ele>493.74</ele>
        <time>2014-03-14T12:36:32Z</time>
      </trkpt>
      <trkpt lat="42.99254" lon="0.90553">
        <ele>492.466</ele>
        <time>2014-03-14T12:36:33Z</time>
      </trkpt>
      <trkpt lat="42.99245" lon="0.90553">
        <ele>490.974</ele>
        <time>2014-03-14T12:36:34Z</time>
      </trkpt>
      <trkpt lat="42.99236" lon="0.90553">
        <ele>490.05</ele>
        <time>2014-03-14T12:36:35Z</time>
      </trkpt>
      <trkpt lat="42.99228" lon="0.90553">
        <ele>489.163</ele>
        <time>2014-03-14T12:36:36Z</time>
      </trkpt>
      <trkpt lat="42.99219" lon="0.90552">
        <ele>488.146</ele>
        <time>2014-03-14T12:36:37Z</time>
      </trkpt>
      <trkpt lat="42.99219" lon="0.90552">
        <ele>487.131</ele>
        <time>2014-03-14T12:36:37Z</time>
      </trkpt>
      <trkpt lat="42.99204" lon="0.90552">
        <ele>485.959</ele>
        <time>2014-03-14T12:36:39Z</time>
      </trkpt>
      <trkpt lat="42.99196" lon="0.90552">
        <ele>484.777</ele>
        <time>2014-03-14T12:36:40Z</time>
      </trkpt>
      <trkpt lat="42.99189" lon="0.90551">
        <ele>482.834</ele>
        <time>2014-03-14T12:36:41Z</time>
      </trkpt>
      <trkpt lat="42.99181" lon="0.9055">
        <ele>480.885</ele>
        <time>2014-03-14T12:36:42Z</time>
      </trkpt>
      <trkpt lat="42.99172" lon="0.90549">
        <ele>478.966</ele>
        <time>2014-03-14T12:36:43Z</time>
      </trkpt>
      <trkpt lat="42.99163" lon="0.90547">
        <ele>476.895</ele>
        <time>2014-03-14T12:36:44Z</time>
      </trkpt>
      <trkpt lat="42.99155" lon="0.90545">
        <ele>475.307</ele>
        <time>2014-03-14T12:36:45Z</time>
      </trkpt>
      <trkpt lat="42.99146" lon="0.90542">
        <ele>474.27</ele>
        <time>2014-03-14T12:36:46Z</time>
      </trkpt>
      <trkpt lat="42.99138" lon="0.90538">
        <ele>473.88</ele>
        <time>2014-03-14T12:36:47Z</time>
      </trkpt>
      <trkpt lat="42.9913" lon="0.90534">
        <ele>474.137</ele>
        <time>2014-03-14T12:36:48Z</time>
      </trkpt>
      <trkpt lat="42.99123" lon="0.90531">
        <ele>474.808</ele>
        <time>2014-03-14T12:36:49Z</time>
      </trkpt>
      <trkpt lat="42.99117" lon="0.90528">
        <ele>475.425</ele>
        <time>2014-03-14T12:36:50Z</time>
      </trkpt>
      <trkpt lat="42.99111" lon="0.90526">
        <ele>475.703</ele>
        <time>2014-03-14T12:36:51Z</time>
      </trkpt>
      <trkpt lat="42.99104" lon="0.90524">
        <ele>475.698</ele>
        <time>2014-03-14T12:36:52Z</time>
      </trkpt>
      <trkpt lat="42.99097" lon="0.90522">
        <ele>475.596</ele>
        <time>2014-03-14T12:36:53Z</time>
      </trkpt>
      <trkpt lat="42.99091" lon="0.90519">
        <ele>475.557</ele>
        <time>2014-03-14T12:36:54Z</time>
      </trkpt>
      <trkpt lat="42.99086" lon="0.90515">
        <ele>475.505</ele>
        <time>2014-03-14T12:36:55Z</time>
      </trkpt>
      <trkpt lat="42.99082" lon="0.90509">
        <ele>475.241</ele>
        <time>2014-03-14T12:36:56Z</time>
      </trkpt>
      <trkpt lat="42.99077" lon="0.90503">
        <ele>474.557</ele>
        <time>2014-03-14T12:36:57Z</time>
      </trkpt>
      <trkpt lat="42.99074" lon="0.90497">
        <ele>473.319</ele>
        <time>2014-03-14T12:36:58Z</time>
      </trkpt>
      <trkpt lat="42.9907" lon="0.90491">
        <ele>471.673</ele>
        <time>2014-03-14T12:36:59Z</time>
      </trkpt>
      <trkpt lat="42.99066" lon="0.90483">
        <ele>469.97</ele>
        <time>2014-03-14T12:37:00Z</time>
      </trkpt>
      <trkpt lat="42.99064" lon="0.90475">
        <ele>468.68</ele>
        <time>2014-03-14T12:37:01Z</time>
      </trkpt>
      <trkpt lat="42.99061" lon="0.9046">
        <ele>467.23</ele>
        <time>2014-03-14T12:37:03Z</time>
      </trkpt>
      <trkpt lat="42.99061" lon="0.90451">
        <ele>466.126</ele>
        <time>2014-03-14T12:37:04Z</time>
      </trkpt>
      <trkpt lat="42.99061" lon="0.90451">
        <ele>464.906</ele>
        <time>2014-03-14T12:37:04Z</time>
      </trkpt>
      <trkpt lat="42.99066" lon="0.90434">
        <ele>463.933</ele>
        <time>2014-03-14T12:37:06Z</time>
      </trkpt>
      <trkpt lat="42.9907" lon="0.90427">
        <ele>463.193</ele>
        <time>2014-03-14T12:37:07Z</time>
      </trkpt>
      <trkpt lat="42.99075" lon="0.90423">
        <ele>462.74</ele>
        <time>2014-03-14T12:37:08Z</time>
      </trkpt>
      <trkpt lat="42.9908" lon="0.90419">
        <ele>462.37</ele>
        <time>2014-03-14T12:37:09Z</time>
      </trkpt>
      <trkpt lat="42.99083" lon="0.90416">
        <ele>461.469</ele>
        <time>2014-03-14T12:37:10Z</time>
      </trkpt>
      <trkpt lat="42.99087" lon="0.90413">
        <ele>459.811</ele>
        <time>2014-03-14T12:37:11Z</time>
      </trkpt>
      <trkpt lat="42.9909" lon="0.90411">
        <ele>457.978</ele>
        <time>2014-03-14T12:37:12Z</time>
      </trkpt>
      <trkpt lat="42.99095" lon="0.90411">
        <ele>455.837</ele>
        <time>2014-03-14T12:37:13Z</time>
      </trkpt>
      <trkpt lat="42.99101" lon="0.90412">
        <ele>453.798</ele>
        <time>2014-03-14T12:37:14Z</time>
      </trkpt>
      <trkpt lat="42.99107" lon="0.90414">
        <ele>452.128</ele>
        <time>2014-03-14T12:37:15Z</time>
      </trkpt>
      <trkpt lat="42.99113" lon="0.90417">
        <ele>450.926</ele>
        <time>2014-03-14T12:37:16Z</time>
      </trkpt>
      <trkpt lat="42.9912" lon="0.90419">
        <ele>450.128</ele>
        <time>2014-03-14T12:37:17Z</time>
      </trkpt>
      <trkpt lat="42.99126" lon="0.90422">
        <ele>449.124</ele>
        <time>2014-03-14T12:37:18Z</time>
      </trkpt>
      <trkpt lat="42.99132" lon="0.90427">
        <ele>447.452</ele>
        <time>2014-03-14T12:37:19Z</time>
      </trkpt>
      <trkpt lat="42.99138" lon="0.90432">
        <ele>446.243</ele>
        <time>2014-03-14T12:37:20Z</time>
      </trkpt>
      <trkpt lat="42.99144" lon="0.90437">
        <ele>445.107</ele>
        <time>2014-03-14T12:37:21Z</time>
      </trkpt>
      <trkpt lat="42.99149" lon="0.90442">
        <ele>444.361</ele>
        <time>2014-03-14T12:37:22Z</time>
      </trkpt>
      <trkpt lat="42.99152" lon="0.90446">
        <ele>444.033</ele>
        <time>2014-03-14T12:37:23Z</time>
      </trkpt>
      <trkpt lat="42.99155" lon="0.9045">
        <ele>443.949</ele>
        <time>2014-03-14T12:37:24Z</time>
      </trkpt>
      <trkpt lat="42.99158" lon="0.90451">
        <ele>444.094</ele>
        <time>2014-03-14T12:37:25Z</time>
      </trkpt>
      <trkpt lat="42.9916" lon="0.90453">
        <ele>444.224</ele>
        <time>2014-03-14T12:37:26Z</time>
      </trkpt>
      <trkpt lat="42.99161" lon="0.90454">
        <ele>444.244</ele>
        <time>2014-03-14T12:37:27Z</time>
      </trkpt>
      <trkpt lat="42.99162" lon="0.90455">
        <ele>444.158</ele>
        <time>2014-03-14T12:37:28Z</time>
      </trkpt>
      <trkpt lat="42.99164" lon="0.90455">
        <ele>444.024</ele>
        <time>2014-03-14T12:37:29Z</time>
      </trkpt>
      <trkpt lat="42.99163" lon="0.90454">
        <ele>443.954</ele>
        <time>2014-03-14T12:37:31Z</time>
      </trkpt>
      <trkpt lat="42.99163" lon="0.90455">
        <ele>443.921</ele>
        <time>2014-03-14T12:37:32Z</time>
      </trkpt>
      <trkpt lat="42.99163" lon="0.90455">
        <ele>443.922</ele>
        <time>2014-03-14T12:37:33Z</time>
      </trkpt>
      <trkpt lat="42.99162" lon="0.90455">
        <ele>443.93</ele>
        <time>2014-03-14T12:37:34Z</time>
      </trkpt>
      <trkpt lat="42.99162" lon="0.90455">
        <ele>443.935</ele>
        <time>2014-03-14T12:37:34Z</time>
      </trkpt>
      <trkpt lat="42.99162" lon="0.90456">
        <ele>443.95</ele>
        <time>2014-03-14T12:37:36Z</time>
      </trkpt>
      <trkpt lat="42.99162" lon="0.90456">
        <ele>443.956</ele>
        <time>2014-03-14T12:37:37Z</time>
      </trkpt>
    </trkseg>
  </trk>
</gpx>